<?xml version="1.0" encoding="UTF-8" standalone="no" ?>
<gpx xmlns="http://www.topografix.com/GPX/1/1" xmlns:xsi="http://www.w3.org/2001/XMLSchema-instance" xsi:schemaLocation="http://www.topografix.com/GPX/1/1 http://www.topografix.com/GPX/1/1/gpx.xsd" version="1.1" creator="VisuGPX - https://www.visugpx.com">
  <metadata>
    <name>Rando du lundi 09/12/13</name>
    <desc><![CDATA[Rando du lundi 09/12/13]]></desc>
  </metadata>
  <trk>
    <name><![CDATA[2 Place du Châtelet]]></name>
    <desc><![CDATA[]]></desc>
    <trkseg>
      <trkpt lat="48.85752" lon="2.34779">
        <ele>73</ele>
        <time>2013-12-09T19:21:15.785Z</time>
      </trkpt>
      <trkpt lat="48.85752" lon="2.34779">
        <ele>73</ele>
        <time>2013-12-09T19:21:19.864Z</time>
      </trkpt>
      <trkpt lat="48.85741" lon="2.34712">
        <ele>114</ele>
        <time>2013-12-09T19:21:20.020Z</time>
      </trkpt>
      <trkpt lat="48.85749" lon="2.34714">
        <ele>83</ele>
        <time>2013-12-09T19:21:37.045Z</time>
      </trkpt>
      <trkpt lat="48.85754" lon="2.34718">
        <ele>83</ele>
        <time>2013-12-09T19:21:38.049Z</time>
      </trkpt>
      <trkpt lat="48.85759" lon="2.34722">
        <ele>82</ele>
        <time>2013-12-09T19:21:39.802Z</time>
      </trkpt>
      <trkpt lat="48.85764" lon="2.34724">
        <ele>80</ele>
        <time>2013-12-09T19:21:40.013Z</time>
      </trkpt>
      <trkpt lat="48.85772" lon="2.34728">
        <ele>72</ele>
        <time>2013-12-09T19:21:42.431Z</time>
      </trkpt>
      <trkpt lat="48.85774" lon="2.34727">
        <ele>71</ele>
        <time>2013-12-09T19:21:43.432Z</time>
      </trkpt>
      <trkpt lat="48.85781" lon="2.3473">
        <ele>74</ele>
        <time>2013-12-09T19:21:46.235Z</time>
      </trkpt>
      <trkpt lat="48.85784" lon="2.34729">
        <ele>74</ele>
        <time>2013-12-09T19:21:47.232Z</time>
      </trkpt>
      <trkpt lat="48.8579" lon="2.34725">
        <ele>75</ele>
        <time>2013-12-09T19:21:49.807Z</time>
      </trkpt>
      <trkpt lat="48.85793" lon="2.34721">
        <ele>74</ele>
        <time>2013-12-09T19:21:50.144Z</time>
      </trkpt>
      <trkpt lat="48.85798" lon="2.34713">
        <ele>75</ele>
        <time>2013-12-09T19:21:52.174Z</time>
      </trkpt>
      <trkpt lat="48.85799" lon="2.34707">
        <ele>75</ele>
        <time>2013-12-09T19:21:53.479Z</time>
      </trkpt>
      <trkpt lat="48.858" lon="2.34701">
        <ele>75</ele>
        <time>2013-12-09T19:21:54.837Z</time>
      </trkpt>
      <trkpt lat="48.858" lon="2.34692">
        <ele>73</ele>
        <time>2013-12-09T19:21:55.239Z</time>
      </trkpt>
      <trkpt lat="48.85797" lon="2.34676">
        <ele>74</ele>
        <time>2013-12-09T19:21:56.917Z</time>
      </trkpt>
      <trkpt lat="48.85794" lon="2.34666">
        <ele>73</ele>
        <time>2013-12-09T19:21:57.540Z</time>
      </trkpt>
      <trkpt lat="48.85794" lon="2.34659">
        <ele>73</ele>
        <time>2013-12-09T19:21:58.235Z</time>
      </trkpt>
      <trkpt lat="48.85794" lon="2.34652">
        <ele>73</ele>
        <time>2013-12-09T19:21:59.851Z</time>
      </trkpt>
      <trkpt lat="48.85796" lon="2.34644">
        <ele>71</ele>
        <time>2013-12-09T19:22:00.255Z</time>
      </trkpt>
      <trkpt lat="48.85798" lon="2.34634">
        <ele>66</ele>
        <time>2013-12-09T19:22:02.263Z</time>
      </trkpt>
      <trkpt lat="48.85798" lon="2.34628">
        <ele>67</ele>
        <time>2013-12-09T19:22:03.166Z</time>
      </trkpt>
      <trkpt lat="48.85803" lon="2.34621">
        <ele>67</ele>
        <time>2013-12-09T19:22:05.136Z</time>
      </trkpt>
      <trkpt lat="48.85809" lon="2.3462">
        <ele>67</ele>
        <time>2013-12-09T19:22:06.167Z</time>
      </trkpt>
      <trkpt lat="48.85813" lon="2.34617">
        <ele>68</ele>
        <time>2013-12-09T19:22:07.243Z</time>
      </trkpt>
      <trkpt lat="48.85817" lon="2.34614">
        <ele>67</ele>
        <time>2013-12-09T19:22:08.247Z</time>
      </trkpt>
      <trkpt lat="48.85821" lon="2.34606">
        <ele>67</ele>
        <time>2013-12-09T19:22:10.247Z</time>
      </trkpt>
      <trkpt lat="48.85822" lon="2.34599">
        <ele>67</ele>
        <time>2013-12-09T19:22:11.235Z</time>
      </trkpt>
      <trkpt lat="48.85829" lon="2.34598">
        <ele>69</ele>
        <time>2013-12-09T19:22:19.894Z</time>
      </trkpt>
      <trkpt lat="48.85832" lon="2.34601">
        <ele>68</ele>
        <time>2013-12-09T19:22:20.247Z</time>
      </trkpt>
      <trkpt lat="48.85838" lon="2.34608">
        <ele>68</ele>
        <time>2013-12-09T19:22:23.233Z</time>
      </trkpt>
      <trkpt lat="48.85839" lon="2.3461">
        <ele>68</ele>
        <time>2013-12-09T19:22:24.178Z</time>
      </trkpt>
      <trkpt lat="48.85846" lon="2.34605">
        <ele>60</ele>
        <time>2013-12-09T19:22:30.227Z</time>
      </trkpt>
      <trkpt lat="48.85849" lon="2.34602">
        <ele>60</ele>
        <time>2013-12-09T19:22:31.241Z</time>
      </trkpt>
      <trkpt lat="48.85853" lon="2.34596">
        <ele>58</ele>
        <time>2013-12-09T19:22:33.193Z</time>
      </trkpt>
      <trkpt lat="48.85856" lon="2.34592">
        <ele>58</ele>
        <time>2013-12-09T19:22:34.164Z</time>
      </trkpt>
      <trkpt lat="48.8586" lon="2.34583">
        <ele>57</ele>
        <time>2013-12-09T19:22:36.171Z</time>
      </trkpt>
      <trkpt lat="48.85863" lon="2.34579">
        <ele>58</ele>
        <time>2013-12-09T19:22:37.138Z</time>
      </trkpt>
      <trkpt lat="48.85865" lon="2.34573">
        <ele>57</ele>
        <time>2013-12-09T19:22:38.151Z</time>
      </trkpt>
      <trkpt lat="48.85868" lon="2.34567">
        <ele>57</ele>
        <time>2013-12-09T19:22:39.195Z</time>
      </trkpt>
      <trkpt lat="48.8587" lon="2.34561">
        <ele>56</ele>
        <time>2013-12-09T19:22:40.174Z</time>
      </trkpt>
      <trkpt lat="48.85873" lon="2.34554">
        <ele>57</ele>
        <time>2013-12-09T19:22:41.175Z</time>
      </trkpt>
      <trkpt lat="48.85876" lon="2.34548">
        <ele>57</ele>
        <time>2013-12-09T19:22:42.231Z</time>
      </trkpt>
      <trkpt lat="48.85878" lon="2.34542">
        <ele>56</ele>
        <time>2013-12-09T19:22:43.149Z</time>
      </trkpt>
      <trkpt lat="48.8588" lon="2.34535">
        <ele>57</ele>
        <time>2013-12-09T19:22:44.208Z</time>
      </trkpt>
      <trkpt lat="48.85882" lon="2.34529">
        <ele>57</ele>
        <time>2013-12-09T19:22:45.178Z</time>
      </trkpt>
      <trkpt lat="48.85882" lon="2.34521">
        <ele>57</ele>
        <time>2013-12-09T19:22:46.602Z</time>
      </trkpt>
      <trkpt lat="48.8588" lon="2.34508">
        <ele>57</ele>
        <time>2013-12-09T19:22:47.175Z</time>
      </trkpt>
      <trkpt lat="48.85879" lon="2.34495">
        <ele>59</ele>
        <time>2013-12-09T19:22:51.130Z</time>
      </trkpt>
      <trkpt lat="48.85877" lon="2.34494">
        <ele>59</ele>
        <time>2013-12-09T19:22:52.235Z</time>
      </trkpt>
      <trkpt lat="48.85869" lon="2.34488">
        <ele>56</ele>
        <time>2013-12-09T19:22:56.069Z</time>
      </trkpt>
      <trkpt lat="48.85865" lon="2.34487">
        <ele>56</ele>
        <time>2013-12-09T19:22:56.137Z</time>
      </trkpt>
      <trkpt lat="48.85859" lon="2.34485">
        <ele>55</ele>
        <time>2013-12-09T19:22:57.168Z</time>
      </trkpt>
      <trkpt lat="48.85854" lon="2.34482">
        <ele>55</ele>
        <time>2013-12-09T19:22:58.293Z</time>
      </trkpt>
      <trkpt lat="48.85849" lon="2.3448">
        <ele>55</ele>
        <time>2013-12-09T19:22:59.217Z</time>
      </trkpt>
      <trkpt lat="48.85844" lon="2.34477">
        <ele>57</ele>
        <time>2013-12-09T19:23:00.567Z</time>
      </trkpt>
      <trkpt lat="48.85837" lon="2.34474">
        <ele>62</ele>
        <time>2013-12-09T19:23:02.242Z</time>
      </trkpt>
      <trkpt lat="48.85834" lon="2.34471">
        <ele>62</ele>
        <time>2013-12-09T19:23:03.181Z</time>
      </trkpt>
      <trkpt lat="48.85828" lon="2.34465">
        <ele>64</ele>
        <time>2013-12-09T19:23:05.163Z</time>
      </trkpt>
      <trkpt lat="48.85825" lon="2.34462">
        <ele>66</ele>
        <time>2013-12-09T19:23:06.231Z</time>
      </trkpt>
      <trkpt lat="48.85819" lon="2.34459">
        <ele>71</ele>
        <time>2013-12-09T19:23:08.179Z</time>
      </trkpt>
      <trkpt lat="48.85816" lon="2.34458">
        <ele>74</ele>
        <time>2013-12-09T19:23:09.175Z</time>
      </trkpt>
      <trkpt lat="48.8581" lon="2.34454">
        <ele>75</ele>
        <time>2013-12-09T19:23:11.562Z</time>
      </trkpt>
      <trkpt lat="48.85807" lon="2.34452">
        <ele>74</ele>
        <time>2013-12-09T19:23:12.147Z</time>
      </trkpt>
      <trkpt lat="48.858" lon="2.34445">
        <ele>80</ele>
        <time>2013-12-09T19:23:15.261Z</time>
      </trkpt>
      <trkpt lat="48.85799" lon="2.34442">
        <ele>78</ele>
        <time>2013-12-09T19:23:16.149Z</time>
      </trkpt>
      <trkpt lat="48.858" lon="2.34429">
        <ele>78</ele>
        <time>2013-12-09T19:23:19.255Z</time>
      </trkpt>
      <trkpt lat="48.85802" lon="2.34424">
        <ele>75</ele>
        <time>2013-12-09T19:23:20.149Z</time>
      </trkpt>
      <trkpt lat="48.85808" lon="2.34416">
        <ele>73</ele>
        <time>2013-12-09T19:23:22.250Z</time>
      </trkpt>
      <trkpt lat="48.85812" lon="2.34412">
        <ele>71</ele>
        <time>2013-12-09T19:23:23.171Z</time>
      </trkpt>
      <trkpt lat="48.85818" lon="2.34405">
        <ele>72</ele>
        <time>2013-12-09T19:23:25.169Z</time>
      </trkpt>
      <trkpt lat="48.85821" lon="2.34401">
        <ele>73</ele>
        <time>2013-12-09T19:23:26.245Z</time>
      </trkpt>
      <trkpt lat="48.85825" lon="2.34394">
        <ele>72</ele>
        <time>2013-12-09T19:23:28.145Z</time>
      </trkpt>
      <trkpt lat="48.85827" lon="2.3439">
        <ele>71</ele>
        <time>2013-12-09T19:23:29.172Z</time>
      </trkpt>
      <trkpt lat="48.85831" lon="2.34379">
        <ele>71</ele>
        <time>2013-12-09T19:23:31.235Z</time>
      </trkpt>
      <trkpt lat="48.85833" lon="2.34374">
        <ele>70</ele>
        <time>2013-12-09T19:23:32.233Z</time>
      </trkpt>
      <trkpt lat="48.85837" lon="2.34363">
        <ele>63</ele>
        <time>2013-12-09T19:23:36.081Z</time>
      </trkpt>
      <trkpt lat="48.85839" lon="2.3436">
        <ele>64</ele>
        <time>2013-12-09T19:23:36.167Z</time>
      </trkpt>
      <trkpt lat="48.85844" lon="2.34351">
        <ele>65</ele>
        <time>2013-12-09T19:23:39.270Z</time>
      </trkpt>
      <trkpt lat="48.85845" lon="2.34346">
        <ele>64</ele>
        <time>2013-12-09T19:23:40.234Z</time>
      </trkpt>
      <trkpt lat="48.85847" lon="2.34336">
        <ele>64</ele>
        <time>2013-12-09T19:23:43.467Z</time>
      </trkpt>
      <trkpt lat="48.85848" lon="2.34332">
        <ele>65</ele>
        <time>2013-12-09T19:23:43.573Z</time>
      </trkpt>
      <trkpt lat="48.8585" lon="2.34323">
        <ele>66</ele>
        <time>2013-12-09T19:23:45.607Z</time>
      </trkpt>
      <trkpt lat="48.85851" lon="2.34318">
        <ele>65</ele>
        <time>2013-12-09T19:23:46.607Z</time>
      </trkpt>
      <trkpt lat="48.85854" lon="2.34308">
        <ele>64</ele>
        <time>2013-12-09T19:23:48.631Z</time>
      </trkpt>
      <trkpt lat="48.85855" lon="2.34303">
        <ele>62</ele>
        <time>2013-12-09T19:23:49.567Z</time>
      </trkpt>
      <trkpt lat="48.8586" lon="2.34292">
        <ele>63</ele>
        <time>2013-12-09T19:23:52.199Z</time>
      </trkpt>
      <trkpt lat="48.85861" lon="2.34289">
        <ele>63</ele>
        <time>2013-12-09T19:23:53.176Z</time>
      </trkpt>
      <trkpt lat="48.85862" lon="2.34276">
        <ele>68</ele>
        <time>2013-12-09T19:23:57.157Z</time>
      </trkpt>
      <trkpt lat="48.85861" lon="2.34271">
        <ele>68</ele>
        <time>2013-12-09T19:23:58.185Z</time>
      </trkpt>
      <trkpt lat="48.85861" lon="2.3426">
        <ele>67</ele>
        <time>2013-12-09T19:24:01.180Z</time>
      </trkpt>
      <trkpt lat="48.85861" lon="2.34256">
        <ele>68</ele>
        <time>2013-12-09T19:24:02.231Z</time>
      </trkpt>
      <trkpt lat="48.85865" lon="2.34246">
        <ele>67</ele>
        <time>2013-12-09T19:24:11.240Z</time>
      </trkpt>
      <trkpt lat="48.85865" lon="2.34246">
        <ele>67</ele>
        <time>2013-12-09T19:24:12.231Z</time>
      </trkpt>
      <trkpt lat="48.85864" lon="2.34247">
        <ele>68</ele>
        <time>2013-12-09T19:24:13.697Z</time>
      </trkpt>
      <trkpt lat="48.85864" lon="2.34246">
        <ele>68</ele>
        <time>2013-12-09T19:24:15.269Z</time>
      </trkpt>
      <trkpt lat="48.85863" lon="2.34246">
        <ele>68</ele>
        <time>2013-12-09T19:24:18.719Z</time>
      </trkpt>
      <trkpt lat="48.85863" lon="2.34246">
        <ele>68</ele>
        <time>2013-12-09T19:24:19.247Z</time>
      </trkpt>
      <trkpt lat="48.85863" lon="2.34247">
        <ele>68</ele>
        <time>2013-12-09T19:24:53.838Z</time>
      </trkpt>
      <trkpt lat="48.85864" lon="2.34249">
        <ele>68</ele>
        <time>2013-12-09T19:24:54.156Z</time>
      </trkpt>
      <trkpt lat="48.85866" lon="2.34256">
        <ele>69</ele>
        <time>2013-12-09T19:24:56.620Z</time>
      </trkpt>
      <trkpt lat="48.85867" lon="2.34263">
        <ele>70</ele>
        <time>2013-12-09T19:24:57.157Z</time>
      </trkpt>
      <trkpt lat="48.85869" lon="2.3427">
        <ele>70</ele>
        <time>2013-12-09T19:24:58.155Z</time>
      </trkpt>
      <trkpt lat="48.85871" lon="2.34278">
        <ele>70</ele>
        <time>2013-12-09T19:24:59.180Z</time>
      </trkpt>
      <trkpt lat="48.85873" lon="2.34285">
        <ele>71</ele>
        <time>2013-12-09T19:25:00.148Z</time>
      </trkpt>
      <trkpt lat="48.85875" lon="2.34291">
        <ele>69</ele>
        <time>2013-12-09T19:25:01.178Z</time>
      </trkpt>
      <trkpt lat="48.8588" lon="2.34298">
        <ele>62</ele>
        <time>2013-12-09T19:25:03.159Z</time>
      </trkpt>
      <trkpt lat="48.85883" lon="2.34299">
        <ele>62</ele>
        <time>2013-12-09T19:25:04.171Z</time>
      </trkpt>
      <trkpt lat="48.85891" lon="2.34298">
        <ele>60</ele>
        <time>2013-12-09T19:25:08.144Z</time>
      </trkpt>
      <trkpt lat="48.85893" lon="2.34298">
        <ele>60</ele>
        <time>2013-12-09T19:25:09.146Z</time>
      </trkpt>
      <trkpt lat="48.85901" lon="2.343">
        <ele>57</ele>
        <time>2013-12-09T19:25:14.182Z</time>
      </trkpt>
      <trkpt lat="48.85902" lon="2.34302">
        <ele>56</ele>
        <time>2013-12-09T19:25:15.183Z</time>
      </trkpt>
      <trkpt lat="48.85911" lon="2.34306">
        <ele>53</ele>
        <time>2013-12-09T19:25:19.233Z</time>
      </trkpt>
      <trkpt lat="48.85914" lon="2.34307">
        <ele>53</ele>
        <time>2013-12-09T19:25:20.756Z</time>
      </trkpt>
      <trkpt lat="48.8592" lon="2.34309">
        <ele>53</ele>
        <time>2013-12-09T19:25:23.234Z</time>
      </trkpt>
      <trkpt lat="48.85923" lon="2.34309">
        <ele>53</ele>
        <time>2013-12-09T19:25:24.231Z</time>
      </trkpt>
      <trkpt lat="48.85929" lon="2.34311">
        <ele>56</ele>
        <time>2013-12-09T19:25:26.705Z</time>
      </trkpt>
      <trkpt lat="48.85932" lon="2.34312">
        <ele>57</ele>
        <time>2013-12-09T19:25:27.230Z</time>
      </trkpt>
      <trkpt lat="48.85938" lon="2.34316">
        <ele>57</ele>
        <time>2013-12-09T19:25:29.235Z</time>
      </trkpt>
      <trkpt lat="48.85941" lon="2.34319">
        <ele>57</ele>
        <time>2013-12-09T19:25:30.237Z</time>
      </trkpt>
      <trkpt lat="48.85948" lon="2.34323">
        <ele>57</ele>
        <time>2013-12-09T19:25:33.244Z</time>
      </trkpt>
      <trkpt lat="48.8595" lon="2.34324">
        <ele>55</ele>
        <time>2013-12-09T19:25:34.235Z</time>
      </trkpt>
      <trkpt lat="48.85957" lon="2.34328">
        <ele>48</ele>
        <time>2013-12-09T19:25:39.234Z</time>
      </trkpt>
      <trkpt lat="48.85959" lon="2.3433">
        <ele>47</ele>
        <time>2013-12-09T19:25:40.236Z</time>
      </trkpt>
      <trkpt lat="48.85967" lon="2.34333">
        <ele>46</ele>
        <time>2013-12-09T19:25:44.231Z</time>
      </trkpt>
      <trkpt lat="48.8597" lon="2.34334">
        <ele>47</ele>
        <time>2013-12-09T19:25:45.934Z</time>
      </trkpt>
      <trkpt lat="48.85977" lon="2.34334">
        <ele>50</ele>
        <time>2013-12-09T19:25:48.238Z</time>
      </trkpt>
      <trkpt lat="48.8598" lon="2.34334">
        <ele>52</ele>
        <time>2013-12-09T19:25:49.234Z</time>
      </trkpt>
      <trkpt lat="48.85988" lon="2.3433">
        <ele>56</ele>
        <time>2013-12-09T19:25:51.958Z</time>
      </trkpt>
      <trkpt lat="48.85992" lon="2.34326">
        <ele>56</ele>
        <time>2013-12-09T19:25:52.273Z</time>
      </trkpt>
      <trkpt lat="48.85999" lon="2.34317">
        <ele>57</ele>
        <time>2013-12-09T19:25:54.230Z</time>
      </trkpt>
      <trkpt lat="48.86001" lon="2.34311">
        <ele>58</ele>
        <time>2013-12-09T19:25:55.230Z</time>
      </trkpt>
      <trkpt lat="48.86006" lon="2.343">
        <ele>59</ele>
        <time>2013-12-09T19:25:57.249Z</time>
      </trkpt>
      <trkpt lat="48.86007" lon="2.34294">
        <ele>60</ele>
        <time>2013-12-09T19:25:58.230Z</time>
      </trkpt>
      <trkpt lat="48.8601" lon="2.34281">
        <ele>63</ele>
        <time>2013-12-09T19:26:00.257Z</time>
      </trkpt>
      <trkpt lat="48.86012" lon="2.34275">
        <ele>64</ele>
        <time>2013-12-09T19:26:01.180Z</time>
      </trkpt>
      <trkpt lat="48.86014" lon="2.34265">
        <ele>65</ele>
        <time>2013-12-09T19:26:03.177Z</time>
      </trkpt>
      <trkpt lat="48.86016" lon="2.3426">
        <ele>66</ele>
        <time>2013-12-09T19:26:04.242Z</time>
      </trkpt>
      <trkpt lat="48.86019" lon="2.34252">
        <ele>69</ele>
        <time>2013-12-09T19:26:06.173Z</time>
      </trkpt>
      <trkpt lat="48.8602" lon="2.34248">
        <ele>69</ele>
        <time>2013-12-09T19:26:07.148Z</time>
      </trkpt>
      <trkpt lat="48.86022" lon="2.34243">
        <ele>72</ele>
        <time>2013-12-09T19:26:08.169Z</time>
      </trkpt>
      <trkpt lat="48.86028" lon="2.34232">
        <ele>73</ele>
        <time>2013-12-09T19:26:10.262Z</time>
      </trkpt>
      <trkpt lat="48.86031" lon="2.34227">
        <ele>72</ele>
        <time>2013-12-09T19:26:11.142Z</time>
      </trkpt>
      <trkpt lat="48.86035" lon="2.34222">
        <ele>69</ele>
        <time>2013-12-09T19:26:12.204Z</time>
      </trkpt>
      <trkpt lat="48.86038" lon="2.34216">
        <ele>69</ele>
        <time>2013-12-09T19:26:13.167Z</time>
      </trkpt>
      <trkpt lat="48.86041" lon="2.34208">
        <ele>67</ele>
        <time>2013-12-09T19:26:14.168Z</time>
      </trkpt>
      <trkpt lat="48.86044" lon="2.34201">
        <ele>68</ele>
        <time>2013-12-09T19:26:15.169Z</time>
      </trkpt>
      <trkpt lat="48.86046" lon="2.34193">
        <ele>68</ele>
        <time>2013-12-09T19:26:16.140Z</time>
      </trkpt>
      <trkpt lat="48.86047" lon="2.34184">
        <ele>68</ele>
        <time>2013-12-09T19:26:17.138Z</time>
      </trkpt>
      <trkpt lat="48.8605" lon="2.34177">
        <ele>68</ele>
        <time>2013-12-09T19:26:18.138Z</time>
      </trkpt>
      <trkpt lat="48.86053" lon="2.34171">
        <ele>68</ele>
        <time>2013-12-09T19:26:20.014Z</time>
      </trkpt>
      <trkpt lat="48.86055" lon="2.34165">
        <ele>68</ele>
        <time>2013-12-09T19:26:20.137Z</time>
      </trkpt>
      <trkpt lat="48.86058" lon="2.34158">
        <ele>68</ele>
        <time>2013-12-09T19:26:21.167Z</time>
      </trkpt>
      <trkpt lat="48.8606" lon="2.34152">
        <ele>68</ele>
        <time>2013-12-09T19:26:22.236Z</time>
      </trkpt>
      <trkpt lat="48.86063" lon="2.34144">
        <ele>69</ele>
        <time>2013-12-09T19:26:23.378Z</time>
      </trkpt>
      <trkpt lat="48.86066" lon="2.34138">
        <ele>68</ele>
        <time>2013-12-09T19:26:24.466Z</time>
      </trkpt>
      <trkpt lat="48.86068" lon="2.34132">
        <ele>69</ele>
        <time>2013-12-09T19:26:25.305Z</time>
      </trkpt>
      <trkpt lat="48.8607" lon="2.34126">
        <ele>69</ele>
        <time>2013-12-09T19:26:26.236Z</time>
      </trkpt>
      <trkpt lat="48.86074" lon="2.34119">
        <ele>69</ele>
        <time>2013-12-09T19:26:27.234Z</time>
      </trkpt>
      <trkpt lat="48.86076" lon="2.34113">
        <ele>69</ele>
        <time>2013-12-09T19:26:28.246Z</time>
      </trkpt>
      <trkpt lat="48.86078" lon="2.34106">
        <ele>70</ele>
        <time>2013-12-09T19:26:29.148Z</time>
      </trkpt>
      <trkpt lat="48.8608" lon="2.341">
        <ele>69</ele>
        <time>2013-12-09T19:26:30.123Z</time>
      </trkpt>
      <trkpt lat="48.86085" lon="2.34089">
        <ele>68</ele>
        <time>2013-12-09T19:26:32.407Z</time>
      </trkpt>
      <trkpt lat="48.86088" lon="2.34084">
        <ele>69</ele>
        <time>2013-12-09T19:26:33.148Z</time>
      </trkpt>
      <trkpt lat="48.86092" lon="2.34074">
        <ele>69</ele>
        <time>2013-12-09T19:26:35.121Z</time>
      </trkpt>
      <trkpt lat="48.86094" lon="2.34069">
        <ele>68</ele>
        <time>2013-12-09T19:26:36.118Z</time>
      </trkpt>
      <trkpt lat="48.86096" lon="2.34063">
        <ele>68</ele>
        <time>2013-12-09T19:26:37.120Z</time>
      </trkpt>
      <trkpt lat="48.86099" lon="2.34057">
        <ele>69</ele>
        <time>2013-12-09T19:26:38.146Z</time>
      </trkpt>
      <trkpt lat="48.86102" lon="2.3405">
        <ele>70</ele>
        <time>2013-12-09T19:26:40.090Z</time>
      </trkpt>
      <trkpt lat="48.86105" lon="2.34046">
        <ele>69</ele>
        <time>2013-12-09T19:26:40.124Z</time>
      </trkpt>
      <trkpt lat="48.86109" lon="2.34034">
        <ele>71</ele>
        <time>2013-12-09T19:26:42.268Z</time>
      </trkpt>
      <trkpt lat="48.86109" lon="2.34027">
        <ele>71</ele>
        <time>2013-12-09T19:26:43.171Z</time>
      </trkpt>
      <trkpt lat="48.8611" lon="2.34014">
        <ele>72</ele>
        <time>2013-12-09T19:26:45.156Z</time>
      </trkpt>
      <trkpt lat="48.86112" lon="2.34009">
        <ele>71</ele>
        <time>2013-12-09T19:26:46.231Z</time>
      </trkpt>
      <trkpt lat="48.86117" lon="2.33999">
        <ele>71</ele>
        <time>2013-12-09T19:26:48.243Z</time>
      </trkpt>
      <trkpt lat="48.86117" lon="2.33991">
        <ele>72</ele>
        <time>2013-12-09T19:26:49.151Z</time>
      </trkpt>
      <trkpt lat="48.86119" lon="2.33985">
        <ele>72</ele>
        <time>2013-12-09T19:26:50.150Z</time>
      </trkpt>
      <trkpt lat="48.86121" lon="2.33978">
        <ele>72</ele>
        <time>2013-12-09T19:26:51.174Z</time>
      </trkpt>
      <trkpt lat="48.86123" lon="2.3397">
        <ele>72</ele>
        <time>2013-12-09T19:26:52.405Z</time>
      </trkpt>
      <trkpt lat="48.86125" lon="2.33962">
        <ele>72</ele>
        <time>2013-12-09T19:26:53.175Z</time>
      </trkpt>
      <trkpt lat="48.86129" lon="2.33954">
        <ele>71</ele>
        <time>2013-12-09T19:26:54.214Z</time>
      </trkpt>
      <trkpt lat="48.86131" lon="2.33947">
        <ele>72</ele>
        <time>2013-12-09T19:26:55.170Z</time>
      </trkpt>
      <trkpt lat="48.86134" lon="2.33938">
        <ele>72</ele>
        <time>2013-12-09T19:26:56.304Z</time>
      </trkpt>
      <trkpt lat="48.86137" lon="2.33931">
        <ele>72</ele>
        <time>2013-12-09T19:26:57.309Z</time>
      </trkpt>
      <trkpt lat="48.86139" lon="2.33925">
        <ele>72</ele>
        <time>2013-12-09T19:26:58.236Z</time>
      </trkpt>
      <trkpt lat="48.86142" lon="2.33917">
        <ele>71</ele>
        <time>2013-12-09T19:26:59.177Z</time>
      </trkpt>
      <trkpt lat="48.86146" lon="2.3391">
        <ele>71</ele>
        <time>2013-12-09T19:27:00.147Z</time>
      </trkpt>
      <trkpt lat="48.86149" lon="2.33903">
        <ele>71</ele>
        <time>2013-12-09T19:27:01.240Z</time>
      </trkpt>
      <trkpt lat="48.86153" lon="2.33897">
        <ele>71</ele>
        <time>2013-12-09T19:27:02.234Z</time>
      </trkpt>
      <trkpt lat="48.86156" lon="2.33889">
        <ele>72</ele>
        <time>2013-12-09T19:27:03.242Z</time>
      </trkpt>
      <trkpt lat="48.86157" lon="2.33882">
        <ele>72</ele>
        <time>2013-12-09T19:27:05.193Z</time>
      </trkpt>
      <trkpt lat="48.8616" lon="2.33865">
        <ele>71</ele>
        <time>2013-12-09T19:27:06.177Z</time>
      </trkpt>
      <trkpt lat="48.86162" lon="2.33858">
        <ele>72</ele>
        <time>2013-12-09T19:27:07.236Z</time>
      </trkpt>
      <trkpt lat="48.86165" lon="2.33851">
        <ele>73</ele>
        <time>2013-12-09T19:27:08.229Z</time>
      </trkpt>
      <trkpt lat="48.86167" lon="2.33843">
        <ele>72</ele>
        <time>2013-12-09T19:27:09.154Z</time>
      </trkpt>
      <trkpt lat="48.86169" lon="2.33835">
        <ele>73</ele>
        <time>2013-12-09T19:27:10.184Z</time>
      </trkpt>
      <trkpt lat="48.86171" lon="2.33826">
        <ele>73</ele>
        <time>2013-12-09T19:27:11.182Z</time>
      </trkpt>
      <trkpt lat="48.86172" lon="2.33818">
        <ele>74</ele>
        <time>2013-12-09T19:27:12.184Z</time>
      </trkpt>
      <trkpt lat="48.86174" lon="2.3381">
        <ele>74</ele>
        <time>2013-12-09T19:27:13.183Z</time>
      </trkpt>
      <trkpt lat="48.86175" lon="2.338">
        <ele>73</ele>
        <time>2013-12-09T19:27:14.270Z</time>
      </trkpt>
      <trkpt lat="48.86177" lon="2.33793">
        <ele>74</ele>
        <time>2013-12-09T19:27:15.221Z</time>
      </trkpt>
      <trkpt lat="48.86178" lon="2.33785">
        <ele>73</ele>
        <time>2013-12-09T19:27:16.230Z</time>
      </trkpt>
      <trkpt lat="48.86179" lon="2.33776">
        <ele>74</ele>
        <time>2013-12-09T19:27:17.230Z</time>
      </trkpt>
      <trkpt lat="48.86179" lon="2.33766">
        <ele>74</ele>
        <time>2013-12-09T19:27:18.167Z</time>
      </trkpt>
      <trkpt lat="48.8618" lon="2.33754">
        <ele>74</ele>
        <time>2013-12-09T19:27:19.362Z</time>
      </trkpt>
      <trkpt lat="48.86181" lon="2.33744">
        <ele>75</ele>
        <time>2013-12-09T19:27:20.166Z</time>
      </trkpt>
      <trkpt lat="48.86189" lon="2.3374">
        <ele>76</ele>
        <time>2013-12-09T19:27:22.232Z</time>
      </trkpt>
      <trkpt lat="48.86192" lon="2.33736">
        <ele>75</ele>
        <time>2013-12-09T19:27:23.228Z</time>
      </trkpt>
      <trkpt lat="48.86197" lon="2.33734">
        <ele>74</ele>
        <time>2013-12-09T19:27:24.151Z</time>
      </trkpt>
      <trkpt lat="48.86201" lon="2.33731">
        <ele>75</ele>
        <time>2013-12-09T19:27:25.169Z</time>
      </trkpt>
      <trkpt lat="48.86202" lon="2.33723">
        <ele>73</ele>
        <time>2013-12-09T19:27:26.137Z</time>
      </trkpt>
      <trkpt lat="48.86204" lon="2.33715">
        <ele>75</ele>
        <time>2013-12-09T19:27:27.243Z</time>
      </trkpt>
      <trkpt lat="48.86204" lon="2.33707">
        <ele>75</ele>
        <time>2013-12-09T19:27:28.231Z</time>
      </trkpt>
      <trkpt lat="48.86206" lon="2.33701">
        <ele>73</ele>
        <time>2013-12-09T19:27:29.176Z</time>
      </trkpt>
      <trkpt lat="48.86208" lon="2.33695">
        <ele>72</ele>
        <time>2013-12-09T19:27:30.227Z</time>
      </trkpt>
      <trkpt lat="48.86209" lon="2.33688">
        <ele>72</ele>
        <time>2013-12-09T19:27:31.149Z</time>
      </trkpt>
      <trkpt lat="48.86213" lon="2.33677">
        <ele>72</ele>
        <time>2013-12-09T19:27:33.237Z</time>
      </trkpt>
      <trkpt lat="48.86215" lon="2.33674">
        <ele>72</ele>
        <time>2013-12-09T19:27:34.144Z</time>
      </trkpt>
      <trkpt lat="48.86222" lon="2.33666">
        <ele>75</ele>
        <time>2013-12-09T19:27:37.233Z</time>
      </trkpt>
      <trkpt lat="48.86223" lon="2.33663">
        <ele>75</ele>
        <time>2013-12-09T19:27:38.910Z</time>
      </trkpt>
      <trkpt lat="48.86232" lon="2.33662">
        <ele>73</ele>
        <time>2013-12-09T19:27:43.258Z</time>
      </trkpt>
      <trkpt lat="48.86234" lon="2.33663">
        <ele>72</ele>
        <time>2013-12-09T19:27:44.433Z</time>
      </trkpt>
      <trkpt lat="48.86242" lon="2.33668">
        <ele>72</ele>
        <time>2013-12-09T19:27:47.176Z</time>
      </trkpt>
      <trkpt lat="48.86245" lon="2.3367">
        <ele>72</ele>
        <time>2013-12-09T19:27:48.177Z</time>
      </trkpt>
      <trkpt lat="48.86249" lon="2.33673">
        <ele>73</ele>
        <time>2013-12-09T19:27:49.230Z</time>
      </trkpt>
      <trkpt lat="48.86253" lon="2.33676">
        <ele>75</ele>
        <time>2013-12-09T19:27:50.234Z</time>
      </trkpt>
      <trkpt lat="48.86251" lon="2.33679">
        <ele>74</ele>
        <time>2013-12-09T19:28:04.235Z</time>
      </trkpt>
      <trkpt lat="48.86252" lon="2.33679">
        <ele>73</ele>
        <time>2013-12-09T19:28:05.235Z</time>
      </trkpt>
      <trkpt lat="48.86252" lon="2.3368">
        <ele>73</ele>
        <time>2013-12-09T19:28:27.231Z</time>
      </trkpt>
      <trkpt lat="48.86253" lon="2.33682">
        <ele>77</ele>
        <time>2013-12-09T19:28:28.123Z</time>
      </trkpt>
      <trkpt lat="48.86254" lon="2.33696">
        <ele>79</ele>
        <time>2013-12-09T19:28:31.230Z</time>
      </trkpt>
      <trkpt lat="48.86254" lon="2.33701">
        <ele>78</ele>
        <time>2013-12-09T19:28:32.252Z</time>
      </trkpt>
      <trkpt lat="48.86256" lon="2.33707">
        <ele>78</ele>
        <time>2013-12-09T19:28:33.494Z</time>
      </trkpt>
      <trkpt lat="48.86258" lon="2.33714">
        <ele>78</ele>
        <time>2013-12-09T19:28:34.240Z</time>
      </trkpt>
      <trkpt lat="48.86261" lon="2.33721">
        <ele>78</ele>
        <time>2013-12-09T19:28:35.235Z</time>
      </trkpt>
      <trkpt lat="48.86267" lon="2.33728">
        <ele>79</ele>
        <time>2013-12-09T19:28:36.236Z</time>
      </trkpt>
      <trkpt lat="48.86273" lon="2.33733">
        <ele>78</ele>
        <time>2013-12-09T19:28:37.233Z</time>
      </trkpt>
      <trkpt lat="48.8628" lon="2.33737">
        <ele>79</ele>
        <time>2013-12-09T19:28:38.164Z</time>
      </trkpt>
      <trkpt lat="48.86289" lon="2.33741">
        <ele>77</ele>
        <time>2013-12-09T19:28:39.200Z</time>
      </trkpt>
      <trkpt lat="48.86296" lon="2.3375">
        <ele>72</ele>
        <time>2013-12-09T19:28:40.171Z</time>
      </trkpt>
      <trkpt lat="48.86303" lon="2.33759">
        <ele>69</ele>
        <time>2013-12-09T19:28:41.172Z</time>
      </trkpt>
      <trkpt lat="48.8631" lon="2.33766">
        <ele>69</ele>
        <time>2013-12-09T19:28:42.604Z</time>
      </trkpt>
      <trkpt lat="48.86316" lon="2.33771">
        <ele>69</ele>
        <time>2013-12-09T19:28:43.168Z</time>
      </trkpt>
      <trkpt lat="48.86321" lon="2.33773">
        <ele>68</ele>
        <time>2013-12-09T19:28:44.145Z</time>
      </trkpt>
      <trkpt lat="48.86328" lon="2.33775">
        <ele>68</ele>
        <time>2013-12-09T19:28:45.229Z</time>
      </trkpt>
      <trkpt lat="48.86333" lon="2.33776">
        <ele>68</ele>
        <time>2013-12-09T19:28:46.237Z</time>
      </trkpt>
      <trkpt lat="48.86338" lon="2.33778">
        <ele>69</ele>
        <time>2013-12-09T19:28:47.174Z</time>
      </trkpt>
      <trkpt lat="48.86343" lon="2.33781">
        <ele>69</ele>
        <time>2013-12-09T19:28:48.146Z</time>
      </trkpt>
      <trkpt lat="48.86347" lon="2.33784">
        <ele>68</ele>
        <time>2013-12-09T19:28:49.178Z</time>
      </trkpt>
      <trkpt lat="48.86353" lon="2.33787">
        <ele>67</ele>
        <time>2013-12-09T19:28:51.070Z</time>
      </trkpt>
      <trkpt lat="48.86359" lon="2.3379">
        <ele>68</ele>
        <time>2013-12-09T19:28:51.144Z</time>
      </trkpt>
      <trkpt lat="48.86364" lon="2.33792">
        <ele>68</ele>
        <time>2013-12-09T19:28:52.173Z</time>
      </trkpt>
      <trkpt lat="48.86369" lon="2.33795">
        <ele>67</ele>
        <time>2013-12-09T19:28:53.151Z</time>
      </trkpt>
      <trkpt lat="48.86374" lon="2.33798">
        <ele>66</ele>
        <time>2013-12-09T19:28:54.234Z</time>
      </trkpt>
      <trkpt lat="48.86379" lon="2.33802">
        <ele>66</ele>
        <time>2013-12-09T19:28:55.616Z</time>
      </trkpt>
      <trkpt lat="48.86384" lon="2.33808">
        <ele>67</ele>
        <time>2013-12-09T19:28:57.446Z</time>
      </trkpt>
      <trkpt lat="48.86385" lon="2.33814">
        <ele>67</ele>
        <time>2013-12-09T19:28:58.450Z</time>
      </trkpt>
      <trkpt lat="48.86387" lon="2.3382">
        <ele>67</ele>
        <time>2013-12-09T19:28:59.231Z</time>
      </trkpt>
      <trkpt lat="48.8639" lon="2.33825">
        <ele>66</ele>
        <time>2013-12-09T19:29:00.248Z</time>
      </trkpt>
      <trkpt lat="48.86393" lon="2.3383">
        <ele>68</ele>
        <time>2013-12-09T19:29:01.262Z</time>
      </trkpt>
      <trkpt lat="48.86398" lon="2.33835">
        <ele>68</ele>
        <time>2013-12-09T19:29:02.232Z</time>
      </trkpt>
      <trkpt lat="48.86402" lon="2.3384">
        <ele>69</ele>
        <time>2013-12-09T19:29:03.151Z</time>
      </trkpt>
      <trkpt lat="48.86407" lon="2.33844">
        <ele>69</ele>
        <time>2013-12-09T19:29:04.176Z</time>
      </trkpt>
      <trkpt lat="48.86413" lon="2.33848">
        <ele>67</ele>
        <time>2013-12-09T19:29:05.570Z</time>
      </trkpt>
      <trkpt lat="48.86419" lon="2.33853">
        <ele>66</ele>
        <time>2013-12-09T19:29:06.148Z</time>
      </trkpt>
      <trkpt lat="48.86424" lon="2.33857">
        <ele>67</ele>
        <time>2013-12-09T19:29:08.147Z</time>
      </trkpt>
      <trkpt lat="48.86432" lon="2.33865">
        <ele>67</ele>
        <time>2013-12-09T19:29:09.229Z</time>
      </trkpt>
      <trkpt lat="48.86438" lon="2.33868">
        <ele>66</ele>
        <time>2013-12-09T19:29:10.804Z</time>
      </trkpt>
      <trkpt lat="48.86441" lon="2.3387">
        <ele>64</ele>
        <time>2013-12-09T19:29:11.834Z</time>
      </trkpt>
      <trkpt lat="48.86446" lon="2.33872">
        <ele>63</ele>
        <time>2013-12-09T19:29:13.152Z</time>
      </trkpt>
      <trkpt lat="48.86451" lon="2.33873">
        <ele>62</ele>
        <time>2013-12-09T19:29:13.412Z</time>
      </trkpt>
      <trkpt lat="48.86457" lon="2.33872">
        <ele>62</ele>
        <time>2013-12-09T19:29:14.230Z</time>
      </trkpt>
      <trkpt lat="48.86463" lon="2.33874">
        <ele>62</ele>
        <time>2013-12-09T19:29:15.235Z</time>
      </trkpt>
      <trkpt lat="48.86469" lon="2.33873">
        <ele>59</ele>
        <time>2013-12-09T19:29:16.237Z</time>
      </trkpt>
      <trkpt lat="48.86475" lon="2.33873">
        <ele>59</ele>
        <time>2013-12-09T19:29:17.190Z</time>
      </trkpt>
      <trkpt lat="48.86481" lon="2.33874">
        <ele>59</ele>
        <time>2013-12-09T19:29:18.189Z</time>
      </trkpt>
      <trkpt lat="48.86486" lon="2.33875">
        <ele>60</ele>
        <time>2013-12-09T19:29:19.149Z</time>
      </trkpt>
      <trkpt lat="48.86493" lon="2.33876">
        <ele>59</ele>
        <time>2013-12-09T19:29:20.812Z</time>
      </trkpt>
      <trkpt lat="48.865" lon="2.33876">
        <ele>60</ele>
        <time>2013-12-09T19:29:21.178Z</time>
      </trkpt>
      <trkpt lat="48.86506" lon="2.33877">
        <ele>60</ele>
        <time>2013-12-09T19:29:22.174Z</time>
      </trkpt>
      <trkpt lat="48.86513" lon="2.33879">
        <ele>60</ele>
        <time>2013-12-09T19:29:23.215Z</time>
      </trkpt>
      <trkpt lat="48.86518" lon="2.33881">
        <ele>60</ele>
        <time>2013-12-09T19:29:24.210Z</time>
      </trkpt>
      <trkpt lat="48.86523" lon="2.33885">
        <ele>60</ele>
        <time>2013-12-09T19:29:25.180Z</time>
      </trkpt>
      <trkpt lat="48.86528" lon="2.33888">
        <ele>60</ele>
        <time>2013-12-09T19:29:26.179Z</time>
      </trkpt>
      <trkpt lat="48.86533" lon="2.33893">
        <ele>60</ele>
        <time>2013-12-09T19:29:27.149Z</time>
      </trkpt>
      <trkpt lat="48.86538" lon="2.33897">
        <ele>59</ele>
        <time>2013-12-09T19:29:28.225Z</time>
      </trkpt>
      <trkpt lat="48.86541" lon="2.33902">
        <ele>59</ele>
        <time>2013-12-09T19:29:29.181Z</time>
      </trkpt>
      <trkpt lat="48.86544" lon="2.33914">
        <ele>58</ele>
        <time>2013-12-09T19:29:31.232Z</time>
      </trkpt>
      <trkpt lat="48.86547" lon="2.33917">
        <ele>57</ele>
        <time>2013-12-09T19:29:32.177Z</time>
      </trkpt>
      <trkpt lat="48.86552" lon="2.33919">
        <ele>57</ele>
        <time>2013-12-09T19:29:33.235Z</time>
      </trkpt>
      <trkpt lat="48.86557" lon="2.33921">
        <ele>56</ele>
        <time>2013-12-09T19:29:34.186Z</time>
      </trkpt>
      <trkpt lat="48.86561" lon="2.33922">
        <ele>56</ele>
        <time>2013-12-09T19:29:35.182Z</time>
      </trkpt>
      <trkpt lat="48.86567" lon="2.33919">
        <ele>55</ele>
        <time>2013-12-09T19:29:36.151Z</time>
      </trkpt>
      <trkpt lat="48.86575" lon="2.33914">
        <ele>56</ele>
        <time>2013-12-09T19:29:38.360Z</time>
      </trkpt>
      <trkpt lat="48.86578" lon="2.33913">
        <ele>56</ele>
        <time>2013-12-09T19:29:39.147Z</time>
      </trkpt>
      <trkpt lat="48.86584" lon="2.33915">
        <ele>58</ele>
        <time>2013-12-09T19:29:42.159Z</time>
      </trkpt>
      <trkpt lat="48.86588" lon="2.33914">
        <ele>61</ele>
        <time>2013-12-09T19:29:43.178Z</time>
      </trkpt>
      <trkpt lat="48.86594" lon="2.33908">
        <ele>62</ele>
        <time>2013-12-09T19:29:44.229Z</time>
      </trkpt>
      <trkpt lat="48.86597" lon="2.33902">
        <ele>64</ele>
        <time>2013-12-09T19:29:45.229Z</time>
      </trkpt>
      <trkpt lat="48.866" lon="2.33893">
        <ele>67</ele>
        <time>2013-12-09T19:29:47.176Z</time>
      </trkpt>
      <trkpt lat="48.86601" lon="2.33889">
        <ele>66</ele>
        <time>2013-12-09T19:29:48.173Z</time>
      </trkpt>
      <trkpt lat="48.86603" lon="2.33876">
        <ele>67</ele>
        <time>2013-12-09T19:29:52.151Z</time>
      </trkpt>
      <trkpt lat="48.86604" lon="2.33873">
        <ele>69</ele>
        <time>2013-12-09T19:29:53.123Z</time>
      </trkpt>
      <trkpt lat="48.86607" lon="2.33864">
        <ele>71</ele>
        <time>2013-12-09T19:29:57.148Z</time>
      </trkpt>
      <trkpt lat="48.86609" lon="2.33862">
        <ele>72</ele>
        <time>2013-12-09T19:29:58.148Z</time>
      </trkpt>
      <trkpt lat="48.86615" lon="2.33857">
        <ele>74</ele>
        <time>2013-12-09T19:30:02.171Z</time>
      </trkpt>
      <trkpt lat="48.86617" lon="2.33856">
        <ele>72</ele>
        <time>2013-12-09T19:30:03.173Z</time>
      </trkpt>
      <trkpt lat="48.8662" lon="2.33861">
        <ele>74</ele>
        <time>2013-12-09T19:30:11.916Z</time>
      </trkpt>
      <trkpt lat="48.8662" lon="2.33861">
        <ele>73</ele>
        <time>2013-12-09T19:30:12.915Z</time>
      </trkpt>
      <trkpt lat="48.8662" lon="2.33861">
        <ele>73</ele>
        <time>2013-12-09T19:30:13.308Z</time>
      </trkpt>
      <trkpt lat="48.86619" lon="2.33862">
        <ele>72</ele>
        <time>2013-12-09T19:30:13.557Z</time>
      </trkpt>
      <trkpt lat="48.86619" lon="2.33862">
        <ele>72</ele>
        <time>2013-12-09T19:30:14.235Z</time>
      </trkpt>
      <trkpt lat="48.86619" lon="2.33862">
        <ele>71</ele>
        <time>2013-12-09T19:30:15.237Z</time>
      </trkpt>
      <trkpt lat="48.8662" lon="2.33862">
        <ele>69</ele>
        <time>2013-12-09T19:30:16.234Z</time>
      </trkpt>
      <trkpt lat="48.86627" lon="2.33858">
        <ele>67</ele>
        <time>2013-12-09T19:30:19.332Z</time>
      </trkpt>
      <trkpt lat="48.86629" lon="2.33854">
        <ele>67</ele>
        <time>2013-12-09T19:30:20.448Z</time>
      </trkpt>
      <trkpt lat="48.86633" lon="2.33844">
        <ele>64</ele>
        <time>2013-12-09T19:30:22.242Z</time>
      </trkpt>
      <trkpt lat="48.86635" lon="2.33838">
        <ele>63</ele>
        <time>2013-12-09T19:30:23.175Z</time>
      </trkpt>
      <trkpt lat="48.86637" lon="2.33826">
        <ele>62</ele>
        <time>2013-12-09T19:30:25.229Z</time>
      </trkpt>
      <trkpt lat="48.86638" lon="2.3382">
        <ele>64</ele>
        <time>2013-12-09T19:30:26.230Z</time>
      </trkpt>
      <trkpt lat="48.8664" lon="2.33809">
        <ele>64</ele>
        <time>2013-12-09T19:30:28.232Z</time>
      </trkpt>
      <trkpt lat="48.86641" lon="2.33804">
        <ele>63</ele>
        <time>2013-12-09T19:30:29.139Z</time>
      </trkpt>
      <trkpt lat="48.86644" lon="2.33794">
        <ele>63</ele>
        <time>2013-12-09T19:30:31.232Z</time>
      </trkpt>
      <trkpt lat="48.86646" lon="2.33791">
        <ele>63</ele>
        <time>2013-12-09T19:30:32.244Z</time>
      </trkpt>
      <trkpt lat="48.86651" lon="2.33784">
        <ele>63</ele>
        <time>2013-12-09T19:30:34.457Z</time>
      </trkpt>
      <trkpt lat="48.86654" lon="2.3378">
        <ele>63</ele>
        <time>2013-12-09T19:30:35.229Z</time>
      </trkpt>
      <trkpt lat="48.8666" lon="2.33772">
        <ele>64</ele>
        <time>2013-12-09T19:30:37.263Z</time>
      </trkpt>
      <trkpt lat="48.86662" lon="2.33767">
        <ele>64</ele>
        <time>2013-12-09T19:30:38.231Z</time>
      </trkpt>
      <trkpt lat="48.86662" lon="2.33757">
        <ele>64</ele>
        <time>2013-12-09T19:30:40.181Z</time>
      </trkpt>
      <trkpt lat="48.86661" lon="2.33753">
        <ele>64</ele>
        <time>2013-12-09T19:30:41.178Z</time>
      </trkpt>
      <trkpt lat="48.86658" lon="2.33741">
        <ele>68</ele>
        <time>2013-12-09T19:30:47.179Z</time>
      </trkpt>
      <trkpt lat="48.86658" lon="2.33741">
        <ele>66</ele>
        <time>2013-12-09T19:30:48.178Z</time>
      </trkpt>
      <trkpt lat="48.86658" lon="2.3373">
        <ele>65</ele>
        <time>2013-12-09T19:30:53.148Z</time>
      </trkpt>
      <trkpt lat="48.8666" lon="2.33726">
        <ele>64</ele>
        <time>2013-12-09T19:30:54.178Z</time>
      </trkpt>
      <trkpt lat="48.86663" lon="2.33714">
        <ele>62</ele>
        <time>2013-12-09T19:30:56.143Z</time>
      </trkpt>
      <trkpt lat="48.86665" lon="2.33708">
        <ele>62</ele>
        <time>2013-12-09T19:30:57.173Z</time>
      </trkpt>
      <trkpt lat="48.86667" lon="2.33701">
        <ele>63</ele>
        <time>2013-12-09T19:30:58.171Z</time>
      </trkpt>
      <trkpt lat="48.86672" lon="2.33694">
        <ele>63</ele>
        <time>2013-12-09T19:30:59.171Z</time>
      </trkpt>
      <trkpt lat="48.86677" lon="2.33686">
        <ele>62</ele>
        <time>2013-12-09T19:31:00.303Z</time>
      </trkpt>
      <trkpt lat="48.86682" lon="2.3368">
        <ele>62</ele>
        <time>2013-12-09T19:31:01.178Z</time>
      </trkpt>
      <trkpt lat="48.86684" lon="2.33672">
        <ele>62</ele>
        <time>2013-12-09T19:31:02.245Z</time>
      </trkpt>
      <trkpt lat="48.86687" lon="2.33665">
        <ele>62</ele>
        <time>2013-12-09T19:31:03.175Z</time>
      </trkpt>
      <trkpt lat="48.86691" lon="2.33658">
        <ele>62</ele>
        <time>2013-12-09T19:31:04.692Z</time>
      </trkpt>
      <trkpt lat="48.86694" lon="2.33651">
        <ele>61</ele>
        <time>2013-12-09T19:31:05.174Z</time>
      </trkpt>
      <trkpt lat="48.86696" lon="2.33643">
        <ele>61</ele>
        <time>2013-12-09T19:31:06.207Z</time>
      </trkpt>
      <trkpt lat="48.86697" lon="2.33635">
        <ele>61</ele>
        <time>2013-12-09T19:31:07.230Z</time>
      </trkpt>
      <trkpt lat="48.867" lon="2.33629">
        <ele>60</ele>
        <time>2013-12-09T19:31:08.237Z</time>
      </trkpt>
      <trkpt lat="48.86703" lon="2.33624">
        <ele>61</ele>
        <time>2013-12-09T19:31:09.176Z</time>
      </trkpt>
      <trkpt lat="48.86706" lon="2.33618">
        <ele>61</ele>
        <time>2013-12-09T19:31:10.233Z</time>
      </trkpt>
      <trkpt lat="48.86707" lon="2.3361">
        <ele>61</ele>
        <time>2013-12-09T19:31:11.230Z</time>
      </trkpt>
      <trkpt lat="48.86708" lon="2.33601">
        <ele>62</ele>
        <time>2013-12-09T19:31:12.233Z</time>
      </trkpt>
      <trkpt lat="48.86707" lon="2.3359">
        <ele>60</ele>
        <time>2013-12-09T19:31:13.230Z</time>
      </trkpt>
      <trkpt lat="48.86708" lon="2.33584">
        <ele>61</ele>
        <time>2013-12-09T19:31:14.541Z</time>
      </trkpt>
      <trkpt lat="48.86709" lon="2.33577">
        <ele>60</ele>
        <time>2013-12-09T19:31:15.205Z</time>
      </trkpt>
      <trkpt lat="48.86711" lon="2.33564">
        <ele>58</ele>
        <time>2013-12-09T19:31:17.149Z</time>
      </trkpt>
      <trkpt lat="48.86713" lon="2.33556">
        <ele>58</ele>
        <time>2013-12-09T19:31:18.146Z</time>
      </trkpt>
      <trkpt lat="48.86715" lon="2.33547">
        <ele>57</ele>
        <time>2013-12-09T19:31:19.506Z</time>
      </trkpt>
      <trkpt lat="48.86718" lon="2.33538">
        <ele>58</ele>
        <time>2013-12-09T19:31:20.142Z</time>
      </trkpt>
      <trkpt lat="48.86722" lon="2.33529">
        <ele>55</ele>
        <time>2013-12-09T19:31:22.144Z</time>
      </trkpt>
      <trkpt lat="48.86725" lon="2.33526">
        <ele>55</ele>
        <time>2013-12-09T19:31:23.141Z</time>
      </trkpt>
      <trkpt lat="48.86729" lon="2.33514">
        <ele>55</ele>
        <time>2013-12-09T19:31:26.176Z</time>
      </trkpt>
      <trkpt lat="48.86729" lon="2.33509">
        <ele>55</ele>
        <time>2013-12-09T19:31:27.179Z</time>
      </trkpt>
      <trkpt lat="48.86733" lon="2.33502">
        <ele>54</ele>
        <time>2013-12-09T19:31:29.561Z</time>
      </trkpt>
      <trkpt lat="48.86735" lon="2.33498">
        <ele>53</ele>
        <time>2013-12-09T19:31:30.144Z</time>
      </trkpt>
      <trkpt lat="48.8674" lon="2.33491">
        <ele>58</ele>
        <time>2013-12-09T19:31:38.175Z</time>
      </trkpt>
      <trkpt lat="48.86739" lon="2.33494">
        <ele>57</ele>
        <time>2013-12-09T19:31:39.169Z</time>
      </trkpt>
      <trkpt lat="48.86737" lon="2.33497">
        <ele>59</ele>
        <time>2013-12-09T19:31:40.165Z</time>
      </trkpt>
      <trkpt lat="48.86734" lon="2.33505">
        <ele>58</ele>
        <time>2013-12-09T19:31:42.146Z</time>
      </trkpt>
      <trkpt lat="48.86732" lon="2.33509">
        <ele>56</ele>
        <time>2013-12-09T19:31:43.153Z</time>
      </trkpt>
      <trkpt lat="48.86731" lon="2.33522">
        <ele>56</ele>
        <time>2013-12-09T19:31:46.144Z</time>
      </trkpt>
      <trkpt lat="48.86733" lon="2.33525">
        <ele>57</ele>
        <time>2013-12-09T19:31:47.175Z</time>
      </trkpt>
      <trkpt lat="48.86738" lon="2.33531">
        <ele>56</ele>
        <time>2013-12-09T19:31:49.174Z</time>
      </trkpt>
      <trkpt lat="48.86741" lon="2.33533">
        <ele>56</ele>
        <time>2013-12-09T19:31:50.223Z</time>
      </trkpt>
      <trkpt lat="48.86748" lon="2.33539">
        <ele>55</ele>
        <time>2013-12-09T19:31:52.145Z</time>
      </trkpt>
      <trkpt lat="48.86752" lon="2.33541">
        <ele>53</ele>
        <time>2013-12-09T19:31:53.176Z</time>
      </trkpt>
      <trkpt lat="48.86759" lon="2.33546">
        <ele>53</ele>
        <time>2013-12-09T19:31:55.260Z</time>
      </trkpt>
      <trkpt lat="48.86762" lon="2.33548">
        <ele>53</ele>
        <time>2013-12-09T19:31:56.172Z</time>
      </trkpt>
      <trkpt lat="48.86769" lon="2.33551">
        <ele>51</ele>
        <time>2013-12-09T19:31:58.141Z</time>
      </trkpt>
      <trkpt lat="48.86772" lon="2.33551">
        <ele>50</ele>
        <time>2013-12-09T19:31:59.142Z</time>
      </trkpt>
      <trkpt lat="48.8678" lon="2.3355">
        <ele>50</ele>
        <time>2013-12-09T19:32:01.143Z</time>
      </trkpt>
      <trkpt lat="48.86784" lon="2.33547">
        <ele>51</ele>
        <time>2013-12-09T19:32:02.145Z</time>
      </trkpt>
      <trkpt lat="48.86793" lon="2.33541">
        <ele>52</ele>
        <time>2013-12-09T19:32:03.144Z</time>
      </trkpt>
      <trkpt lat="48.86802" lon="2.33535">
        <ele>52</ele>
        <time>2013-12-09T19:32:04.147Z</time>
      </trkpt>
      <trkpt lat="48.86811" lon="2.33529">
        <ele>52</ele>
        <time>2013-12-09T19:32:05.147Z</time>
      </trkpt>
      <trkpt lat="48.86819" lon="2.33525">
        <ele>53</ele>
        <time>2013-12-09T19:32:06.142Z</time>
      </trkpt>
      <trkpt lat="48.86826" lon="2.33523">
        <ele>53</ele>
        <time>2013-12-09T19:32:07.174Z</time>
      </trkpt>
      <trkpt lat="48.86832" lon="2.33524">
        <ele>53</ele>
        <time>2013-12-09T19:32:08.168Z</time>
      </trkpt>
      <trkpt lat="48.86837" lon="2.33526">
        <ele>52</ele>
        <time>2013-12-09T19:32:09.178Z</time>
      </trkpt>
      <trkpt lat="48.86844" lon="2.33531">
        <ele>52</ele>
        <time>2013-12-09T19:32:11.180Z</time>
      </trkpt>
      <trkpt lat="48.86848" lon="2.33533">
        <ele>52</ele>
        <time>2013-12-09T19:32:12.146Z</time>
      </trkpt>
      <trkpt lat="48.86856" lon="2.33538">
        <ele>54</ele>
        <time>2013-12-09T19:32:15.322Z</time>
      </trkpt>
      <trkpt lat="48.86858" lon="2.33541">
        <ele>56</ele>
        <time>2013-12-09T19:32:16.172Z</time>
      </trkpt>
      <trkpt lat="48.86864" lon="2.33542">
        <ele>57</ele>
        <time>2013-12-09T19:32:18.165Z</time>
      </trkpt>
      <trkpt lat="48.86867" lon="2.3354">
        <ele>55</ele>
        <time>2013-12-09T19:32:19.147Z</time>
      </trkpt>
      <trkpt lat="48.86873" lon="2.33531">
        <ele>56</ele>
        <time>2013-12-09T19:32:23.230Z</time>
      </trkpt>
      <trkpt lat="48.86873" lon="2.33528">
        <ele>57</ele>
        <time>2013-12-09T19:32:24.174Z</time>
      </trkpt>
      <trkpt lat="48.8687" lon="2.33515">
        <ele>60</ele>
        <time>2013-12-09T19:32:27.228Z</time>
      </trkpt>
      <trkpt lat="48.8687" lon="2.3351">
        <ele>57</ele>
        <time>2013-12-09T19:32:28.230Z</time>
      </trkpt>
      <trkpt lat="48.86873" lon="2.33501">
        <ele>56</ele>
        <time>2013-12-09T19:32:30.137Z</time>
      </trkpt>
      <trkpt lat="48.86875" lon="2.33498">
        <ele>56</ele>
        <time>2013-12-09T19:32:31.231Z</time>
      </trkpt>
      <trkpt lat="48.8688" lon="2.33492">
        <ele>56</ele>
        <time>2013-12-09T19:32:33.236Z</time>
      </trkpt>
      <trkpt lat="48.86882" lon="2.33488">
        <ele>56</ele>
        <time>2013-12-09T19:32:34.174Z</time>
      </trkpt>
      <trkpt lat="48.86887" lon="2.33477">
        <ele>56</ele>
        <time>2013-12-09T19:32:37.147Z</time>
      </trkpt>
      <trkpt lat="48.86889" lon="2.33472">
        <ele>55</ele>
        <time>2013-12-09T19:32:38.987Z</time>
      </trkpt>
      <trkpt lat="48.86895" lon="2.33466">
        <ele>55</ele>
        <time>2013-12-09T19:32:42.961Z</time>
      </trkpt>
      <trkpt lat="48.86897" lon="2.33466">
        <ele>56</ele>
        <time>2013-12-09T19:32:43.958Z</time>
      </trkpt>
      <trkpt lat="48.86902" lon="2.33468">
        <ele>60</ele>
        <time>2013-12-09T19:32:45.957Z</time>
      </trkpt>
      <trkpt lat="48.86908" lon="2.33469">
        <ele>60</ele>
        <time>2013-12-09T19:32:46.957Z</time>
      </trkpt>
      <trkpt lat="48.86914" lon="2.33472">
        <ele>57</ele>
        <time>2013-12-09T19:32:49.276Z</time>
      </trkpt>
      <trkpt lat="48.86916" lon="2.33475">
        <ele>57</ele>
        <time>2013-12-09T19:32:49.298Z</time>
      </trkpt>
      <trkpt lat="48.86923" lon="2.33483">
        <ele>57</ele>
        <time>2013-12-09T19:32:51.291Z</time>
      </trkpt>
      <trkpt lat="48.86927" lon="2.33487">
        <ele>57</ele>
        <time>2013-12-09T19:32:52.319Z</time>
      </trkpt>
      <trkpt lat="48.86931" lon="2.33491">
        <ele>58</ele>
        <time>2013-12-09T19:32:53.289Z</time>
      </trkpt>
      <trkpt lat="48.86935" lon="2.33495">
        <ele>58</ele>
        <time>2013-12-09T19:32:54.320Z</time>
      </trkpt>
      <trkpt lat="48.86941" lon="2.33502">
        <ele>54</ele>
        <time>2013-12-09T19:32:56.285Z</time>
      </trkpt>
      <trkpt lat="48.86946" lon="2.33502">
        <ele>55</ele>
        <time>2013-12-09T19:32:57.317Z</time>
      </trkpt>
      <trkpt lat="48.86954" lon="2.33503">
        <ele>56</ele>
        <time>2013-12-09T19:32:59.312Z</time>
      </trkpt>
      <trkpt lat="48.86958" lon="2.33501">
        <ele>60</ele>
        <time>2013-12-09T19:33:00.286Z</time>
      </trkpt>
      <trkpt lat="48.86964" lon="2.33497">
        <ele>66</ele>
        <time>2013-12-09T19:33:01.319Z</time>
      </trkpt>
      <trkpt lat="48.86968" lon="2.33494">
        <ele>64</ele>
        <time>2013-12-09T19:33:02.228Z</time>
      </trkpt>
      <trkpt lat="48.86973" lon="2.33492">
        <ele>65</ele>
        <time>2013-12-09T19:33:03.747Z</time>
      </trkpt>
      <trkpt lat="48.86977" lon="2.3349">
        <ele>68</ele>
        <time>2013-12-09T19:33:04.790Z</time>
      </trkpt>
      <trkpt lat="48.86986" lon="2.33487">
        <ele>62</ele>
        <time>2013-12-09T19:33:07.236Z</time>
      </trkpt>
      <trkpt lat="48.86989" lon="2.33488">
        <ele>62</ele>
        <time>2013-12-09T19:33:08.229Z</time>
      </trkpt>
      <trkpt lat="48.86997" lon="2.33491">
        <ele>63</ele>
        <time>2013-12-09T19:33:11.177Z</time>
      </trkpt>
      <trkpt lat="48.86999" lon="2.33492">
        <ele>62</ele>
        <time>2013-12-09T19:33:12.451Z</time>
      </trkpt>
      <trkpt lat="48.87001" lon="2.33499">
        <ele>66</ele>
        <time>2013-12-09T19:33:16.277Z</time>
      </trkpt>
      <trkpt lat="48.87004" lon="2.33505">
        <ele>66</ele>
        <time>2013-12-09T19:33:19.258Z</time>
      </trkpt>
      <trkpt lat="48.87007" lon="2.33514">
        <ele>66</ele>
        <time>2013-12-09T19:33:22.239Z</time>
      </trkpt>
      <trkpt lat="48.87008" lon="2.33517">
        <ele>67</ele>
        <time>2013-12-09T19:33:23.262Z</time>
      </trkpt>
      <trkpt lat="48.87007" lon="2.33528">
        <ele>66</ele>
        <time>2013-12-09T19:33:26.275Z</time>
      </trkpt>
      <trkpt lat="48.87006" lon="2.33533">
        <ele>66</ele>
        <time>2013-12-09T19:33:27.335Z</time>
      </trkpt>
      <trkpt lat="48.87003" lon="2.33542">
        <ele>66</ele>
        <time>2013-12-09T19:33:30.179Z</time>
      </trkpt>
      <trkpt lat="48.87002" lon="2.33545">
        <ele>67</ele>
        <time>2013-12-09T19:33:31.179Z</time>
      </trkpt>
      <trkpt lat="48.87004" lon="2.33555">
        <ele>68</ele>
        <time>2013-12-09T19:33:34.228Z</time>
      </trkpt>
      <trkpt lat="48.87007" lon="2.33557">
        <ele>68</ele>
        <time>2013-12-09T19:33:35.171Z</time>
      </trkpt>
      <trkpt lat="48.87013" lon="2.33559">
        <ele>68</ele>
        <time>2013-12-09T19:33:37.168Z</time>
      </trkpt>
      <trkpt lat="48.87016" lon="2.33561">
        <ele>68</ele>
        <time>2013-12-09T19:33:38.205Z</time>
      </trkpt>
      <trkpt lat="48.87023" lon="2.33564">
        <ele>64</ele>
        <time>2013-12-09T19:33:41.169Z</time>
      </trkpt>
      <trkpt lat="48.87025" lon="2.33565">
        <ele>63</ele>
        <time>2013-12-09T19:33:42.173Z</time>
      </trkpt>
      <trkpt lat="48.87031" lon="2.33565">
        <ele>63</ele>
        <time>2013-12-09T19:33:45.154Z</time>
      </trkpt>
      <trkpt lat="48.87034" lon="2.33565">
        <ele>63</ele>
        <time>2013-12-09T19:33:46.182Z</time>
      </trkpt>
      <trkpt lat="48.87041" lon="2.33566">
        <ele>60</ele>
        <time>2013-12-09T19:33:48.234Z</time>
      </trkpt>
      <trkpt lat="48.87045" lon="2.33567">
        <ele>60</ele>
        <time>2013-12-09T19:33:49.236Z</time>
      </trkpt>
      <trkpt lat="48.87053" lon="2.33567">
        <ele>61</ele>
        <time>2013-12-09T19:33:53.132Z</time>
      </trkpt>
      <trkpt lat="48.87054" lon="2.33566">
        <ele>61</ele>
        <time>2013-12-09T19:33:54.157Z</time>
      </trkpt>
      <trkpt lat="48.87061" lon="2.33574">
        <ele>51</ele>
        <time>2013-12-09T19:33:59.137Z</time>
      </trkpt>
      <trkpt lat="48.87064" lon="2.33577">
        <ele>53</ele>
        <time>2013-12-09T19:34:00.138Z</time>
      </trkpt>
      <trkpt lat="48.87068" lon="2.33581">
        <ele>55</ele>
        <time>2013-12-09T19:34:01.174Z</time>
      </trkpt>
      <trkpt lat="48.87077" lon="2.33585">
        <ele>55</ele>
        <time>2013-12-09T19:34:02.174Z</time>
      </trkpt>
      <trkpt lat="48.87085" lon="2.3359">
        <ele>55</ele>
        <time>2013-12-09T19:34:03.170Z</time>
      </trkpt>
      <trkpt lat="48.87092" lon="2.33594">
        <ele>56</ele>
        <time>2013-12-09T19:34:04.139Z</time>
      </trkpt>
      <trkpt lat="48.87097" lon="2.33596">
        <ele>57</ele>
        <time>2013-12-09T19:34:05.139Z</time>
      </trkpt>
      <trkpt lat="48.871" lon="2.33599">
        <ele>55</ele>
        <time>2013-12-09T19:34:06.172Z</time>
      </trkpt>
      <trkpt lat="48.87108" lon="2.33604">
        <ele>57</ele>
        <time>2013-12-09T19:34:10.230Z</time>
      </trkpt>
      <trkpt lat="48.87111" lon="2.33604">
        <ele>57</ele>
        <time>2013-12-09T19:34:11.165Z</time>
      </trkpt>
      <trkpt lat="48.87117" lon="2.33604">
        <ele>55</ele>
        <time>2013-12-09T19:34:13.197Z</time>
      </trkpt>
      <trkpt lat="48.8712" lon="2.33604">
        <ele>56</ele>
        <time>2013-12-09T19:34:14.166Z</time>
      </trkpt>
      <trkpt lat="48.87127" lon="2.33604">
        <ele>57</ele>
        <time>2013-12-09T19:34:16.581Z</time>
      </trkpt>
      <trkpt lat="48.8713" lon="2.33605">
        <ele>57</ele>
        <time>2013-12-09T19:34:17.172Z</time>
      </trkpt>
      <trkpt lat="48.87137" lon="2.33607">
        <ele>57</ele>
        <time>2013-12-09T19:34:19.228Z</time>
      </trkpt>
      <trkpt lat="48.87139" lon="2.33609">
        <ele>57</ele>
        <time>2013-12-09T19:34:20.234Z</time>
      </trkpt>
      <trkpt lat="48.87147" lon="2.33606">
        <ele>47</ele>
        <time>2013-12-09T19:34:31.242Z</time>
      </trkpt>
      <trkpt lat="48.8715" lon="2.33608">
        <ele>48</ele>
        <time>2013-12-09T19:34:32.178Z</time>
      </trkpt>
      <trkpt lat="48.87156" lon="2.33612">
        <ele>51</ele>
        <time>2013-12-09T19:34:34.230Z</time>
      </trkpt>
      <trkpt lat="48.87158" lon="2.33614">
        <ele>52</ele>
        <time>2013-12-09T19:34:35.231Z</time>
      </trkpt>
      <trkpt lat="48.87165" lon="2.33614">
        <ele>46</ele>
        <time>2013-12-09T19:34:38.235Z</time>
      </trkpt>
      <trkpt lat="48.87167" lon="2.33612">
        <ele>46</ele>
        <time>2013-12-09T19:34:39.174Z</time>
      </trkpt>
      <trkpt lat="48.87173" lon="2.33609">
        <ele>47</ele>
        <time>2013-12-09T19:34:41.210Z</time>
      </trkpt>
      <trkpt lat="48.87177" lon="2.33607">
        <ele>47</ele>
        <time>2013-12-09T19:34:42.187Z</time>
      </trkpt>
      <trkpt lat="48.87184" lon="2.33602">
        <ele>48</ele>
        <time>2013-12-09T19:34:44.179Z</time>
      </trkpt>
      <trkpt lat="48.87187" lon="2.336">
        <ele>49</ele>
        <time>2013-12-09T19:34:45.229Z</time>
      </trkpt>
      <trkpt lat="48.87195" lon="2.33592">
        <ele>43</ele>
        <time>2013-12-09T19:34:49.181Z</time>
      </trkpt>
      <trkpt lat="48.87196" lon="2.3359">
        <ele>43</ele>
        <time>2013-12-09T19:34:50.230Z</time>
      </trkpt>
      <trkpt lat="48.87202" lon="2.33586">
        <ele>49</ele>
        <time>2013-12-09T19:34:56.262Z</time>
      </trkpt>
      <trkpt lat="48.87204" lon="2.33585">
        <ele>51</ele>
        <time>2013-12-09T19:34:57.181Z</time>
      </trkpt>
      <trkpt lat="48.8721" lon="2.33584">
        <ele>54</ele>
        <time>2013-12-09T19:34:59.233Z</time>
      </trkpt>
      <trkpt lat="48.87213" lon="2.33583">
        <ele>55</ele>
        <time>2013-12-09T19:35:00.228Z</time>
      </trkpt>
      <trkpt lat="48.87222" lon="2.33581">
        <ele>58</ele>
        <time>2013-12-09T19:35:04.171Z</time>
      </trkpt>
      <trkpt lat="48.87223" lon="2.33582">
        <ele>58</ele>
        <time>2013-12-09T19:35:05.175Z</time>
      </trkpt>
      <trkpt lat="48.87227" lon="2.33583">
        <ele>63</ele>
        <time>2013-12-09T19:35:20.171Z</time>
      </trkpt>
      <trkpt lat="48.87227" lon="2.33583">
        <ele>63</ele>
        <time>2013-12-09T19:35:21.176Z</time>
      </trkpt>
      <trkpt lat="48.87228" lon="2.33583">
        <ele>64</ele>
        <time>2013-12-09T19:35:28.379Z</time>
      </trkpt>
      <trkpt lat="48.87228" lon="2.33583">
        <ele>64</ele>
        <time>2013-12-09T19:35:28.645Z</time>
      </trkpt>
      <trkpt lat="48.87234" lon="2.33576">
        <ele>62</ele>
        <time>2013-12-09T19:35:37.175Z</time>
      </trkpt>
      <trkpt lat="48.87237" lon="2.33572">
        <ele>61</ele>
        <time>2013-12-09T19:35:38.145Z</time>
      </trkpt>
      <trkpt lat="48.87241" lon="2.33568">
        <ele>62</ele>
        <time>2013-12-09T19:35:39.145Z</time>
      </trkpt>
      <trkpt lat="48.87245" lon="2.33563">
        <ele>63</ele>
        <time>2013-12-09T19:35:40.171Z</time>
      </trkpt>
      <trkpt lat="48.87249" lon="2.33557">
        <ele>64</ele>
        <time>2013-12-09T19:35:41.230Z</time>
      </trkpt>
      <trkpt lat="48.87254" lon="2.33553">
        <ele>63</ele>
        <time>2013-12-09T19:35:42.314Z</time>
      </trkpt>
      <trkpt lat="48.87259" lon="2.3355">
        <ele>62</ele>
        <time>2013-12-09T19:35:43.183Z</time>
      </trkpt>
      <trkpt lat="48.87265" lon="2.33549">
        <ele>62</ele>
        <time>2013-12-09T19:35:44.450Z</time>
      </trkpt>
      <trkpt lat="48.87273" lon="2.33553">
        <ele>62</ele>
        <time>2013-12-09T19:35:46.246Z</time>
      </trkpt>
      <trkpt lat="48.87278" lon="2.33556">
        <ele>62</ele>
        <time>2013-12-09T19:35:47.232Z</time>
      </trkpt>
      <trkpt lat="48.87284" lon="2.33559">
        <ele>62</ele>
        <time>2013-12-09T19:35:48.520Z</time>
      </trkpt>
      <trkpt lat="48.87291" lon="2.33562">
        <ele>61</ele>
        <time>2013-12-09T19:35:49.246Z</time>
      </trkpt>
      <trkpt lat="48.87296" lon="2.33565">
        <ele>62</ele>
        <time>2013-12-09T19:35:50.240Z</time>
      </trkpt>
      <trkpt lat="48.87302" lon="2.33565">
        <ele>60</ele>
        <time>2013-12-09T19:35:51.235Z</time>
      </trkpt>
      <trkpt lat="48.87307" lon="2.33565">
        <ele>60</ele>
        <time>2013-12-09T19:35:52.247Z</time>
      </trkpt>
      <trkpt lat="48.87311" lon="2.33566">
        <ele>59</ele>
        <time>2013-12-09T19:35:53.147Z</time>
      </trkpt>
      <trkpt lat="48.8732" lon="2.33565">
        <ele>59</ele>
        <time>2013-12-09T19:35:55.241Z</time>
      </trkpt>
      <trkpt lat="48.87324" lon="2.33561">
        <ele>60</ele>
        <time>2013-12-09T19:35:56.231Z</time>
      </trkpt>
      <trkpt lat="48.87331" lon="2.33556">
        <ele>59</ele>
        <time>2013-12-09T19:35:58.183Z</time>
      </trkpt>
      <trkpt lat="48.87332" lon="2.33554">
        <ele>54</ele>
        <time>2013-12-09T19:35:59.152Z</time>
      </trkpt>
      <trkpt lat="48.87338" lon="2.33544">
        <ele>55</ele>
        <time>2013-12-09T19:36:12.380Z</time>
      </trkpt>
      <trkpt lat="48.87339" lon="2.33542">
        <ele>56</ele>
        <time>2013-12-09T19:36:13.359Z</time>
      </trkpt>
      <trkpt lat="48.87346" lon="2.33539">
        <ele>56</ele>
        <time>2013-12-09T19:36:23.172Z</time>
      </trkpt>
      <trkpt lat="48.87349" lon="2.33539">
        <ele>56</ele>
        <time>2013-12-09T19:36:24.171Z</time>
      </trkpt>
      <trkpt lat="48.87355" lon="2.33539">
        <ele>55</ele>
        <time>2013-12-09T19:36:26.173Z</time>
      </trkpt>
      <trkpt lat="48.87359" lon="2.33539">
        <ele>54</ele>
        <time>2013-12-09T19:36:27.166Z</time>
      </trkpt>
      <trkpt lat="48.87365" lon="2.33538">
        <ele>54</ele>
        <time>2013-12-09T19:36:29.171Z</time>
      </trkpt>
      <trkpt lat="48.87369" lon="2.33537">
        <ele>51</ele>
        <time>2013-12-09T19:36:30.263Z</time>
      </trkpt>
      <trkpt lat="48.87378" lon="2.33537">
        <ele>41</ele>
        <time>2013-12-09T19:36:34.766Z</time>
      </trkpt>
      <trkpt lat="48.8738" lon="2.33537">
        <ele>40</ele>
        <time>2013-12-09T19:36:35.168Z</time>
      </trkpt>
      <trkpt lat="48.87388" lon="2.33534">
        <ele>42</ele>
        <time>2013-12-09T19:36:38.185Z</time>
      </trkpt>
      <trkpt lat="48.87392" lon="2.33533">
        <ele>39</ele>
        <time>2013-12-09T19:36:39.234Z</time>
      </trkpt>
      <trkpt lat="48.87401" lon="2.33532">
        <ele>39</ele>
        <time>2013-12-09T19:36:41.958Z</time>
      </trkpt>
      <trkpt lat="48.87407" lon="2.3353">
        <ele>38</ele>
        <time>2013-12-09T19:36:42.643Z</time>
      </trkpt>
      <trkpt lat="48.87412" lon="2.33529">
        <ele>38</ele>
        <time>2013-12-09T19:36:43.643Z</time>
      </trkpt>
      <trkpt lat="48.87417" lon="2.33529">
        <ele>39</ele>
        <time>2013-12-09T19:36:44.461Z</time>
      </trkpt>
      <trkpt lat="48.87421" lon="2.33529">
        <ele>38</ele>
        <time>2013-12-09T19:36:45.239Z</time>
      </trkpt>
      <trkpt lat="48.87426" lon="2.33529">
        <ele>38</ele>
        <time>2013-12-09T19:36:46.179Z</time>
      </trkpt>
      <trkpt lat="48.87431" lon="2.3353">
        <ele>37</ele>
        <time>2013-12-09T19:36:47.147Z</time>
      </trkpt>
      <trkpt lat="48.87437" lon="2.33532">
        <ele>37</ele>
        <time>2013-12-09T19:36:48.173Z</time>
      </trkpt>
      <trkpt lat="48.87444" lon="2.33533">
        <ele>36</ele>
        <time>2013-12-09T19:36:49.415Z</time>
      </trkpt>
      <trkpt lat="48.87449" lon="2.33534">
        <ele>37</ele>
        <time>2013-12-09T19:36:50.484Z</time>
      </trkpt>
      <trkpt lat="48.87454" lon="2.33534">
        <ele>38</ele>
        <time>2013-12-09T19:36:51.979Z</time>
      </trkpt>
      <trkpt lat="48.87459" lon="2.33534">
        <ele>38</ele>
        <time>2013-12-09T19:36:52.246Z</time>
      </trkpt>
      <trkpt lat="48.87464" lon="2.33533">
        <ele>38</ele>
        <time>2013-12-09T19:36:53.236Z</time>
      </trkpt>
      <trkpt lat="48.87469" lon="2.33533">
        <ele>36</ele>
        <time>2013-12-09T19:36:54.238Z</time>
      </trkpt>
      <trkpt lat="48.87474" lon="2.33533">
        <ele>36</ele>
        <time>2013-12-09T19:36:55.231Z</time>
      </trkpt>
      <trkpt lat="48.87479" lon="2.33532">
        <ele>37</ele>
        <time>2013-12-09T19:36:56.177Z</time>
      </trkpt>
      <trkpt lat="48.87486" lon="2.33532">
        <ele>43</ele>
        <time>2013-12-09T19:36:57.227Z</time>
      </trkpt>
      <trkpt lat="48.87492" lon="2.33533">
        <ele>43</ele>
        <time>2013-12-09T19:36:58.262Z</time>
      </trkpt>
      <trkpt lat="48.87498" lon="2.33533">
        <ele>42</ele>
        <time>2013-12-09T19:36:59.445Z</time>
      </trkpt>
      <trkpt lat="48.87502" lon="2.33534">
        <ele>43</ele>
        <time>2013-12-09T19:37:00.252Z</time>
      </trkpt>
      <trkpt lat="48.87507" lon="2.33535">
        <ele>43</ele>
        <time>2013-12-09T19:37:02.029Z</time>
      </trkpt>
      <trkpt lat="48.87513" lon="2.33536">
        <ele>42</ele>
        <time>2013-12-09T19:37:02.229Z</time>
      </trkpt>
      <trkpt lat="48.87519" lon="2.33535">
        <ele>43</ele>
        <time>2013-12-09T19:37:03.181Z</time>
      </trkpt>
      <trkpt lat="48.87525" lon="2.33535">
        <ele>43</ele>
        <time>2013-12-09T19:37:04.231Z</time>
      </trkpt>
      <trkpt lat="48.87531" lon="2.33534">
        <ele>45</ele>
        <time>2013-12-09T19:37:05.231Z</time>
      </trkpt>
      <trkpt lat="48.87537" lon="2.33532">
        <ele>44</ele>
        <time>2013-12-09T19:37:06.150Z</time>
      </trkpt>
      <trkpt lat="48.87542" lon="2.33533">
        <ele>43</ele>
        <time>2013-12-09T19:37:07.282Z</time>
      </trkpt>
      <trkpt lat="48.87546" lon="2.33534">
        <ele>42</ele>
        <time>2013-12-09T19:37:08.181Z</time>
      </trkpt>
      <trkpt lat="48.87553" lon="2.33537">
        <ele>40</ele>
        <time>2013-12-09T19:37:10.254Z</time>
      </trkpt>
      <trkpt lat="48.87558" lon="2.33537">
        <ele>40</ele>
        <time>2013-12-09T19:37:11.169Z</time>
      </trkpt>
      <trkpt lat="48.87565" lon="2.33538">
        <ele>41</ele>
        <time>2013-12-09T19:37:12.279Z</time>
      </trkpt>
      <trkpt lat="48.8757" lon="2.33538">
        <ele>42</ele>
        <time>2013-12-09T19:37:13.172Z</time>
      </trkpt>
      <trkpt lat="48.87577" lon="2.33537">
        <ele>46</ele>
        <time>2013-12-09T19:37:17.078Z</time>
      </trkpt>
      <trkpt lat="48.87582" lon="2.33536">
        <ele>51</ele>
        <time>2013-12-09T19:37:17.151Z</time>
      </trkpt>
      <trkpt lat="48.87587" lon="2.33535">
        <ele>51</ele>
        <time>2013-12-09T19:37:18.236Z</time>
      </trkpt>
      <trkpt lat="48.87592" lon="2.33534">
        <ele>55</ele>
        <time>2013-12-09T19:37:19.231Z</time>
      </trkpt>
      <trkpt lat="48.87601" lon="2.33531">
        <ele>60</ele>
        <time>2013-12-09T19:37:22.290Z</time>
      </trkpt>
      <trkpt lat="48.87603" lon="2.33532">
        <ele>60</ele>
        <time>2013-12-09T19:37:23.181Z</time>
      </trkpt>
      <trkpt lat="48.8761" lon="2.33537">
        <ele>57</ele>
        <time>2013-12-09T19:37:27.102Z</time>
      </trkpt>
      <trkpt lat="48.87613" lon="2.33539">
        <ele>57</ele>
        <time>2013-12-09T19:37:27.134Z</time>
      </trkpt>
      <trkpt lat="48.8762" lon="2.33543">
        <ele>55</ele>
        <time>2013-12-09T19:37:29.237Z</time>
      </trkpt>
      <trkpt lat="48.87623" lon="2.33545">
        <ele>54</ele>
        <time>2013-12-09T19:37:30.236Z</time>
      </trkpt>
      <trkpt lat="48.8763" lon="2.33548">
        <ele>54</ele>
        <time>2013-12-09T19:37:32.132Z</time>
      </trkpt>
      <trkpt lat="48.87634" lon="2.3355">
        <ele>54</ele>
        <time>2013-12-09T19:37:33.161Z</time>
      </trkpt>
      <trkpt lat="48.87642" lon="2.33551">
        <ele>53</ele>
        <time>2013-12-09T19:37:35.161Z</time>
      </trkpt>
      <trkpt lat="48.87646" lon="2.3355">
        <ele>53</ele>
        <time>2013-12-09T19:37:36.143Z</time>
      </trkpt>
      <trkpt lat="48.87653" lon="2.33547">
        <ele>52</ele>
        <time>2013-12-09T19:37:38.122Z</time>
      </trkpt>
      <trkpt lat="48.87656" lon="2.33547">
        <ele>55</ele>
        <time>2013-12-09T19:37:39.159Z</time>
      </trkpt>
      <trkpt lat="48.87663" lon="2.33551">
        <ele>55</ele>
        <time>2013-12-09T19:37:42.216Z</time>
      </trkpt>
      <trkpt lat="48.87666" lon="2.33553">
        <ele>54</ele>
        <time>2013-12-09T19:37:43.126Z</time>
      </trkpt>
      <trkpt lat="48.87674" lon="2.33556">
        <ele>53</ele>
        <time>2013-12-09T19:37:46.156Z</time>
      </trkpt>
      <trkpt lat="48.87677" lon="2.33556">
        <ele>53</ele>
        <time>2013-12-09T19:37:47.156Z</time>
      </trkpt>
      <trkpt lat="48.87686" lon="2.33556">
        <ele>53</ele>
        <time>2013-12-09T19:37:49.228Z</time>
      </trkpt>
      <trkpt lat="48.8769" lon="2.33556">
        <ele>54</ele>
        <time>2013-12-09T19:37:50.228Z</time>
      </trkpt>
      <trkpt lat="48.87699" lon="2.33556">
        <ele>53</ele>
        <time>2013-12-09T19:37:52.230Z</time>
      </trkpt>
      <trkpt lat="48.87703" lon="2.33557">
        <ele>52</ele>
        <time>2013-12-09T19:37:53.165Z</time>
      </trkpt>
      <trkpt lat="48.87708" lon="2.33558">
        <ele>53</ele>
        <time>2013-12-09T19:37:54.230Z</time>
      </trkpt>
      <trkpt lat="48.87712" lon="2.33559">
        <ele>53</ele>
        <time>2013-12-09T19:37:55.237Z</time>
      </trkpt>
      <trkpt lat="48.87716" lon="2.3356">
        <ele>54</ele>
        <time>2013-12-09T19:37:56.229Z</time>
      </trkpt>
      <trkpt lat="48.87721" lon="2.33561">
        <ele>54</ele>
        <time>2013-12-09T19:37:57.915Z</time>
      </trkpt>
      <trkpt lat="48.87729" lon="2.33561">
        <ele>56</ele>
        <time>2013-12-09T19:38:00.904Z</time>
      </trkpt>
      <trkpt lat="48.87732" lon="2.3356">
        <ele>57</ele>
        <time>2013-12-09T19:38:01.911Z</time>
      </trkpt>
      <trkpt lat="48.87739" lon="2.33558">
        <ele>61</ele>
        <time>2013-12-09T19:38:04.242Z</time>
      </trkpt>
      <trkpt lat="48.87743" lon="2.33557">
        <ele>62</ele>
        <time>2013-12-09T19:38:05.242Z</time>
      </trkpt>
      <trkpt lat="48.8775" lon="2.33557">
        <ele>62</ele>
        <time>2013-12-09T19:38:07.236Z</time>
      </trkpt>
      <trkpt lat="48.87753" lon="2.33556">
        <ele>61</ele>
        <time>2013-12-09T19:38:08.169Z</time>
      </trkpt>
      <trkpt lat="48.8776" lon="2.33556">
        <ele>61</ele>
        <time>2013-12-09T19:38:10.168Z</time>
      </trkpt>
      <trkpt lat="48.87763" lon="2.33556">
        <ele>60</ele>
        <time>2013-12-09T19:38:11.167Z</time>
      </trkpt>
      <trkpt lat="48.87772" lon="2.33556">
        <ele>60</ele>
        <time>2013-12-09T19:38:14.228Z</time>
      </trkpt>
      <trkpt lat="48.87776" lon="2.33557">
        <ele>60</ele>
        <time>2013-12-09T19:38:15.989Z</time>
      </trkpt>
      <trkpt lat="48.87784" lon="2.3356">
        <ele>62</ele>
        <time>2013-12-09T19:38:19.151Z</time>
      </trkpt>
      <trkpt lat="48.87786" lon="2.3356">
        <ele>61</ele>
        <time>2013-12-09T19:38:20.177Z</time>
      </trkpt>
      <trkpt lat="48.87795" lon="2.33559">
        <ele>62</ele>
        <time>2013-12-09T19:38:25.970Z</time>
      </trkpt>
      <trkpt lat="48.87795" lon="2.33559">
        <ele>63</ele>
        <time>2013-12-09T19:38:26.970Z</time>
      </trkpt>
      <trkpt lat="48.87801" lon="2.33568">
        <ele>72</ele>
        <time>2013-12-09T19:38:36.233Z</time>
      </trkpt>
      <trkpt lat="48.87801" lon="2.33569">
        <ele>72</ele>
        <time>2013-12-09T19:38:37.246Z</time>
      </trkpt>
      <trkpt lat="48.87799" lon="2.33581">
        <ele>74</ele>
        <time>2013-12-09T19:38:43.144Z</time>
      </trkpt>
      <trkpt lat="48.87797" lon="2.33582">
        <ele>74</ele>
        <time>2013-12-09T19:38:44.168Z</time>
      </trkpt>
      <trkpt lat="48.8779" lon="2.33588">
        <ele>75</ele>
        <time>2013-12-09T19:38:49.169Z</time>
      </trkpt>
      <trkpt lat="48.87789" lon="2.33589">
        <ele>75</ele>
        <time>2013-12-09T19:38:50.175Z</time>
      </trkpt>
      <trkpt lat="48.87784" lon="2.33597">
        <ele>74</ele>
        <time>2013-12-09T19:38:53.170Z</time>
      </trkpt>
      <trkpt lat="48.87783" lon="2.33601">
        <ele>76</ele>
        <time>2013-12-09T19:38:54.141Z</time>
      </trkpt>
      <trkpt lat="48.87778" lon="2.33612">
        <ele>76</ele>
        <time>2013-12-09T19:38:56.169Z</time>
      </trkpt>
      <trkpt lat="48.87776" lon="2.33619">
        <ele>76</ele>
        <time>2013-12-09T19:38:57.172Z</time>
      </trkpt>
      <trkpt lat="48.87775" lon="2.33626">
        <ele>77</ele>
        <time>2013-12-09T19:38:58.170Z</time>
      </trkpt>
      <trkpt lat="48.87773" lon="2.33634">
        <ele>77</ele>
        <time>2013-12-09T19:38:59.230Z</time>
      </trkpt>
      <trkpt lat="48.87779" lon="2.33649">
        <ele>78</ele>
        <time>2013-12-09T19:39:00.251Z</time>
      </trkpt>
      <trkpt lat="48.87783" lon="2.3366">
        <ele>78</ele>
        <time>2013-12-09T19:39:01.237Z</time>
      </trkpt>
      <trkpt lat="48.87783" lon="2.33668">
        <ele>77</ele>
        <time>2013-12-09T19:39:02.264Z</time>
      </trkpt>
      <trkpt lat="48.87781" lon="2.33677">
        <ele>77</ele>
        <time>2013-12-09T19:39:04.230Z</time>
      </trkpt>
      <trkpt lat="48.8778" lon="2.3368">
        <ele>78</ele>
        <time>2013-12-09T19:39:05.230Z</time>
      </trkpt>
      <trkpt lat="48.87774" lon="2.33689">
        <ele>80</ele>
        <time>2013-12-09T19:39:08.932Z</time>
      </trkpt>
      <trkpt lat="48.87773" lon="2.3369">
        <ele>79</ele>
        <time>2013-12-09T19:39:10.059Z</time>
      </trkpt>
      <trkpt lat="48.87768" lon="2.33699">
        <ele>81</ele>
        <time>2013-12-09T19:39:12.954Z</time>
      </trkpt>
      <trkpt lat="48.87767" lon="2.33704">
        <ele>80</ele>
        <time>2013-12-09T19:39:13.902Z</time>
      </trkpt>
      <trkpt lat="48.87765" lon="2.3371">
        <ele>81</ele>
        <time>2013-12-09T19:39:14.900Z</time>
      </trkpt>
      <trkpt lat="48.87766" lon="2.33718">
        <ele>81</ele>
        <time>2013-12-09T19:39:15.901Z</time>
      </trkpt>
      <trkpt lat="48.87768" lon="2.3373">
        <ele>80</ele>
        <time>2013-12-09T19:39:17.902Z</time>
      </trkpt>
      <trkpt lat="48.87769" lon="2.33734">
        <ele>79</ele>
        <time>2013-12-09T19:39:18.902Z</time>
      </trkpt>
      <trkpt lat="48.87777" lon="2.33739">
        <ele>79</ele>
        <time>2013-12-09T19:39:24.233Z</time>
      </trkpt>
      <trkpt lat="48.87778" lon="2.33739">
        <ele>80</ele>
        <time>2013-12-09T19:39:25.170Z</time>
      </trkpt>
      <trkpt lat="48.87782" lon="2.3375">
        <ele>81</ele>
        <time>2013-12-09T19:39:30.232Z</time>
      </trkpt>
      <trkpt lat="48.87782" lon="2.33753">
        <ele>80</ele>
        <time>2013-12-09T19:39:31.150Z</time>
      </trkpt>
      <trkpt lat="48.87785" lon="2.33765">
        <ele>81</ele>
        <time>2013-12-09T19:39:34.230Z</time>
      </trkpt>
      <trkpt lat="48.87786" lon="2.33768">
        <ele>79</ele>
        <time>2013-12-09T19:39:35.230Z</time>
      </trkpt>
      <trkpt lat="48.87793" lon="2.33774">
        <ele>73</ele>
        <time>2013-12-09T19:39:38.168Z</time>
      </trkpt>
      <trkpt lat="48.87796" lon="2.33775">
        <ele>74</ele>
        <time>2013-12-09T19:39:39.154Z</time>
      </trkpt>
      <trkpt lat="48.87802" lon="2.33774">
        <ele>71</ele>
        <time>2013-12-09T19:39:41.168Z</time>
      </trkpt>
      <trkpt lat="48.87806" lon="2.33773">
        <ele>71</ele>
        <time>2013-12-09T19:39:42.194Z</time>
      </trkpt>
      <trkpt lat="48.87814" lon="2.33772">
        <ele>71</ele>
        <time>2013-12-09T19:39:45.233Z</time>
      </trkpt>
      <trkpt lat="48.87816" lon="2.33773">
        <ele>73</ele>
        <time>2013-12-09T19:39:46.172Z</time>
      </trkpt>
      <trkpt lat="48.87814" lon="2.33785">
        <ele>70</ele>
        <time>2013-12-09T19:39:53.280Z</time>
      </trkpt>
      <trkpt lat="48.87813" lon="2.33787">
        <ele>71</ele>
        <time>2013-12-09T19:39:54.144Z</time>
      </trkpt>
      <trkpt lat="48.87806" lon="2.33796">
        <ele>67</ele>
        <time>2013-12-09T19:39:58.231Z</time>
      </trkpt>
      <trkpt lat="48.87804" lon="2.33798">
        <ele>68</ele>
        <time>2013-12-09T19:39:59.233Z</time>
      </trkpt>
      <trkpt lat="48.87807" lon="2.3381">
        <ele>65</ele>
        <time>2013-12-09T19:40:05.241Z</time>
      </trkpt>
      <trkpt lat="48.8781" lon="2.33812">
        <ele>65</ele>
        <time>2013-12-09T19:40:06.181Z</time>
      </trkpt>
      <trkpt lat="48.87817" lon="2.33821">
        <ele>64</ele>
        <time>2013-12-09T19:40:09.162Z</time>
      </trkpt>
      <trkpt lat="48.8782" lon="2.33824">
        <ele>63</ele>
        <time>2013-12-09T19:40:10.187Z</time>
      </trkpt>
      <trkpt lat="48.87826" lon="2.33827">
        <ele>64</ele>
        <time>2013-12-09T19:40:12.217Z</time>
      </trkpt>
      <trkpt lat="48.8783" lon="2.33827">
        <ele>63</ele>
        <time>2013-12-09T19:40:13.233Z</time>
      </trkpt>
      <trkpt lat="48.87839" lon="2.33825">
        <ele>63</ele>
        <time>2013-12-09T19:40:15.578Z</time>
      </trkpt>
      <trkpt lat="48.87842" lon="2.33824">
        <ele>62</ele>
        <time>2013-12-09T19:40:16.549Z</time>
      </trkpt>
      <trkpt lat="48.87848" lon="2.33824">
        <ele>61</ele>
        <time>2013-12-09T19:40:18.230Z</time>
      </trkpt>
      <trkpt lat="48.87853" lon="2.33823">
        <ele>61</ele>
        <time>2013-12-09T19:40:19.241Z</time>
      </trkpt>
      <trkpt lat="48.87861" lon="2.33822">
        <ele>61</ele>
        <time>2013-12-09T19:40:21.228Z</time>
      </trkpt>
      <trkpt lat="48.87865" lon="2.33821">
        <ele>62</ele>
        <time>2013-12-09T19:40:22.231Z</time>
      </trkpt>
      <trkpt lat="48.87873" lon="2.33815">
        <ele>69</ele>
        <time>2013-12-09T19:40:25.136Z</time>
      </trkpt>
      <trkpt lat="48.87874" lon="2.33813">
        <ele>72</ele>
        <time>2013-12-09T19:40:26.166Z</time>
      </trkpt>
      <trkpt lat="48.87879" lon="2.33807">
        <ele>73</ele>
        <time>2013-12-09T19:40:28.166Z</time>
      </trkpt>
      <trkpt lat="48.87881" lon="2.33803">
        <ele>75</ele>
        <time>2013-12-09T19:40:29.170Z</time>
      </trkpt>
      <trkpt lat="48.87886" lon="2.33792">
        <ele>77</ele>
        <time>2013-12-09T19:40:31.148Z</time>
      </trkpt>
      <trkpt lat="48.8789" lon="2.33786">
        <ele>77</ele>
        <time>2013-12-09T19:40:32.508Z</time>
      </trkpt>
      <trkpt lat="48.87894" lon="2.3378">
        <ele>78</ele>
        <time>2013-12-09T19:40:33.443Z</time>
      </trkpt>
      <trkpt lat="48.87898" lon="2.33773">
        <ele>78</ele>
        <time>2013-12-09T19:40:34.414Z</time>
      </trkpt>
      <trkpt lat="48.87902" lon="2.33766">
        <ele>80</ele>
        <time>2013-12-09T19:40:35.442Z</time>
      </trkpt>
      <trkpt lat="48.87902" lon="2.3376">
        <ele>79</ele>
        <time>2013-12-09T19:40:36.445Z</time>
      </trkpt>
      <trkpt lat="48.87906" lon="2.33748">
        <ele>79</ele>
        <time>2013-12-09T19:40:39.540Z</time>
      </trkpt>
      <trkpt lat="48.87904" lon="2.33743">
        <ele>80</ele>
        <time>2013-12-09T19:40:40.530Z</time>
      </trkpt>
      <trkpt lat="48.87901" lon="2.33737">
        <ele>81</ele>
        <time>2013-12-09T19:40:41.475Z</time>
      </trkpt>
      <trkpt lat="48.879" lon="2.33729">
        <ele>82</ele>
        <time>2013-12-09T19:40:42.236Z</time>
      </trkpt>
      <trkpt lat="48.87898" lon="2.33717">
        <ele>81</ele>
        <time>2013-12-09T19:40:44.304Z</time>
      </trkpt>
      <trkpt lat="48.87897" lon="2.33708">
        <ele>83</ele>
        <time>2013-12-09T19:40:45.150Z</time>
      </trkpt>
      <trkpt lat="48.87891" lon="2.33691">
        <ele>84</ele>
        <time>2013-12-09T19:40:46.263Z</time>
      </trkpt>
      <trkpt lat="48.87891" lon="2.33669">
        <ele>88</ele>
        <time>2013-12-09T19:40:47.869Z</time>
      </trkpt>
      <trkpt lat="48.87897" lon="2.33666">
        <ele>85</ele>
        <time>2013-12-09T19:40:51.903Z</time>
      </trkpt>
      <trkpt lat="48.87901" lon="2.3367">
        <ele>84</ele>
        <time>2013-12-09T19:40:52.902Z</time>
      </trkpt>
      <trkpt lat="48.87905" lon="2.33674">
        <ele>84</ele>
        <time>2013-12-09T19:40:54.367Z</time>
      </trkpt>
      <trkpt lat="48.87908" lon="2.33678">
        <ele>83</ele>
        <time>2013-12-09T19:40:54.869Z</time>
      </trkpt>
      <trkpt lat="48.87916" lon="2.33685">
        <ele>80</ele>
        <time>2013-12-09T19:40:56.866Z</time>
      </trkpt>
      <trkpt lat="48.87919" lon="2.33689">
        <ele>81</ele>
        <time>2013-12-09T19:40:57.890Z</time>
      </trkpt>
      <trkpt lat="48.87925" lon="2.33695">
        <ele>81</ele>
        <time>2013-12-09T19:40:59.897Z</time>
      </trkpt>
      <trkpt lat="48.87927" lon="2.33696">
        <ele>81</ele>
        <time>2013-12-09T19:41:00.869Z</time>
      </trkpt>
      <trkpt lat="48.87928" lon="2.33707">
        <ele>81</ele>
        <time>2013-12-09T19:41:06.347Z</time>
      </trkpt>
      <trkpt lat="48.87927" lon="2.3371">
        <ele>81</ele>
        <time>2013-12-09T19:41:07.376Z</time>
      </trkpt>
      <trkpt lat="48.87922" lon="2.33718">
        <ele>81</ele>
        <time>2013-12-09T19:41:10.224Z</time>
      </trkpt>
      <trkpt lat="48.8792" lon="2.3372">
        <ele>84</ele>
        <time>2013-12-09T19:41:11.229Z</time>
      </trkpt>
      <trkpt lat="48.87915" lon="2.33728">
        <ele>86</ele>
        <time>2013-12-09T19:41:14.476Z</time>
      </trkpt>
      <trkpt lat="48.87914" lon="2.33732">
        <ele>86</ele>
        <time>2013-12-09T19:41:15.240Z</time>
      </trkpt>
      <trkpt lat="48.87914" lon="2.33744">
        <ele>90</ele>
        <time>2013-12-09T19:41:18.231Z</time>
      </trkpt>
      <trkpt lat="48.87914" lon="2.33749">
        <ele>90</ele>
        <time>2013-12-09T19:41:19.169Z</time>
      </trkpt>
      <trkpt lat="48.87914" lon="2.3376">
        <ele>95</ele>
        <time>2013-12-09T19:41:21.230Z</time>
      </trkpt>
      <trkpt lat="48.87913" lon="2.33765">
        <ele>96</ele>
        <time>2013-12-09T19:41:22.235Z</time>
      </trkpt>
      <trkpt lat="48.87912" lon="2.33776">
        <ele>95</ele>
        <time>2013-12-09T19:41:24.488Z</time>
      </trkpt>
      <trkpt lat="48.87912" lon="2.33782">
        <ele>95</ele>
        <time>2013-12-09T19:41:25.227Z</time>
      </trkpt>
      <trkpt lat="48.87911" lon="2.33793">
        <ele>96</ele>
        <time>2013-12-09T19:41:27.228Z</time>
      </trkpt>
      <trkpt lat="48.8791" lon="2.33798">
        <ele>97</ele>
        <time>2013-12-09T19:41:28.231Z</time>
      </trkpt>
      <trkpt lat="48.87908" lon="2.33808">
        <ele>97</ele>
        <time>2013-12-09T19:41:30.143Z</time>
      </trkpt>
      <trkpt lat="48.87907" lon="2.33814">
        <ele>98</ele>
        <time>2013-12-09T19:41:31.171Z</time>
      </trkpt>
      <trkpt lat="48.87904" lon="2.33826">
        <ele>100</ele>
        <time>2013-12-09T19:41:33.169Z</time>
      </trkpt>
      <trkpt lat="48.87903" lon="2.33832">
        <ele>99</ele>
        <time>2013-12-09T19:41:34.154Z</time>
      </trkpt>
      <trkpt lat="48.87902" lon="2.33838">
        <ele>101</ele>
        <time>2013-12-09T19:41:36.542Z</time>
      </trkpt>
      <trkpt lat="48.879" lon="2.33845">
        <ele>100</ele>
        <time>2013-12-09T19:41:36.805Z</time>
      </trkpt>
      <trkpt lat="48.87897" lon="2.33854">
        <ele>98</ele>
        <time>2013-12-09T19:41:38.254Z</time>
      </trkpt>
      <trkpt lat="48.87895" lon="2.3386">
        <ele>95</ele>
        <time>2013-12-09T19:41:39.230Z</time>
      </trkpt>
      <trkpt lat="48.87891" lon="2.33872">
        <ele>95</ele>
        <time>2013-12-09T19:41:41.588Z</time>
      </trkpt>
      <trkpt lat="48.8789" lon="2.33878">
        <ele>93</ele>
        <time>2013-12-09T19:41:42.239Z</time>
      </trkpt>
      <trkpt lat="48.87888" lon="2.33887">
        <ele>86</ele>
        <time>2013-12-09T19:41:44.235Z</time>
      </trkpt>
      <trkpt lat="48.87887" lon="2.33893">
        <ele>87</ele>
        <time>2013-12-09T19:41:45.234Z</time>
      </trkpt>
      <trkpt lat="48.87886" lon="2.33905">
        <ele>90</ele>
        <time>2013-12-09T19:41:47.233Z</time>
      </trkpt>
      <trkpt lat="48.87886" lon="2.33912">
        <ele>89</ele>
        <time>2013-12-09T19:41:48.235Z</time>
      </trkpt>
      <trkpt lat="48.87885" lon="2.33919">
        <ele>90</ele>
        <time>2013-12-09T19:41:49.290Z</time>
      </trkpt>
      <trkpt lat="48.87885" lon="2.33925">
        <ele>87</ele>
        <time>2013-12-09T19:41:50.232Z</time>
      </trkpt>
      <trkpt lat="48.87883" lon="2.33938">
        <ele>86</ele>
        <time>2013-12-09T19:41:52.249Z</time>
      </trkpt>
      <trkpt lat="48.87882" lon="2.33943">
        <ele>85</ele>
        <time>2013-12-09T19:41:53.236Z</time>
      </trkpt>
      <trkpt lat="48.87878" lon="2.33955">
        <ele>82</ele>
        <time>2013-12-09T19:41:57.239Z</time>
      </trkpt>
      <trkpt lat="48.87878" lon="2.33956">
        <ele>82</ele>
        <time>2013-12-09T19:41:58.450Z</time>
      </trkpt>
      <trkpt lat="48.8787" lon="2.33956">
        <ele>80</ele>
        <time>2013-12-09T19:42:12.138Z</time>
      </trkpt>
      <trkpt lat="48.87866" lon="2.33954">
        <ele>79</ele>
        <time>2013-12-09T19:42:13.155Z</time>
      </trkpt>
      <trkpt lat="48.8786" lon="2.33953">
        <ele>78</ele>
        <time>2013-12-09T19:42:14.164Z</time>
      </trkpt>
      <trkpt lat="48.87855" lon="2.33951">
        <ele>77</ele>
        <time>2013-12-09T19:42:15.192Z</time>
      </trkpt>
      <trkpt lat="48.8785" lon="2.33951">
        <ele>74</ele>
        <time>2013-12-09T19:42:16.672Z</time>
      </trkpt>
      <trkpt lat="48.87845" lon="2.3395">
        <ele>74</ele>
        <time>2013-12-09T19:42:17.132Z</time>
      </trkpt>
      <trkpt lat="48.87837" lon="2.33954">
        <ele>75</ele>
        <time>2013-12-09T19:42:19.162Z</time>
      </trkpt>
      <trkpt lat="48.87835" lon="2.33958">
        <ele>74</ele>
        <time>2013-12-09T19:42:20.153Z</time>
      </trkpt>
      <trkpt lat="48.87836" lon="2.3397">
        <ele>73</ele>
        <time>2013-12-09T19:42:23.150Z</time>
      </trkpt>
      <trkpt lat="48.87837" lon="2.33974">
        <ele>70</ele>
        <time>2013-12-09T19:42:24.138Z</time>
      </trkpt>
      <trkpt lat="48.8784" lon="2.33983">
        <ele>67</ele>
        <time>2013-12-09T19:42:26.683Z</time>
      </trkpt>
      <trkpt lat="48.8784" lon="2.33987">
        <ele>67</ele>
        <time>2013-12-09T19:42:27.239Z</time>
      </trkpt>
      <trkpt lat="48.87839" lon="2.34">
        <ele>65</ele>
        <time>2013-12-09T19:42:31.714Z</time>
      </trkpt>
      <trkpt lat="48.87839" lon="2.34003">
        <ele>63</ele>
        <time>2013-12-09T19:42:31.955Z</time>
      </trkpt>
      <trkpt lat="48.87839" lon="2.34017">
        <ele>62</ele>
        <time>2013-12-09T19:42:36.737Z</time>
      </trkpt>
      <trkpt lat="48.8784" lon="2.34019">
        <ele>62</ele>
        <time>2013-12-09T19:42:37.239Z</time>
      </trkpt>
      <trkpt lat="48.87845" lon="2.34028">
        <ele>66</ele>
        <time>2013-12-09T19:42:41.769Z</time>
      </trkpt>
      <trkpt lat="48.87845" lon="2.34031">
        <ele>70</ele>
        <time>2013-12-09T19:42:42.235Z</time>
      </trkpt>
      <trkpt lat="48.87838" lon="2.34035">
        <ele>62</ele>
        <time>2013-12-09T19:42:47.232Z</time>
      </trkpt>
      <trkpt lat="48.87836" lon="2.34035">
        <ele>62</ele>
        <time>2013-12-09T19:42:48.231Z</time>
      </trkpt>
      <trkpt lat="48.87842" lon="2.34041">
        <ele>64</ele>
        <time>2013-12-09T19:42:54.234Z</time>
      </trkpt>
      <trkpt lat="48.87845" lon="2.34044">
        <ele>62</ele>
        <time>2013-12-09T19:42:55.230Z</time>
      </trkpt>
      <trkpt lat="48.87852" lon="2.34049">
        <ele>59</ele>
        <time>2013-12-09T19:42:57.254Z</time>
      </trkpt>
      <trkpt lat="48.87855" lon="2.34053">
        <ele>59</ele>
        <time>2013-12-09T19:42:58.252Z</time>
      </trkpt>
      <trkpt lat="48.8786" lon="2.3406">
        <ele>57</ele>
        <time>2013-12-09T19:43:00.232Z</time>
      </trkpt>
      <trkpt lat="48.87861" lon="2.34064">
        <ele>55</ele>
        <time>2013-12-09T19:43:01.165Z</time>
      </trkpt>
      <trkpt lat="48.87865" lon="2.34073">
        <ele>49</ele>
        <time>2013-12-09T19:43:03.231Z</time>
      </trkpt>
      <trkpt lat="48.87867" lon="2.34077">
        <ele>50</ele>
        <time>2013-12-09T19:43:04.234Z</time>
      </trkpt>
      <trkpt lat="48.87872" lon="2.34083">
        <ele>51</ele>
        <time>2013-12-09T19:43:06.225Z</time>
      </trkpt>
      <trkpt lat="48.87875" lon="2.34085">
        <ele>51</ele>
        <time>2013-12-09T19:43:07.247Z</time>
      </trkpt>
      <trkpt lat="48.87883" lon="2.34086">
        <ele>52</ele>
        <time>2013-12-09T19:43:11.260Z</time>
      </trkpt>
      <trkpt lat="48.87884" lon="2.34086">
        <ele>52</ele>
        <time>2013-12-09T19:43:12.157Z</time>
      </trkpt>
      <trkpt lat="48.87893" lon="2.34083">
        <ele>53</ele>
        <time>2013-12-09T19:43:19.158Z</time>
      </trkpt>
      <trkpt lat="48.87894" lon="2.34085">
        <ele>52</ele>
        <time>2013-12-09T19:43:20.177Z</time>
      </trkpt>
      <trkpt lat="48.87898" lon="2.34096">
        <ele>51</ele>
        <time>2013-12-09T19:43:26.063Z</time>
      </trkpt>
      <trkpt lat="48.87899" lon="2.34097">
        <ele>51</ele>
        <time>2013-12-09T19:43:26.135Z</time>
      </trkpt>
      <trkpt lat="48.87906" lon="2.34096">
        <ele>54</ele>
        <time>2013-12-09T19:43:33.254Z</time>
      </trkpt>
      <trkpt lat="48.87908" lon="2.34097">
        <ele>54</ele>
        <time>2013-12-09T19:43:34.231Z</time>
      </trkpt>
      <trkpt lat="48.87915" lon="2.34099">
        <ele>55</ele>
        <time>2013-12-09T19:43:41.201Z</time>
      </trkpt>
      <trkpt lat="48.87917" lon="2.341">
        <ele>56</ele>
        <time>2013-12-09T19:43:42.225Z</time>
      </trkpt>
      <trkpt lat="48.87925" lon="2.34095">
        <ele>57</ele>
        <time>2013-12-09T19:43:47.232Z</time>
      </trkpt>
      <trkpt lat="48.87925" lon="2.34093">
        <ele>58</ele>
        <time>2013-12-09T19:43:48.229Z</time>
      </trkpt>
      <trkpt lat="48.87931" lon="2.34103">
        <ele>69</ele>
        <time>2013-12-09T19:43:58.231Z</time>
      </trkpt>
      <trkpt lat="48.87932" lon="2.34103">
        <ele>70</ele>
        <time>2013-12-09T19:43:59.230Z</time>
      </trkpt>
      <trkpt lat="48.87938" lon="2.34096">
        <ele>75</ele>
        <time>2013-12-09T19:44:11.173Z</time>
      </trkpt>
      <trkpt lat="48.87938" lon="2.34096">
        <ele>75</ele>
        <time>2013-12-09T19:44:12.176Z</time>
      </trkpt>
      <trkpt lat="48.87938" lon="2.34096">
        <ele>75</ele>
        <time>2013-12-09T19:44:29.473Z</time>
      </trkpt>
      <trkpt lat="48.87939" lon="2.34098">
        <ele>77</ele>
        <time>2013-12-09T19:44:30.235Z</time>
      </trkpt>
      <trkpt lat="48.87943" lon="2.34108">
        <ele>79</ele>
        <time>2013-12-09T19:44:33.232Z</time>
      </trkpt>
      <trkpt lat="48.87944" lon="2.34112">
        <ele>79</ele>
        <time>2013-12-09T19:44:34.172Z</time>
      </trkpt>
      <trkpt lat="48.87945" lon="2.34122">
        <ele>79</ele>
        <time>2013-12-09T19:44:36.231Z</time>
      </trkpt>
      <trkpt lat="48.87945" lon="2.34127">
        <ele>77</ele>
        <time>2013-12-09T19:44:37.229Z</time>
      </trkpt>
      <trkpt lat="48.87944" lon="2.34139">
        <ele>81</ele>
        <time>2013-12-09T19:44:39.533Z</time>
      </trkpt>
      <trkpt lat="48.87943" lon="2.34146">
        <ele>83</ele>
        <time>2013-12-09T19:44:40.240Z</time>
      </trkpt>
      <trkpt lat="48.87941" lon="2.34159">
        <ele>85</ele>
        <time>2013-12-09T19:44:42.277Z</time>
      </trkpt>
      <trkpt lat="48.87939" lon="2.34165">
        <ele>87</ele>
        <time>2013-12-09T19:44:43.418Z</time>
      </trkpt>
      <trkpt lat="48.87938" lon="2.34172">
        <ele>88</ele>
        <time>2013-12-09T19:44:44.537Z</time>
      </trkpt>
      <trkpt lat="48.87937" lon="2.34179">
        <ele>89</ele>
        <time>2013-12-09T19:44:45.234Z</time>
      </trkpt>
      <trkpt lat="48.87933" lon="2.34191">
        <ele>90</ele>
        <time>2013-12-09T19:44:47.233Z</time>
      </trkpt>
      <trkpt lat="48.87932" lon="2.34197">
        <ele>91</ele>
        <time>2013-12-09T19:44:48.230Z</time>
      </trkpt>
      <trkpt lat="48.87928" lon="2.34208">
        <ele>92</ele>
        <time>2013-12-09T19:44:50.238Z</time>
      </trkpt>
      <trkpt lat="48.87926" lon="2.34215">
        <ele>92</ele>
        <time>2013-12-09T19:44:51.448Z</time>
      </trkpt>
      <trkpt lat="48.87922" lon="2.34225">
        <ele>93</ele>
        <time>2013-12-09T19:44:53.232Z</time>
      </trkpt>
      <trkpt lat="48.8792" lon="2.34232">
        <ele>94</ele>
        <time>2013-12-09T19:44:54.168Z</time>
      </trkpt>
      <trkpt lat="48.87919" lon="2.3424">
        <ele>99</ele>
        <time>2013-12-09T19:44:55.168Z</time>
      </trkpt>
      <trkpt lat="48.87917" lon="2.34248">
        <ele>99</ele>
        <time>2013-12-09T19:44:56.166Z</time>
      </trkpt>
      <trkpt lat="48.87916" lon="2.34256">
        <ele>100</ele>
        <time>2013-12-09T19:44:57.170Z</time>
      </trkpt>
      <trkpt lat="48.87915" lon="2.34264">
        <ele>102</ele>
        <time>2013-12-09T19:44:58.172Z</time>
      </trkpt>
      <trkpt lat="48.87911" lon="2.34276">
        <ele>103</ele>
        <time>2013-12-09T19:45:00.144Z</time>
      </trkpt>
      <trkpt lat="48.87909" lon="2.3428">
        <ele>106</ele>
        <time>2013-12-09T19:45:01.174Z</time>
      </trkpt>
      <trkpt lat="48.87903" lon="2.3429">
        <ele>102</ele>
        <time>2013-12-09T19:45:04.576Z</time>
      </trkpt>
      <trkpt lat="48.87902" lon="2.34293">
        <ele>102</ele>
        <time>2013-12-09T19:45:05.145Z</time>
      </trkpt>
      <trkpt lat="48.879" lon="2.34304">
        <ele>103</ele>
        <time>2013-12-09T19:45:08.165Z</time>
      </trkpt>
      <trkpt lat="48.87899" lon="2.34309">
        <ele>105</ele>
        <time>2013-12-09T19:45:09.178Z</time>
      </trkpt>
      <trkpt lat="48.87896" lon="2.34321">
        <ele>105</ele>
        <time>2013-12-09T19:45:11.146Z</time>
      </trkpt>
      <trkpt lat="48.87894" lon="2.34328">
        <ele>107</ele>
        <time>2013-12-09T19:45:12.149Z</time>
      </trkpt>
      <trkpt lat="48.87892" lon="2.34335">
        <ele>105</ele>
        <time>2013-12-09T19:45:13.179Z</time>
      </trkpt>
      <trkpt lat="48.8789" lon="2.34342">
        <ele>106</ele>
        <time>2013-12-09T19:45:14.174Z</time>
      </trkpt>
      <trkpt lat="48.87888" lon="2.34349">
        <ele>105</ele>
        <time>2013-12-09T19:45:15.148Z</time>
      </trkpt>
      <trkpt lat="48.87887" lon="2.34356">
        <ele>102</ele>
        <time>2013-12-09T19:45:16.153Z</time>
      </trkpt>
      <trkpt lat="48.87886" lon="2.34363">
        <ele>104</ele>
        <time>2013-12-09T19:45:17.176Z</time>
      </trkpt>
      <trkpt lat="48.87887" lon="2.34375">
        <ele>103</ele>
        <time>2013-12-09T19:45:18.148Z</time>
      </trkpt>
      <trkpt lat="48.87887" lon="2.34385">
        <ele>105</ele>
        <time>2013-12-09T19:45:19.628Z</time>
      </trkpt>
      <trkpt lat="48.87887" lon="2.34395">
        <ele>105</ele>
        <time>2013-12-09T19:45:20.237Z</time>
      </trkpt>
      <trkpt lat="48.87885" lon="2.34404">
        <ele>105</ele>
        <time>2013-12-09T19:45:21.234Z</time>
      </trkpt>
      <trkpt lat="48.87884" lon="2.34412">
        <ele>106</ele>
        <time>2013-12-09T19:45:22.233Z</time>
      </trkpt>
      <trkpt lat="48.87883" lon="2.3442">
        <ele>104</ele>
        <time>2013-12-09T19:45:23.237Z</time>
      </trkpt>
      <trkpt lat="48.87882" lon="2.34427">
        <ele>104</ele>
        <time>2013-12-09T19:45:24.162Z</time>
      </trkpt>
      <trkpt lat="48.87881" lon="2.34436">
        <ele>105</ele>
        <time>2013-12-09T19:45:25.466Z</time>
      </trkpt>
      <trkpt lat="48.8788" lon="2.34442">
        <ele>106</ele>
        <time>2013-12-09T19:45:26.235Z</time>
      </trkpt>
      <trkpt lat="48.8788" lon="2.3445">
        <ele>106</ele>
        <time>2013-12-09T19:45:27.237Z</time>
      </trkpt>
      <trkpt lat="48.87879" lon="2.34458">
        <ele>105</ele>
        <time>2013-12-09T19:45:28.233Z</time>
      </trkpt>
      <trkpt lat="48.87877" lon="2.34465">
        <ele>103</ele>
        <time>2013-12-09T19:45:29.156Z</time>
      </trkpt>
      <trkpt lat="48.87875" lon="2.34474">
        <ele>103</ele>
        <time>2013-12-09T19:45:30.148Z</time>
      </trkpt>
      <trkpt lat="48.87874" lon="2.34482">
        <ele>103</ele>
        <time>2013-12-09T19:45:32.100Z</time>
      </trkpt>
      <trkpt lat="48.87872" lon="2.34489">
        <ele>103</ele>
        <time>2013-12-09T19:45:32.143Z</time>
      </trkpt>
      <trkpt lat="48.8787" lon="2.34495">
        <ele>103</ele>
        <time>2013-12-09T19:45:33.172Z</time>
      </trkpt>
      <trkpt lat="48.87868" lon="2.34501">
        <ele>102</ele>
        <time>2013-12-09T19:45:34.203Z</time>
      </trkpt>
      <trkpt lat="48.87868" lon="2.34508">
        <ele>99</ele>
        <time>2013-12-09T19:45:35.238Z</time>
      </trkpt>
      <trkpt lat="48.87869" lon="2.34515">
        <ele>98</ele>
        <time>2013-12-09T19:45:36.511Z</time>
      </trkpt>
      <trkpt lat="48.87869" lon="2.34527">
        <ele>100</ele>
        <time>2013-12-09T19:45:39.166Z</time>
      </trkpt>
      <trkpt lat="48.87869" lon="2.34532">
        <ele>100</ele>
        <time>2013-12-09T19:45:40.138Z</time>
      </trkpt>
      <trkpt lat="48.87868" lon="2.34542">
        <ele>98</ele>
        <time>2013-12-09T19:45:42.168Z</time>
      </trkpt>
      <trkpt lat="48.87866" lon="2.34547">
        <ele>98</ele>
        <time>2013-12-09T19:45:43.162Z</time>
      </trkpt>
      <trkpt lat="48.87863" lon="2.34556">
        <ele>95</ele>
        <time>2013-12-09T19:45:45.228Z</time>
      </trkpt>
      <trkpt lat="48.87862" lon="2.3456">
        <ele>94</ele>
        <time>2013-12-09T19:45:46.297Z</time>
      </trkpt>
      <trkpt lat="48.87854" lon="2.34556">
        <ele>92</ele>
        <time>2013-12-09T19:45:55.303Z</time>
      </trkpt>
      <trkpt lat="48.87854" lon="2.34552">
        <ele>92</ele>
        <time>2013-12-09T19:45:56.247Z</time>
      </trkpt>
      <trkpt lat="48.87852" lon="2.34542">
        <ele>90</ele>
        <time>2013-12-09T19:45:59.148Z</time>
      </trkpt>
      <trkpt lat="48.8785" lon="2.34538">
        <ele>91</ele>
        <time>2013-12-09T19:45:59.203Z</time>
      </trkpt>
      <trkpt lat="48.87847" lon="2.3453">
        <ele>89</ele>
        <time>2013-12-09T19:46:01.234Z</time>
      </trkpt>
      <trkpt lat="48.87845" lon="2.34527">
        <ele>85</ele>
        <time>2013-12-09T19:46:02.237Z</time>
      </trkpt>
      <trkpt lat="48.87837" lon="2.34522">
        <ele>84</ele>
        <time>2013-12-09T19:46:05.150Z</time>
      </trkpt>
      <trkpt lat="48.87835" lon="2.3452">
        <ele>85</ele>
        <time>2013-12-09T19:46:06.175Z</time>
      </trkpt>
      <trkpt lat="48.87831" lon="2.34514">
        <ele>86</ele>
        <time>2013-12-09T19:46:08.176Z</time>
      </trkpt>
      <trkpt lat="48.87829" lon="2.34509">
        <ele>86</ele>
        <time>2013-12-09T19:46:09.197Z</time>
      </trkpt>
      <trkpt lat="48.87826" lon="2.34505">
        <ele>87</ele>
        <time>2013-12-09T19:46:10.231Z</time>
      </trkpt>
      <trkpt lat="48.87823" lon="2.34499">
        <ele>88</ele>
        <time>2013-12-09T19:46:11.216Z</time>
      </trkpt>
      <trkpt lat="48.87819" lon="2.34492">
        <ele>87</ele>
        <time>2013-12-09T19:46:12.232Z</time>
      </trkpt>
      <trkpt lat="48.87816" lon="2.34484">
        <ele>85</ele>
        <time>2013-12-09T19:46:13.182Z</time>
      </trkpt>
      <trkpt lat="48.87812" lon="2.34475">
        <ele>84</ele>
        <time>2013-12-09T19:46:14.225Z</time>
      </trkpt>
      <trkpt lat="48.87809" lon="2.34466">
        <ele>85</ele>
        <time>2013-12-09T19:46:15.146Z</time>
      </trkpt>
      <trkpt lat="48.87806" lon="2.34455">
        <ele>86</ele>
        <time>2013-12-09T19:46:16.189Z</time>
      </trkpt>
      <trkpt lat="48.87804" lon="2.34446">
        <ele>86</ele>
        <time>2013-12-09T19:46:17.174Z</time>
      </trkpt>
      <trkpt lat="48.87802" lon="2.34439">
        <ele>85</ele>
        <time>2013-12-09T19:46:18.151Z</time>
      </trkpt>
      <trkpt lat="48.878" lon="2.34432">
        <ele>85</ele>
        <time>2013-12-09T19:46:19.184Z</time>
      </trkpt>
      <trkpt lat="48.87798" lon="2.34423">
        <ele>85</ele>
        <time>2013-12-09T19:46:20.232Z</time>
      </trkpt>
      <trkpt lat="48.87795" lon="2.34416">
        <ele>85</ele>
        <time>2013-12-09T19:46:21.234Z</time>
      </trkpt>
      <trkpt lat="48.87792" lon="2.34408">
        <ele>86</ele>
        <time>2013-12-09T19:46:22.231Z</time>
      </trkpt>
      <trkpt lat="48.87789" lon="2.34401">
        <ele>85</ele>
        <time>2013-12-09T19:46:23.143Z</time>
      </trkpt>
      <trkpt lat="48.87785" lon="2.34394">
        <ele>87</ele>
        <time>2013-12-09T19:46:24.219Z</time>
      </trkpt>
      <trkpt lat="48.87781" lon="2.34387">
        <ele>86</ele>
        <time>2013-12-09T19:46:25.145Z</time>
      </trkpt>
      <trkpt lat="48.87779" lon="2.34378">
        <ele>87</ele>
        <time>2013-12-09T19:46:26.236Z</time>
      </trkpt>
      <trkpt lat="48.87775" lon="2.34369">
        <ele>85</ele>
        <time>2013-12-09T19:46:27.238Z</time>
      </trkpt>
      <trkpt lat="48.87771" lon="2.34361">
        <ele>86</ele>
        <time>2013-12-09T19:46:28.138Z</time>
      </trkpt>
      <trkpt lat="48.87768" lon="2.34352">
        <ele>85</ele>
        <time>2013-12-09T19:46:29.139Z</time>
      </trkpt>
      <trkpt lat="48.87765" lon="2.34343">
        <ele>87</ele>
        <time>2013-12-09T19:46:30.139Z</time>
      </trkpt>
      <trkpt lat="48.87762" lon="2.34334">
        <ele>87</ele>
        <time>2013-12-09T19:46:31.234Z</time>
      </trkpt>
      <trkpt lat="48.87759" lon="2.34326">
        <ele>88</ele>
        <time>2013-12-09T19:46:32.232Z</time>
      </trkpt>
      <trkpt lat="48.87755" lon="2.34321">
        <ele>88</ele>
        <time>2013-12-09T19:46:33.196Z</time>
      </trkpt>
      <trkpt lat="48.8775" lon="2.34317">
        <ele>88</ele>
        <time>2013-12-09T19:46:34.306Z</time>
      </trkpt>
      <trkpt lat="48.87744" lon="2.34313">
        <ele>85</ele>
        <time>2013-12-09T19:46:35.235Z</time>
      </trkpt>
      <trkpt lat="48.87736" lon="2.3431">
        <ele>85</ele>
        <time>2013-12-09T19:46:37.234Z</time>
      </trkpt>
      <trkpt lat="48.87733" lon="2.34308">
        <ele>86</ele>
        <time>2013-12-09T19:46:38.188Z</time>
      </trkpt>
      <trkpt lat="48.87727" lon="2.34301">
        <ele>88</ele>
        <time>2013-12-09T19:46:41.230Z</time>
      </trkpt>
      <trkpt lat="48.87724" lon="2.34295">
        <ele>86</ele>
        <time>2013-12-09T19:46:41.251Z</time>
      </trkpt>
      <trkpt lat="48.87723" lon="2.34286">
        <ele>81</ele>
        <time>2013-12-09T19:46:42.237Z</time>
      </trkpt>
      <trkpt lat="48.87722" lon="2.34276">
        <ele>79</ele>
        <time>2013-12-09T19:46:43.236Z</time>
      </trkpt>
      <trkpt lat="48.87719" lon="2.34267">
        <ele>77</ele>
        <time>2013-12-09T19:46:44.484Z</time>
      </trkpt>
      <trkpt lat="48.87716" lon="2.3426">
        <ele>76</ele>
        <time>2013-12-09T19:46:45.246Z</time>
      </trkpt>
      <trkpt lat="48.87712" lon="2.34255">
        <ele>76</ele>
        <time>2013-12-09T19:46:46.242Z</time>
      </trkpt>
      <trkpt lat="48.87707" lon="2.34251">
        <ele>73</ele>
        <time>2013-12-09T19:46:47.231Z</time>
      </trkpt>
      <trkpt lat="48.87703" lon="2.34245">
        <ele>73</ele>
        <time>2013-12-09T19:46:48.239Z</time>
      </trkpt>
      <trkpt lat="48.87699" lon="2.34239">
        <ele>73</ele>
        <time>2013-12-09T19:46:49.169Z</time>
      </trkpt>
      <trkpt lat="48.87695" lon="2.34232">
        <ele>73</ele>
        <time>2013-12-09T19:46:50.240Z</time>
      </trkpt>
      <trkpt lat="48.87692" lon="2.34224">
        <ele>73</ele>
        <time>2013-12-09T19:46:51.230Z</time>
      </trkpt>
      <trkpt lat="48.87687" lon="2.34217">
        <ele>74</ele>
        <time>2013-12-09T19:46:52.222Z</time>
      </trkpt>
      <trkpt lat="48.87684" lon="2.34208">
        <ele>74</ele>
        <time>2013-12-09T19:46:53.237Z</time>
      </trkpt>
      <trkpt lat="48.8768" lon="2.34199">
        <ele>73</ele>
        <time>2013-12-09T19:46:54.520Z</time>
      </trkpt>
      <trkpt lat="48.87676" lon="2.34192">
        <ele>73</ele>
        <time>2013-12-09T19:46:55.260Z</time>
      </trkpt>
      <trkpt lat="48.87673" lon="2.34185">
        <ele>73</ele>
        <time>2013-12-09T19:46:56.230Z</time>
      </trkpt>
      <trkpt lat="48.87671" lon="2.3418">
        <ele>72</ele>
        <time>2013-12-09T19:46:57.231Z</time>
      </trkpt>
      <trkpt lat="48.87668" lon="2.34172">
        <ele>73</ele>
        <time>2013-12-09T19:46:59.523Z</time>
      </trkpt>
      <trkpt lat="48.87666" lon="2.34168">
        <ele>72</ele>
        <time>2013-12-09T19:47:00.233Z</time>
      </trkpt>
      <trkpt lat="48.87663" lon="2.34157">
        <ele>72</ele>
        <time>2013-12-09T19:47:03.229Z</time>
      </trkpt>
      <trkpt lat="48.87662" lon="2.34152">
        <ele>71</ele>
        <time>2013-12-09T19:47:04.175Z</time>
      </trkpt>
      <trkpt lat="48.87659" lon="2.34143">
        <ele>73</ele>
        <time>2013-12-09T19:47:06.232Z</time>
      </trkpt>
      <trkpt lat="48.87658" lon="2.34138">
        <ele>72</ele>
        <time>2013-12-09T19:47:07.230Z</time>
      </trkpt>
      <trkpt lat="48.87655" lon="2.34128">
        <ele>70</ele>
        <time>2013-12-09T19:47:09.518Z</time>
      </trkpt>
      <trkpt lat="48.87654" lon="2.34123">
        <ele>68</ele>
        <time>2013-12-09T19:47:10.234Z</time>
      </trkpt>
      <trkpt lat="48.87656" lon="2.34113">
        <ele>71</ele>
        <time>2013-12-09T19:47:12.236Z</time>
      </trkpt>
      <trkpt lat="48.87658" lon="2.34107">
        <ele>71</ele>
        <time>2013-12-09T19:47:13.237Z</time>
      </trkpt>
      <trkpt lat="48.87661" lon="2.34102">
        <ele>71</ele>
        <time>2013-12-09T19:47:14.179Z</time>
      </trkpt>
      <trkpt lat="48.87664" lon="2.34096">
        <ele>72</ele>
        <time>2013-12-09T19:47:15.180Z</time>
      </trkpt>
      <trkpt lat="48.87667" lon="2.34091">
        <ele>70</ele>
        <time>2013-12-09T19:47:16.145Z</time>
      </trkpt>
      <trkpt lat="48.8767" lon="2.34087">
        <ele>68</ele>
        <time>2013-12-09T19:47:17.145Z</time>
      </trkpt>
      <trkpt lat="48.87676" lon="2.34079">
        <ele>67</ele>
        <time>2013-12-09T19:47:19.176Z</time>
      </trkpt>
      <trkpt lat="48.87678" lon="2.34074">
        <ele>68</ele>
        <time>2013-12-09T19:47:20.176Z</time>
      </trkpt>
      <trkpt lat="48.87678" lon="2.34063">
        <ele>67</ele>
        <time>2013-12-09T19:47:22.228Z</time>
      </trkpt>
      <trkpt lat="48.87677" lon="2.34058">
        <ele>65</ele>
        <time>2013-12-09T19:47:23.141Z</time>
      </trkpt>
      <trkpt lat="48.87678" lon="2.34046">
        <ele>64</ele>
        <time>2013-12-09T19:47:25.178Z</time>
      </trkpt>
      <trkpt lat="48.87678" lon="2.34041">
        <ele>61</ele>
        <time>2013-12-09T19:47:26.140Z</time>
      </trkpt>
      <trkpt lat="48.8768" lon="2.34031">
        <ele>56</ele>
        <time>2013-12-09T19:47:28.232Z</time>
      </trkpt>
      <trkpt lat="48.87681" lon="2.34025">
        <ele>56</ele>
        <time>2013-12-09T19:47:29.230Z</time>
      </trkpt>
      <trkpt lat="48.87683" lon="2.34014">
        <ele>58</ele>
        <time>2013-12-09T19:47:31.435Z</time>
      </trkpt>
      <trkpt lat="48.87683" lon="2.34007">
        <ele>60</ele>
        <time>2013-12-09T19:47:32.251Z</time>
      </trkpt>
      <trkpt lat="48.87683" lon="2.33999">
        <ele>62</ele>
        <time>2013-12-09T19:47:33.235Z</time>
      </trkpt>
      <trkpt lat="48.87683" lon="2.33991">
        <ele>64</ele>
        <time>2013-12-09T19:47:34.237Z</time>
      </trkpt>
      <trkpt lat="48.87683" lon="2.33983">
        <ele>65</ele>
        <time>2013-12-09T19:47:35.277Z</time>
      </trkpt>
      <trkpt lat="48.87683" lon="2.33975">
        <ele>66</ele>
        <time>2013-12-09T19:47:36.139Z</time>
      </trkpt>
      <trkpt lat="48.87684" lon="2.33966">
        <ele>66</ele>
        <time>2013-12-09T19:47:37.263Z</time>
      </trkpt>
      <trkpt lat="48.87685" lon="2.33957">
        <ele>67</ele>
        <time>2013-12-09T19:47:38.232Z</time>
      </trkpt>
      <trkpt lat="48.87685" lon="2.33947">
        <ele>67</ele>
        <time>2013-12-09T19:47:39.236Z</time>
      </trkpt>
      <trkpt lat="48.87686" lon="2.33938">
        <ele>68</ele>
        <time>2013-12-09T19:47:40.231Z</time>
      </trkpt>
      <trkpt lat="48.87686" lon="2.33928">
        <ele>69</ele>
        <time>2013-12-09T19:47:41.477Z</time>
      </trkpt>
      <trkpt lat="48.87687" lon="2.33918">
        <ele>68</ele>
        <time>2013-12-09T19:47:42.261Z</time>
      </trkpt>
      <trkpt lat="48.87688" lon="2.33909">
        <ele>70</ele>
        <time>2013-12-09T19:47:43.235Z</time>
      </trkpt>
      <trkpt lat="48.87688" lon="2.339">
        <ele>71</ele>
        <time>2013-12-09T19:47:44.234Z</time>
      </trkpt>
      <trkpt lat="48.87688" lon="2.33888">
        <ele>70</ele>
        <time>2013-12-09T19:47:45.267Z</time>
      </trkpt>
      <trkpt lat="48.87687" lon="2.33877">
        <ele>69</ele>
        <time>2013-12-09T19:47:46.147Z</time>
      </trkpt>
      <trkpt lat="48.87688" lon="2.33866">
        <ele>69</ele>
        <time>2013-12-09T19:47:47.242Z</time>
      </trkpt>
      <trkpt lat="48.87687" lon="2.33857">
        <ele>69</ele>
        <time>2013-12-09T19:47:48.232Z</time>
      </trkpt>
      <trkpt lat="48.87687" lon="2.33848">
        <ele>70</ele>
        <time>2013-12-09T19:47:49.237Z</time>
      </trkpt>
      <trkpt lat="48.87687" lon="2.33839">
        <ele>70</ele>
        <time>2013-12-09T19:47:50.230Z</time>
      </trkpt>
      <trkpt lat="48.87687" lon="2.33831">
        <ele>70</ele>
        <time>2013-12-09T19:47:51.477Z</time>
      </trkpt>
      <trkpt lat="48.87685" lon="2.33822">
        <ele>69</ele>
        <time>2013-12-09T19:47:52.230Z</time>
      </trkpt>
      <trkpt lat="48.87683" lon="2.33813">
        <ele>69</ele>
        <time>2013-12-09T19:47:53.269Z</time>
      </trkpt>
      <trkpt lat="48.8768" lon="2.33804">
        <ele>70</ele>
        <time>2013-12-09T19:47:54.232Z</time>
      </trkpt>
      <trkpt lat="48.87678" lon="2.33797">
        <ele>71</ele>
        <time>2013-12-09T19:47:55.229Z</time>
      </trkpt>
      <trkpt lat="48.87676" lon="2.33791">
        <ele>71</ele>
        <time>2013-12-09T19:47:56.145Z</time>
      </trkpt>
      <trkpt lat="48.87674" lon="2.33786">
        <ele>71</ele>
        <time>2013-12-09T19:47:57.229Z</time>
      </trkpt>
      <trkpt lat="48.87672" lon="2.33777">
        <ele>70</ele>
        <time>2013-12-09T19:47:58.229Z</time>
      </trkpt>
      <trkpt lat="48.87671" lon="2.33767">
        <ele>68</ele>
        <time>2013-12-09T19:47:59.231Z</time>
      </trkpt>
      <trkpt lat="48.87669" lon="2.33759">
        <ele>69</ele>
        <time>2013-12-09T19:48:00.234Z</time>
      </trkpt>
      <trkpt lat="48.87668" lon="2.33751">
        <ele>69</ele>
        <time>2013-12-09T19:48:01.569Z</time>
      </trkpt>
      <trkpt lat="48.87667" lon="2.33734">
        <ele>70</ele>
        <time>2013-12-09T19:48:03.241Z</time>
      </trkpt>
      <trkpt lat="48.87668" lon="2.33725">
        <ele>71</ele>
        <time>2013-12-09T19:48:04.232Z</time>
      </trkpt>
      <trkpt lat="48.87669" lon="2.33713">
        <ele>71</ele>
        <time>2013-12-09T19:48:05.233Z</time>
      </trkpt>
      <trkpt lat="48.8767" lon="2.33701">
        <ele>72</ele>
        <time>2013-12-09T19:48:06.601Z</time>
      </trkpt>
      <trkpt lat="48.87671" lon="2.33687">
        <ele>70</ele>
        <time>2013-12-09T19:48:07.240Z</time>
      </trkpt>
      <trkpt lat="48.87671" lon="2.33677">
        <ele>71</ele>
        <time>2013-12-09T19:48:08.232Z</time>
      </trkpt>
      <trkpt lat="48.87672" lon="2.33671">
        <ele>69</ele>
        <time>2013-12-09T19:48:09.237Z</time>
      </trkpt>
      <trkpt lat="48.87672" lon="2.33663">
        <ele>70</ele>
        <time>2013-12-09T19:48:10.265Z</time>
      </trkpt>
      <trkpt lat="48.87671" lon="2.33655">
        <ele>67</ele>
        <time>2013-12-09T19:48:11.274Z</time>
      </trkpt>
      <trkpt lat="48.87671" lon="2.33646">
        <ele>66</ele>
        <time>2013-12-09T19:48:12.237Z</time>
      </trkpt>
      <trkpt lat="48.87672" lon="2.33637">
        <ele>66</ele>
        <time>2013-12-09T19:48:13.230Z</time>
      </trkpt>
      <trkpt lat="48.87673" lon="2.33627">
        <ele>67</ele>
        <time>2013-12-09T19:48:14.232Z</time>
      </trkpt>
      <trkpt lat="48.87673" lon="2.33615">
        <ele>64</ele>
        <time>2013-12-09T19:48:15.235Z</time>
      </trkpt>
      <trkpt lat="48.87673" lon="2.33606">
        <ele>64</ele>
        <time>2013-12-09T19:48:16.629Z</time>
      </trkpt>
      <trkpt lat="48.87673" lon="2.33595">
        <ele>64</ele>
        <time>2013-12-09T19:48:17.232Z</time>
      </trkpt>
      <trkpt lat="48.87674" lon="2.33586">
        <ele>66</ele>
        <time>2013-12-09T19:48:18.235Z</time>
      </trkpt>
      <trkpt lat="48.87675" lon="2.33577">
        <ele>67</ele>
        <time>2013-12-09T19:48:19.235Z</time>
      </trkpt>
      <trkpt lat="48.87676" lon="2.33567">
        <ele>67</ele>
        <time>2013-12-09T19:48:20.232Z</time>
      </trkpt>
      <trkpt lat="48.87672" lon="2.3356">
        <ele>66</ele>
        <time>2013-12-09T19:48:21.147Z</time>
      </trkpt>
      <trkpt lat="48.87667" lon="2.33552">
        <ele>66</ele>
        <time>2013-12-09T19:48:22.177Z</time>
      </trkpt>
      <trkpt lat="48.87668" lon="2.33545">
        <ele>68</ele>
        <time>2013-12-09T19:48:23.181Z</time>
      </trkpt>
      <trkpt lat="48.87668" lon="2.33538">
        <ele>68</ele>
        <time>2013-12-09T19:48:24.159Z</time>
      </trkpt>
      <trkpt lat="48.87667" lon="2.33529">
        <ele>70</ele>
        <time>2013-12-09T19:48:25.179Z</time>
      </trkpt>
      <trkpt lat="48.87667" lon="2.33521">
        <ele>70</ele>
        <time>2013-12-09T19:48:26.617Z</time>
      </trkpt>
      <trkpt lat="48.87666" lon="2.33513">
        <ele>71</ele>
        <time>2013-12-09T19:48:27.229Z</time>
      </trkpt>
      <trkpt lat="48.87665" lon="2.33505">
        <ele>71</ele>
        <time>2013-12-09T19:48:28.233Z</time>
      </trkpt>
      <trkpt lat="48.87665" lon="2.33495">
        <ele>70</ele>
        <time>2013-12-09T19:48:29.228Z</time>
      </trkpt>
      <trkpt lat="48.87666" lon="2.33486">
        <ele>71</ele>
        <time>2013-12-09T19:48:30.228Z</time>
      </trkpt>
      <trkpt lat="48.87666" lon="2.33478">
        <ele>70</ele>
        <time>2013-12-09T19:48:31.140Z</time>
      </trkpt>
      <trkpt lat="48.87672" lon="2.33469">
        <ele>71</ele>
        <time>2013-12-09T19:48:32.245Z</time>
      </trkpt>
      <trkpt lat="48.87683" lon="2.33464">
        <ele>72</ele>
        <time>2013-12-09T19:48:33.231Z</time>
      </trkpt>
      <trkpt lat="48.87695" lon="2.33458">
        <ele>71</ele>
        <time>2013-12-09T19:48:34.240Z</time>
      </trkpt>
      <trkpt lat="48.87705" lon="2.33452">
        <ele>72</ele>
        <time>2013-12-09T19:48:35.230Z</time>
      </trkpt>
      <trkpt lat="48.87711" lon="2.33449">
        <ele>71</ele>
        <time>2013-12-09T19:48:36.677Z</time>
      </trkpt>
      <trkpt lat="48.87716" lon="2.33444">
        <ele>72</ele>
        <time>2013-12-09T19:48:37.239Z</time>
      </trkpt>
      <trkpt lat="48.87717" lon="2.33434">
        <ele>74</ele>
        <time>2013-12-09T19:48:39.235Z</time>
      </trkpt>
      <trkpt lat="48.87714" lon="2.33425">
        <ele>72</ele>
        <time>2013-12-09T19:48:40.827Z</time>
      </trkpt>
      <trkpt lat="48.87707" lon="2.33417">
        <ele>73</ele>
        <time>2013-12-09T19:48:41.914Z</time>
      </trkpt>
      <trkpt lat="48.877" lon="2.3341">
        <ele>74</ele>
        <time>2013-12-09T19:48:42.827Z</time>
      </trkpt>
      <trkpt lat="48.87696" lon="2.33404">
        <ele>75</ele>
        <time>2013-12-09T19:48:43.232Z</time>
      </trkpt>
      <trkpt lat="48.87691" lon="2.33393">
        <ele>75</ele>
        <time>2013-12-09T19:48:44.425Z</time>
      </trkpt>
      <trkpt lat="48.87689" lon="2.33385">
        <ele>75</ele>
        <time>2013-12-09T19:48:45.230Z</time>
      </trkpt>
      <trkpt lat="48.87687" lon="2.33376">
        <ele>76</ele>
        <time>2013-12-09T19:48:46.180Z</time>
      </trkpt>
      <trkpt lat="48.87684" lon="2.33366">
        <ele>74</ele>
        <time>2013-12-09T19:48:47.246Z</time>
      </trkpt>
      <trkpt lat="48.87683" lon="2.33357">
        <ele>74</ele>
        <time>2013-12-09T19:48:48.229Z</time>
      </trkpt>
      <trkpt lat="48.8768" lon="2.3335">
        <ele>74</ele>
        <time>2013-12-09T19:48:49.240Z</time>
      </trkpt>
      <trkpt lat="48.87678" lon="2.33342">
        <ele>73</ele>
        <time>2013-12-09T19:48:50.234Z</time>
      </trkpt>
      <trkpt lat="48.87675" lon="2.33331">
        <ele>72</ele>
        <time>2013-12-09T19:48:52.238Z</time>
      </trkpt>
      <trkpt lat="48.87673" lon="2.33327">
        <ele>73</ele>
        <time>2013-12-09T19:48:53.245Z</time>
      </trkpt>
      <trkpt lat="48.87678" lon="2.33318">
        <ele>75</ele>
        <time>2013-12-09T19:48:55.229Z</time>
      </trkpt>
      <trkpt lat="48.87678" lon="2.33313">
        <ele>73</ele>
        <time>2013-12-09T19:48:56.149Z</time>
      </trkpt>
      <trkpt lat="48.87678" lon="2.33305">
        <ele>73</ele>
        <time>2013-12-09T19:48:57.229Z</time>
      </trkpt>
      <trkpt lat="48.87678" lon="2.33298">
        <ele>74</ele>
        <time>2013-12-09T19:48:58.231Z</time>
      </trkpt>
      <trkpt lat="48.87678" lon="2.33291">
        <ele>74</ele>
        <time>2013-12-09T19:48:59.231Z</time>
      </trkpt>
      <trkpt lat="48.87676" lon="2.33284">
        <ele>74</ele>
        <time>2013-12-09T19:49:00.248Z</time>
      </trkpt>
      <trkpt lat="48.87675" lon="2.33277">
        <ele>75</ele>
        <time>2013-12-09T19:49:01.146Z</time>
      </trkpt>
      <trkpt lat="48.87673" lon="2.33271">
        <ele>75</ele>
        <time>2013-12-09T19:49:02.145Z</time>
      </trkpt>
      <trkpt lat="48.8767" lon="2.33264">
        <ele>77</ele>
        <time>2013-12-09T19:49:03.145Z</time>
      </trkpt>
      <trkpt lat="48.87667" lon="2.33258">
        <ele>77</ele>
        <time>2013-12-09T19:49:04.245Z</time>
      </trkpt>
      <trkpt lat="48.87665" lon="2.33252">
        <ele>78</ele>
        <time>2013-12-09T19:49:05.254Z</time>
      </trkpt>
      <trkpt lat="48.87663" lon="2.33245">
        <ele>75</ele>
        <time>2013-12-09T19:49:06.256Z</time>
      </trkpt>
      <trkpt lat="48.8766" lon="2.33239">
        <ele>76</ele>
        <time>2013-12-09T19:49:07.250Z</time>
      </trkpt>
      <trkpt lat="48.87659" lon="2.33233">
        <ele>80</ele>
        <time>2013-12-09T19:49:08.226Z</time>
      </trkpt>
      <trkpt lat="48.87657" lon="2.33222">
        <ele>78</ele>
        <time>2013-12-09T19:49:10.252Z</time>
      </trkpt>
      <trkpt lat="48.87655" lon="2.33217">
        <ele>75</ele>
        <time>2013-12-09T19:49:11.255Z</time>
      </trkpt>
      <trkpt lat="48.87653" lon="2.33208">
        <ele>76</ele>
        <time>2013-12-09T19:49:13.226Z</time>
      </trkpt>
      <trkpt lat="48.87651" lon="2.33204">
        <ele>75</ele>
        <time>2013-12-09T19:49:14.234Z</time>
      </trkpt>
      <trkpt lat="48.87648" lon="2.33195">
        <ele>74</ele>
        <time>2013-12-09T19:49:16.235Z</time>
      </trkpt>
      <trkpt lat="48.87648" lon="2.33191">
        <ele>74</ele>
        <time>2013-12-09T19:49:17.239Z</time>
      </trkpt>
      <trkpt lat="48.87647" lon="2.33177">
        <ele>77</ele>
        <time>2013-12-09T19:49:20.239Z</time>
      </trkpt>
      <trkpt lat="48.87648" lon="2.33173">
        <ele>78</ele>
        <time>2013-12-09T19:49:21.241Z</time>
      </trkpt>
      <trkpt lat="48.87651" lon="2.33163">
        <ele>74</ele>
        <time>2013-12-09T19:49:24.236Z</time>
      </trkpt>
      <trkpt lat="48.87652" lon="2.33159">
        <ele>74</ele>
        <time>2013-12-09T19:49:25.436Z</time>
      </trkpt>
      <trkpt lat="48.87652" lon="2.33151">
        <ele>75</ele>
        <time>2013-12-09T19:49:28.203Z</time>
      </trkpt>
      <trkpt lat="48.87653" lon="2.33141">
        <ele>74</ele>
        <time>2013-12-09T19:49:29.174Z</time>
      </trkpt>
      <trkpt lat="48.87654" lon="2.33131">
        <ele>73</ele>
        <time>2013-12-09T19:49:31.235Z</time>
      </trkpt>
      <trkpt lat="48.87654" lon="2.33127">
        <ele>73</ele>
        <time>2013-12-09T19:49:32.148Z</time>
      </trkpt>
      <trkpt lat="48.87656" lon="2.33118">
        <ele>73</ele>
        <time>2013-12-09T19:49:34.239Z</time>
      </trkpt>
      <trkpt lat="48.87658" lon="2.33114">
        <ele>72</ele>
        <time>2013-12-09T19:49:35.244Z</time>
      </trkpt>
      <trkpt lat="48.87662" lon="2.33103">
        <ele>72</ele>
        <time>2013-12-09T19:49:39.235Z</time>
      </trkpt>
      <trkpt lat="48.87662" lon="2.33102">
        <ele>71</ele>
        <time>2013-12-09T19:49:40.230Z</time>
      </trkpt>
      <trkpt lat="48.87663" lon="2.33089">
        <ele>71</ele>
        <time>2013-12-09T19:49:45.235Z</time>
      </trkpt>
      <trkpt lat="48.87664" lon="2.33084">
        <ele>71</ele>
        <time>2013-12-09T19:49:46.298Z</time>
      </trkpt>
      <trkpt lat="48.87665" lon="2.33072">
        <ele>71</ele>
        <time>2013-12-09T19:49:48.221Z</time>
      </trkpt>
      <trkpt lat="48.87666" lon="2.33066">
        <ele>71</ele>
        <time>2013-12-09T19:49:49.146Z</time>
      </trkpt>
      <trkpt lat="48.87668" lon="2.33053">
        <ele>71</ele>
        <time>2013-12-09T19:49:51.270Z</time>
      </trkpt>
      <trkpt lat="48.87669" lon="2.33048">
        <ele>71</ele>
        <time>2013-12-09T19:49:52.138Z</time>
      </trkpt>
      <trkpt lat="48.8767" lon="2.33035">
        <ele>71</ele>
        <time>2013-12-09T19:49:54.169Z</time>
      </trkpt>
      <trkpt lat="48.87671" lon="2.33028">
        <ele>72</ele>
        <time>2013-12-09T19:49:55.234Z</time>
      </trkpt>
      <trkpt lat="48.87673" lon="2.33022">
        <ele>73</ele>
        <time>2013-12-09T19:49:56.250Z</time>
      </trkpt>
      <trkpt lat="48.87676" lon="2.33016">
        <ele>73</ele>
        <time>2013-12-09T19:49:57.171Z</time>
      </trkpt>
      <trkpt lat="48.87678" lon="2.3301">
        <ele>73</ele>
        <time>2013-12-09T19:49:58.226Z</time>
      </trkpt>
      <trkpt lat="48.8768" lon="2.33004">
        <ele>75</ele>
        <time>2013-12-09T19:49:59.174Z</time>
      </trkpt>
      <trkpt lat="48.87681" lon="2.32997">
        <ele>76</ele>
        <time>2013-12-09T19:50:00.251Z</time>
      </trkpt>
      <trkpt lat="48.87682" lon="2.32988">
        <ele>78</ele>
        <time>2013-12-09T19:50:01.864Z</time>
      </trkpt>
      <trkpt lat="48.87683" lon="2.32978">
        <ele>78</ele>
        <time>2013-12-09T19:50:03.519Z</time>
      </trkpt>
      <trkpt lat="48.87683" lon="2.32972">
        <ele>77</ele>
        <time>2013-12-09T19:50:04.236Z</time>
      </trkpt>
      <trkpt lat="48.87685" lon="2.32965">
        <ele>77</ele>
        <time>2013-12-09T19:50:05.238Z</time>
      </trkpt>
      <trkpt lat="48.87686" lon="2.32958">
        <ele>77</ele>
        <time>2013-12-09T19:50:06.233Z</time>
      </trkpt>
      <trkpt lat="48.87689" lon="2.32947">
        <ele>76</ele>
        <time>2013-12-09T19:50:08.232Z</time>
      </trkpt>
      <trkpt lat="48.87691" lon="2.32942">
        <ele>75</ele>
        <time>2013-12-09T19:50:09.172Z</time>
      </trkpt>
      <trkpt lat="48.87695" lon="2.32932">
        <ele>76</ele>
        <time>2013-12-09T19:50:11.171Z</time>
      </trkpt>
      <trkpt lat="48.87697" lon="2.32927">
        <ele>76</ele>
        <time>2013-12-09T19:50:12.172Z</time>
      </trkpt>
      <trkpt lat="48.87702" lon="2.32917">
        <ele>75</ele>
        <time>2013-12-09T19:50:14.172Z</time>
      </trkpt>
      <trkpt lat="48.87706" lon="2.32913">
        <ele>74</ele>
        <time>2013-12-09T19:50:15.232Z</time>
      </trkpt>
      <trkpt lat="48.87713" lon="2.32905">
        <ele>73</ele>
        <time>2013-12-09T19:50:17.167Z</time>
      </trkpt>
      <trkpt lat="48.87716" lon="2.329">
        <ele>73</ele>
        <time>2013-12-09T19:50:18.167Z</time>
      </trkpt>
      <trkpt lat="48.87721" lon="2.3289">
        <ele>73</ele>
        <time>2013-12-09T19:50:20.164Z</time>
      </trkpt>
      <trkpt lat="48.87723" lon="2.32885">
        <ele>72</ele>
        <time>2013-12-09T19:50:21.168Z</time>
      </trkpt>
      <trkpt lat="48.87725" lon="2.32879">
        <ele>73</ele>
        <time>2013-12-09T19:50:22.137Z</time>
      </trkpt>
      <trkpt lat="48.87726" lon="2.32872">
        <ele>74</ele>
        <time>2013-12-09T19:50:23.266Z</time>
      </trkpt>
      <trkpt lat="48.87729" lon="2.32859">
        <ele>73</ele>
        <time>2013-12-09T19:50:25.147Z</time>
      </trkpt>
      <trkpt lat="48.87731" lon="2.32853">
        <ele>72</ele>
        <time>2013-12-09T19:50:26.148Z</time>
      </trkpt>
      <trkpt lat="48.87733" lon="2.32846">
        <ele>74</ele>
        <time>2013-12-09T19:50:27.230Z</time>
      </trkpt>
      <trkpt lat="48.87735" lon="2.32839">
        <ele>74</ele>
        <time>2013-12-09T19:50:28.230Z</time>
      </trkpt>
      <trkpt lat="48.87738" lon="2.32832">
        <ele>75</ele>
        <time>2013-12-09T19:50:29.236Z</time>
      </trkpt>
      <trkpt lat="48.8774" lon="2.32824">
        <ele>76</ele>
        <time>2013-12-09T19:50:30.234Z</time>
      </trkpt>
      <trkpt lat="48.87741" lon="2.32818">
        <ele>76</ele>
        <time>2013-12-09T19:50:31.167Z</time>
      </trkpt>
      <trkpt lat="48.87745" lon="2.32811">
        <ele>76</ele>
        <time>2013-12-09T19:50:32.230Z</time>
      </trkpt>
      <trkpt lat="48.87749" lon="2.32805">
        <ele>77</ele>
        <time>2013-12-09T19:50:33.238Z</time>
      </trkpt>
      <trkpt lat="48.87752" lon="2.32799">
        <ele>76</ele>
        <time>2013-12-09T19:50:34.236Z</time>
      </trkpt>
      <trkpt lat="48.87755" lon="2.3279">
        <ele>76</ele>
        <time>2013-12-09T19:50:35.918Z</time>
      </trkpt>
      <trkpt lat="48.87756" lon="2.32784">
        <ele>77</ele>
        <time>2013-12-09T19:50:36.969Z</time>
      </trkpt>
      <trkpt lat="48.87759" lon="2.32774">
        <ele>78</ele>
        <time>2013-12-09T19:50:38.229Z</time>
      </trkpt>
      <trkpt lat="48.87761" lon="2.32767">
        <ele>77</ele>
        <time>2013-12-09T19:50:39.169Z</time>
      </trkpt>
      <trkpt lat="48.87763" lon="2.3276">
        <ele>76</ele>
        <time>2013-12-09T19:50:40.140Z</time>
      </trkpt>
      <trkpt lat="48.87764" lon="2.32754">
        <ele>78</ele>
        <time>2013-12-09T19:50:41.166Z</time>
      </trkpt>
      <trkpt lat="48.87768" lon="2.32742">
        <ele>79</ele>
        <time>2013-12-09T19:50:43.168Z</time>
      </trkpt>
      <trkpt lat="48.8777" lon="2.32736">
        <ele>78</ele>
        <time>2013-12-09T19:50:44.231Z</time>
      </trkpt>
      <trkpt lat="48.87773" lon="2.32725">
        <ele>81</ele>
        <time>2013-12-09T19:50:46.806Z</time>
      </trkpt>
      <trkpt lat="48.87774" lon="2.32719">
        <ele>81</ele>
        <time>2013-12-09T19:50:47.156Z</time>
      </trkpt>
      <trkpt lat="48.87775" lon="2.32709">
        <ele>82</ele>
        <time>2013-12-09T19:50:49.149Z</time>
      </trkpt>
      <trkpt lat="48.87776" lon="2.32705">
        <ele>82</ele>
        <time>2013-12-09T19:50:50.144Z</time>
      </trkpt>
      <trkpt lat="48.87775" lon="2.32691">
        <ele>84</ele>
        <time>2013-12-09T19:51:02.034Z</time>
      </trkpt>
      <trkpt lat="48.87775" lon="2.32691">
        <ele>84</ele>
        <time>2013-12-09T19:51:02.256Z</time>
      </trkpt>
      <trkpt lat="48.87778" lon="2.32682">
        <ele>89</ele>
        <time>2013-12-09T19:51:12.275Z</time>
      </trkpt>
      <trkpt lat="48.87779" lon="2.32678">
        <ele>88</ele>
        <time>2013-12-09T19:51:13.240Z</time>
      </trkpt>
      <trkpt lat="48.87781" lon="2.3267">
        <ele>89</ele>
        <time>2013-12-09T19:51:15.230Z</time>
      </trkpt>
      <trkpt lat="48.87782" lon="2.32666">
        <ele>89</ele>
        <time>2013-12-09T19:51:16.214Z</time>
      </trkpt>
      <trkpt lat="48.87784" lon="2.32657">
        <ele>89</ele>
        <time>2013-12-09T19:51:18.179Z</time>
      </trkpt>
      <trkpt lat="48.87785" lon="2.32652">
        <ele>88</ele>
        <time>2013-12-09T19:51:19.180Z</time>
      </trkpt>
      <trkpt lat="48.8779" lon="2.32642">
        <ele>87</ele>
        <time>2013-12-09T19:51:22.142Z</time>
      </trkpt>
      <trkpt lat="48.87792" lon="2.32639">
        <ele>86</ele>
        <time>2013-12-09T19:51:23.148Z</time>
      </trkpt>
      <trkpt lat="48.87798" lon="2.32631">
        <ele>88</ele>
        <time>2013-12-09T19:51:27.064Z</time>
      </trkpt>
      <trkpt lat="48.87799" lon="2.32628">
        <ele>87</ele>
        <time>2013-12-09T19:51:27.151Z</time>
      </trkpt>
      <trkpt lat="48.87802" lon="2.32619">
        <ele>87</ele>
        <time>2013-12-09T19:51:30.143Z</time>
      </trkpt>
      <trkpt lat="48.87803" lon="2.32615">
        <ele>85</ele>
        <time>2013-12-09T19:51:31.140Z</time>
      </trkpt>
      <trkpt lat="48.87806" lon="2.32604">
        <ele>85</ele>
        <time>2013-12-09T19:51:34.155Z</time>
      </trkpt>
      <trkpt lat="48.87807" lon="2.326">
        <ele>85</ele>
        <time>2013-12-09T19:51:35.146Z</time>
      </trkpt>
      <trkpt lat="48.87809" lon="2.32592">
        <ele>83</ele>
        <time>2013-12-09T19:51:37.392Z</time>
      </trkpt>
      <trkpt lat="48.87811" lon="2.32588">
        <ele>85</ele>
        <time>2013-12-09T19:51:38.142Z</time>
      </trkpt>
      <trkpt lat="48.87815" lon="2.32579">
        <ele>84</ele>
        <time>2013-12-09T19:51:40.206Z</time>
      </trkpt>
      <trkpt lat="48.87816" lon="2.32575">
        <ele>85</ele>
        <time>2013-12-09T19:51:41.188Z</time>
      </trkpt>
      <trkpt lat="48.8782" lon="2.32564">
        <ele>85</ele>
        <time>2013-12-09T19:51:43.171Z</time>
      </trkpt>
      <trkpt lat="48.87821" lon="2.32559">
        <ele>82</ele>
        <time>2013-12-09T19:51:44.168Z</time>
      </trkpt>
      <trkpt lat="48.87823" lon="2.32547">
        <ele>83</ele>
        <time>2013-12-09T19:51:46.233Z</time>
      </trkpt>
      <trkpt lat="48.87825" lon="2.32542">
        <ele>83</ele>
        <time>2013-12-09T19:51:47.152Z</time>
      </trkpt>
      <trkpt lat="48.87829" lon="2.32532">
        <ele>83</ele>
        <time>2013-12-09T19:51:49.158Z</time>
      </trkpt>
      <trkpt lat="48.87831" lon="2.32526">
        <ele>82</ele>
        <time>2013-12-09T19:51:50.474Z</time>
      </trkpt>
      <trkpt lat="48.87835" lon="2.32518">
        <ele>82</ele>
        <time>2013-12-09T19:51:52.627Z</time>
      </trkpt>
      <trkpt lat="48.87837" lon="2.32514">
        <ele>82</ele>
        <time>2013-12-09T19:51:53.475Z</time>
      </trkpt>
      <trkpt lat="48.8784" lon="2.32504">
        <ele>82</ele>
        <time>2013-12-09T19:51:55.230Z</time>
      </trkpt>
      <trkpt lat="48.87842" lon="2.32497">
        <ele>83</ele>
        <time>2013-12-09T19:51:56.668Z</time>
      </trkpt>
      <trkpt lat="48.87843" lon="2.32488">
        <ele>86</ele>
        <time>2013-12-09T19:51:58.238Z</time>
      </trkpt>
      <trkpt lat="48.87845" lon="2.32482">
        <ele>86</ele>
        <time>2013-12-09T19:51:59.230Z</time>
      </trkpt>
      <trkpt lat="48.87848" lon="2.32471">
        <ele>86</ele>
        <time>2013-12-09T19:52:01.233Z</time>
      </trkpt>
      <trkpt lat="48.8785" lon="2.32466">
        <ele>87</ele>
        <time>2013-12-09T19:52:02.164Z</time>
      </trkpt>
      <trkpt lat="48.87854" lon="2.32456">
        <ele>87</ele>
        <time>2013-12-09T19:52:04.234Z</time>
      </trkpt>
      <trkpt lat="48.87856" lon="2.32451">
        <ele>88</ele>
        <time>2013-12-09T19:52:05.520Z</time>
      </trkpt>
      <trkpt lat="48.8786" lon="2.32444">
        <ele>88</ele>
        <time>2013-12-09T19:52:07.434Z</time>
      </trkpt>
      <trkpt lat="48.87863" lon="2.3244">
        <ele>87</ele>
        <time>2013-12-09T19:52:08.454Z</time>
      </trkpt>
      <trkpt lat="48.87869" lon="2.32435">
        <ele>85</ele>
        <time>2013-12-09T19:52:10.425Z</time>
      </trkpt>
      <trkpt lat="48.87872" lon="2.32432">
        <ele>83</ele>
        <time>2013-12-09T19:52:11.448Z</time>
      </trkpt>
      <trkpt lat="48.87877" lon="2.32425">
        <ele>82</ele>
        <time>2013-12-09T19:52:13.283Z</time>
      </trkpt>
      <trkpt lat="48.8788" lon="2.3242">
        <ele>82</ele>
        <time>2013-12-09T19:52:14.148Z</time>
      </trkpt>
      <trkpt lat="48.87885" lon="2.3241">
        <ele>83</ele>
        <time>2013-12-09T19:52:16.244Z</time>
      </trkpt>
      <trkpt lat="48.87887" lon="2.32405">
        <ele>82</ele>
        <time>2013-12-09T19:52:17.173Z</time>
      </trkpt>
      <trkpt lat="48.87891" lon="2.32395">
        <ele>83</ele>
        <time>2013-12-09T19:52:19.172Z</time>
      </trkpt>
      <trkpt lat="48.87892" lon="2.32391">
        <ele>83</ele>
        <time>2013-12-09T19:52:20.147Z</time>
      </trkpt>
      <trkpt lat="48.87896" lon="2.32381">
        <ele>84</ele>
        <time>2013-12-09T19:52:23.173Z</time>
      </trkpt>
      <trkpt lat="48.87897" lon="2.32377">
        <ele>84</ele>
        <time>2013-12-09T19:52:24.167Z</time>
      </trkpt>
      <trkpt lat="48.87901" lon="2.32366">
        <ele>85</ele>
        <time>2013-12-09T19:52:28.266Z</time>
      </trkpt>
      <trkpt lat="48.87903" lon="2.32364">
        <ele>87</ele>
        <time>2013-12-09T19:52:29.161Z</time>
      </trkpt>
      <trkpt lat="48.8791" lon="2.32358">
        <ele>86</ele>
        <time>2013-12-09T19:52:33.160Z</time>
      </trkpt>
      <trkpt lat="48.87913" lon="2.32357">
        <ele>87</ele>
        <time>2013-12-09T19:52:34.150Z</time>
      </trkpt>
      <trkpt lat="48.87921" lon="2.32355">
        <ele>86</ele>
        <time>2013-12-09T19:52:37.614Z</time>
      </trkpt>
      <trkpt lat="48.87924" lon="2.32355">
        <ele>86</ele>
        <time>2013-12-09T19:52:38.148Z</time>
      </trkpt>
      <trkpt lat="48.87927" lon="2.32356">
        <ele>86</ele>
        <time>2013-12-09T19:52:39.151Z</time>
      </trkpt>
      <trkpt lat="48.87933" lon="2.32359">
        <ele>86</ele>
        <time>2013-12-09T19:52:41.264Z</time>
      </trkpt>
      <trkpt lat="48.8794" lon="2.32365">
        <ele>85</ele>
        <time>2013-12-09T19:52:43.135Z</time>
      </trkpt>
      <trkpt lat="48.87943" lon="2.32369">
        <ele>84</ele>
        <time>2013-12-09T19:52:44.167Z</time>
      </trkpt>
      <trkpt lat="48.87948" lon="2.32375">
        <ele>82</ele>
        <time>2013-12-09T19:52:46.161Z</time>
      </trkpt>
      <trkpt lat="48.8795" lon="2.32378">
        <ele>82</ele>
        <time>2013-12-09T19:52:47.136Z</time>
      </trkpt>
      <trkpt lat="48.87954" lon="2.32387">
        <ele>81</ele>
        <time>2013-12-09T19:52:50.240Z</time>
      </trkpt>
      <trkpt lat="48.87956" lon="2.3239">
        <ele>81</ele>
        <time>2013-12-09T19:52:51.240Z</time>
      </trkpt>
      <trkpt lat="48.87962" lon="2.32394">
        <ele>82</ele>
        <time>2013-12-09T19:52:53.179Z</time>
      </trkpt>
      <trkpt lat="48.87965" lon="2.32397">
        <ele>82</ele>
        <time>2013-12-09T19:52:54.146Z</time>
      </trkpt>
      <trkpt lat="48.87972" lon="2.32402">
        <ele>81</ele>
        <time>2013-12-09T19:52:56.143Z</time>
      </trkpt>
      <trkpt lat="48.87976" lon="2.32404">
        <ele>79</ele>
        <time>2013-12-09T19:52:57.169Z</time>
      </trkpt>
      <trkpt lat="48.87983" lon="2.32406">
        <ele>77</ele>
        <time>2013-12-09T19:52:59.227Z</time>
      </trkpt>
      <trkpt lat="48.87986" lon="2.32406">
        <ele>75</ele>
        <time>2013-12-09T19:53:00.904Z</time>
      </trkpt>
      <trkpt lat="48.87993" lon="2.32398">
        <ele>71</ele>
        <time>2013-12-09T19:53:03.980Z</time>
      </trkpt>
      <trkpt lat="48.87995" lon="2.32396">
        <ele>72</ele>
        <time>2013-12-09T19:53:04.246Z</time>
      </trkpt>
      <trkpt lat="48.88001" lon="2.32388">
        <ele>72</ele>
        <time>2013-12-09T19:53:06.230Z</time>
      </trkpt>
      <trkpt lat="48.88004" lon="2.32385">
        <ele>71</ele>
        <time>2013-12-09T19:53:07.233Z</time>
      </trkpt>
      <trkpt lat="48.88009" lon="2.32379">
        <ele>71</ele>
        <time>2013-12-09T19:53:09.142Z</time>
      </trkpt>
      <trkpt lat="48.88012" lon="2.32376">
        <ele>73</ele>
        <time>2013-12-09T19:53:10.167Z</time>
      </trkpt>
      <trkpt lat="48.88017" lon="2.3237">
        <ele>72</ele>
        <time>2013-12-09T19:53:12.141Z</time>
      </trkpt>
      <trkpt lat="48.88019" lon="2.32366">
        <ele>72</ele>
        <time>2013-12-09T19:53:13.167Z</time>
      </trkpt>
      <trkpt lat="48.88023" lon="2.32359">
        <ele>74</ele>
        <time>2013-12-09T19:53:15.248Z</time>
      </trkpt>
      <trkpt lat="48.88026" lon="2.32355">
        <ele>71</ele>
        <time>2013-12-09T19:53:16.296Z</time>
      </trkpt>
      <trkpt lat="48.88034" lon="2.32351">
        <ele>70</ele>
        <time>2013-12-09T19:53:19.051Z</time>
      </trkpt>
      <trkpt lat="48.88039" lon="2.32349">
        <ele>69</ele>
        <time>2013-12-09T19:53:19.287Z</time>
      </trkpt>
      <trkpt lat="48.88043" lon="2.32347">
        <ele>68</ele>
        <time>2013-12-09T19:53:20.149Z</time>
      </trkpt>
      <trkpt lat="48.88049" lon="2.32345">
        <ele>66</ele>
        <time>2013-12-09T19:53:21.233Z</time>
      </trkpt>
      <trkpt lat="48.88055" lon="2.32342">
        <ele>62</ele>
        <time>2013-12-09T19:53:22.771Z</time>
      </trkpt>
      <trkpt lat="48.88061" lon="2.3234">
        <ele>63</ele>
        <time>2013-12-09T19:53:23.701Z</time>
      </trkpt>
      <trkpt lat="48.88065" lon="2.32338">
        <ele>63</ele>
        <time>2013-12-09T19:53:24.327Z</time>
      </trkpt>
      <trkpt lat="48.88071" lon="2.32335">
        <ele>64</ele>
        <time>2013-12-09T19:53:25.223Z</time>
      </trkpt>
      <trkpt lat="48.88077" lon="2.32332">
        <ele>67</ele>
        <time>2013-12-09T19:53:26.231Z</time>
      </trkpt>
      <trkpt lat="48.88082" lon="2.32328">
        <ele>66</ele>
        <time>2013-12-09T19:53:27.228Z</time>
      </trkpt>
      <trkpt lat="48.88087" lon="2.32324">
        <ele>66</ele>
        <time>2013-12-09T19:53:29.086Z</time>
      </trkpt>
      <trkpt lat="48.88091" lon="2.3232">
        <ele>68</ele>
        <time>2013-12-09T19:53:29.145Z</time>
      </trkpt>
      <trkpt lat="48.88095" lon="2.32315">
        <ele>70</ele>
        <time>2013-12-09T19:53:30.234Z</time>
      </trkpt>
      <trkpt lat="48.88098" lon="2.32311">
        <ele>69</ele>
        <time>2013-12-09T19:53:31.236Z</time>
      </trkpt>
      <trkpt lat="48.88104" lon="2.32304">
        <ele>74</ele>
        <time>2013-12-09T19:53:34.116Z</time>
      </trkpt>
      <trkpt lat="48.88107" lon="2.323">
        <ele>73</ele>
        <time>2013-12-09T19:53:34.152Z</time>
      </trkpt>
      <trkpt lat="48.88113" lon="2.32293">
        <ele>74</ele>
        <time>2013-12-09T19:53:36.172Z</time>
      </trkpt>
      <trkpt lat="48.88116" lon="2.3229">
        <ele>72</ele>
        <time>2013-12-09T19:53:37.140Z</time>
      </trkpt>
      <trkpt lat="48.88119" lon="2.32288">
        <ele>72</ele>
        <time>2013-12-09T19:53:39.142Z</time>
      </trkpt>
      <trkpt lat="48.88127" lon="2.32282">
        <ele>72</ele>
        <time>2013-12-09T19:53:40.238Z</time>
      </trkpt>
      <trkpt lat="48.8813" lon="2.32279">
        <ele>72</ele>
        <time>2013-12-09T19:53:41.232Z</time>
      </trkpt>
      <trkpt lat="48.88136" lon="2.32274">
        <ele>70</ele>
        <time>2013-12-09T19:53:42.898Z</time>
      </trkpt>
      <trkpt lat="48.8814" lon="2.3227">
        <ele>68</ele>
        <time>2013-12-09T19:53:43.928Z</time>
      </trkpt>
      <trkpt lat="48.88145" lon="2.32266">
        <ele>68</ele>
        <time>2013-12-09T19:53:44.929Z</time>
      </trkpt>
      <trkpt lat="48.88149" lon="2.32262">
        <ele>66</ele>
        <time>2013-12-09T19:53:46.459Z</time>
      </trkpt>
      <trkpt lat="48.88152" lon="2.32257">
        <ele>65</ele>
        <time>2013-12-09T19:53:46.899Z</time>
      </trkpt>
      <trkpt lat="48.88157" lon="2.32249">
        <ele>66</ele>
        <time>2013-12-09T19:53:49.352Z</time>
      </trkpt>
      <trkpt lat="48.88159" lon="2.32246">
        <ele>68</ele>
        <time>2013-12-09T19:53:49.910Z</time>
      </trkpt>
      <trkpt lat="48.88165" lon="2.32236">
        <ele>66</ele>
        <time>2013-12-09T19:53:52.235Z</time>
      </trkpt>
      <trkpt lat="48.88168" lon="2.32232">
        <ele>66</ele>
        <time>2013-12-09T19:53:53.177Z</time>
      </trkpt>
      <trkpt lat="48.88174" lon="2.32224">
        <ele>68</ele>
        <time>2013-12-09T19:53:55.228Z</time>
      </trkpt>
      <trkpt lat="48.88177" lon="2.32221">
        <ele>69</ele>
        <time>2013-12-09T19:53:56.231Z</time>
      </trkpt>
      <trkpt lat="48.88185" lon="2.32215">
        <ele>71</ele>
        <time>2013-12-09T19:53:58.162Z</time>
      </trkpt>
      <trkpt lat="48.88189" lon="2.32212">
        <ele>71</ele>
        <time>2013-12-09T19:53:59.163Z</time>
      </trkpt>
      <trkpt lat="48.88196" lon="2.32205">
        <ele>71</ele>
        <time>2013-12-09T19:54:01.133Z</time>
      </trkpt>
      <trkpt lat="48.882" lon="2.32202">
        <ele>71</ele>
        <time>2013-12-09T19:54:02.164Z</time>
      </trkpt>
      <trkpt lat="48.88206" lon="2.32195">
        <ele>74</ele>
        <time>2013-12-09T19:54:04.225Z</time>
      </trkpt>
      <trkpt lat="48.88209" lon="2.32192">
        <ele>74</ele>
        <time>2013-12-09T19:54:05.280Z</time>
      </trkpt>
      <trkpt lat="48.88215" lon="2.32184">
        <ele>79</ele>
        <time>2013-12-09T19:54:08.149Z</time>
      </trkpt>
      <trkpt lat="48.88216" lon="2.32182">
        <ele>80</ele>
        <time>2013-12-09T19:54:09.174Z</time>
      </trkpt>
      <trkpt lat="48.88214" lon="2.32169">
        <ele>87</ele>
        <time>2013-12-09T19:54:15.230Z</time>
      </trkpt>
      <trkpt lat="48.88215" lon="2.32167">
        <ele>88</ele>
        <time>2013-12-09T19:54:16.364Z</time>
      </trkpt>
      <trkpt lat="48.88221" lon="2.32157">
        <ele>87</ele>
        <time>2013-12-09T19:54:20.230Z</time>
      </trkpt>
      <trkpt lat="48.88223" lon="2.32156">
        <ele>88</ele>
        <time>2013-12-09T19:54:21.234Z</time>
      </trkpt>
      <trkpt lat="48.88226" lon="2.32144">
        <ele>97</ele>
        <time>2013-12-09T19:54:43.990Z</time>
      </trkpt>
      <trkpt lat="48.88225" lon="2.32144">
        <ele>98</ele>
        <time>2013-12-09T19:54:44.135Z</time>
      </trkpt>
      <trkpt lat="48.88225" lon="2.32145">
        <ele>100</ele>
        <time>2013-12-09T19:55:04.258Z</time>
      </trkpt>
      <trkpt lat="48.88225" lon="2.32143">
        <ele>102</ele>
        <time>2013-12-09T19:55:05.128Z</time>
      </trkpt>
      <trkpt lat="48.88224" lon="2.32131">
        <ele>99</ele>
        <time>2013-12-09T19:55:09.047Z</time>
      </trkpt>
      <trkpt lat="48.88224" lon="2.32125">
        <ele>98</ele>
        <time>2013-12-09T19:55:09.141Z</time>
      </trkpt>
      <trkpt lat="48.88224" lon="2.32112">
        <ele>95</ele>
        <time>2013-12-09T19:55:11.230Z</time>
      </trkpt>
      <trkpt lat="48.88224" lon="2.32106">
        <ele>93</ele>
        <time>2013-12-09T19:55:12.234Z</time>
      </trkpt>
      <trkpt lat="48.88225" lon="2.32093">
        <ele>93</ele>
        <time>2013-12-09T19:55:14.161Z</time>
      </trkpt>
      <trkpt lat="48.88226" lon="2.32087">
        <ele>95</ele>
        <time>2013-12-09T19:55:15.229Z</time>
      </trkpt>
      <trkpt lat="48.88225" lon="2.32075">
        <ele>95</ele>
        <time>2013-12-09T19:55:17.230Z</time>
      </trkpt>
      <trkpt lat="48.88225" lon="2.32069">
        <ele>95</ele>
        <time>2013-12-09T19:55:18.148Z</time>
      </trkpt>
      <trkpt lat="48.88224" lon="2.32058">
        <ele>94</ele>
        <time>2013-12-09T19:55:20.166Z</time>
      </trkpt>
      <trkpt lat="48.88224" lon="2.32054">
        <ele>94</ele>
        <time>2013-12-09T19:55:21.230Z</time>
      </trkpt>
      <trkpt lat="48.88225" lon="2.32042">
        <ele>94</ele>
        <time>2013-12-09T19:55:33.233Z</time>
      </trkpt>
      <trkpt lat="48.88226" lon="2.3204">
        <ele>94</ele>
        <time>2013-12-09T19:55:34.258Z</time>
      </trkpt>
      <trkpt lat="48.8823" lon="2.32034">
        <ele>94</ele>
        <time>2013-12-09T19:55:36.233Z</time>
      </trkpt>
      <trkpt lat="48.88233" lon="2.32031">
        <ele>93</ele>
        <time>2013-12-09T19:55:37.179Z</time>
      </trkpt>
      <trkpt lat="48.88239" lon="2.32024">
        <ele>92</ele>
        <time>2013-12-09T19:55:39.145Z</time>
      </trkpt>
      <trkpt lat="48.88243" lon="2.32021">
        <ele>91</ele>
        <time>2013-12-09T19:55:40.243Z</time>
      </trkpt>
      <trkpt lat="48.88247" lon="2.32017">
        <ele>92</ele>
        <time>2013-12-09T19:55:41.234Z</time>
      </trkpt>
      <trkpt lat="48.8825" lon="2.32013">
        <ele>90</ele>
        <time>2013-12-09T19:55:42.144Z</time>
      </trkpt>
      <trkpt lat="48.88254" lon="2.32009">
        <ele>89</ele>
        <time>2013-12-09T19:55:43.144Z</time>
      </trkpt>
      <trkpt lat="48.88258" lon="2.32004">
        <ele>89</ele>
        <time>2013-12-09T19:55:44.171Z</time>
      </trkpt>
      <trkpt lat="48.88262" lon="2.32">
        <ele>89</ele>
        <time>2013-12-09T19:55:45.140Z</time>
      </trkpt>
      <trkpt lat="48.88266" lon="2.31996">
        <ele>88</ele>
        <time>2013-12-09T19:55:46.167Z</time>
      </trkpt>
      <trkpt lat="48.88273" lon="2.31989">
        <ele>87</ele>
        <time>2013-12-09T19:55:48.143Z</time>
      </trkpt>
      <trkpt lat="48.88277" lon="2.31986">
        <ele>86</ele>
        <time>2013-12-09T19:55:49.142Z</time>
      </trkpt>
      <trkpt lat="48.88284" lon="2.3198">
        <ele>85</ele>
        <time>2013-12-09T19:55:51.176Z</time>
      </trkpt>
      <trkpt lat="48.88288" lon="2.31976">
        <ele>84</ele>
        <time>2013-12-09T19:55:52.155Z</time>
      </trkpt>
      <trkpt lat="48.88291" lon="2.31969">
        <ele>84</ele>
        <time>2013-12-09T19:55:53.142Z</time>
      </trkpt>
      <trkpt lat="48.88294" lon="2.31962">
        <ele>83</ele>
        <time>2013-12-09T19:55:54.171Z</time>
      </trkpt>
      <trkpt lat="48.88298" lon="2.31955">
        <ele>83</ele>
        <time>2013-12-09T19:55:55.177Z</time>
      </trkpt>
      <trkpt lat="48.88303" lon="2.31948">
        <ele>83</ele>
        <time>2013-12-09T19:55:56.147Z</time>
      </trkpt>
      <trkpt lat="48.88307" lon="2.31943">
        <ele>83</ele>
        <time>2013-12-09T19:55:58.100Z</time>
      </trkpt>
      <trkpt lat="48.8831" lon="2.31937">
        <ele>82</ele>
        <time>2013-12-09T19:55:58.214Z</time>
      </trkpt>
      <trkpt lat="48.88313" lon="2.31931">
        <ele>80</ele>
        <time>2013-12-09T19:55:59.182Z</time>
      </trkpt>
      <trkpt lat="48.88316" lon="2.31926">
        <ele>79</ele>
        <time>2013-12-09T19:56:00.238Z</time>
      </trkpt>
      <trkpt lat="48.88322" lon="2.31917">
        <ele>79</ele>
        <time>2013-12-09T19:56:03.132Z</time>
      </trkpt>
      <trkpt lat="48.88325" lon="2.31915">
        <ele>79</ele>
        <time>2013-12-09T19:56:03.405Z</time>
      </trkpt>
      <trkpt lat="48.88329" lon="2.31909">
        <ele>79</ele>
        <time>2013-12-09T19:56:04.239Z</time>
      </trkpt>
      <trkpt lat="48.88334" lon="2.31903">
        <ele>78</ele>
        <time>2013-12-09T19:56:05.229Z</time>
      </trkpt>
      <trkpt lat="48.88338" lon="2.31896">
        <ele>78</ele>
        <time>2013-12-09T19:56:06.232Z</time>
      </trkpt>
      <trkpt lat="48.88341" lon="2.3189">
        <ele>75</ele>
        <time>2013-12-09T19:56:07.148Z</time>
      </trkpt>
      <trkpt lat="48.88345" lon="2.31884">
        <ele>76</ele>
        <time>2013-12-09T19:56:08.158Z</time>
      </trkpt>
      <trkpt lat="48.88351" lon="2.31878">
        <ele>76</ele>
        <time>2013-12-09T19:56:09.229Z</time>
      </trkpt>
      <trkpt lat="48.88358" lon="2.31872">
        <ele>76</ele>
        <time>2013-12-09T19:56:10.773Z</time>
      </trkpt>
      <trkpt lat="48.88363" lon="2.31869">
        <ele>76</ele>
        <time>2013-12-09T19:56:11.819Z</time>
      </trkpt>
      <trkpt lat="48.88368" lon="2.31865">
        <ele>78</ele>
        <time>2013-12-09T19:56:13.231Z</time>
      </trkpt>
      <trkpt lat="48.88372" lon="2.31862">
        <ele>77</ele>
        <time>2013-12-09T19:56:13.512Z</time>
      </trkpt>
      <trkpt lat="48.88377" lon="2.31859">
        <ele>76</ele>
        <time>2013-12-09T19:56:14.229Z</time>
      </trkpt>
      <trkpt lat="48.88384" lon="2.31856">
        <ele>77</ele>
        <time>2013-12-09T19:56:15.233Z</time>
      </trkpt>
      <trkpt lat="48.8839" lon="2.31852">
        <ele>76</ele>
        <time>2013-12-09T19:56:16.236Z</time>
      </trkpt>
      <trkpt lat="48.88395" lon="2.31848">
        <ele>78</ele>
        <time>2013-12-09T19:56:17.133Z</time>
      </trkpt>
      <trkpt lat="48.884" lon="2.31843">
        <ele>77</ele>
        <time>2013-12-09T19:56:18.133Z</time>
      </trkpt>
      <trkpt lat="48.88404" lon="2.31837">
        <ele>77</ele>
        <time>2013-12-09T19:56:19.143Z</time>
      </trkpt>
      <trkpt lat="48.88408" lon="2.3183">
        <ele>76</ele>
        <time>2013-12-09T19:56:20.232Z</time>
      </trkpt>
      <trkpt lat="48.88413" lon="2.31825">
        <ele>77</ele>
        <time>2013-12-09T19:56:21.229Z</time>
      </trkpt>
      <trkpt lat="48.88418" lon="2.31819">
        <ele>78</ele>
        <time>2013-12-09T19:56:22.167Z</time>
      </trkpt>
      <trkpt lat="48.88423" lon="2.31814">
        <ele>79</ele>
        <time>2013-12-09T19:56:23.167Z</time>
      </trkpt>
      <trkpt lat="48.88429" lon="2.31808">
        <ele>78</ele>
        <time>2013-12-09T19:56:24.166Z</time>
      </trkpt>
      <trkpt lat="48.88434" lon="2.31802">
        <ele>79</ele>
        <time>2013-12-09T19:56:25.168Z</time>
      </trkpt>
      <trkpt lat="48.8844" lon="2.31797">
        <ele>79</ele>
        <time>2013-12-09T19:56:26.167Z</time>
      </trkpt>
      <trkpt lat="48.88444" lon="2.31793">
        <ele>78</ele>
        <time>2013-12-09T19:56:27.173Z</time>
      </trkpt>
      <trkpt lat="48.88449" lon="2.31787">
        <ele>78</ele>
        <time>2013-12-09T19:56:28.171Z</time>
      </trkpt>
      <trkpt lat="48.88455" lon="2.31783">
        <ele>78</ele>
        <time>2013-12-09T19:56:29.141Z</time>
      </trkpt>
      <trkpt lat="48.88461" lon="2.3178">
        <ele>78</ele>
        <time>2013-12-09T19:56:30.166Z</time>
      </trkpt>
      <trkpt lat="48.88466" lon="2.31775">
        <ele>79</ele>
        <time>2013-12-09T19:56:31.206Z</time>
      </trkpt>
      <trkpt lat="48.88471" lon="2.31771">
        <ele>79</ele>
        <time>2013-12-09T19:56:32.137Z</time>
      </trkpt>
      <trkpt lat="48.88476" lon="2.31766">
        <ele>78</ele>
        <time>2013-12-09T19:56:33.135Z</time>
      </trkpt>
      <trkpt lat="48.88482" lon="2.31761">
        <ele>78</ele>
        <time>2013-12-09T19:56:34.147Z</time>
      </trkpt>
      <trkpt lat="48.88487" lon="2.31756">
        <ele>77</ele>
        <time>2013-12-09T19:56:35.136Z</time>
      </trkpt>
      <trkpt lat="48.88493" lon="2.31752">
        <ele>77</ele>
        <time>2013-12-09T19:56:36.168Z</time>
      </trkpt>
      <trkpt lat="48.88499" lon="2.31747">
        <ele>77</ele>
        <time>2013-12-09T19:56:37.164Z</time>
      </trkpt>
      <trkpt lat="48.88507" lon="2.31743">
        <ele>78</ele>
        <time>2013-12-09T19:56:38.148Z</time>
      </trkpt>
      <trkpt lat="48.88511" lon="2.31739">
        <ele>74</ele>
        <time>2013-12-09T19:56:39.140Z</time>
      </trkpt>
      <trkpt lat="48.88514" lon="2.31735">
        <ele>72</ele>
        <time>2013-12-09T19:56:40.168Z</time>
      </trkpt>
      <trkpt lat="48.88518" lon="2.3173">
        <ele>71</ele>
        <time>2013-12-09T19:56:41.230Z</time>
      </trkpt>
      <trkpt lat="48.88523" lon="2.31719">
        <ele>69</ele>
        <time>2013-12-09T19:56:43.170Z</time>
      </trkpt>
      <trkpt lat="48.88527" lon="2.31712">
        <ele>71</ele>
        <time>2013-12-09T19:56:44.172Z</time>
      </trkpt>
      <trkpt lat="48.88532" lon="2.31704">
        <ele>72</ele>
        <time>2013-12-09T19:56:45.168Z</time>
      </trkpt>
      <trkpt lat="48.88536" lon="2.31697">
        <ele>73</ele>
        <time>2013-12-09T19:56:46.173Z</time>
      </trkpt>
      <trkpt lat="48.88541" lon="2.31692">
        <ele>72</ele>
        <time>2013-12-09T19:56:47.821Z</time>
      </trkpt>
      <trkpt lat="48.88546" lon="2.31688">
        <ele>71</ele>
        <time>2013-12-09T19:56:48.172Z</time>
      </trkpt>
      <trkpt lat="48.88551" lon="2.31683">
        <ele>71</ele>
        <time>2013-12-09T19:56:49.170Z</time>
      </trkpt>
      <trkpt lat="48.88555" lon="2.31678">
        <ele>72</ele>
        <time>2013-12-09T19:56:50.230Z</time>
      </trkpt>
      <trkpt lat="48.8856" lon="2.31676">
        <ele>72</ele>
        <time>2013-12-09T19:56:51.237Z</time>
      </trkpt>
      <trkpt lat="48.88564" lon="2.31673">
        <ele>71</ele>
        <time>2013-12-09T19:56:52.171Z</time>
      </trkpt>
      <trkpt lat="48.88568" lon="2.31668">
        <ele>71</ele>
        <time>2013-12-09T19:56:53.279Z</time>
      </trkpt>
      <trkpt lat="48.88572" lon="2.31664">
        <ele>70</ele>
        <time>2013-12-09T19:56:54.174Z</time>
      </trkpt>
      <trkpt lat="48.88576" lon="2.31659">
        <ele>71</ele>
        <time>2013-12-09T19:56:55.205Z</time>
      </trkpt>
      <trkpt lat="48.88581" lon="2.31654">
        <ele>71</ele>
        <time>2013-12-09T19:56:56.176Z</time>
      </trkpt>
      <trkpt lat="48.88587" lon="2.3165">
        <ele>71</ele>
        <time>2013-12-09T19:56:57.707Z</time>
      </trkpt>
      <trkpt lat="48.88593" lon="2.31645">
        <ele>71</ele>
        <time>2013-12-09T19:56:58.239Z</time>
      </trkpt>
      <trkpt lat="48.88598" lon="2.3164">
        <ele>71</ele>
        <time>2013-12-09T19:56:59.236Z</time>
      </trkpt>
      <trkpt lat="48.88604" lon="2.31635">
        <ele>71</ele>
        <time>2013-12-09T19:57:00.244Z</time>
      </trkpt>
      <trkpt lat="48.88609" lon="2.31629">
        <ele>72</ele>
        <time>2013-12-09T19:57:01.237Z</time>
      </trkpt>
      <trkpt lat="48.88614" lon="2.31625">
        <ele>72</ele>
        <time>2013-12-09T19:57:02.173Z</time>
      </trkpt>
      <trkpt lat="48.88618" lon="2.31621">
        <ele>71</ele>
        <time>2013-12-09T19:57:03.229Z</time>
      </trkpt>
      <trkpt lat="48.88622" lon="2.31616">
        <ele>71</ele>
        <time>2013-12-09T19:57:04.233Z</time>
      </trkpt>
      <trkpt lat="48.88625" lon="2.31611">
        <ele>71</ele>
        <time>2013-12-09T19:57:05.275Z</time>
      </trkpt>
      <trkpt lat="48.88629" lon="2.31604">
        <ele>72</ele>
        <time>2013-12-09T19:57:06.251Z</time>
      </trkpt>
      <trkpt lat="48.88633" lon="2.31599">
        <ele>73</ele>
        <time>2013-12-09T19:57:07.740Z</time>
      </trkpt>
      <trkpt lat="48.88638" lon="2.31593">
        <ele>71</ele>
        <time>2013-12-09T19:57:08.245Z</time>
      </trkpt>
      <trkpt lat="48.88641" lon="2.31588">
        <ele>71</ele>
        <time>2013-12-09T19:57:09.237Z</time>
      </trkpt>
      <trkpt lat="48.88646" lon="2.31582">
        <ele>70</ele>
        <time>2013-12-09T19:57:10.229Z</time>
      </trkpt>
      <trkpt lat="48.8865" lon="2.31577">
        <ele>70</ele>
        <time>2013-12-09T19:57:11.231Z</time>
      </trkpt>
      <trkpt lat="48.88654" lon="2.31571">
        <ele>70</ele>
        <time>2013-12-09T19:57:12.179Z</time>
      </trkpt>
      <trkpt lat="48.88659" lon="2.31563">
        <ele>73</ele>
        <time>2013-12-09T19:57:13.245Z</time>
      </trkpt>
      <trkpt lat="48.88663" lon="2.31554">
        <ele>73</ele>
        <time>2013-12-09T19:57:14.235Z</time>
      </trkpt>
      <trkpt lat="48.88667" lon="2.31545">
        <ele>74</ele>
        <time>2013-12-09T19:57:15.237Z</time>
      </trkpt>
      <trkpt lat="48.8867" lon="2.31537">
        <ele>74</ele>
        <time>2013-12-09T19:57:16.239Z</time>
      </trkpt>
      <trkpt lat="48.88673" lon="2.31528">
        <ele>75</ele>
        <time>2013-12-09T19:57:17.776Z</time>
      </trkpt>
      <trkpt lat="48.88676" lon="2.3152">
        <ele>74</ele>
        <time>2013-12-09T19:57:18.238Z</time>
      </trkpt>
      <trkpt lat="48.88679" lon="2.31514">
        <ele>75</ele>
        <time>2013-12-09T19:57:19.231Z</time>
      </trkpt>
      <trkpt lat="48.88683" lon="2.31509">
        <ele>75</ele>
        <time>2013-12-09T19:57:20.227Z</time>
      </trkpt>
      <trkpt lat="48.88689" lon="2.31501">
        <ele>76</ele>
        <time>2013-12-09T19:57:22.779Z</time>
      </trkpt>
      <trkpt lat="48.88692" lon="2.31496">
        <ele>75</ele>
        <time>2013-12-09T19:57:23.226Z</time>
      </trkpt>
      <trkpt lat="48.88698" lon="2.31487">
        <ele>75</ele>
        <time>2013-12-09T19:57:25.233Z</time>
      </trkpt>
      <trkpt lat="48.887" lon="2.31481">
        <ele>75</ele>
        <time>2013-12-09T19:57:26.244Z</time>
      </trkpt>
      <trkpt lat="48.88705" lon="2.31473">
        <ele>76</ele>
        <time>2013-12-09T19:57:28.234Z</time>
      </trkpt>
      <trkpt lat="48.88707" lon="2.31468">
        <ele>75</ele>
        <time>2013-12-09T19:57:29.232Z</time>
      </trkpt>
      <trkpt lat="48.88709" lon="2.31459">
        <ele>73</ele>
        <time>2013-12-09T19:57:32.848Z</time>
      </trkpt>
      <trkpt lat="48.8871" lon="2.31455">
        <ele>74</ele>
        <time>2013-12-09T19:57:33.225Z</time>
      </trkpt>
      <trkpt lat="48.88712" lon="2.31446">
        <ele>73</ele>
        <time>2013-12-09T19:57:35.437Z</time>
      </trkpt>
      <trkpt lat="48.88714" lon="2.31442">
        <ele>73</ele>
        <time>2013-12-09T19:57:36.233Z</time>
      </trkpt>
      <trkpt lat="48.88718" lon="2.31434">
        <ele>73</ele>
        <time>2013-12-09T19:57:38.147Z</time>
      </trkpt>
      <trkpt lat="48.88721" lon="2.3143">
        <ele>74</ele>
        <time>2013-12-09T19:57:39.177Z</time>
      </trkpt>
      <trkpt lat="48.88725" lon="2.31422">
        <ele>73</ele>
        <time>2013-12-09T19:57:41.177Z</time>
      </trkpt>
      <trkpt lat="48.88727" lon="2.31419">
        <ele>73</ele>
        <time>2013-12-09T19:57:42.173Z</time>
      </trkpt>
      <trkpt lat="48.88731" lon="2.31411">
        <ele>73</ele>
        <time>2013-12-09T19:57:44.174Z</time>
      </trkpt>
      <trkpt lat="48.88733" lon="2.31407">
        <ele>74</ele>
        <time>2013-12-09T19:57:45.243Z</time>
      </trkpt>
      <trkpt lat="48.88737" lon="2.31399">
        <ele>74</ele>
        <time>2013-12-09T19:57:48.230Z</time>
      </trkpt>
      <trkpt lat="48.88739" lon="2.31394">
        <ele>74</ele>
        <time>2013-12-09T19:57:48.888Z</time>
      </trkpt>
      <trkpt lat="48.88741" lon="2.31386">
        <ele>74</ele>
        <time>2013-12-09T19:57:50.276Z</time>
      </trkpt>
      <trkpt lat="48.88743" lon="2.31379">
        <ele>75</ele>
        <time>2013-12-09T19:57:51.234Z</time>
      </trkpt>
      <trkpt lat="48.88745" lon="2.31372">
        <ele>76</ele>
        <time>2013-12-09T19:57:52.893Z</time>
      </trkpt>
      <trkpt lat="48.88748" lon="2.31364">
        <ele>75</ele>
        <time>2013-12-09T19:57:53.148Z</time>
      </trkpt>
      <trkpt lat="48.88751" lon="2.31356">
        <ele>76</ele>
        <time>2013-12-09T19:57:54.182Z</time>
      </trkpt>
      <trkpt lat="48.88753" lon="2.31346">
        <ele>75</ele>
        <time>2013-12-09T19:57:55.178Z</time>
      </trkpt>
      <trkpt lat="48.88755" lon="2.31338">
        <ele>74</ele>
        <time>2013-12-09T19:57:56.215Z</time>
      </trkpt>
      <trkpt lat="48.88757" lon="2.31329">
        <ele>74</ele>
        <time>2013-12-09T19:57:57.189Z</time>
      </trkpt>
      <trkpt lat="48.88759" lon="2.31319">
        <ele>74</ele>
        <time>2013-12-09T19:57:58.149Z</time>
      </trkpt>
      <trkpt lat="48.8876" lon="2.31309">
        <ele>75</ele>
        <time>2013-12-09T19:57:59.177Z</time>
      </trkpt>
      <trkpt lat="48.88761" lon="2.31299">
        <ele>77</ele>
        <time>2013-12-09T19:58:00.149Z</time>
      </trkpt>
      <trkpt lat="48.88761" lon="2.31289">
        <ele>77</ele>
        <time>2013-12-09T19:58:01.174Z</time>
      </trkpt>
      <trkpt lat="48.88761" lon="2.31279">
        <ele>77</ele>
        <time>2013-12-09T19:58:02.930Z</time>
      </trkpt>
      <trkpt lat="48.88762" lon="2.3127">
        <ele>75</ele>
        <time>2013-12-09T19:58:03.224Z</time>
      </trkpt>
      <trkpt lat="48.88763" lon="2.31258">
        <ele>75</ele>
        <time>2013-12-09T19:58:04.947Z</time>
      </trkpt>
      <trkpt lat="48.88765" lon="2.31257">
        <ele>72</ele>
        <time>2013-12-09T19:58:05.487Z</time>
      </trkpt>
      <trkpt lat="48.88768" lon="2.31248">
        <ele>72</ele>
        <time>2013-12-09T19:58:07.236Z</time>
      </trkpt>
      <trkpt lat="48.88771" lon="2.31241">
        <ele>71</ele>
        <time>2013-12-09T19:58:08.234Z</time>
      </trkpt>
      <trkpt lat="48.88773" lon="2.31233">
        <ele>71</ele>
        <time>2013-12-09T19:58:09.230Z</time>
      </trkpt>
      <trkpt lat="48.88775" lon="2.31225">
        <ele>71</ele>
        <time>2013-12-09T19:58:10.230Z</time>
      </trkpt>
      <trkpt lat="48.88777" lon="2.31216">
        <ele>71</ele>
        <time>2013-12-09T19:58:11.163Z</time>
      </trkpt>
      <trkpt lat="48.88779" lon="2.31207">
        <ele>71</ele>
        <time>2013-12-09T19:58:12.149Z</time>
      </trkpt>
      <trkpt lat="48.8878" lon="2.31198">
        <ele>70</ele>
        <time>2013-12-09T19:58:13.867Z</time>
      </trkpt>
      <trkpt lat="48.88782" lon="2.31189">
        <ele>71</ele>
        <time>2013-12-09T19:58:14.142Z</time>
      </trkpt>
      <trkpt lat="48.88783" lon="2.31181">
        <ele>71</ele>
        <time>2013-12-09T19:58:15.162Z</time>
      </trkpt>
      <trkpt lat="48.88783" lon="2.31172">
        <ele>71</ele>
        <time>2013-12-09T19:58:16.140Z</time>
      </trkpt>
      <trkpt lat="48.88783" lon="2.31163">
        <ele>72</ele>
        <time>2013-12-09T19:58:17.241Z</time>
      </trkpt>
      <trkpt lat="48.88783" lon="2.31153">
        <ele>72</ele>
        <time>2013-12-09T19:58:18.840Z</time>
      </trkpt>
      <trkpt lat="48.88783" lon="2.31143">
        <ele>70</ele>
        <time>2013-12-09T19:58:20.249Z</time>
      </trkpt>
      <trkpt lat="48.88785" lon="2.31137">
        <ele>70</ele>
        <time>2013-12-09T19:58:21.179Z</time>
      </trkpt>
      <trkpt lat="48.88786" lon="2.31131">
        <ele>69</ele>
        <time>2013-12-09T19:58:22.237Z</time>
      </trkpt>
      <trkpt lat="48.88787" lon="2.31124">
        <ele>69</ele>
        <time>2013-12-09T19:58:23.438Z</time>
      </trkpt>
      <trkpt lat="48.8879" lon="2.31112">
        <ele>67</ele>
        <time>2013-12-09T19:58:25.254Z</time>
      </trkpt>
      <trkpt lat="48.88793" lon="2.31106">
        <ele>68</ele>
        <time>2013-12-09T19:58:26.153Z</time>
      </trkpt>
      <trkpt lat="48.88796" lon="2.311">
        <ele>69</ele>
        <time>2013-12-09T19:58:27.229Z</time>
      </trkpt>
      <trkpt lat="48.88799" lon="2.31094">
        <ele>69</ele>
        <time>2013-12-09T19:58:28.236Z</time>
      </trkpt>
      <trkpt lat="48.88803" lon="2.31088">
        <ele>68</ele>
        <time>2013-12-09T19:58:29.248Z</time>
      </trkpt>
      <trkpt lat="48.88806" lon="2.31083">
        <ele>70</ele>
        <time>2013-12-09T19:58:30.234Z</time>
      </trkpt>
      <trkpt lat="48.88809" lon="2.31079">
        <ele>72</ele>
        <time>2013-12-09T19:58:31.803Z</time>
      </trkpt>
      <trkpt lat="48.88813" lon="2.31074">
        <ele>72</ele>
        <time>2013-12-09T19:58:32.239Z</time>
      </trkpt>
      <trkpt lat="48.8882" lon="2.31066">
        <ele>73</ele>
        <time>2013-12-09T19:58:34.229Z</time>
      </trkpt>
      <trkpt lat="48.88822" lon="2.31061">
        <ele>73</ele>
        <time>2013-12-09T19:58:35.230Z</time>
      </trkpt>
      <trkpt lat="48.88825" lon="2.31051">
        <ele>74</ele>
        <time>2013-12-09T19:58:37.231Z</time>
      </trkpt>
      <trkpt lat="48.88825" lon="2.31047">
        <ele>73</ele>
        <time>2013-12-09T19:58:38.228Z</time>
      </trkpt>
      <trkpt lat="48.88823" lon="2.31038">
        <ele>73</ele>
        <time>2013-12-09T19:58:40.228Z</time>
      </trkpt>
      <trkpt lat="48.88822" lon="2.31034">
        <ele>73</ele>
        <time>2013-12-09T19:58:41.164Z</time>
      </trkpt>
      <trkpt lat="48.8882" lon="2.31023">
        <ele>76</ele>
        <time>2013-12-09T19:58:43.230Z</time>
      </trkpt>
      <trkpt lat="48.88819" lon="2.31018">
        <ele>75</ele>
        <time>2013-12-09T19:58:44.235Z</time>
      </trkpt>
      <trkpt lat="48.88818" lon="2.31005">
        <ele>76</ele>
        <time>2013-12-09T19:58:46.865Z</time>
      </trkpt>
      <trkpt lat="48.88817" lon="2.30997">
        <ele>76</ele>
        <time>2013-12-09T19:58:47.227Z</time>
      </trkpt>
      <trkpt lat="48.88816" lon="2.3099">
        <ele>76</ele>
        <time>2013-12-09T19:58:48.231Z</time>
      </trkpt>
      <trkpt lat="48.88816" lon="2.30982">
        <ele>77</ele>
        <time>2013-12-09T19:58:49.231Z</time>
      </trkpt>
      <trkpt lat="48.88813" lon="2.30972">
        <ele>76</ele>
        <time>2013-12-09T19:58:51.145Z</time>
      </trkpt>
      <trkpt lat="48.88811" lon="2.30967">
        <ele>75</ele>
        <time>2013-12-09T19:58:52.145Z</time>
      </trkpt>
      <trkpt lat="48.88808" lon="2.30957">
        <ele>78</ele>
        <time>2013-12-09T19:58:55.143Z</time>
      </trkpt>
      <trkpt lat="48.88806" lon="2.30953">
        <ele>78</ele>
        <time>2013-12-09T19:58:55.189Z</time>
      </trkpt>
      <trkpt lat="48.88804" lon="2.30942">
        <ele>78</ele>
        <time>2013-12-09T19:58:57.163Z</time>
      </trkpt>
      <trkpt lat="48.88803" lon="2.30935">
        <ele>78</ele>
        <time>2013-12-09T19:58:58.200Z</time>
      </trkpt>
      <trkpt lat="48.88803" lon="2.30928">
        <ele>79</ele>
        <time>2013-12-09T19:58:59.230Z</time>
      </trkpt>
      <trkpt lat="48.88803" lon="2.30921">
        <ele>80</ele>
        <time>2013-12-09T19:59:00.258Z</time>
      </trkpt>
      <trkpt lat="48.88802" lon="2.30915">
        <ele>80</ele>
        <time>2013-12-09T19:59:01.980Z</time>
      </trkpt>
      <trkpt lat="48.88802" lon="2.30908">
        <ele>82</ele>
        <time>2013-12-09T19:59:02.236Z</time>
      </trkpt>
      <trkpt lat="48.88801" lon="2.30895">
        <ele>85</ele>
        <time>2013-12-09T19:59:04.230Z</time>
      </trkpt>
      <trkpt lat="48.88801" lon="2.30889">
        <ele>88</ele>
        <time>2013-12-09T19:59:05.235Z</time>
      </trkpt>
      <trkpt lat="48.888" lon="2.30877">
        <ele>89</ele>
        <time>2013-12-09T19:59:08.237Z</time>
      </trkpt>
      <trkpt lat="48.88799" lon="2.30873">
        <ele>91</ele>
        <time>2013-12-09T19:59:09.169Z</time>
      </trkpt>
      <trkpt lat="48.88797" lon="2.30861">
        <ele>94</ele>
        <time>2013-12-09T19:59:12.145Z</time>
      </trkpt>
      <trkpt lat="48.88797" lon="2.30856">
        <ele>95</ele>
        <time>2013-12-09T19:59:13.238Z</time>
      </trkpt>
      <trkpt lat="48.88797" lon="2.30846">
        <ele>97</ele>
        <time>2013-12-09T19:59:15.232Z</time>
      </trkpt>
      <trkpt lat="48.88796" lon="2.30842">
        <ele>97</ele>
        <time>2013-12-09T19:59:16.173Z</time>
      </trkpt>
      <trkpt lat="48.88795" lon="2.30831">
        <ele>99</ele>
        <time>2013-12-09T19:59:18.172Z</time>
      </trkpt>
      <trkpt lat="48.88795" lon="2.30825">
        <ele>101</ele>
        <time>2013-12-09T19:59:19.235Z</time>
      </trkpt>
      <trkpt lat="48.88795" lon="2.30812">
        <ele>101</ele>
        <time>2013-12-09T19:59:21.178Z</time>
      </trkpt>
      <trkpt lat="48.88794" lon="2.30806">
        <ele>97</ele>
        <time>2013-12-09T19:59:22.204Z</time>
      </trkpt>
      <trkpt lat="48.88794" lon="2.30795">
        <ele>96</ele>
        <time>2013-12-09T19:59:24.232Z</time>
      </trkpt>
      <trkpt lat="48.88793" lon="2.30791">
        <ele>97</ele>
        <time>2013-12-09T19:59:25.269Z</time>
      </trkpt>
      <trkpt lat="48.88789" lon="2.30779">
        <ele>98</ele>
        <time>2013-12-09T19:59:28.150Z</time>
      </trkpt>
      <trkpt lat="48.88788" lon="2.30774">
        <ele>96</ele>
        <time>2013-12-09T19:59:29.265Z</time>
      </trkpt>
      <trkpt lat="48.88785" lon="2.30764">
        <ele>97</ele>
        <time>2013-12-09T19:59:31.180Z</time>
      </trkpt>
      <trkpt lat="48.88784" lon="2.30758">
        <ele>93</ele>
        <time>2013-12-09T19:59:32.209Z</time>
      </trkpt>
      <trkpt lat="48.88784" lon="2.30745">
        <ele>88</ele>
        <time>2013-12-09T19:59:34.230Z</time>
      </trkpt>
      <trkpt lat="48.88785" lon="2.30739">
        <ele>87</ele>
        <time>2013-12-09T19:59:35.235Z</time>
      </trkpt>
      <trkpt lat="48.88789" lon="2.30727">
        <ele>85</ele>
        <time>2013-12-09T19:59:37.917Z</time>
      </trkpt>
      <trkpt lat="48.88791" lon="2.3072">
        <ele>86</ele>
        <time>2013-12-09T19:59:38.181Z</time>
      </trkpt>
      <trkpt lat="48.88791" lon="2.30708">
        <ele>88</ele>
        <time>2013-12-09T19:59:40.173Z</time>
      </trkpt>
      <trkpt lat="48.8879" lon="2.30701">
        <ele>89</ele>
        <time>2013-12-09T19:59:41.171Z</time>
      </trkpt>
      <trkpt lat="48.88788" lon="2.30694">
        <ele>88</ele>
        <time>2013-12-09T19:59:42.966Z</time>
      </trkpt>
      <trkpt lat="48.88786" lon="2.30687">
        <ele>88</ele>
        <time>2013-12-09T19:59:43.303Z</time>
      </trkpt>
      <trkpt lat="48.88784" lon="2.3068">
        <ele>88</ele>
        <time>2013-12-09T19:59:44.202Z</time>
      </trkpt>
      <trkpt lat="48.88783" lon="2.30672">
        <ele>86</ele>
        <time>2013-12-09T19:59:45.239Z</time>
      </trkpt>
      <trkpt lat="48.88781" lon="2.30665">
        <ele>84</ele>
        <time>2013-12-09T19:59:46.184Z</time>
      </trkpt>
      <trkpt lat="48.8878" lon="2.30658">
        <ele>83</ele>
        <time>2013-12-09T19:59:47.199Z</time>
      </trkpt>
      <trkpt lat="48.88779" lon="2.30651">
        <ele>82</ele>
        <time>2013-12-09T19:59:48.233Z</time>
      </trkpt>
      <trkpt lat="48.88779" lon="2.30644">
        <ele>83</ele>
        <time>2013-12-09T19:59:49.229Z</time>
      </trkpt>
      <trkpt lat="48.88777" lon="2.30632">
        <ele>81</ele>
        <time>2013-12-09T19:59:51.241Z</time>
      </trkpt>
      <trkpt lat="48.88776" lon="2.30626">
        <ele>82</ele>
        <time>2013-12-09T19:59:52.154Z</time>
      </trkpt>
      <trkpt lat="48.88774" lon="2.30616">
        <ele>83</ele>
        <time>2013-12-09T19:59:55.187Z</time>
      </trkpt>
      <trkpt lat="48.88774" lon="2.30613">
        <ele>81</ele>
        <time>2013-12-09T19:59:56.180Z</time>
      </trkpt>
      <trkpt lat="48.88773" lon="2.30601">
        <ele>82</ele>
        <time>2013-12-09T19:59:59.228Z</time>
      </trkpt>
      <trkpt lat="48.88772" lon="2.30597">
        <ele>81</ele>
        <time>2013-12-09T20:00:00.231Z</time>
      </trkpt>
      <trkpt lat="48.88772" lon="2.30588">
        <ele>81</ele>
        <time>2013-12-09T20:00:03.042Z</time>
      </trkpt>
      <trkpt lat="48.88771" lon="2.30582">
        <ele>82</ele>
        <time>2013-12-09T20:00:03.148Z</time>
      </trkpt>
      <trkpt lat="48.88769" lon="2.30575">
        <ele>82</ele>
        <time>2013-12-09T20:00:04.234Z</time>
      </trkpt>
      <trkpt lat="48.88767" lon="2.30568">
        <ele>81</ele>
        <time>2013-12-09T20:00:05.247Z</time>
      </trkpt>
      <trkpt lat="48.88765" lon="2.30562">
        <ele>82</ele>
        <time>2013-12-09T20:00:06.259Z</time>
      </trkpt>
      <trkpt lat="48.88763" lon="2.30555">
        <ele>84</ele>
        <time>2013-12-09T20:00:07.181Z</time>
      </trkpt>
      <trkpt lat="48.88762" lon="2.30547">
        <ele>82</ele>
        <time>2013-12-09T20:00:08.153Z</time>
      </trkpt>
      <trkpt lat="48.88761" lon="2.3054">
        <ele>85</ele>
        <time>2013-12-09T20:00:09.235Z</time>
      </trkpt>
      <trkpt lat="48.8876" lon="2.30532">
        <ele>85</ele>
        <time>2013-12-09T20:00:10.232Z</time>
      </trkpt>
      <trkpt lat="48.88759" lon="2.30526">
        <ele>86</ele>
        <time>2013-12-09T20:00:11.233Z</time>
      </trkpt>
      <trkpt lat="48.8876" lon="2.30513">
        <ele>79</ele>
        <time>2013-12-09T20:00:13.144Z</time>
      </trkpt>
      <trkpt lat="48.8876" lon="2.30509">
        <ele>78</ele>
        <time>2013-12-09T20:00:14.234Z</time>
      </trkpt>
      <trkpt lat="48.88758" lon="2.30496">
        <ele>79</ele>
        <time>2013-12-09T20:00:22.166Z</time>
      </trkpt>
      <trkpt lat="48.88758" lon="2.30495">
        <ele>80</ele>
        <time>2013-12-09T20:00:23.142Z</time>
      </trkpt>
      <trkpt lat="48.8876" lon="2.30494">
        <ele>79</ele>
        <time>2013-12-09T20:00:30.229Z</time>
      </trkpt>
      <trkpt lat="48.8876" lon="2.30494">
        <ele>80</ele>
        <time>2013-12-09T20:00:31.298Z</time>
      </trkpt>
      <trkpt lat="48.88759" lon="2.30494">
        <ele>80</ele>
        <time>2013-12-09T20:00:32.172Z</time>
      </trkpt>
      <trkpt lat="48.88758" lon="2.30494">
        <ele>80</ele>
        <time>2013-12-09T20:00:33.173Z</time>
      </trkpt>
      <trkpt lat="48.88756" lon="2.30482">
        <ele>86</ele>
        <time>2013-12-09T20:00:40.228Z</time>
      </trkpt>
      <trkpt lat="48.88756" lon="2.30476">
        <ele>86</ele>
        <time>2013-12-09T20:00:41.553Z</time>
      </trkpt>
      <trkpt lat="48.88754" lon="2.30465">
        <ele>87</ele>
        <time>2013-12-09T20:00:43.538Z</time>
      </trkpt>
      <trkpt lat="48.88754" lon="2.30459">
        <ele>87</ele>
        <time>2013-12-09T20:00:44.550Z</time>
      </trkpt>
      <trkpt lat="48.88752" lon="2.30449">
        <ele>87</ele>
        <time>2013-12-09T20:00:46.584Z</time>
      </trkpt>
      <trkpt lat="48.8875" lon="2.30444">
        <ele>87</ele>
        <time>2013-12-09T20:00:47.529Z</time>
      </trkpt>
      <trkpt lat="48.88748" lon="2.30434">
        <ele>89</ele>
        <time>2013-12-09T20:00:50.396Z</time>
      </trkpt>
      <trkpt lat="48.88747" lon="2.30429">
        <ele>90</ele>
        <time>2013-12-09T20:00:50.525Z</time>
      </trkpt>
      <trkpt lat="48.88746" lon="2.30419">
        <ele>90</ele>
        <time>2013-12-09T20:00:53.340Z</time>
      </trkpt>
      <trkpt lat="48.88745" lon="2.30415">
        <ele>90</ele>
        <time>2013-12-09T20:00:53.590Z</time>
      </trkpt>
      <trkpt lat="48.88744" lon="2.30401">
        <ele>88</ele>
        <time>2013-12-09T20:00:56.236Z</time>
      </trkpt>
      <trkpt lat="48.88744" lon="2.30396">
        <ele>86</ele>
        <time>2013-12-09T20:00:57.176Z</time>
      </trkpt>
      <trkpt lat="48.88744" lon="2.30386">
        <ele>82</ele>
        <time>2013-12-09T20:00:59.242Z</time>
      </trkpt>
      <trkpt lat="48.88744" lon="2.30381">
        <ele>81</ele>
        <time>2013-12-09T20:01:00.275Z</time>
      </trkpt>
      <trkpt lat="48.88745" lon="2.3037">
        <ele>82</ele>
        <time>2013-12-09T20:01:02.231Z</time>
      </trkpt>
      <trkpt lat="48.88744" lon="2.3036">
        <ele>82</ele>
        <time>2013-12-09T20:01:03.167Z</time>
      </trkpt>
      <trkpt lat="48.88742" lon="2.3035">
        <ele>82</ele>
        <time>2013-12-09T20:01:04.164Z</time>
      </trkpt>
      <trkpt lat="48.8874" lon="2.30341">
        <ele>82</ele>
        <time>2013-12-09T20:01:05.165Z</time>
      </trkpt>
      <trkpt lat="48.88738" lon="2.30333">
        <ele>81</ele>
        <time>2013-12-09T20:01:06.139Z</time>
      </trkpt>
      <trkpt lat="48.88737" lon="2.30325">
        <ele>82</ele>
        <time>2013-12-09T20:01:07.173Z</time>
      </trkpt>
      <trkpt lat="48.88736" lon="2.30317">
        <ele>82</ele>
        <time>2013-12-09T20:01:08.362Z</time>
      </trkpt>
      <trkpt lat="48.88734" lon="2.3031">
        <ele>82</ele>
        <time>2013-12-09T20:01:09.268Z</time>
      </trkpt>
      <trkpt lat="48.88732" lon="2.30302">
        <ele>83</ele>
        <time>2013-12-09T20:01:10.180Z</time>
      </trkpt>
      <trkpt lat="48.8873" lon="2.30293">
        <ele>82</ele>
        <time>2013-12-09T20:01:11.236Z</time>
      </trkpt>
      <trkpt lat="48.88728" lon="2.30285">
        <ele>82</ele>
        <time>2013-12-09T20:01:12.183Z</time>
      </trkpt>
      <trkpt lat="48.88725" lon="2.30276">
        <ele>83</ele>
        <time>2013-12-09T20:01:13.181Z</time>
      </trkpt>
      <trkpt lat="48.88722" lon="2.30268">
        <ele>83</ele>
        <time>2013-12-09T20:01:14.150Z</time>
      </trkpt>
      <trkpt lat="48.88721" lon="2.30261">
        <ele>84</ele>
        <time>2013-12-09T20:01:15.149Z</time>
      </trkpt>
      <trkpt lat="48.88718" lon="2.30249">
        <ele>85</ele>
        <time>2013-12-09T20:01:17.172Z</time>
      </trkpt>
      <trkpt lat="48.88718" lon="2.30244">
        <ele>84</ele>
        <time>2013-12-09T20:01:18.175Z</time>
      </trkpt>
      <trkpt lat="48.88717" lon="2.30237">
        <ele>83</ele>
        <time>2013-12-09T20:01:19.396Z</time>
      </trkpt>
      <trkpt lat="48.88718" lon="2.30228">
        <ele>83</ele>
        <time>2013-12-09T20:01:20.459Z</time>
      </trkpt>
      <trkpt lat="48.88717" lon="2.30221">
        <ele>82</ele>
        <time>2013-12-09T20:01:21.238Z</time>
      </trkpt>
      <trkpt lat="48.88715" lon="2.30214">
        <ele>81</ele>
        <time>2013-12-09T20:01:22.176Z</time>
      </trkpt>
      <trkpt lat="48.88713" lon="2.30207">
        <ele>82</ele>
        <time>2013-12-09T20:01:23.375Z</time>
      </trkpt>
      <trkpt lat="48.88712" lon="2.302">
        <ele>80</ele>
        <time>2013-12-09T20:01:24.232Z</time>
      </trkpt>
      <trkpt lat="48.88711" lon="2.30193">
        <ele>79</ele>
        <time>2013-12-09T20:01:25.236Z</time>
      </trkpt>
      <trkpt lat="48.88709" lon="2.30186">
        <ele>79</ele>
        <time>2013-12-09T20:01:26.237Z</time>
      </trkpt>
      <trkpt lat="48.88708" lon="2.30179">
        <ele>77</ele>
        <time>2013-12-09T20:01:27.162Z</time>
      </trkpt>
      <trkpt lat="48.88707" lon="2.30171">
        <ele>78</ele>
        <time>2013-12-09T20:01:28.182Z</time>
      </trkpt>
      <trkpt lat="48.88704" lon="2.30161">
        <ele>77</ele>
        <time>2013-12-09T20:01:29.442Z</time>
      </trkpt>
      <trkpt lat="48.88703" lon="2.30155">
        <ele>77</ele>
        <time>2013-12-09T20:01:30.232Z</time>
      </trkpt>
      <trkpt lat="48.88701" lon="2.30147">
        <ele>77</ele>
        <time>2013-12-09T20:01:31.235Z</time>
      </trkpt>
      <trkpt lat="48.88699" lon="2.30139">
        <ele>78</ele>
        <time>2013-12-09T20:01:32.179Z</time>
      </trkpt>
      <trkpt lat="48.88697" lon="2.30131">
        <ele>79</ele>
        <time>2013-12-09T20:01:33.377Z</time>
      </trkpt>
      <trkpt lat="48.88693" lon="2.30121">
        <ele>81</ele>
        <time>2013-12-09T20:01:34.155Z</time>
      </trkpt>
      <trkpt lat="48.8869" lon="2.30112">
        <ele>80</ele>
        <time>2013-12-09T20:01:35.154Z</time>
      </trkpt>
      <trkpt lat="48.88687" lon="2.30104">
        <ele>81</ele>
        <time>2013-12-09T20:01:36.152Z</time>
      </trkpt>
      <trkpt lat="48.88684" lon="2.30096">
        <ele>80</ele>
        <time>2013-12-09T20:01:37.154Z</time>
      </trkpt>
      <trkpt lat="48.88682" lon="2.3009">
        <ele>80</ele>
        <time>2013-12-09T20:01:38.203Z</time>
      </trkpt>
      <trkpt lat="48.88679" lon="2.30083">
        <ele>81</ele>
        <time>2013-12-09T20:01:39.194Z</time>
      </trkpt>
      <trkpt lat="48.88677" lon="2.30076">
        <ele>78</ele>
        <time>2013-12-09T20:01:40.241Z</time>
      </trkpt>
      <trkpt lat="48.88676" lon="2.3007">
        <ele>78</ele>
        <time>2013-12-09T20:01:41.567Z</time>
      </trkpt>
      <trkpt lat="48.88675" lon="2.30062">
        <ele>79</ele>
        <time>2013-12-09T20:01:42.169Z</time>
      </trkpt>
      <trkpt lat="48.88674" lon="2.30055">
        <ele>78</ele>
        <time>2013-12-09T20:01:43.387Z</time>
      </trkpt>
      <trkpt lat="48.88672" lon="2.30047">
        <ele>78</ele>
        <time>2013-12-09T20:01:44.184Z</time>
      </trkpt>
      <trkpt lat="48.88669" lon="2.3004">
        <ele>79</ele>
        <time>2013-12-09T20:01:45.188Z</time>
      </trkpt>
      <trkpt lat="48.88666" lon="2.30033">
        <ele>80</ele>
        <time>2013-12-09T20:01:46.161Z</time>
      </trkpt>
      <trkpt lat="48.88662" lon="2.30027">
        <ele>81</ele>
        <time>2013-12-09T20:01:47.196Z</time>
      </trkpt>
      <trkpt lat="48.88658" lon="2.30021">
        <ele>83</ele>
        <time>2013-12-09T20:01:48.145Z</time>
      </trkpt>
      <trkpt lat="48.88655" lon="2.30013">
        <ele>84</ele>
        <time>2013-12-09T20:01:49.240Z</time>
      </trkpt>
      <trkpt lat="48.88652" lon="2.30005">
        <ele>84</ele>
        <time>2013-12-09T20:01:50.452Z</time>
      </trkpt>
      <trkpt lat="48.88651" lon="2.29999">
        <ele>83</ele>
        <time>2013-12-09T20:01:51.237Z</time>
      </trkpt>
      <trkpt lat="48.88648" lon="2.29992">
        <ele>82</ele>
        <time>2013-12-09T20:01:52.233Z</time>
      </trkpt>
      <trkpt lat="48.88646" lon="2.29985">
        <ele>82</ele>
        <time>2013-12-09T20:01:53.418Z</time>
      </trkpt>
      <trkpt lat="48.88643" lon="2.29978">
        <ele>79</ele>
        <time>2013-12-09T20:01:54.230Z</time>
      </trkpt>
      <trkpt lat="48.8864" lon="2.2997">
        <ele>78</ele>
        <time>2013-12-09T20:01:55.230Z</time>
      </trkpt>
      <trkpt lat="48.88638" lon="2.29963">
        <ele>78</ele>
        <time>2013-12-09T20:01:56.237Z</time>
      </trkpt>
      <trkpt lat="48.88635" lon="2.29955">
        <ele>78</ele>
        <time>2013-12-09T20:01:57.246Z</time>
      </trkpt>
      <trkpt lat="48.88633" lon="2.29946">
        <ele>78</ele>
        <time>2013-12-09T20:01:58.151Z</time>
      </trkpt>
      <trkpt lat="48.8863" lon="2.29936">
        <ele>79</ele>
        <time>2013-12-09T20:01:59.236Z</time>
      </trkpt>
      <trkpt lat="48.88627" lon="2.29927">
        <ele>79</ele>
        <time>2013-12-09T20:02:00.246Z</time>
      </trkpt>
      <trkpt lat="48.88624" lon="2.29919">
        <ele>80</ele>
        <time>2013-12-09T20:02:01.237Z</time>
      </trkpt>
      <trkpt lat="48.88621" lon="2.29911">
        <ele>81</ele>
        <time>2013-12-09T20:02:02.256Z</time>
      </trkpt>
      <trkpt lat="48.88618" lon="2.29906">
        <ele>81</ele>
        <time>2013-12-09T20:02:03.445Z</time>
      </trkpt>
      <trkpt lat="48.88615" lon="2.29898">
        <ele>82</ele>
        <time>2013-12-09T20:02:04.151Z</time>
      </trkpt>
      <trkpt lat="48.88613" lon="2.2989">
        <ele>83</ele>
        <time>2013-12-09T20:02:05.165Z</time>
      </trkpt>
      <trkpt lat="48.8861" lon="2.29883">
        <ele>83</ele>
        <time>2013-12-09T20:02:06.241Z</time>
      </trkpt>
      <trkpt lat="48.88607" lon="2.29877">
        <ele>84</ele>
        <time>2013-12-09T20:02:07.238Z</time>
      </trkpt>
      <trkpt lat="48.88603" lon="2.29871">
        <ele>86</ele>
        <time>2013-12-09T20:02:08.182Z</time>
      </trkpt>
      <trkpt lat="48.88599" lon="2.29864">
        <ele>85</ele>
        <time>2013-12-09T20:02:09.233Z</time>
      </trkpt>
      <trkpt lat="48.88595" lon="2.29858">
        <ele>85</ele>
        <time>2013-12-09T20:02:10.248Z</time>
      </trkpt>
      <trkpt lat="48.88591" lon="2.29851">
        <ele>85</ele>
        <time>2013-12-09T20:02:11.238Z</time>
      </trkpt>
      <trkpt lat="48.88588" lon="2.29846">
        <ele>85</ele>
        <time>2013-12-09T20:02:12.239Z</time>
      </trkpt>
      <trkpt lat="48.88583" lon="2.29836">
        <ele>86</ele>
        <time>2013-12-09T20:02:14.239Z</time>
      </trkpt>
      <trkpt lat="48.88579" lon="2.29832">
        <ele>87</ele>
        <time>2013-12-09T20:02:15.230Z</time>
      </trkpt>
      <trkpt lat="48.88576" lon="2.29827">
        <ele>85</ele>
        <time>2013-12-09T20:02:16.238Z</time>
      </trkpt>
      <trkpt lat="48.88574" lon="2.29821">
        <ele>85</ele>
        <time>2013-12-09T20:02:17.247Z</time>
      </trkpt>
      <trkpt lat="48.8857" lon="2.29814">
        <ele>85</ele>
        <time>2013-12-09T20:02:18.470Z</time>
      </trkpt>
      <trkpt lat="48.88562" lon="2.298">
        <ele>85</ele>
        <time>2013-12-09T20:02:20.242Z</time>
      </trkpt>
      <trkpt lat="48.88558" lon="2.29793">
        <ele>84</ele>
        <time>2013-12-09T20:02:21.237Z</time>
      </trkpt>
      <trkpt lat="48.88554" lon="2.29787">
        <ele>84</ele>
        <time>2013-12-09T20:02:22.269Z</time>
      </trkpt>
      <trkpt lat="48.88549" lon="2.29778">
        <ele>82</ele>
        <time>2013-12-09T20:02:24.173Z</time>
      </trkpt>
      <trkpt lat="48.88547" lon="2.29774">
        <ele>82</ele>
        <time>2013-12-09T20:02:25.449Z</time>
      </trkpt>
      <trkpt lat="48.88539" lon="2.29769">
        <ele>81</ele>
        <time>2013-12-09T20:02:29.175Z</time>
      </trkpt>
      <trkpt lat="48.88538" lon="2.29768">
        <ele>81</ele>
        <time>2013-12-09T20:02:30.167Z</time>
      </trkpt>
      <trkpt lat="48.88544" lon="2.29758">
        <ele>74</ele>
        <time>2013-12-09T20:02:40.246Z</time>
      </trkpt>
      <trkpt lat="48.88546" lon="2.29755">
        <ele>75</ele>
        <time>2013-12-09T20:02:41.235Z</time>
      </trkpt>
      <trkpt lat="48.88552" lon="2.29747">
        <ele>75</ele>
        <time>2013-12-09T20:02:44.174Z</time>
      </trkpt>
      <trkpt lat="48.88554" lon="2.29745">
        <ele>75</ele>
        <time>2013-12-09T20:02:45.138Z</time>
      </trkpt>
      <trkpt lat="48.88554" lon="2.29732">
        <ele>75</ele>
        <time>2013-12-09T20:02:51.629Z</time>
      </trkpt>
      <trkpt lat="48.88553" lon="2.2973">
        <ele>75</ele>
        <time>2013-12-09T20:02:52.630Z</time>
      </trkpt>
      <trkpt lat="48.88548" lon="2.29718">
        <ele>79</ele>
        <time>2013-12-09T20:02:56.631Z</time>
      </trkpt>
      <trkpt lat="48.88547" lon="2.29715">
        <ele>80</ele>
        <time>2013-12-09T20:02:57.632Z</time>
      </trkpt>
      <trkpt lat="48.88545" lon="2.29704">
        <ele>76</ele>
        <time>2013-12-09T20:03:01.231Z</time>
      </trkpt>
      <trkpt lat="48.88545" lon="2.297">
        <ele>73</ele>
        <time>2013-12-09T20:03:02.163Z</time>
      </trkpt>
      <trkpt lat="48.88543" lon="2.2969">
        <ele>74</ele>
        <time>2013-12-09T20:03:04.163Z</time>
      </trkpt>
      <trkpt lat="48.88541" lon="2.29686">
        <ele>74</ele>
        <time>2013-12-09T20:03:05.168Z</time>
      </trkpt>
      <trkpt lat="48.88538" lon="2.29677">
        <ele>75</ele>
        <time>2013-12-09T20:03:07.165Z</time>
      </trkpt>
      <trkpt lat="48.88536" lon="2.29673">
        <ele>75</ele>
        <time>2013-12-09T20:03:08.164Z</time>
      </trkpt>
      <trkpt lat="48.88529" lon="2.29663">
        <ele>79</ele>
        <time>2013-12-09T20:03:11.230Z</time>
      </trkpt>
      <trkpt lat="48.88527" lon="2.29661">
        <ele>81</ele>
        <time>2013-12-09T20:03:12.162Z</time>
      </trkpt>
      <trkpt lat="48.8852" lon="2.29659">
        <ele>83</ele>
        <time>2013-12-09T20:03:14.229Z</time>
      </trkpt>
      <trkpt lat="48.88517" lon="2.29659">
        <ele>84</ele>
        <time>2013-12-09T20:03:15.233Z</time>
      </trkpt>
      <trkpt lat="48.88513" lon="2.29649">
        <ele>81</ele>
        <time>2013-12-09T20:03:19.263Z</time>
      </trkpt>
      <trkpt lat="48.88513" lon="2.29645">
        <ele>82</ele>
        <time>2013-12-09T20:03:20.234Z</time>
      </trkpt>
      <trkpt lat="48.88506" lon="2.2964">
        <ele>79</ele>
        <time>2013-12-09T20:03:25.962Z</time>
      </trkpt>
      <trkpt lat="48.88504" lon="2.29641">
        <ele>78</ele>
        <time>2013-12-09T20:03:26.154Z</time>
      </trkpt>
      <trkpt lat="48.88499" lon="2.29653">
        <ele>77</ele>
        <time>2013-12-09T20:03:32.171Z</time>
      </trkpt>
      <trkpt lat="48.88499" lon="2.29655">
        <ele>77</ele>
        <time>2013-12-09T20:03:33.207Z</time>
      </trkpt>
      <trkpt lat="48.88491" lon="2.29659">
        <ele>77</ele>
        <time>2013-12-09T20:03:40.229Z</time>
      </trkpt>
      <trkpt lat="48.88489" lon="2.29659">
        <ele>77</ele>
        <time>2013-12-09T20:03:41.231Z</time>
      </trkpt>
      <trkpt lat="48.88483" lon="2.29654">
        <ele>75</ele>
        <time>2013-12-09T20:03:45.172Z</time>
      </trkpt>
      <trkpt lat="48.88481" lon="2.2965">
        <ele>76</ele>
        <time>2013-12-09T20:03:46.143Z</time>
      </trkpt>
      <trkpt lat="48.88477" lon="2.29641">
        <ele>74</ele>
        <time>2013-12-09T20:03:48.146Z</time>
      </trkpt>
      <trkpt lat="48.88474" lon="2.29636">
        <ele>73</ele>
        <time>2013-12-09T20:03:49.173Z</time>
      </trkpt>
      <trkpt lat="48.88471" lon="2.29631">
        <ele>73</ele>
        <time>2013-12-09T20:03:50.197Z</time>
      </trkpt>
      <trkpt lat="48.88468" lon="2.29625">
        <ele>73</ele>
        <time>2013-12-09T20:03:51.240Z</time>
      </trkpt>
      <trkpt lat="48.88464" lon="2.2962">
        <ele>73</ele>
        <time>2013-12-09T20:03:52.992Z</time>
      </trkpt>
      <trkpt lat="48.88461" lon="2.29615">
        <ele>72</ele>
        <time>2013-12-09T20:03:53.252Z</time>
      </trkpt>
      <trkpt lat="48.88457" lon="2.2961">
        <ele>74</ele>
        <time>2013-12-09T20:03:54.230Z</time>
      </trkpt>
      <trkpt lat="48.88454" lon="2.29605">
        <ele>74</ele>
        <time>2013-12-09T20:03:55.232Z</time>
      </trkpt>
      <trkpt lat="48.88448" lon="2.29597">
        <ele>75</ele>
        <time>2013-12-09T20:03:56.455Z</time>
      </trkpt>
      <trkpt lat="48.88444" lon="2.29591">
        <ele>74</ele>
        <time>2013-12-09T20:03:57.173Z</time>
      </trkpt>
      <trkpt lat="48.88439" lon="2.29583">
        <ele>75</ele>
        <time>2013-12-09T20:03:58.362Z</time>
      </trkpt>
      <trkpt lat="48.88437" lon="2.29576">
        <ele>76</ele>
        <time>2013-12-09T20:03:59.231Z</time>
      </trkpt>
      <trkpt lat="48.88434" lon="2.29568">
        <ele>76</ele>
        <time>2013-12-09T20:04:00.264Z</time>
      </trkpt>
      <trkpt lat="48.8843" lon="2.29562">
        <ele>78</ele>
        <time>2013-12-09T20:04:01.231Z</time>
      </trkpt>
      <trkpt lat="48.88427" lon="2.29555">
        <ele>78</ele>
        <time>2013-12-09T20:04:02.174Z</time>
      </trkpt>
      <trkpt lat="48.88424" lon="2.2955">
        <ele>76</ele>
        <time>2013-12-09T20:04:03.145Z</time>
      </trkpt>
      <trkpt lat="48.88422" lon="2.29544">
        <ele>77</ele>
        <time>2013-12-09T20:04:04.171Z</time>
      </trkpt>
      <trkpt lat="48.88419" lon="2.29538">
        <ele>77</ele>
        <time>2013-12-09T20:04:05.168Z</time>
      </trkpt>
      <trkpt lat="48.88416" lon="2.29532">
        <ele>77</ele>
        <time>2013-12-09T20:04:06.174Z</time>
      </trkpt>
      <trkpt lat="48.88413" lon="2.29525">
        <ele>75</ele>
        <time>2013-12-09T20:04:07.171Z</time>
      </trkpt>
      <trkpt lat="48.8841" lon="2.29517">
        <ele>75</ele>
        <time>2013-12-09T20:04:08.253Z</time>
      </trkpt>
      <trkpt lat="48.88407" lon="2.29509">
        <ele>75</ele>
        <time>2013-12-09T20:04:09.269Z</time>
      </trkpt>
      <trkpt lat="48.88404" lon="2.29503">
        <ele>75</ele>
        <time>2013-12-09T20:04:10.138Z</time>
      </trkpt>
      <trkpt lat="48.88399" lon="2.29494">
        <ele>76</ele>
        <time>2013-12-09T20:04:11.229Z</time>
      </trkpt>
      <trkpt lat="48.88395" lon="2.29487">
        <ele>76</ele>
        <time>2013-12-09T20:04:13.090Z</time>
      </trkpt>
      <trkpt lat="48.8839" lon="2.29479">
        <ele>77</ele>
        <time>2013-12-09T20:04:13.153Z</time>
      </trkpt>
      <trkpt lat="48.88385" lon="2.29471">
        <ele>76</ele>
        <time>2013-12-09T20:04:14.235Z</time>
      </trkpt>
      <trkpt lat="48.8838" lon="2.29463">
        <ele>76</ele>
        <time>2013-12-09T20:04:15.693Z</time>
      </trkpt>
      <trkpt lat="48.88377" lon="2.2946">
        <ele>76</ele>
        <time>2013-12-09T20:04:16.233Z</time>
      </trkpt>
      <trkpt lat="48.88372" lon="2.29454">
        <ele>75</ele>
        <time>2013-12-09T20:04:17.177Z</time>
      </trkpt>
      <trkpt lat="48.88366" lon="2.29446">
        <ele>76</ele>
        <time>2013-12-09T20:04:18.145Z</time>
      </trkpt>
      <trkpt lat="48.8836" lon="2.2944">
        <ele>78</ele>
        <time>2013-12-09T20:04:19.232Z</time>
      </trkpt>
      <trkpt lat="48.88356" lon="2.29433">
        <ele>78</ele>
        <time>2013-12-09T20:04:20.174Z</time>
      </trkpt>
      <trkpt lat="48.88351" lon="2.29426">
        <ele>79</ele>
        <time>2013-12-09T20:04:21.149Z</time>
      </trkpt>
      <trkpt lat="48.88346" lon="2.29418">
        <ele>79</ele>
        <time>2013-12-09T20:04:23.091Z</time>
      </trkpt>
      <trkpt lat="48.88342" lon="2.29409">
        <ele>80</ele>
        <time>2013-12-09T20:04:23.150Z</time>
      </trkpt>
      <trkpt lat="48.88337" lon="2.29399">
        <ele>79</ele>
        <time>2013-12-09T20:04:24.609Z</time>
      </trkpt>
      <trkpt lat="48.88335" lon="2.29394">
        <ele>78</ele>
        <time>2013-12-09T20:04:25.471Z</time>
      </trkpt>
      <trkpt lat="48.88332" lon="2.29389">
        <ele>79</ele>
        <time>2013-12-09T20:04:26.238Z</time>
      </trkpt>
      <trkpt lat="48.88328" lon="2.29384">
        <ele>81</ele>
        <time>2013-12-09T20:04:27.180Z</time>
      </trkpt>
      <trkpt lat="48.88324" lon="2.29378">
        <ele>80</ele>
        <time>2013-12-09T20:04:28.157Z</time>
      </trkpt>
      <trkpt lat="48.8832" lon="2.29371">
        <ele>80</ele>
        <time>2013-12-09T20:04:29.174Z</time>
      </trkpt>
      <trkpt lat="48.88316" lon="2.2936">
        <ele>82</ele>
        <time>2013-12-09T20:04:31.171Z</time>
      </trkpt>
      <trkpt lat="48.88314" lon="2.29356">
        <ele>81</ele>
        <time>2013-12-09T20:04:32.168Z</time>
      </trkpt>
      <trkpt lat="48.88314" lon="2.29344">
        <ele>79</ele>
        <time>2013-12-09T20:04:35.235Z</time>
      </trkpt>
      <trkpt lat="48.88318" lon="2.2934">
        <ele>78</ele>
        <time>2013-12-09T20:04:36.176Z</time>
      </trkpt>
      <trkpt lat="48.88321" lon="2.29336">
        <ele>76</ele>
        <time>2013-12-09T20:04:38.123Z</time>
      </trkpt>
      <trkpt lat="48.88325" lon="2.29332">
        <ele>75</ele>
        <time>2013-12-09T20:04:38.145Z</time>
      </trkpt>
      <trkpt lat="48.88329" lon="2.29328">
        <ele>75</ele>
        <time>2013-12-09T20:04:39.176Z</time>
      </trkpt>
      <trkpt lat="48.88333" lon="2.29326">
        <ele>73</ele>
        <time>2013-12-09T20:04:40.230Z</time>
      </trkpt>
      <trkpt lat="48.88341" lon="2.29321">
        <ele>72</ele>
        <time>2013-12-09T20:04:42.146Z</time>
      </trkpt>
      <trkpt lat="48.88344" lon="2.29317">
        <ele>70</ele>
        <time>2013-12-09T20:04:43.165Z</time>
      </trkpt>
      <trkpt lat="48.88351" lon="2.2931">
        <ele>69</ele>
        <time>2013-12-09T20:04:45.174Z</time>
      </trkpt>
      <trkpt lat="48.88353" lon="2.29307">
        <ele>67</ele>
        <time>2013-12-09T20:04:46.179Z</time>
      </trkpt>
      <trkpt lat="48.88357" lon="2.29297">
        <ele>64</ele>
        <time>2013-12-09T20:04:49.180Z</time>
      </trkpt>
      <trkpt lat="48.88357" lon="2.29293">
        <ele>63</ele>
        <time>2013-12-09T20:04:50.178Z</time>
      </trkpt>
      <trkpt lat="48.88353" lon="2.29284">
        <ele>63</ele>
        <time>2013-12-09T20:04:52.146Z</time>
      </trkpt>
      <trkpt lat="48.8835" lon="2.2928">
        <ele>64</ele>
        <time>2013-12-09T20:04:53.179Z</time>
      </trkpt>
      <trkpt lat="48.88345" lon="2.29272">
        <ele>65</ele>
        <time>2013-12-09T20:04:55.172Z</time>
      </trkpt>
      <trkpt lat="48.88343" lon="2.29267">
        <ele>64</ele>
        <time>2013-12-09T20:04:56.163Z</time>
      </trkpt>
      <trkpt lat="48.8834" lon="2.29261">
        <ele>66</ele>
        <time>2013-12-09T20:04:57.226Z</time>
      </trkpt>
      <trkpt lat="48.88336" lon="2.29255">
        <ele>66</ele>
        <time>2013-12-09T20:04:58.183Z</time>
      </trkpt>
      <trkpt lat="48.88333" lon="2.29248">
        <ele>65</ele>
        <time>2013-12-09T20:04:59.176Z</time>
      </trkpt>
      <trkpt lat="48.8833" lon="2.29241">
        <ele>66</ele>
        <time>2013-12-09T20:05:00.233Z</time>
      </trkpt>
      <trkpt lat="48.88327" lon="2.29235">
        <ele>68</ele>
        <time>2013-12-09T20:05:01.167Z</time>
      </trkpt>
      <trkpt lat="48.88324" lon="2.29229">
        <ele>69</ele>
        <time>2013-12-09T20:05:02.188Z</time>
      </trkpt>
      <trkpt lat="48.88321" lon="2.29223">
        <ele>70</ele>
        <time>2013-12-09T20:05:03.162Z</time>
      </trkpt>
      <trkpt lat="48.88318" lon="2.29218">
        <ele>72</ele>
        <time>2013-12-09T20:05:04.233Z</time>
      </trkpt>
      <trkpt lat="48.88315" lon="2.2921">
        <ele>72</ele>
        <time>2013-12-09T20:05:05.230Z</time>
      </trkpt>
      <trkpt lat="48.88311" lon="2.29207">
        <ele>73</ele>
        <time>2013-12-09T20:05:06.148Z</time>
      </trkpt>
      <trkpt lat="48.88303" lon="2.29201">
        <ele>74</ele>
        <time>2013-12-09T20:05:08.177Z</time>
      </trkpt>
      <trkpt lat="48.88298" lon="2.292">
        <ele>76</ele>
        <time>2013-12-09T20:05:09.247Z</time>
      </trkpt>
      <trkpt lat="48.88293" lon="2.29198">
        <ele>77</ele>
        <time>2013-12-09T20:05:10.237Z</time>
      </trkpt>
      <trkpt lat="48.88289" lon="2.29194">
        <ele>80</ele>
        <time>2013-12-09T20:05:11.148Z</time>
      </trkpt>
      <trkpt lat="48.88282" lon="2.29187">
        <ele>78</ele>
        <time>2013-12-09T20:05:13.146Z</time>
      </trkpt>
      <trkpt lat="48.8828" lon="2.29181">
        <ele>77</ele>
        <time>2013-12-09T20:05:14.233Z</time>
      </trkpt>
      <trkpt lat="48.88276" lon="2.29169">
        <ele>78</ele>
        <time>2013-12-09T20:05:16.177Z</time>
      </trkpt>
      <trkpt lat="48.88274" lon="2.29161">
        <ele>78</ele>
        <time>2013-12-09T20:05:17.153Z</time>
      </trkpt>
      <trkpt lat="48.88271" lon="2.29149">
        <ele>77</ele>
        <time>2013-12-09T20:05:19.229Z</time>
      </trkpt>
      <trkpt lat="48.88268" lon="2.29145">
        <ele>77</ele>
        <time>2013-12-09T20:05:20.239Z</time>
      </trkpt>
      <trkpt lat="48.88261" lon="2.2914">
        <ele>76</ele>
        <time>2013-12-09T20:05:22.221Z</time>
      </trkpt>
      <trkpt lat="48.88259" lon="2.29138">
        <ele>77</ele>
        <time>2013-12-09T20:05:23.180Z</time>
      </trkpt>
      <trkpt lat="48.88254" lon="2.2913">
        <ele>78</ele>
        <time>2013-12-09T20:05:25.229Z</time>
      </trkpt>
      <trkpt lat="48.88253" lon="2.29125">
        <ele>75</ele>
        <time>2013-12-09T20:05:26.169Z</time>
      </trkpt>
      <trkpt lat="48.88254" lon="2.29112">
        <ele>73</ele>
        <time>2013-12-09T20:05:28.147Z</time>
      </trkpt>
      <trkpt lat="48.88257" lon="2.29106">
        <ele>69</ele>
        <time>2013-12-09T20:05:29.234Z</time>
      </trkpt>
      <trkpt lat="48.8826" lon="2.29101">
        <ele>69</ele>
        <time>2013-12-09T20:05:30.239Z</time>
      </trkpt>
      <trkpt lat="48.88264" lon="2.29096">
        <ele>69</ele>
        <time>2013-12-09T20:05:31.176Z</time>
      </trkpt>
      <trkpt lat="48.88268" lon="2.29092">
        <ele>68</ele>
        <time>2013-12-09T20:05:32.239Z</time>
      </trkpt>
      <trkpt lat="48.88273" lon="2.29089">
        <ele>67</ele>
        <time>2013-12-09T20:05:33.175Z</time>
      </trkpt>
      <trkpt lat="48.88277" lon="2.29085">
        <ele>67</ele>
        <time>2013-12-09T20:05:34.239Z</time>
      </trkpt>
      <trkpt lat="48.88281" lon="2.29082">
        <ele>68</ele>
        <time>2013-12-09T20:05:35.236Z</time>
      </trkpt>
      <trkpt lat="48.88289" lon="2.29077">
        <ele>68</ele>
        <time>2013-12-09T20:05:37.230Z</time>
      </trkpt>
      <trkpt lat="48.88293" lon="2.29074">
        <ele>68</ele>
        <time>2013-12-09T20:05:38.149Z</time>
      </trkpt>
      <trkpt lat="48.88299" lon="2.29067">
        <ele>66</ele>
        <time>2013-12-09T20:05:40.247Z</time>
      </trkpt>
      <trkpt lat="48.88302" lon="2.29063">
        <ele>67</ele>
        <time>2013-12-09T20:05:41.167Z</time>
      </trkpt>
      <trkpt lat="48.88307" lon="2.29053">
        <ele>66</ele>
        <time>2013-12-09T20:05:43.151Z</time>
      </trkpt>
      <trkpt lat="48.8831" lon="2.29049">
        <ele>67</ele>
        <time>2013-12-09T20:05:44.240Z</time>
      </trkpt>
      <trkpt lat="48.88316" lon="2.29042">
        <ele>67</ele>
        <time>2013-12-09T20:05:46.177Z</time>
      </trkpt>
      <trkpt lat="48.88319" lon="2.29039">
        <ele>65</ele>
        <time>2013-12-09T20:05:47.177Z</time>
      </trkpt>
      <trkpt lat="48.88318" lon="2.29028">
        <ele>70</ele>
        <time>2013-12-09T20:05:52.171Z</time>
      </trkpt>
      <trkpt lat="48.88315" lon="2.29025">
        <ele>68</ele>
        <time>2013-12-09T20:05:53.151Z</time>
      </trkpt>
      <trkpt lat="48.88309" lon="2.29019">
        <ele>68</ele>
        <time>2013-12-09T20:05:55.167Z</time>
      </trkpt>
      <trkpt lat="48.88305" lon="2.29015">
        <ele>69</ele>
        <time>2013-12-09T20:05:56.141Z</time>
      </trkpt>
      <trkpt lat="48.88302" lon="2.2901">
        <ele>69</ele>
        <time>2013-12-09T20:05:57.250Z</time>
      </trkpt>
      <trkpt lat="48.88298" lon="2.29006">
        <ele>71</ele>
        <time>2013-12-09T20:05:58.580Z</time>
      </trkpt>
      <trkpt lat="48.88293" lon="2.28998">
        <ele>74</ele>
        <time>2013-12-09T20:06:01.174Z</time>
      </trkpt>
      <trkpt lat="48.88291" lon="2.28996">
        <ele>75</ele>
        <time>2013-12-09T20:06:02.172Z</time>
      </trkpt>
      <trkpt lat="48.88284" lon="2.28988">
        <ele>76</ele>
        <time>2013-12-09T20:06:06.174Z</time>
      </trkpt>
      <trkpt lat="48.88282" lon="2.28986">
        <ele>79</ele>
        <time>2013-12-09T20:06:07.167Z</time>
      </trkpt>
      <trkpt lat="48.88276" lon="2.28979">
        <ele>78</ele>
        <time>2013-12-09T20:06:09.229Z</time>
      </trkpt>
      <trkpt lat="48.88273" lon="2.28975">
        <ele>77</ele>
        <time>2013-12-09T20:06:10.241Z</time>
      </trkpt>
      <trkpt lat="48.88266" lon="2.28968">
        <ele>77</ele>
        <time>2013-12-09T20:06:12.228Z</time>
      </trkpt>
      <trkpt lat="48.88262" lon="2.28964">
        <ele>78</ele>
        <time>2013-12-09T20:06:13.230Z</time>
      </trkpt>
      <trkpt lat="48.88256" lon="2.28955">
        <ele>76</ele>
        <time>2013-12-09T20:06:16.129Z</time>
      </trkpt>
      <trkpt lat="48.88253" lon="2.2895">
        <ele>77</ele>
        <time>2013-12-09T20:06:16.161Z</time>
      </trkpt>
      <trkpt lat="48.88248" lon="2.28941">
        <ele>77</ele>
        <time>2013-12-09T20:06:18.238Z</time>
      </trkpt>
      <trkpt lat="48.88246" lon="2.28936">
        <ele>76</ele>
        <time>2013-12-09T20:06:19.230Z</time>
      </trkpt>
      <trkpt lat="48.88241" lon="2.28926">
        <ele>75</ele>
        <time>2013-12-09T20:06:21.130Z</time>
      </trkpt>
      <trkpt lat="48.88238" lon="2.28921">
        <ele>75</ele>
        <time>2013-12-09T20:06:22.161Z</time>
      </trkpt>
      <trkpt lat="48.88235" lon="2.28915">
        <ele>75</ele>
        <time>2013-12-09T20:06:23.154Z</time>
      </trkpt>
      <trkpt lat="48.88232" lon="2.2891">
        <ele>75</ele>
        <time>2013-12-09T20:06:24.276Z</time>
      </trkpt>
      <trkpt lat="48.88227" lon="2.28901">
        <ele>76</ele>
        <time>2013-12-09T20:06:26.155Z</time>
      </trkpt>
      <trkpt lat="48.88224" lon="2.28896">
        <ele>78</ele>
        <time>2013-12-09T20:06:27.157Z</time>
      </trkpt>
      <trkpt lat="48.8822" lon="2.28886">
        <ele>84</ele>
        <time>2013-12-09T20:06:29.171Z</time>
      </trkpt>
      <trkpt lat="48.88219" lon="2.28882">
        <ele>83</ele>
        <time>2013-12-09T20:06:30.146Z</time>
      </trkpt>
      <trkpt lat="48.88221" lon="2.28874">
        <ele>78</ele>
        <time>2013-12-09T20:06:32.169Z</time>
      </trkpt>
      <trkpt lat="48.88224" lon="2.28869">
        <ele>76</ele>
        <time>2013-12-09T20:06:33.231Z</time>
      </trkpt>
      <trkpt lat="48.8823" lon="2.28863">
        <ele>71</ele>
        <time>2013-12-09T20:06:35.350Z</time>
      </trkpt>
      <trkpt lat="48.88234" lon="2.2886">
        <ele>69</ele>
        <time>2013-12-09T20:06:36.206Z</time>
      </trkpt>
      <trkpt lat="48.8824" lon="2.28855">
        <ele>66</ele>
        <time>2013-12-09T20:06:38.227Z</time>
      </trkpt>
      <trkpt lat="48.88243" lon="2.28852">
        <ele>65</ele>
        <time>2013-12-09T20:06:39.231Z</time>
      </trkpt>
      <trkpt lat="48.88248" lon="2.28846">
        <ele>67</ele>
        <time>2013-12-09T20:06:41.172Z</time>
      </trkpt>
      <trkpt lat="48.8825" lon="2.28843">
        <ele>66</ele>
        <time>2013-12-09T20:06:42.256Z</time>
      </trkpt>
      <trkpt lat="48.88256" lon="2.28838">
        <ele>63</ele>
        <time>2013-12-09T20:06:44.231Z</time>
      </trkpt>
      <trkpt lat="48.88258" lon="2.28836">
        <ele>64</ele>
        <time>2013-12-09T20:06:45.165Z</time>
      </trkpt>
      <trkpt lat="48.88264" lon="2.2883">
        <ele>65</ele>
        <time>2013-12-09T20:06:47.173Z</time>
      </trkpt>
      <trkpt lat="48.88266" lon="2.28827">
        <ele>66</ele>
        <time>2013-12-09T20:06:48.232Z</time>
      </trkpt>
      <trkpt lat="48.88271" lon="2.28819">
        <ele>64</ele>
        <time>2013-12-09T20:06:50.178Z</time>
      </trkpt>
      <trkpt lat="48.88273" lon="2.28813">
        <ele>65</ele>
        <time>2013-12-09T20:06:51.194Z</time>
      </trkpt>
      <trkpt lat="48.88275" lon="2.28806">
        <ele>65</ele>
        <time>2013-12-09T20:06:52.184Z</time>
      </trkpt>
      <trkpt lat="48.88277" lon="2.28799">
        <ele>64</ele>
        <time>2013-12-09T20:06:53.174Z</time>
      </trkpt>
      <trkpt lat="48.8828" lon="2.28793">
        <ele>64</ele>
        <time>2013-12-09T20:06:54.177Z</time>
      </trkpt>
      <trkpt lat="48.88282" lon="2.28787">
        <ele>65</ele>
        <time>2013-12-09T20:06:55.223Z</time>
      </trkpt>
      <trkpt lat="48.88288" lon="2.28776">
        <ele>64</ele>
        <time>2013-12-09T20:06:57.177Z</time>
      </trkpt>
      <trkpt lat="48.8829" lon="2.28771">
        <ele>65</ele>
        <time>2013-12-09T20:06:58.171Z</time>
      </trkpt>
      <trkpt lat="48.88295" lon="2.28762">
        <ele>67</ele>
        <time>2013-12-09T20:07:00.143Z</time>
      </trkpt>
      <trkpt lat="48.88298" lon="2.28758">
        <ele>69</ele>
        <time>2013-12-09T20:07:01.169Z</time>
      </trkpt>
      <trkpt lat="48.88304" lon="2.2875">
        <ele>69</ele>
        <time>2013-12-09T20:07:03.148Z</time>
      </trkpt>
      <trkpt lat="48.88308" lon="2.28746">
        <ele>70</ele>
        <time>2013-12-09T20:07:04.173Z</time>
      </trkpt>
      <trkpt lat="48.88314" lon="2.2874">
        <ele>72</ele>
        <time>2013-12-09T20:07:06.248Z</time>
      </trkpt>
      <trkpt lat="48.88318" lon="2.28736">
        <ele>73</ele>
        <time>2013-12-09T20:07:07.182Z</time>
      </trkpt>
      <trkpt lat="48.88325" lon="2.28731">
        <ele>71</ele>
        <time>2013-12-09T20:07:09.158Z</time>
      </trkpt>
      <trkpt lat="48.88328" lon="2.28729">
        <ele>69</ele>
        <time>2013-12-09T20:07:10.177Z</time>
      </trkpt>
      <trkpt lat="48.88334" lon="2.28726">
        <ele>67</ele>
        <time>2013-12-09T20:07:13.139Z</time>
      </trkpt>
      <trkpt lat="48.88336" lon="2.28725">
        <ele>67</ele>
        <time>2013-12-09T20:07:14.230Z</time>
      </trkpt>
      <trkpt lat="48.88343" lon="2.28718">
        <ele>66</ele>
        <time>2013-12-09T20:07:17.137Z</time>
      </trkpt>
      <trkpt lat="48.88345" lon="2.28715">
        <ele>66</ele>
        <time>2013-12-09T20:07:18.230Z</time>
      </trkpt>
      <trkpt lat="48.88352" lon="2.28706">
        <ele>65</ele>
        <time>2013-12-09T20:07:21.173Z</time>
      </trkpt>
      <trkpt lat="48.88354" lon="2.28702">
        <ele>64</ele>
        <time>2013-12-09T20:07:22.172Z</time>
      </trkpt>
      <trkpt lat="48.88357" lon="2.28694">
        <ele>66</ele>
        <time>2013-12-09T20:07:24.172Z</time>
      </trkpt>
      <trkpt lat="48.88359" lon="2.2869">
        <ele>67</ele>
        <time>2013-12-09T20:07:25.143Z</time>
      </trkpt>
      <trkpt lat="48.88364" lon="2.2868">
        <ele>68</ele>
        <time>2013-12-09T20:07:28.230Z</time>
      </trkpt>
      <trkpt lat="48.88366" lon="2.28676">
        <ele>68</ele>
        <time>2013-12-09T20:07:29.235Z</time>
      </trkpt>
      <trkpt lat="48.88369" lon="2.28668">
        <ele>66</ele>
        <time>2013-12-09T20:07:31.230Z</time>
      </trkpt>
      <trkpt lat="48.88371" lon="2.28665">
        <ele>65</ele>
        <time>2013-12-09T20:07:32.451Z</time>
      </trkpt>
      <trkpt lat="48.88377" lon="2.28656">
        <ele>66</ele>
        <time>2013-12-09T20:07:35.381Z</time>
      </trkpt>
      <trkpt lat="48.88379" lon="2.28654">
        <ele>65</ele>
        <time>2013-12-09T20:07:36.358Z</time>
      </trkpt>
      <trkpt lat="48.88385" lon="2.28646">
        <ele>64</ele>
        <time>2013-12-09T20:07:39.235Z</time>
      </trkpt>
      <trkpt lat="48.88387" lon="2.28644">
        <ele>65</ele>
        <time>2013-12-09T20:07:40.141Z</time>
      </trkpt>
      <trkpt lat="48.88394" lon="2.28636">
        <ele>67</ele>
        <time>2013-12-09T20:07:45.718Z</time>
      </trkpt>
      <trkpt lat="48.88394" lon="2.28635">
        <ele>67</ele>
        <time>2013-12-09T20:07:46.138Z</time>
      </trkpt>
      <trkpt lat="48.88389" lon="2.28628">
        <ele>68</ele>
        <time>2013-12-09T20:07:57.242Z</time>
      </trkpt>
      <trkpt lat="48.88388" lon="2.28624">
        <ele>66</ele>
        <time>2013-12-09T20:07:58.262Z</time>
      </trkpt>
      <trkpt lat="48.88383" lon="2.28614">
        <ele>67</ele>
        <time>2013-12-09T20:08:01.239Z</time>
      </trkpt>
      <trkpt lat="48.88381" lon="2.28612">
        <ele>68</ele>
        <time>2013-12-09T20:08:02.236Z</time>
      </trkpt>
      <trkpt lat="48.88376" lon="2.28604">
        <ele>67</ele>
        <time>2013-12-09T20:08:05.818Z</time>
      </trkpt>
      <trkpt lat="48.88374" lon="2.28601">
        <ele>67</ele>
        <time>2013-12-09T20:08:06.152Z</time>
      </trkpt>
      <trkpt lat="48.88368" lon="2.28592">
        <ele>67</ele>
        <time>2013-12-09T20:08:09.181Z</time>
      </trkpt>
      <trkpt lat="48.88365" lon="2.28589">
        <ele>69</ele>
        <time>2013-12-09T20:08:10.150Z</time>
      </trkpt>
      <trkpt lat="48.88361" lon="2.28582">
        <ele>73</ele>
        <time>2013-12-09T20:08:12.180Z</time>
      </trkpt>
      <trkpt lat="48.88359" lon="2.28578">
        <ele>70</ele>
        <time>2013-12-09T20:08:13.181Z</time>
      </trkpt>
      <trkpt lat="48.88355" lon="2.28569">
        <ele>70</ele>
        <time>2013-12-09T20:08:15.834Z</time>
      </trkpt>
      <trkpt lat="48.88353" lon="2.28565">
        <ele>70</ele>
        <time>2013-12-09T20:08:16.145Z</time>
      </trkpt>
      <trkpt lat="48.88349" lon="2.28556">
        <ele>71</ele>
        <time>2013-12-09T20:08:18.171Z</time>
      </trkpt>
      <trkpt lat="48.88346" lon="2.28551">
        <ele>70</ele>
        <time>2013-12-09T20:08:19.175Z</time>
      </trkpt>
      <trkpt lat="48.88342" lon="2.28543">
        <ele>71</ele>
        <time>2013-12-09T20:08:21.165Z</time>
      </trkpt>
      <trkpt lat="48.88339" lon="2.28539">
        <ele>71</ele>
        <time>2013-12-09T20:08:22.175Z</time>
      </trkpt>
      <trkpt lat="48.88335" lon="2.28533">
        <ele>72</ele>
        <time>2013-12-09T20:08:24.230Z</time>
      </trkpt>
      <trkpt lat="48.88332" lon="2.2853">
        <ele>72</ele>
        <time>2013-12-09T20:08:25.140Z</time>
      </trkpt>
      <trkpt lat="48.88326" lon="2.28526">
        <ele>65</ele>
        <time>2013-12-09T20:08:27.237Z</time>
      </trkpt>
      <trkpt lat="48.88323" lon="2.28525">
        <ele>66</ele>
        <time>2013-12-09T20:08:28.237Z</time>
      </trkpt>
      <trkpt lat="48.88318" lon="2.28522">
        <ele>66</ele>
        <time>2013-12-09T20:08:30.878Z</time>
      </trkpt>
      <trkpt lat="48.88315" lon="2.28521">
        <ele>68</ele>
        <time>2013-12-09T20:08:31.238Z</time>
      </trkpt>
      <trkpt lat="48.88308" lon="2.28511">
        <ele>69</ele>
        <time>2013-12-09T20:08:35.884Z</time>
      </trkpt>
      <trkpt lat="48.88308" lon="2.28508">
        <ele>70</ele>
        <time>2013-12-09T20:08:36.230Z</time>
      </trkpt>
      <trkpt lat="48.88306" lon="2.28498">
        <ele>73</ele>
        <time>2013-12-09T20:08:39.230Z</time>
      </trkpt>
      <trkpt lat="48.88304" lon="2.28494">
        <ele>74</ele>
        <time>2013-12-09T20:08:40.147Z</time>
      </trkpt>
      <trkpt lat="48.88299" lon="2.28483">
        <ele>75</ele>
        <time>2013-12-09T20:08:42.230Z</time>
      </trkpt>
      <trkpt lat="48.88296" lon="2.28477">
        <ele>74</ele>
        <time>2013-12-09T20:08:43.232Z</time>
      </trkpt>
      <trkpt lat="48.88293" lon="2.28471">
        <ele>74</ele>
        <time>2013-12-09T20:08:44.231Z</time>
      </trkpt>
      <trkpt lat="48.8829" lon="2.28466">
        <ele>73</ele>
        <time>2013-12-09T20:08:45.142Z</time>
      </trkpt>
      <trkpt lat="48.88286" lon="2.2846">
        <ele>75</ele>
        <time>2013-12-09T20:08:46.230Z</time>
      </trkpt>
      <trkpt lat="48.88282" lon="2.28455">
        <ele>73</ele>
        <time>2013-12-09T20:08:47.240Z</time>
      </trkpt>
      <trkpt lat="48.88279" lon="2.28451">
        <ele>73</ele>
        <time>2013-12-09T20:08:48.237Z</time>
      </trkpt>
      <trkpt lat="48.88275" lon="2.28447">
        <ele>72</ele>
        <time>2013-12-09T20:08:49.237Z</time>
      </trkpt>
      <trkpt lat="48.88268" lon="2.28439">
        <ele>73</ele>
        <time>2013-12-09T20:08:52.246Z</time>
      </trkpt>
      <trkpt lat="48.88264" lon="2.28434">
        <ele>73</ele>
        <time>2013-12-09T20:08:52.742Z</time>
      </trkpt>
      <trkpt lat="48.88259" lon="2.28425">
        <ele>75</ele>
        <time>2013-12-09T20:08:55.230Z</time>
      </trkpt>
      <trkpt lat="48.88257" lon="2.28422">
        <ele>76</ele>
        <time>2013-12-09T20:08:56.161Z</time>
      </trkpt>
      <trkpt lat="48.8825" lon="2.28416">
        <ele>76</ele>
        <time>2013-12-09T20:09:00.245Z</time>
      </trkpt>
      <trkpt lat="48.88248" lon="2.28416">
        <ele>75</ele>
        <time>2013-12-09T20:09:01.155Z</time>
      </trkpt>
      <trkpt lat="48.8824" lon="2.28414">
        <ele>77</ele>
        <time>2013-12-09T20:09:06.156Z</time>
      </trkpt>
      <trkpt lat="48.88239" lon="2.28413">
        <ele>80</ele>
        <time>2013-12-09T20:09:07.146Z</time>
      </trkpt>
      <trkpt lat="48.88232" lon="2.28405">
        <ele>80</ele>
        <time>2013-12-09T20:09:10.230Z</time>
      </trkpt>
      <trkpt lat="48.88229" lon="2.28402">
        <ele>81</ele>
        <time>2013-12-09T20:09:11.167Z</time>
      </trkpt>
      <trkpt lat="48.88222" lon="2.28393">
        <ele>83</ele>
        <time>2013-12-09T20:09:13.173Z</time>
      </trkpt>
      <trkpt lat="48.88219" lon="2.28389">
        <ele>83</ele>
        <time>2013-12-09T20:09:14.174Z</time>
      </trkpt>
      <trkpt lat="48.88212" lon="2.2838">
        <ele>81</ele>
        <time>2013-12-09T20:09:16.195Z</time>
      </trkpt>
      <trkpt lat="48.88209" lon="2.28376">
        <ele>77</ele>
        <time>2013-12-09T20:09:17.172Z</time>
      </trkpt>
      <trkpt lat="48.88203" lon="2.28371">
        <ele>80</ele>
        <time>2013-12-09T20:09:19.178Z</time>
      </trkpt>
      <trkpt lat="48.882" lon="2.28368">
        <ele>80</ele>
        <time>2013-12-09T20:09:20.178Z</time>
      </trkpt>
      <trkpt lat="48.88192" lon="2.28366">
        <ele>74</ele>
        <time>2013-12-09T20:09:25.237Z</time>
      </trkpt>
      <trkpt lat="48.8819" lon="2.28367">
        <ele>73</ele>
        <time>2013-12-09T20:09:26.165Z</time>
      </trkpt>
      <trkpt lat="48.88183" lon="2.28368">
        <ele>71</ele>
        <time>2013-12-09T20:09:29.700Z</time>
      </trkpt>
      <trkpt lat="48.88181" lon="2.28368">
        <ele>69</ele>
        <time>2013-12-09T20:09:30.137Z</time>
      </trkpt>
      <trkpt lat="48.88172" lon="2.28368">
        <ele>67</ele>
        <time>2013-12-09T20:09:33.240Z</time>
      </trkpt>
      <trkpt lat="48.88168" lon="2.28369">
        <ele>68</ele>
        <time>2013-12-09T20:09:34.941Z</time>
      </trkpt>
      <trkpt lat="48.88162" lon="2.28374">
        <ele>66</ele>
        <time>2013-12-09T20:09:37.458Z</time>
      </trkpt>
      <trkpt lat="48.8816" lon="2.28377">
        <ele>67</ele>
        <time>2013-12-09T20:09:38.233Z</time>
      </trkpt>
      <trkpt lat="48.88156" lon="2.28386">
        <ele>68</ele>
        <time>2013-12-09T20:09:40.439Z</time>
      </trkpt>
      <trkpt lat="48.88154" lon="2.28391">
        <ele>69</ele>
        <time>2013-12-09T20:09:41.377Z</time>
      </trkpt>
      <trkpt lat="48.88151" lon="2.28401">
        <ele>72</ele>
        <time>2013-12-09T20:09:43.361Z</time>
      </trkpt>
      <trkpt lat="48.88149" lon="2.28406">
        <ele>73</ele>
        <time>2013-12-09T20:09:44.233Z</time>
      </trkpt>
      <trkpt lat="48.88147" lon="2.28417">
        <ele>75</ele>
        <time>2013-12-09T20:09:46.234Z</time>
      </trkpt>
      <trkpt lat="48.88146" lon="2.28422">
        <ele>77</ele>
        <time>2013-12-09T20:09:47.172Z</time>
      </trkpt>
      <trkpt lat="48.88143" lon="2.28434">
        <ele>78</ele>
        <time>2013-12-09T20:09:50.239Z</time>
      </trkpt>
      <trkpt lat="48.88143" lon="2.28436">
        <ele>80</ele>
        <time>2013-12-09T20:09:51.153Z</time>
      </trkpt>
      <trkpt lat="48.88137" lon="2.28442">
        <ele>86</ele>
        <time>2013-12-09T20:09:54.230Z</time>
      </trkpt>
      <trkpt lat="48.88135" lon="2.28443">
        <ele>87</ele>
        <time>2013-12-09T20:09:55.230Z</time>
      </trkpt>
      <trkpt lat="48.88126" lon="2.28447">
        <ele>89</ele>
        <time>2013-12-09T20:09:58.240Z</time>
      </trkpt>
      <trkpt lat="48.88123" lon="2.28449">
        <ele>89</ele>
        <time>2013-12-09T20:09:59.248Z</time>
      </trkpt>
      <trkpt lat="48.88115" lon="2.2845">
        <ele>89</ele>
        <time>2013-12-09T20:10:02.543Z</time>
      </trkpt>
      <trkpt lat="48.88113" lon="2.2845">
        <ele>88</ele>
        <time>2013-12-09T20:10:03.235Z</time>
      </trkpt>
      <trkpt lat="48.88104" lon="2.28451">
        <ele>88</ele>
        <time>2013-12-09T20:10:07.578Z</time>
      </trkpt>
      <trkpt lat="48.88102" lon="2.28452">
        <ele>89</ele>
        <time>2013-12-09T20:10:08.178Z</time>
      </trkpt>
      <trkpt lat="48.88094" lon="2.28455">
        <ele>89</ele>
        <time>2013-12-09T20:10:12.593Z</time>
      </trkpt>
      <trkpt lat="48.88093" lon="2.28456">
        <ele>88</ele>
        <time>2013-12-09T20:10:13.245Z</time>
      </trkpt>
      <trkpt lat="48.88086" lon="2.28462">
        <ele>87</ele>
        <time>2013-12-09T20:10:24.296Z</time>
      </trkpt>
      <trkpt lat="48.88084" lon="2.28462">
        <ele>87</ele>
        <time>2013-12-09T20:10:25.238Z</time>
      </trkpt>
      <trkpt lat="48.88077" lon="2.28469">
        <ele>83</ele>
        <time>2013-12-09T20:10:28.180Z</time>
      </trkpt>
      <trkpt lat="48.88075" lon="2.28472">
        <ele>83</ele>
        <time>2013-12-09T20:10:29.181Z</time>
      </trkpt>
      <trkpt lat="48.88069" lon="2.28479">
        <ele>76</ele>
        <time>2013-12-09T20:10:31.229Z</time>
      </trkpt>
      <trkpt lat="48.88067" lon="2.28482">
        <ele>73</ele>
        <time>2013-12-09T20:10:32.230Z</time>
      </trkpt>
      <trkpt lat="48.88065" lon="2.28493">
        <ele>71</ele>
        <time>2013-12-09T20:10:34.297Z</time>
      </trkpt>
      <trkpt lat="48.88064" lon="2.28499">
        <ele>70</ele>
        <time>2013-12-09T20:10:35.139Z</time>
      </trkpt>
      <trkpt lat="48.88062" lon="2.28509">
        <ele>70</ele>
        <time>2013-12-09T20:10:37.303Z</time>
      </trkpt>
      <trkpt lat="48.8806" lon="2.28512">
        <ele>71</ele>
        <time>2013-12-09T20:10:38.343Z</time>
      </trkpt>
      <trkpt lat="48.88053" lon="2.28514">
        <ele>69</ele>
        <time>2013-12-09T20:10:40.228Z</time>
      </trkpt>
      <trkpt lat="48.88049" lon="2.28514">
        <ele>68</ele>
        <time>2013-12-09T20:10:41.232Z</time>
      </trkpt>
      <trkpt lat="48.88041" lon="2.28513">
        <ele>71</ele>
        <time>2013-12-09T20:10:44.364Z</time>
      </trkpt>
      <trkpt lat="48.88037" lon="2.28511">
        <ele>66</ele>
        <time>2013-12-09T20:10:44.637Z</time>
      </trkpt>
      <trkpt lat="48.8803" lon="2.28509">
        <ele>68</ele>
        <time>2013-12-09T20:10:46.232Z</time>
      </trkpt>
      <trkpt lat="48.88026" lon="2.28507">
        <ele>69</ele>
        <time>2013-12-09T20:10:47.230Z</time>
      </trkpt>
      <trkpt lat="48.88019" lon="2.28504">
        <ele>70</ele>
        <time>2013-12-09T20:10:49.379Z</time>
      </trkpt>
      <trkpt lat="48.88016" lon="2.28502">
        <ele>71</ele>
        <time>2013-12-09T20:10:50.234Z</time>
      </trkpt>
      <trkpt lat="48.88008" lon="2.28497">
        <ele>75</ele>
        <time>2013-12-09T20:10:53.154Z</time>
      </trkpt>
      <trkpt lat="48.88006" lon="2.28496">
        <ele>76</ele>
        <time>2013-12-09T20:10:54.154Z</time>
      </trkpt>
      <trkpt lat="48.88" lon="2.28495">
        <ele>74</ele>
        <time>2013-12-09T20:10:56.231Z</time>
      </trkpt>
      <trkpt lat="48.87996" lon="2.28494">
        <ele>74</ele>
        <time>2013-12-09T20:10:57.232Z</time>
      </trkpt>
      <trkpt lat="48.8799" lon="2.28491">
        <ele>76</ele>
        <time>2013-12-09T20:10:59.500Z</time>
      </trkpt>
      <trkpt lat="48.87986" lon="2.28489">
        <ele>77</ele>
        <time>2013-12-09T20:11:00.239Z</time>
      </trkpt>
      <trkpt lat="48.87981" lon="2.28485">
        <ele>80</ele>
        <time>2013-12-09T20:11:01.238Z</time>
      </trkpt>
      <trkpt lat="48.87976" lon="2.28481">
        <ele>82</ele>
        <time>2013-12-09T20:11:02.255Z</time>
      </trkpt>
      <trkpt lat="48.87971" lon="2.28479">
        <ele>84</ele>
        <time>2013-12-09T20:11:03.230Z</time>
      </trkpt>
      <trkpt lat="48.87966" lon="2.28476">
        <ele>87</ele>
        <time>2013-12-09T20:11:04.178Z</time>
      </trkpt>
      <trkpt lat="48.87962" lon="2.28474">
        <ele>89</ele>
        <time>2013-12-09T20:11:05.239Z</time>
      </trkpt>
      <trkpt lat="48.87956" lon="2.28473">
        <ele>93</ele>
        <time>2013-12-09T20:11:06.231Z</time>
      </trkpt>
      <trkpt lat="48.87951" lon="2.28473">
        <ele>93</ele>
        <time>2013-12-09T20:11:07.230Z</time>
      </trkpt>
      <trkpt lat="48.87946" lon="2.28472">
        <ele>96</ele>
        <time>2013-12-09T20:11:08.230Z</time>
      </trkpt>
      <trkpt lat="48.87942" lon="2.2847">
        <ele>96</ele>
        <time>2013-12-09T20:11:09.147Z</time>
      </trkpt>
      <trkpt lat="48.87937" lon="2.28468">
        <ele>99</ele>
        <time>2013-12-09T20:11:10.171Z</time>
      </trkpt>
      <trkpt lat="48.87932" lon="2.28465">
        <ele>101</ele>
        <time>2013-12-09T20:11:11.916Z</time>
      </trkpt>
      <trkpt lat="48.87927" lon="2.28463">
        <ele>102</ele>
        <time>2013-12-09T20:11:12.140Z</time>
      </trkpt>
      <trkpt lat="48.87923" lon="2.2846">
        <ele>102</ele>
        <time>2013-12-09T20:11:13.169Z</time>
      </trkpt>
      <trkpt lat="48.87918" lon="2.28458">
        <ele>103</ele>
        <time>2013-12-09T20:11:14.145Z</time>
      </trkpt>
      <trkpt lat="48.87914" lon="2.28455">
        <ele>102</ele>
        <time>2013-12-09T20:11:15.240Z</time>
      </trkpt>
      <trkpt lat="48.87908" lon="2.28453">
        <ele>102</ele>
        <time>2013-12-09T20:11:16.841Z</time>
      </trkpt>
      <trkpt lat="48.87901" lon="2.28452">
        <ele>104</ele>
        <time>2013-12-09T20:11:18.459Z</time>
      </trkpt>
      <trkpt lat="48.87897" lon="2.28451">
        <ele>103</ele>
        <time>2013-12-09T20:11:19.486Z</time>
      </trkpt>
      <trkpt lat="48.87888" lon="2.28448">
        <ele>101</ele>
        <time>2013-12-09T20:11:21.463Z</time>
      </trkpt>
      <trkpt lat="48.87883" lon="2.28447">
        <ele>101</ele>
        <time>2013-12-09T20:11:22.457Z</time>
      </trkpt>
      <trkpt lat="48.87878" lon="2.28446">
        <ele>103</ele>
        <time>2013-12-09T20:11:23.431Z</time>
      </trkpt>
      <trkpt lat="48.87874" lon="2.28445">
        <ele>100</ele>
        <time>2013-12-09T20:11:24.425Z</time>
      </trkpt>
      <trkpt lat="48.87865" lon="2.28442">
        <ele>101</ele>
        <time>2013-12-09T20:11:26.243Z</time>
      </trkpt>
      <trkpt lat="48.87861" lon="2.2844">
        <ele>101</ele>
        <time>2013-12-09T20:11:27.229Z</time>
      </trkpt>
      <trkpt lat="48.87853" lon="2.28435">
        <ele>104</ele>
        <time>2013-12-09T20:11:29.179Z</time>
      </trkpt>
      <trkpt lat="48.87849" lon="2.28433">
        <ele>103</ele>
        <time>2013-12-09T20:11:30.171Z</time>
      </trkpt>
      <trkpt lat="48.87842" lon="2.28429">
        <ele>105</ele>
        <time>2013-12-09T20:11:32.167Z</time>
      </trkpt>
      <trkpt lat="48.87838" lon="2.28428">
        <ele>106</ele>
        <time>2013-12-09T20:11:33.186Z</time>
      </trkpt>
      <trkpt lat="48.87831" lon="2.28426">
        <ele>103</ele>
        <time>2013-12-09T20:11:35.144Z</time>
      </trkpt>
      <trkpt lat="48.87828" lon="2.28425">
        <ele>102</ele>
        <time>2013-12-09T20:11:36.141Z</time>
      </trkpt>
      <trkpt lat="48.8782" lon="2.28422">
        <ele>98</ele>
        <time>2013-12-09T20:11:41.481Z</time>
      </trkpt>
      <trkpt lat="48.87819" lon="2.28422">
        <ele>97</ele>
        <time>2013-12-09T20:11:42.141Z</time>
      </trkpt>
      <trkpt lat="48.8781" lon="2.28424">
        <ele>94</ele>
        <time>2013-12-09T20:11:46.487Z</time>
      </trkpt>
      <trkpt lat="48.87808" lon="2.28426">
        <ele>96</ele>
        <time>2013-12-09T20:11:47.176Z</time>
      </trkpt>
      <trkpt lat="48.878" lon="2.28433">
        <ele>97</ele>
        <time>2013-12-09T20:11:50.169Z</time>
      </trkpt>
      <trkpt lat="48.87798" lon="2.28434">
        <ele>97</ele>
        <time>2013-12-09T20:11:51.173Z</time>
      </trkpt>
      <trkpt lat="48.87791" lon="2.2843">
        <ele>95</ele>
        <time>2013-12-09T20:11:55.277Z</time>
      </trkpt>
      <trkpt lat="48.87789" lon="2.28428">
        <ele>95</ele>
        <time>2013-12-09T20:11:56.303Z</time>
      </trkpt>
      <trkpt lat="48.87785" lon="2.28418">
        <ele>94</ele>
        <time>2013-12-09T20:11:59.822Z</time>
      </trkpt>
      <trkpt lat="48.87783" lon="2.28416">
        <ele>92</ele>
        <time>2013-12-09T20:12:00.822Z</time>
      </trkpt>
      <trkpt lat="48.87776" lon="2.28408">
        <ele>86</ele>
        <time>2013-12-09T20:12:06.832Z</time>
      </trkpt>
      <trkpt lat="48.87775" lon="2.28408">
        <ele>86</ele>
        <time>2013-12-09T20:12:07.455Z</time>
      </trkpt>
      <trkpt lat="48.87767" lon="2.28411">
        <ele>77</ele>
        <time>2013-12-09T20:12:12.145Z</time>
      </trkpt>
      <trkpt lat="48.87765" lon="2.28412">
        <ele>76</ele>
        <time>2013-12-09T20:12:13.174Z</time>
      </trkpt>
      <trkpt lat="48.87759" lon="2.28415">
        <ele>75</ele>
        <time>2013-12-09T20:12:16.621Z</time>
      </trkpt>
      <trkpt lat="48.87756" lon="2.28416">
        <ele>75</ele>
        <time>2013-12-09T20:12:17.147Z</time>
      </trkpt>
      <trkpt lat="48.87749" lon="2.28419">
        <ele>77</ele>
        <time>2013-12-09T20:12:20.181Z</time>
      </trkpt>
      <trkpt lat="48.87747" lon="2.2842">
        <ele>78</ele>
        <time>2013-12-09T20:12:21.176Z</time>
      </trkpt>
      <trkpt lat="48.8774" lon="2.28425">
        <ele>74</ele>
        <time>2013-12-09T20:12:25.184Z</time>
      </trkpt>
      <trkpt lat="48.87739" lon="2.28426">
        <ele>72</ele>
        <time>2013-12-09T20:12:26.148Z</time>
      </trkpt>
      <trkpt lat="48.87738" lon="2.28429">
        <ele>73</ele>
        <time>2013-12-09T20:12:32.187Z</time>
      </trkpt>
      <trkpt lat="48.87738" lon="2.28429">
        <ele>73</ele>
        <time>2013-12-09T20:12:33.188Z</time>
      </trkpt>
      <trkpt lat="48.87738" lon="2.28429">
        <ele>72</ele>
        <time>2013-12-09T20:12:36.665Z</time>
      </trkpt>
      <trkpt lat="48.87737" lon="2.28429">
        <ele>72</ele>
        <time>2013-12-09T20:12:37.240Z</time>
      </trkpt>
      <trkpt lat="48.87735" lon="2.28428">
        <ele>72</ele>
        <time>2013-12-09T20:12:44.235Z</time>
      </trkpt>
      <trkpt lat="48.87735" lon="2.28428">
        <ele>72</ele>
        <time>2013-12-09T20:12:45.233Z</time>
      </trkpt>
      <trkpt lat="48.87735" lon="2.28428">
        <ele>72</ele>
        <time>2013-12-09T20:12:52.236Z</time>
      </trkpt>
      <trkpt lat="48.87734" lon="2.28427">
        <ele>72</ele>
        <time>2013-12-09T20:12:53.237Z</time>
      </trkpt>
      <trkpt lat="48.87726" lon="2.28426">
        <ele>70</ele>
        <time>2013-12-09T20:12:57.256Z</time>
      </trkpt>
      <trkpt lat="48.87724" lon="2.28425">
        <ele>69</ele>
        <time>2013-12-09T20:12:58.148Z</time>
      </trkpt>
      <trkpt lat="48.87715" lon="2.28423">
        <ele>70</ele>
        <time>2013-12-09T20:13:01.232Z</time>
      </trkpt>
      <trkpt lat="48.87712" lon="2.28422">
        <ele>71</ele>
        <time>2013-12-09T20:13:02.234Z</time>
      </trkpt>
      <trkpt lat="48.87705" lon="2.28418">
        <ele>70</ele>
        <time>2013-12-09T20:13:05.151Z</time>
      </trkpt>
      <trkpt lat="48.87704" lon="2.28415">
        <ele>71</ele>
        <time>2013-12-09T20:13:06.205Z</time>
      </trkpt>
      <trkpt lat="48.87701" lon="2.28407">
        <ele>69</ele>
        <time>2013-12-09T20:13:08.995Z</time>
      </trkpt>
      <trkpt lat="48.877" lon="2.28402">
        <ele>70</ele>
        <time>2013-12-09T20:13:09.222Z</time>
      </trkpt>
      <trkpt lat="48.877" lon="2.28391">
        <ele>70</ele>
        <time>2013-12-09T20:13:11.435Z</time>
      </trkpt>
      <trkpt lat="48.87701" lon="2.28387">
        <ele>71</ele>
        <time>2013-12-09T20:13:12.240Z</time>
      </trkpt>
      <trkpt lat="48.87702" lon="2.28376">
        <ele>72</ele>
        <time>2013-12-09T20:13:15.154Z</time>
      </trkpt>
      <trkpt lat="48.87702" lon="2.28372">
        <ele>74</ele>
        <time>2013-12-09T20:13:16.230Z</time>
      </trkpt>
      <trkpt lat="48.87696" lon="2.28363">
        <ele>75</ele>
        <time>2013-12-09T20:13:19.256Z</time>
      </trkpt>
      <trkpt lat="48.87694" lon="2.2836">
        <ele>75</ele>
        <time>2013-12-09T20:13:20.178Z</time>
      </trkpt>
      <trkpt lat="48.87687" lon="2.28352">
        <ele>71</ele>
        <time>2013-12-09T20:13:24.040Z</time>
      </trkpt>
      <trkpt lat="48.87684" lon="2.2835">
        <ele>71</ele>
        <time>2013-12-09T20:13:24.145Z</time>
      </trkpt>
      <trkpt lat="48.87676" lon="2.28348">
        <ele>66</ele>
        <time>2013-12-09T20:13:29.066Z</time>
      </trkpt>
      <trkpt lat="48.87675" lon="2.2835">
        <ele>65</ele>
        <time>2013-12-09T20:13:29.134Z</time>
      </trkpt>
      <trkpt lat="48.87669" lon="2.28359">
        <ele>59</ele>
        <time>2013-12-09T20:13:34.146Z</time>
      </trkpt>
      <trkpt lat="48.87668" lon="2.2836">
        <ele>58</ele>
        <time>2013-12-09T20:13:35.131Z</time>
      </trkpt>
      <trkpt lat="48.87661" lon="2.28363">
        <ele>59</ele>
        <time>2013-12-09T20:13:39.044Z</time>
      </trkpt>
      <trkpt lat="48.87659" lon="2.28364">
        <ele>59</ele>
        <time>2013-12-09T20:13:39.125Z</time>
      </trkpt>
      <trkpt lat="48.87653" lon="2.28366">
        <ele>59</ele>
        <time>2013-12-09T20:13:41.154Z</time>
      </trkpt>
      <trkpt lat="48.87649" lon="2.28367">
        <ele>58</ele>
        <time>2013-12-09T20:13:42.126Z</time>
      </trkpt>
      <trkpt lat="48.87641" lon="2.28371">
        <ele>58</ele>
        <time>2013-12-09T20:13:44.129Z</time>
      </trkpt>
      <trkpt lat="48.87636" lon="2.28374">
        <ele>60</ele>
        <time>2013-12-09T20:13:45.155Z</time>
      </trkpt>
      <trkpt lat="48.87631" lon="2.28377">
        <ele>61</ele>
        <time>2013-12-09T20:13:46.126Z</time>
      </trkpt>
      <trkpt lat="48.87626" lon="2.2838">
        <ele>58</ele>
        <time>2013-12-09T20:13:47.128Z</time>
      </trkpt>
      <trkpt lat="48.8762" lon="2.28383">
        <ele>58</ele>
        <time>2013-12-09T20:13:49.079Z</time>
      </trkpt>
      <trkpt lat="48.87615" lon="2.28385">
        <ele>57</ele>
        <time>2013-12-09T20:13:49.125Z</time>
      </trkpt>
      <trkpt lat="48.8761" lon="2.28386">
        <ele>54</ele>
        <time>2013-12-09T20:13:50.155Z</time>
      </trkpt>
      <trkpt lat="48.87605" lon="2.28386">
        <ele>53</ele>
        <time>2013-12-09T20:13:51.154Z</time>
      </trkpt>
      <trkpt lat="48.876" lon="2.28386">
        <ele>53</ele>
        <time>2013-12-09T20:13:52.156Z</time>
      </trkpt>
      <trkpt lat="48.87595" lon="2.28384">
        <ele>51</ele>
        <time>2013-12-09T20:13:53.154Z</time>
      </trkpt>
      <trkpt lat="48.8759" lon="2.28382">
        <ele>49</ele>
        <time>2013-12-09T20:13:54.171Z</time>
      </trkpt>
      <trkpt lat="48.87585" lon="2.2838">
        <ele>46</ele>
        <time>2013-12-09T20:13:55.159Z</time>
      </trkpt>
      <trkpt lat="48.8758" lon="2.28377">
        <ele>46</ele>
        <time>2013-12-09T20:13:56.149Z</time>
      </trkpt>
      <trkpt lat="48.87575" lon="2.28374">
        <ele>45</ele>
        <time>2013-12-09T20:13:57.161Z</time>
      </trkpt>
      <trkpt lat="48.8757" lon="2.28371">
        <ele>45</ele>
        <time>2013-12-09T20:13:58.264Z</time>
      </trkpt>
      <trkpt lat="48.87565" lon="2.28369">
        <ele>47</ele>
        <time>2013-12-09T20:13:59.151Z</time>
      </trkpt>
      <trkpt lat="48.87559" lon="2.28368">
        <ele>49</ele>
        <time>2013-12-09T20:14:00.248Z</time>
      </trkpt>
      <trkpt lat="48.87554" lon="2.28367">
        <ele>49</ele>
        <time>2013-12-09T20:14:01.241Z</time>
      </trkpt>
      <trkpt lat="48.87549" lon="2.28367">
        <ele>48</ele>
        <time>2013-12-09T20:14:02.238Z</time>
      </trkpt>
      <trkpt lat="48.87544" lon="2.28368">
        <ele>45</ele>
        <time>2013-12-09T20:14:03.175Z</time>
      </trkpt>
      <trkpt lat="48.87539" lon="2.28369">
        <ele>46</ele>
        <time>2013-12-09T20:14:04.179Z</time>
      </trkpt>
      <trkpt lat="48.87535" lon="2.2837">
        <ele>48</ele>
        <time>2013-12-09T20:14:05.172Z</time>
      </trkpt>
      <trkpt lat="48.87526" lon="2.28371">
        <ele>55</ele>
        <time>2013-12-09T20:14:07.173Z</time>
      </trkpt>
      <trkpt lat="48.87522" lon="2.28371">
        <ele>58</ele>
        <time>2013-12-09T20:14:08.171Z</time>
      </trkpt>
      <trkpt lat="48.87514" lon="2.28366">
        <ele>66</ele>
        <time>2013-12-09T20:14:10.378Z</time>
      </trkpt>
      <trkpt lat="48.8751" lon="2.28362">
        <ele>65</ele>
        <time>2013-12-09T20:14:11.170Z</time>
      </trkpt>
      <trkpt lat="48.87506" lon="2.28357">
        <ele>65</ele>
        <time>2013-12-09T20:14:12.230Z</time>
      </trkpt>
      <trkpt lat="48.87502" lon="2.28352">
        <ele>68</ele>
        <time>2013-12-09T20:14:13.230Z</time>
      </trkpt>
      <trkpt lat="48.87498" lon="2.28346">
        <ele>72</ele>
        <time>2013-12-09T20:14:15.487Z</time>
      </trkpt>
      <trkpt lat="48.87495" lon="2.28341">
        <ele>72</ele>
        <time>2013-12-09T20:14:15.732Z</time>
      </trkpt>
      <trkpt lat="48.87489" lon="2.28333">
        <ele>72</ele>
        <time>2013-12-09T20:14:17.230Z</time>
      </trkpt>
      <trkpt lat="48.87485" lon="2.28327">
        <ele>75</ele>
        <time>2013-12-09T20:14:18.234Z</time>
      </trkpt>
      <trkpt lat="48.87479" lon="2.28321">
        <ele>76</ele>
        <time>2013-12-09T20:14:19.238Z</time>
      </trkpt>
      <trkpt lat="48.87474" lon="2.28315">
        <ele>76</ele>
        <time>2013-12-09T20:14:20.142Z</time>
      </trkpt>
      <trkpt lat="48.87469" lon="2.28309">
        <ele>76</ele>
        <time>2013-12-09T20:14:21.167Z</time>
      </trkpt>
      <trkpt lat="48.87464" lon="2.28304">
        <ele>76</ele>
        <time>2013-12-09T20:14:22.204Z</time>
      </trkpt>
      <trkpt lat="48.87459" lon="2.28299">
        <ele>75</ele>
        <time>2013-12-09T20:14:23.166Z</time>
      </trkpt>
      <trkpt lat="48.87455" lon="2.28294">
        <ele>75</ele>
        <time>2013-12-09T20:14:24.166Z</time>
      </trkpt>
      <trkpt lat="48.8745" lon="2.28291">
        <ele>74</ele>
        <time>2013-12-09T20:14:25.559Z</time>
      </trkpt>
      <trkpt lat="48.87444" lon="2.28289">
        <ele>76</ele>
        <time>2013-12-09T20:14:26.266Z</time>
      </trkpt>
      <trkpt lat="48.87438" lon="2.28285">
        <ele>76</ele>
        <time>2013-12-09T20:14:28.229Z</time>
      </trkpt>
      <trkpt lat="48.87435" lon="2.28282">
        <ele>77</ele>
        <time>2013-12-09T20:14:29.238Z</time>
      </trkpt>
      <trkpt lat="48.8743" lon="2.28273">
        <ele>78</ele>
        <time>2013-12-09T20:14:31.238Z</time>
      </trkpt>
      <trkpt lat="48.87428" lon="2.28268">
        <ele>78</ele>
        <time>2013-12-09T20:14:32.248Z</time>
      </trkpt>
      <trkpt lat="48.87426" lon="2.28263">
        <ele>81</ele>
        <time>2013-12-09T20:14:33.239Z</time>
      </trkpt>
      <trkpt lat="48.87423" lon="2.28257">
        <ele>79</ele>
        <time>2013-12-09T20:14:34.599Z</time>
      </trkpt>
      <trkpt lat="48.87416" lon="2.28251">
        <ele>80</ele>
        <time>2013-12-09T20:14:37.345Z</time>
      </trkpt>
      <trkpt lat="48.87413" lon="2.28248">
        <ele>80</ele>
        <time>2013-12-09T20:14:37.592Z</time>
      </trkpt>
      <trkpt lat="48.87408" lon="2.2824">
        <ele>81</ele>
        <time>2013-12-09T20:14:39.569Z</time>
      </trkpt>
      <trkpt lat="48.87406" lon="2.28236">
        <ele>82</ele>
        <time>2013-12-09T20:14:40.604Z</time>
      </trkpt>
      <trkpt lat="48.87405" lon="2.28224">
        <ele>84</ele>
        <time>2013-12-09T20:14:42.394Z</time>
      </trkpt>
      <trkpt lat="48.87406" lon="2.28218">
        <ele>84</ele>
        <time>2013-12-09T20:14:43.237Z</time>
      </trkpt>
      <trkpt lat="48.87405" lon="2.28205">
        <ele>85</ele>
        <time>2013-12-09T20:14:45.617Z</time>
      </trkpt>
      <trkpt lat="48.87403" lon="2.282">
        <ele>86</ele>
        <time>2013-12-09T20:14:46.238Z</time>
      </trkpt>
      <trkpt lat="48.87398" lon="2.28194">
        <ele>85</ele>
        <time>2013-12-09T20:14:48.230Z</time>
      </trkpt>
      <trkpt lat="48.87394" lon="2.28191">
        <ele>83</ele>
        <time>2013-12-09T20:14:49.233Z</time>
      </trkpt>
      <trkpt lat="48.87387" lon="2.28187">
        <ele>83</ele>
        <time>2013-12-09T20:14:51.165Z</time>
      </trkpt>
      <trkpt lat="48.87383" lon="2.28184">
        <ele>84</ele>
        <time>2013-12-09T20:14:52.168Z</time>
      </trkpt>
      <trkpt lat="48.87375" lon="2.28177">
        <ele>84</ele>
        <time>2013-12-09T20:14:54.166Z</time>
      </trkpt>
      <trkpt lat="48.87371" lon="2.28173">
        <ele>84</ele>
        <time>2013-12-09T20:14:55.158Z</time>
      </trkpt>
      <trkpt lat="48.87368" lon="2.28168">
        <ele>85</ele>
        <time>2013-12-09T20:14:56.235Z</time>
      </trkpt>
      <trkpt lat="48.87365" lon="2.28163">
        <ele>88</ele>
        <time>2013-12-09T20:14:57.229Z</time>
      </trkpt>
      <trkpt lat="48.87361" lon="2.28157">
        <ele>85</ele>
        <time>2013-12-09T20:14:58.620Z</time>
      </trkpt>
      <trkpt lat="48.87359" lon="2.28152">
        <ele>82</ele>
        <time>2013-12-09T20:14:59.646Z</time>
      </trkpt>
      <trkpt lat="48.87357" lon="2.28146">
        <ele>81</ele>
        <time>2013-12-09T20:15:00.658Z</time>
      </trkpt>
      <trkpt lat="48.87355" lon="2.28139">
        <ele>81</ele>
        <time>2013-12-09T20:15:01.623Z</time>
      </trkpt>
      <trkpt lat="48.87349" lon="2.2813">
        <ele>85</ele>
        <time>2013-12-09T20:15:03.254Z</time>
      </trkpt>
      <trkpt lat="48.87343" lon="2.28126">
        <ele>82</ele>
        <time>2013-12-09T20:15:04.233Z</time>
      </trkpt>
      <trkpt lat="48.8734" lon="2.2812">
        <ele>83</ele>
        <time>2013-12-09T20:15:05.160Z</time>
      </trkpt>
      <trkpt lat="48.87335" lon="2.28117">
        <ele>84</ele>
        <time>2013-12-09T20:15:06.179Z</time>
      </trkpt>
      <trkpt lat="48.8733" lon="2.28113">
        <ele>86</ele>
        <time>2013-12-09T20:15:07.998Z</time>
      </trkpt>
      <trkpt lat="48.87325" lon="2.28109">
        <ele>89</ele>
        <time>2013-12-09T20:15:08.156Z</time>
      </trkpt>
      <trkpt lat="48.87319" lon="2.281">
        <ele>93</ele>
        <time>2013-12-09T20:15:10.817Z</time>
      </trkpt>
      <trkpt lat="48.87316" lon="2.28097">
        <ele>92</ele>
        <time>2013-12-09T20:15:11.146Z</time>
      </trkpt>
      <trkpt lat="48.87311" lon="2.28089">
        <ele>95</ele>
        <time>2013-12-09T20:15:13.230Z</time>
      </trkpt>
      <trkpt lat="48.8731" lon="2.28086">
        <ele>93</ele>
        <time>2013-12-09T20:15:14.234Z</time>
      </trkpt>
      <trkpt lat="48.87307" lon="2.28078">
        <ele>94</ele>
        <time>2013-12-09T20:15:16.238Z</time>
      </trkpt>
      <trkpt lat="48.87305" lon="2.28074">
        <ele>94</ele>
        <time>2013-12-09T20:15:17.264Z</time>
      </trkpt>
      <trkpt lat="48.87302" lon="2.28066">
        <ele>92</ele>
        <time>2013-12-09T20:15:19.176Z</time>
      </trkpt>
      <trkpt lat="48.87299" lon="2.28061">
        <ele>92</ele>
        <time>2013-12-09T20:15:20.181Z</time>
      </trkpt>
      <trkpt lat="48.87295" lon="2.28051">
        <ele>91</ele>
        <time>2013-12-09T20:15:22.174Z</time>
      </trkpt>
      <trkpt lat="48.87293" lon="2.28047">
        <ele>90</ele>
        <time>2013-12-09T20:15:23.234Z</time>
      </trkpt>
      <trkpt lat="48.87288" lon="2.28038">
        <ele>90</ele>
        <time>2013-12-09T20:15:25.462Z</time>
      </trkpt>
      <trkpt lat="48.87286" lon="2.28034">
        <ele>91</ele>
        <time>2013-12-09T20:15:26.492Z</time>
      </trkpt>
      <trkpt lat="48.8728" lon="2.28026">
        <ele>89</ele>
        <time>2013-12-09T20:15:30.396Z</time>
      </trkpt>
      <trkpt lat="48.87278" lon="2.28024">
        <ele>89</ele>
        <time>2013-12-09T20:15:30.492Z</time>
      </trkpt>
      <trkpt lat="48.87273" lon="2.28016">
        <ele>90</ele>
        <time>2013-12-09T20:15:33.240Z</time>
      </trkpt>
      <trkpt lat="48.87272" lon="2.28012">
        <ele>92</ele>
        <time>2013-12-09T20:15:34.179Z</time>
      </trkpt>
      <trkpt lat="48.8727" lon="2.27998">
        <ele>89</ele>
        <time>2013-12-09T20:15:37.230Z</time>
      </trkpt>
      <trkpt lat="48.87269" lon="2.27994">
        <ele>92</ele>
        <time>2013-12-09T20:15:38.235Z</time>
      </trkpt>
      <trkpt lat="48.87268" lon="2.27982">
        <ele>91</ele>
        <time>2013-12-09T20:15:41.230Z</time>
      </trkpt>
      <trkpt lat="48.87267" lon="2.27977">
        <ele>90</ele>
        <time>2013-12-09T20:15:42.235Z</time>
      </trkpt>
      <trkpt lat="48.87267" lon="2.27971">
        <ele>89</ele>
        <time>2013-12-09T20:15:43.246Z</time>
      </trkpt>
      <trkpt lat="48.87265" lon="2.2796">
        <ele>88</ele>
        <time>2013-12-09T20:15:44.239Z</time>
      </trkpt>
      <trkpt lat="48.87264" lon="2.27952">
        <ele>87</ele>
        <time>2013-12-09T20:15:45.374Z</time>
      </trkpt>
      <trkpt lat="48.87262" lon="2.27947">
        <ele>83</ele>
        <time>2013-12-09T20:15:46.234Z</time>
      </trkpt>
      <trkpt lat="48.8726" lon="2.27934">
        <ele>83</ele>
        <time>2013-12-09T20:15:49.172Z</time>
      </trkpt>
      <trkpt lat="48.87259" lon="2.27928">
        <ele>83</ele>
        <time>2013-12-09T20:15:50.179Z</time>
      </trkpt>
      <trkpt lat="48.87257" lon="2.27917">
        <ele>81</ele>
        <time>2013-12-09T20:15:52.178Z</time>
      </trkpt>
      <trkpt lat="48.87256" lon="2.27911">
        <ele>80</ele>
        <time>2013-12-09T20:15:53.221Z</time>
      </trkpt>
      <trkpt lat="48.87255" lon="2.27901">
        <ele>81</ele>
        <time>2013-12-09T20:15:55.385Z</time>
      </trkpt>
      <trkpt lat="48.87254" lon="2.27896">
        <ele>82</ele>
        <time>2013-12-09T20:15:56.145Z</time>
      </trkpt>
      <trkpt lat="48.87254" lon="2.27885">
        <ele>84</ele>
        <time>2013-12-09T20:15:58.232Z</time>
      </trkpt>
      <trkpt lat="48.87254" lon="2.27879">
        <ele>82</ele>
        <time>2013-12-09T20:15:59.418Z</time>
      </trkpt>
      <trkpt lat="48.87253" lon="2.27866">
        <ele>82</ele>
        <time>2013-12-09T20:16:01.233Z</time>
      </trkpt>
      <trkpt lat="48.87253" lon="2.27858">
        <ele>81</ele>
        <time>2013-12-09T20:16:02.253Z</time>
      </trkpt>
      <trkpt lat="48.87252" lon="2.27851">
        <ele>83</ele>
        <time>2013-12-09T20:16:03.230Z</time>
      </trkpt>
      <trkpt lat="48.87251" lon="2.27844">
        <ele>83</ele>
        <time>2013-12-09T20:16:04.233Z</time>
      </trkpt>
      <trkpt lat="48.87248" lon="2.27831">
        <ele>86</ele>
        <time>2013-12-09T20:16:06.246Z</time>
      </trkpt>
      <trkpt lat="48.87247" lon="2.27826">
        <ele>87</ele>
        <time>2013-12-09T20:16:07.229Z</time>
      </trkpt>
      <trkpt lat="48.87243" lon="2.27815">
        <ele>91</ele>
        <time>2013-12-09T20:16:09.241Z</time>
      </trkpt>
      <trkpt lat="48.87242" lon="2.2781">
        <ele>94</ele>
        <time>2013-12-09T20:16:10.173Z</time>
      </trkpt>
      <trkpt lat="48.87239" lon="2.27799">
        <ele>95</ele>
        <time>2013-12-09T20:16:12.486Z</time>
      </trkpt>
      <trkpt lat="48.87239" lon="2.27794">
        <ele>96</ele>
        <time>2013-12-09T20:16:13.500Z</time>
      </trkpt>
      <trkpt lat="48.87239" lon="2.2778">
        <ele>95</ele>
        <time>2013-12-09T20:16:16.440Z</time>
      </trkpt>
      <trkpt lat="48.87239" lon="2.27776">
        <ele>94</ele>
        <time>2013-12-09T20:16:17.439Z</time>
      </trkpt>
      <trkpt lat="48.87239" lon="2.27765">
        <ele>92</ele>
        <time>2013-12-09T20:16:19.410Z</time>
      </trkpt>
      <trkpt lat="48.87239" lon="2.2776">
        <ele>92</ele>
        <time>2013-12-09T20:16:20.441Z</time>
      </trkpt>
      <trkpt lat="48.87239" lon="2.27748">
        <ele>92</ele>
        <time>2013-12-09T20:16:22.444Z</time>
      </trkpt>
      <trkpt lat="48.87238" lon="2.27743">
        <ele>94</ele>
        <time>2013-12-09T20:16:23.415Z</time>
      </trkpt>
      <trkpt lat="48.87237" lon="2.27732">
        <ele>94</ele>
        <time>2013-12-09T20:16:25.520Z</time>
      </trkpt>
      <trkpt lat="48.87236" lon="2.27726">
        <ele>91</ele>
        <time>2013-12-09T20:16:26.448Z</time>
      </trkpt>
      <trkpt lat="48.87234" lon="2.27718">
        <ele>93</ele>
        <time>2013-12-09T20:16:28.230Z</time>
      </trkpt>
      <trkpt lat="48.87233" lon="2.27713">
        <ele>93</ele>
        <time>2013-12-09T20:16:29.235Z</time>
      </trkpt>
      <trkpt lat="48.87229" lon="2.27705">
        <ele>91</ele>
        <time>2013-12-09T20:16:31.230Z</time>
      </trkpt>
      <trkpt lat="48.87227" lon="2.27702">
        <ele>91</ele>
        <time>2013-12-09T20:16:32.237Z</time>
      </trkpt>
      <trkpt lat="48.87221" lon="2.27693">
        <ele>90</ele>
        <time>2013-12-09T20:16:35.563Z</time>
      </trkpt>
      <trkpt lat="48.87219" lon="2.2769">
        <ele>90</ele>
        <time>2013-12-09T20:16:36.226Z</time>
      </trkpt>
      <trkpt lat="48.87215" lon="2.27682">
        <ele>89</ele>
        <time>2013-12-09T20:16:38.229Z</time>
      </trkpt>
      <trkpt lat="48.87214" lon="2.27677">
        <ele>89</ele>
        <time>2013-12-09T20:16:39.232Z</time>
      </trkpt>
      <trkpt lat="48.8721" lon="2.27668">
        <ele>89</ele>
        <time>2013-12-09T20:16:41.273Z</time>
      </trkpt>
      <trkpt lat="48.87209" lon="2.27664">
        <ele>89</ele>
        <time>2013-12-09T20:16:42.229Z</time>
      </trkpt>
      <trkpt lat="48.87204" lon="2.27658">
        <ele>84</ele>
        <time>2013-12-09T20:16:55.615Z</time>
      </trkpt>
      <trkpt lat="48.87204" lon="2.27658">
        <ele>83</ele>
        <time>2013-12-09T20:16:56.226Z</time>
      </trkpt>
      <trkpt lat="48.87204" lon="2.27659">
        <ele>85</ele>
        <time>2013-12-09T20:17:04.268Z</time>
      </trkpt>
      <trkpt lat="48.87203" lon="2.27658">
        <ele>85</ele>
        <time>2013-12-09T20:17:05.234Z</time>
      </trkpt>
      <trkpt lat="48.87196" lon="2.27653">
        <ele>86</ele>
        <time>2013-12-09T20:17:14.272Z</time>
      </trkpt>
      <trkpt lat="48.87194" lon="2.27653">
        <ele>86</ele>
        <time>2013-12-09T20:17:15.592Z</time>
      </trkpt>
      <trkpt lat="48.87189" lon="2.27653">
        <ele>80</ele>
        <time>2013-12-09T20:17:27.163Z</time>
      </trkpt>
      <trkpt lat="48.87189" lon="2.27653">
        <ele>80</ele>
        <time>2013-12-09T20:17:28.154Z</time>
      </trkpt>
      <trkpt lat="48.87188" lon="2.27654">
        <ele>80</ele>
        <time>2013-12-09T20:17:32.184Z</time>
      </trkpt>
      <trkpt lat="48.87188" lon="2.27655">
        <ele>80</ele>
        <time>2013-12-09T20:17:33.156Z</time>
      </trkpt>
      <trkpt lat="48.87187" lon="2.27662">
        <ele>79</ele>
        <time>2013-12-09T20:17:42.166Z</time>
      </trkpt>
      <trkpt lat="48.87188" lon="2.27662">
        <ele>79</ele>
        <time>2013-12-09T20:17:43.149Z</time>
      </trkpt>
      <trkpt lat="48.87188" lon="2.27663">
        <ele>79</ele>
        <time>2013-12-09T20:17:46.235Z</time>
      </trkpt>
      <trkpt lat="48.87188" lon="2.27664">
        <ele>79</ele>
        <time>2013-12-09T20:17:47.229Z</time>
      </trkpt>
      <trkpt lat="48.8718" lon="2.2767">
        <ele>74</ele>
        <time>2013-12-09T20:17:53.166Z</time>
      </trkpt>
      <trkpt lat="48.87177" lon="2.27671">
        <ele>74</ele>
        <time>2013-12-09T20:17:54.166Z</time>
      </trkpt>
      <trkpt lat="48.87169" lon="2.27665">
        <ele>75</ele>
        <time>2013-12-09T20:17:58.160Z</time>
      </trkpt>
      <trkpt lat="48.87168" lon="2.27663">
        <ele>75</ele>
        <time>2013-12-09T20:17:59.169Z</time>
      </trkpt>
      <trkpt lat="48.87163" lon="2.27654">
        <ele>76</ele>
        <time>2013-12-09T20:18:03.166Z</time>
      </trkpt>
      <trkpt lat="48.87161" lon="2.27651">
        <ele>77</ele>
        <time>2013-12-09T20:18:04.164Z</time>
      </trkpt>
      <trkpt lat="48.87156" lon="2.27641">
        <ele>80</ele>
        <time>2013-12-09T20:18:08.138Z</time>
      </trkpt>
      <trkpt lat="48.87154" lon="2.27639">
        <ele>80</ele>
        <time>2013-12-09T20:18:09.135Z</time>
      </trkpt>
      <trkpt lat="48.87148" lon="2.2763">
        <ele>76</ele>
        <time>2013-12-09T20:18:13.176Z</time>
      </trkpt>
      <trkpt lat="48.87145" lon="2.27629">
        <ele>74</ele>
        <time>2013-12-09T20:18:14.170Z</time>
      </trkpt>
      <trkpt lat="48.87138" lon="2.27625">
        <ele>75</ele>
        <time>2013-12-09T20:18:17.229Z</time>
      </trkpt>
      <trkpt lat="48.87136" lon="2.27624">
        <ele>74</ele>
        <time>2013-12-09T20:18:18.229Z</time>
      </trkpt>
      <trkpt lat="48.87128" lon="2.27631">
        <ele>77</ele>
        <time>2013-12-09T20:18:24.272Z</time>
      </trkpt>
      <trkpt lat="48.87128" lon="2.27633">
        <ele>77</ele>
        <time>2013-12-09T20:18:25.238Z</time>
      </trkpt>
      <trkpt lat="48.8713" lon="2.27643">
        <ele>76</ele>
        <time>2013-12-09T20:18:35.231Z</time>
      </trkpt>
      <trkpt lat="48.8713" lon="2.27643">
        <ele>76</ele>
        <time>2013-12-09T20:18:36.228Z</time>
      </trkpt>
      <trkpt lat="48.8713" lon="2.27644">
        <ele>76</ele>
        <time>2013-12-09T20:18:37.192Z</time>
      </trkpt>
      <trkpt lat="48.8713" lon="2.27656">
        <ele>75</ele>
        <time>2013-12-09T20:18:41.174Z</time>
      </trkpt>
      <trkpt lat="48.87131" lon="2.27661">
        <ele>77</ele>
        <time>2013-12-09T20:18:42.235Z</time>
      </trkpt>
      <trkpt lat="48.87132" lon="2.27674">
        <ele>75</ele>
        <time>2013-12-09T20:18:45.140Z</time>
      </trkpt>
      <trkpt lat="48.87132" lon="2.27678">
        <ele>75</ele>
        <time>2013-12-09T20:18:46.177Z</time>
      </trkpt>
      <trkpt lat="48.87134" lon="2.27687">
        <ele>75</ele>
        <time>2013-12-09T20:18:48.154Z</time>
      </trkpt>
      <trkpt lat="48.87134" lon="2.27692">
        <ele>75</ele>
        <time>2013-12-09T20:18:49.177Z</time>
      </trkpt>
      <trkpt lat="48.87135" lon="2.27702">
        <ele>77</ele>
        <time>2013-12-09T20:18:51.179Z</time>
      </trkpt>
      <trkpt lat="48.87135" lon="2.27708">
        <ele>77</ele>
        <time>2013-12-09T20:18:52.170Z</time>
      </trkpt>
      <trkpt lat="48.87134" lon="2.2772">
        <ele>78</ele>
        <time>2013-12-09T20:18:55.041Z</time>
      </trkpt>
      <trkpt lat="48.87134" lon="2.27725">
        <ele>79</ele>
        <time>2013-12-09T20:18:55.146Z</time>
      </trkpt>
      <trkpt lat="48.87131" lon="2.27738">
        <ele>77</ele>
        <time>2013-12-09T20:18:58.252Z</time>
      </trkpt>
      <trkpt lat="48.8713" lon="2.2774">
        <ele>75</ele>
        <time>2013-12-09T20:18:59.595Z</time>
      </trkpt>
      <trkpt lat="48.87126" lon="2.2775">
        <ele>73</ele>
        <time>2013-12-09T20:19:04.153Z</time>
      </trkpt>
      <trkpt lat="48.87125" lon="2.27754">
        <ele>74</ele>
        <time>2013-12-09T20:19:05.154Z</time>
      </trkpt>
      <trkpt lat="48.87123" lon="2.27766">
        <ele>74</ele>
        <time>2013-12-09T20:19:09.232Z</time>
      </trkpt>
      <trkpt lat="48.87122" lon="2.27768">
        <ele>72</ele>
        <time>2013-12-09T20:19:10.579Z</time>
      </trkpt>
      <trkpt lat="48.87119" lon="2.27779">
        <ele>72</ele>
        <time>2013-12-09T20:19:15.477Z</time>
      </trkpt>
      <trkpt lat="48.87119" lon="2.27781">
        <ele>74</ele>
        <time>2013-12-09T20:19:16.237Z</time>
      </trkpt>
      <trkpt lat="48.87116" lon="2.27792">
        <ele>73</ele>
        <time>2013-12-09T20:19:19.232Z</time>
      </trkpt>
      <trkpt lat="48.87116" lon="2.27797">
        <ele>73</ele>
        <time>2013-12-09T20:19:20.235Z</time>
      </trkpt>
      <trkpt lat="48.87115" lon="2.27809">
        <ele>74</ele>
        <time>2013-12-09T20:19:23.175Z</time>
      </trkpt>
      <trkpt lat="48.87115" lon="2.27812">
        <ele>74</ele>
        <time>2013-12-09T20:19:24.155Z</time>
      </trkpt>
      <trkpt lat="48.87114" lon="2.27825">
        <ele>73</ele>
        <time>2013-12-09T20:19:28.201Z</time>
      </trkpt>
      <trkpt lat="48.87114" lon="2.27829">
        <ele>75</ele>
        <time>2013-12-09T20:19:29.168Z</time>
      </trkpt>
      <trkpt lat="48.87112" lon="2.2784">
        <ele>74</ele>
        <time>2013-12-09T20:19:32.180Z</time>
      </trkpt>
      <trkpt lat="48.87112" lon="2.27844">
        <ele>74</ele>
        <time>2013-12-09T20:19:33.221Z</time>
      </trkpt>
      <trkpt lat="48.87111" lon="2.27854">
        <ele>73</ele>
        <time>2013-12-09T20:19:35.144Z</time>
      </trkpt>
      <trkpt lat="48.8711" lon="2.27859">
        <ele>71</ele>
        <time>2013-12-09T20:19:36.146Z</time>
      </trkpt>
      <trkpt lat="48.87109" lon="2.27869">
        <ele>72</ele>
        <time>2013-12-09T20:19:38.172Z</time>
      </trkpt>
      <trkpt lat="48.87107" lon="2.27874">
        <ele>70</ele>
        <time>2013-12-09T20:19:39.668Z</time>
      </trkpt>
      <trkpt lat="48.87101" lon="2.27881">
        <ele>74</ele>
        <time>2013-12-09T20:19:43.154Z</time>
      </trkpt>
      <trkpt lat="48.871" lon="2.27883">
        <ele>76</ele>
        <time>2013-12-09T20:19:44.231Z</time>
      </trkpt>
      <trkpt lat="48.87099" lon="2.27888">
        <ele>77</ele>
        <time>2013-12-09T20:19:57.160Z</time>
      </trkpt>
      <trkpt lat="48.87098" lon="2.27888">
        <ele>77</ele>
        <time>2013-12-09T20:19:58.172Z</time>
      </trkpt>
      <trkpt lat="48.87098" lon="2.27888">
        <ele>80</ele>
        <time>2013-12-09T20:20:05.172Z</time>
      </trkpt>
      <trkpt lat="48.87097" lon="2.27888">
        <ele>81</ele>
        <time>2013-12-09T20:20:06.162Z</time>
      </trkpt>
      <trkpt lat="48.87091" lon="2.27882">
        <ele>82</ele>
        <time>2013-12-09T20:20:11.248Z</time>
      </trkpt>
      <trkpt lat="48.87089" lon="2.2788">
        <ele>83</ele>
        <time>2013-12-09T20:20:12.235Z</time>
      </trkpt>
      <trkpt lat="48.87085" lon="2.27875">
        <ele>82</ele>
        <time>2013-12-09T20:20:14.238Z</time>
      </trkpt>
      <trkpt lat="48.87082" lon="2.27871">
        <ele>83</ele>
        <time>2013-12-09T20:20:15.230Z</time>
      </trkpt>
      <trkpt lat="48.87079" lon="2.27867">
        <ele>81</ele>
        <time>2013-12-09T20:20:16.126Z</time>
      </trkpt>
      <trkpt lat="48.87075" lon="2.27862">
        <ele>81</ele>
        <time>2013-12-09T20:20:17.270Z</time>
      </trkpt>
      <trkpt lat="48.87071" lon="2.27858">
        <ele>84</ele>
        <time>2013-12-09T20:20:18.136Z</time>
      </trkpt>
      <trkpt lat="48.87066" lon="2.27854">
        <ele>84</ele>
        <time>2013-12-09T20:20:19.157Z</time>
      </trkpt>
      <trkpt lat="48.87061" lon="2.27851">
        <ele>83</ele>
        <time>2013-12-09T20:20:20.889Z</time>
      </trkpt>
      <trkpt lat="48.87056" lon="2.27849">
        <ele>81</ele>
        <time>2013-12-09T20:20:21.148Z</time>
      </trkpt>
      <trkpt lat="48.8705" lon="2.27849">
        <ele>83</ele>
        <time>2013-12-09T20:20:22.148Z</time>
      </trkpt>
      <trkpt lat="48.87046" lon="2.27848">
        <ele>84</ele>
        <time>2013-12-09T20:20:23.122Z</time>
      </trkpt>
      <trkpt lat="48.8704" lon="2.27847">
        <ele>82</ele>
        <time>2013-12-09T20:20:24.239Z</time>
      </trkpt>
      <trkpt lat="48.87034" lon="2.27847">
        <ele>82</ele>
        <time>2013-12-09T20:20:25.751Z</time>
      </trkpt>
      <trkpt lat="48.87027" lon="2.27847">
        <ele>80</ele>
        <time>2013-12-09T20:20:27.437Z</time>
      </trkpt>
      <trkpt lat="48.87022" lon="2.27845">
        <ele>81</ele>
        <time>2013-12-09T20:20:28.471Z</time>
      </trkpt>
      <trkpt lat="48.87014" lon="2.27841">
        <ele>83</ele>
        <time>2013-12-09T20:20:30.604Z</time>
      </trkpt>
      <trkpt lat="48.8701" lon="2.27838">
        <ele>83</ele>
        <time>2013-12-09T20:20:31.435Z</time>
      </trkpt>
      <trkpt lat="48.87002" lon="2.27833">
        <ele>85</ele>
        <time>2013-12-09T20:20:33.625Z</time>
      </trkpt>
      <trkpt lat="48.86999" lon="2.27829">
        <ele>84</ele>
        <time>2013-12-09T20:20:34.295Z</time>
      </trkpt>
      <trkpt lat="48.86992" lon="2.27821">
        <ele>83</ele>
        <time>2013-12-09T20:20:36.234Z</time>
      </trkpt>
      <trkpt lat="48.8699" lon="2.27816">
        <ele>85</ele>
        <time>2013-12-09T20:20:37.230Z</time>
      </trkpt>
      <trkpt lat="48.86988" lon="2.27811">
        <ele>86</ele>
        <time>2013-12-09T20:20:38.667Z</time>
      </trkpt>
      <trkpt lat="48.86986" lon="2.27804">
        <ele>88</ele>
        <time>2013-12-09T20:20:39.238Z</time>
      </trkpt>
      <trkpt lat="48.86984" lon="2.27796">
        <ele>84</ele>
        <time>2013-12-09T20:20:40.241Z</time>
      </trkpt>
      <trkpt lat="48.86983" lon="2.27788">
        <ele>82</ele>
        <time>2013-12-09T20:20:41.237Z</time>
      </trkpt>
      <trkpt lat="48.86981" lon="2.27772">
        <ele>82</ele>
        <time>2013-12-09T20:20:42.232Z</time>
      </trkpt>
      <trkpt lat="48.86979" lon="2.27759">
        <ele>83</ele>
        <time>2013-12-09T20:20:43.148Z</time>
      </trkpt>
      <trkpt lat="48.86974" lon="2.27747">
        <ele>83</ele>
        <time>2013-12-09T20:20:44.139Z</time>
      </trkpt>
      <trkpt lat="48.86968" lon="2.27737">
        <ele>86</ele>
        <time>2013-12-09T20:20:45.963Z</time>
      </trkpt>
      <trkpt lat="48.86962" lon="2.27733">
        <ele>87</ele>
        <time>2013-12-09T20:20:46.146Z</time>
      </trkpt>
      <trkpt lat="48.86953" lon="2.27729">
        <ele>87</ele>
        <time>2013-12-09T20:20:47.138Z</time>
      </trkpt>
      <trkpt lat="48.86944" lon="2.27735">
        <ele>87</ele>
        <time>2013-12-09T20:20:48.230Z</time>
      </trkpt>
      <trkpt lat="48.86937" lon="2.2774">
        <ele>89</ele>
        <time>2013-12-09T20:20:49.234Z</time>
      </trkpt>
      <trkpt lat="48.86925" lon="2.27746">
        <ele>89</ele>
        <time>2013-12-09T20:20:50.643Z</time>
      </trkpt>
      <trkpt lat="48.86921" lon="2.27762">
        <ele>90</ele>
        <time>2013-12-09T20:20:51.638Z</time>
      </trkpt>
      <trkpt lat="48.86921" lon="2.27767">
        <ele>91</ele>
        <time>2013-12-09T20:20:52.833Z</time>
      </trkpt>
      <trkpt lat="48.86917" lon="2.2778">
        <ele>91</ele>
        <time>2013-12-09T20:20:53.641Z</time>
      </trkpt>
      <trkpt lat="48.86912" lon="2.27788">
        <ele>91</ele>
        <time>2013-12-09T20:20:54.644Z</time>
      </trkpt>
      <trkpt lat="48.86907" lon="2.27792">
        <ele>91</ele>
        <time>2013-12-09T20:20:55.641Z</time>
      </trkpt>
      <trkpt lat="48.86899" lon="2.27792">
        <ele>90</ele>
        <time>2013-12-09T20:20:57.666Z</time>
      </trkpt>
      <trkpt lat="48.86895" lon="2.27789">
        <ele>92</ele>
        <time>2013-12-09T20:20:58.236Z</time>
      </trkpt>
      <trkpt lat="48.86889" lon="2.2778">
        <ele>83</ele>
        <time>2013-12-09T20:21:00.267Z</time>
      </trkpt>
      <trkpt lat="48.86887" lon="2.27776">
        <ele>83</ele>
        <time>2013-12-09T20:21:01.143Z</time>
      </trkpt>
      <trkpt lat="48.86881" lon="2.27767">
        <ele>88</ele>
        <time>2013-12-09T20:21:04.180Z</time>
      </trkpt>
      <trkpt lat="48.86879" lon="2.27765">
        <ele>89</ele>
        <time>2013-12-09T20:21:05.179Z</time>
      </trkpt>
      <trkpt lat="48.86873" lon="2.27762">
        <ele>93</ele>
        <time>2013-12-09T20:21:07.149Z</time>
      </trkpt>
      <trkpt lat="48.86869" lon="2.27761">
        <ele>92</ele>
        <time>2013-12-09T20:21:08.181Z</time>
      </trkpt>
      <trkpt lat="48.86862" lon="2.27761">
        <ele>97</ele>
        <time>2013-12-09T20:21:10.166Z</time>
      </trkpt>
      <trkpt lat="48.86859" lon="2.27761">
        <ele>97</ele>
        <time>2013-12-09T20:21:11.177Z</time>
      </trkpt>
      <trkpt lat="48.86851" lon="2.27761">
        <ele>92</ele>
        <time>2013-12-09T20:21:14.231Z</time>
      </trkpt>
      <trkpt lat="48.86849" lon="2.27759">
        <ele>93</ele>
        <time>2013-12-09T20:21:15.234Z</time>
      </trkpt>
      <trkpt lat="48.86844" lon="2.2775">
        <ele>92</ele>
        <time>2013-12-09T20:21:18.797Z</time>
      </trkpt>
      <trkpt lat="48.86843" lon="2.27747">
        <ele>89</ele>
        <time>2013-12-09T20:21:19.137Z</time>
      </trkpt>
      <trkpt lat="48.86836" lon="2.27743">
        <ele>89</ele>
        <time>2013-12-09T20:21:24.231Z</time>
      </trkpt>
      <trkpt lat="48.86834" lon="2.2774">
        <ele>87</ele>
        <time>2013-12-09T20:21:25.332Z</time>
      </trkpt>
      <trkpt lat="48.8683" lon="2.27732">
        <ele>82</ele>
        <time>2013-12-09T20:21:27.240Z</time>
      </trkpt>
      <trkpt lat="48.86827" lon="2.27727">
        <ele>82</ele>
        <time>2013-12-09T20:21:28.230Z</time>
      </trkpt>
      <trkpt lat="48.86824" lon="2.27723">
        <ele>81</ele>
        <time>2013-12-09T20:21:29.235Z</time>
      </trkpt>
      <trkpt lat="48.8682" lon="2.27718">
        <ele>81</ele>
        <time>2013-12-09T20:21:30.231Z</time>
      </trkpt>
      <trkpt lat="48.86815" lon="2.27714">
        <ele>81</ele>
        <time>2013-12-09T20:21:31.927Z</time>
      </trkpt>
      <trkpt lat="48.86809" lon="2.27706">
        <ele>84</ele>
        <time>2013-12-09T20:21:32.230Z</time>
      </trkpt>
      <trkpt lat="48.86804" lon="2.27699">
        <ele>80</ele>
        <time>2013-12-09T20:21:33.237Z</time>
      </trkpt>
      <trkpt lat="48.86799" lon="2.27693">
        <ele>79</ele>
        <time>2013-12-09T20:21:34.178Z</time>
      </trkpt>
      <trkpt lat="48.86793" lon="2.27687">
        <ele>81</ele>
        <time>2013-12-09T20:21:35.262Z</time>
      </trkpt>
      <trkpt lat="48.86785" lon="2.27683">
        <ele>82</ele>
        <time>2013-12-09T20:21:36.181Z</time>
      </trkpt>
      <trkpt lat="48.86785" lon="2.27683">
        <ele>82</ele>
        <time>2013-12-09T20:21:36.975Z</time>
      </trkpt>
      <trkpt lat="48.86776" lon="2.27672">
        <ele>83</ele>
        <time>2013-12-09T20:21:37.268Z</time>
      </trkpt>
      <trkpt lat="48.86768" lon="2.2766">
        <ele>84</ele>
        <time>2013-12-09T20:21:38.228Z</time>
      </trkpt>
      <trkpt lat="48.86758" lon="2.2767">
        <ele>85</ele>
        <time>2013-12-09T20:21:39.234Z</time>
      </trkpt>
      <trkpt lat="48.86751" lon="2.27678">
        <ele>78</ele>
        <time>2013-12-09T20:21:41.994Z</time>
      </trkpt>
      <trkpt lat="48.86745" lon="2.27677">
        <ele>80</ele>
        <time>2013-12-09T20:21:43.236Z</time>
      </trkpt>
      <trkpt lat="48.86739" lon="2.27675">
        <ele>82</ele>
        <time>2013-12-09T20:21:47.022Z</time>
      </trkpt>
      <trkpt lat="48.86736" lon="2.2767">
        <ele>79</ele>
        <time>2013-12-09T20:21:47.262Z</time>
      </trkpt>
      <trkpt lat="48.86729" lon="2.27663">
        <ele>80</ele>
        <time>2013-12-09T20:21:50.230Z</time>
      </trkpt>
      <trkpt lat="48.86726" lon="2.2766">
        <ele>81</ele>
        <time>2013-12-09T20:21:51.150Z</time>
      </trkpt>
      <trkpt lat="48.86719" lon="2.27652">
        <ele>83</ele>
        <time>2013-12-09T20:21:53.154Z</time>
      </trkpt>
      <trkpt lat="48.86714" lon="2.27647">
        <ele>86</ele>
        <time>2013-12-09T20:21:54.256Z</time>
      </trkpt>
      <trkpt lat="48.86708" lon="2.27639">
        <ele>86</ele>
        <time>2013-12-09T20:21:55.233Z</time>
      </trkpt>
      <trkpt lat="48.86701" lon="2.27631">
        <ele>84</ele>
        <time>2013-12-09T20:21:56.210Z</time>
      </trkpt>
      <trkpt lat="48.86701" lon="2.27631">
        <ele>84</ele>
        <time>2013-12-09T20:21:57.041Z</time>
      </trkpt>
      <trkpt lat="48.86691" lon="2.27632">
        <ele>83</ele>
        <time>2013-12-09T20:21:57.237Z</time>
      </trkpt>
      <trkpt lat="48.86681" lon="2.27636">
        <ele>82</ele>
        <time>2013-12-09T20:21:58.230Z</time>
      </trkpt>
      <trkpt lat="48.8667" lon="2.27643">
        <ele>84</ele>
        <time>2013-12-09T20:21:59.232Z</time>
      </trkpt>
      <trkpt lat="48.86661" lon="2.27648">
        <ele>88</ele>
        <time>2013-12-09T20:22:00.256Z</time>
      </trkpt>
      <trkpt lat="48.86653" lon="2.27648">
        <ele>88</ele>
        <time>2013-12-09T20:22:02.287Z</time>
      </trkpt>
      <trkpt lat="48.86652" lon="2.27644">
        <ele>89</ele>
        <time>2013-12-09T20:22:03.178Z</time>
      </trkpt>
      <trkpt lat="48.86648" lon="2.27635">
        <ele>91</ele>
        <time>2013-12-09T20:22:05.234Z</time>
      </trkpt>
      <trkpt lat="48.86648" lon="2.27631">
        <ele>89</ele>
        <time>2013-12-09T20:22:06.179Z</time>
      </trkpt>
      <trkpt lat="48.86641" lon="2.27635">
        <ele>84</ele>
        <time>2013-12-09T20:22:16.174Z</time>
      </trkpt>
      <trkpt lat="48.86637" lon="2.27635">
        <ele>84</ele>
        <time>2013-12-09T20:22:17.193Z</time>
      </trkpt>
      <trkpt lat="48.86631" lon="2.27634">
        <ele>86</ele>
        <time>2013-12-09T20:22:18.173Z</time>
      </trkpt>
      <trkpt lat="48.86623" lon="2.27626">
        <ele>85</ele>
        <time>2013-12-09T20:22:19.236Z</time>
      </trkpt>
      <trkpt lat="48.86615" lon="2.27618">
        <ele>85</ele>
        <time>2013-12-09T20:22:20.235Z</time>
      </trkpt>
      <trkpt lat="48.86602" lon="2.27607">
        <ele>88</ele>
        <time>2013-12-09T20:22:21.179Z</time>
      </trkpt>
      <trkpt lat="48.86602" lon="2.27607">
        <ele>88</ele>
        <time>2013-12-09T20:22:22.211Z</time>
      </trkpt>
      <trkpt lat="48.86578" lon="2.27599">
        <ele>89</ele>
        <time>2013-12-09T20:22:23.156Z</time>
      </trkpt>
      <trkpt lat="48.86568" lon="2.276">
        <ele>95</ele>
        <time>2013-12-09T20:22:24.236Z</time>
      </trkpt>
      <trkpt lat="48.86569" lon="2.27596">
        <ele>103</ele>
        <time>2013-12-09T20:22:37.225Z</time>
      </trkpt>
      <trkpt lat="48.86569" lon="2.27596">
        <ele>102</ele>
        <time>2013-12-09T20:22:38.227Z</time>
      </trkpt>
      <trkpt lat="48.86569" lon="2.27595">
        <ele>101</ele>
        <time>2013-12-09T20:22:41.159Z</time>
      </trkpt>
      <trkpt lat="48.86569" lon="2.27595">
        <ele>100</ele>
        <time>2013-12-09T20:22:42.160Z</time>
      </trkpt>
      <trkpt lat="48.86564" lon="2.27585">
        <ele>95</ele>
        <time>2013-12-09T20:22:48.528Z</time>
      </trkpt>
      <trkpt lat="48.86563" lon="2.27583">
        <ele>95</ele>
        <time>2013-12-09T20:22:49.485Z</time>
      </trkpt>
      <trkpt lat="48.86556" lon="2.27576">
        <ele>93</ele>
        <time>2013-12-09T20:22:52.246Z</time>
      </trkpt>
      <trkpt lat="48.86553" lon="2.27573">
        <ele>92</ele>
        <time>2013-12-09T20:22:53.175Z</time>
      </trkpt>
      <trkpt lat="48.86546" lon="2.27567">
        <ele>90</ele>
        <time>2013-12-09T20:22:56.164Z</time>
      </trkpt>
      <trkpt lat="48.86543" lon="2.27565">
        <ele>90</ele>
        <time>2013-12-09T20:22:57.165Z</time>
      </trkpt>
      <trkpt lat="48.86536" lon="2.27562">
        <ele>91</ele>
        <time>2013-12-09T20:22:59.230Z</time>
      </trkpt>
      <trkpt lat="48.86533" lon="2.2756">
        <ele>92</ele>
        <time>2013-12-09T20:23:00.250Z</time>
      </trkpt>
      <trkpt lat="48.86526" lon="2.27557">
        <ele>92</ele>
        <time>2013-12-09T20:23:02.252Z</time>
      </trkpt>
      <trkpt lat="48.86523" lon="2.27556">
        <ele>90</ele>
        <time>2013-12-09T20:23:03.191Z</time>
      </trkpt>
      <trkpt lat="48.86519" lon="2.27554">
        <ele>91</ele>
        <time>2013-12-09T20:23:04.232Z</time>
      </trkpt>
      <trkpt lat="48.86514" lon="2.27551">
        <ele>92</ele>
        <time>2013-12-09T20:23:05.917Z</time>
      </trkpt>
      <trkpt lat="48.86508" lon="2.27546">
        <ele>91</ele>
        <time>2013-12-09T20:23:07.917Z</time>
      </trkpt>
      <trkpt lat="48.86505" lon="2.27543">
        <ele>92</ele>
        <time>2013-12-09T20:23:08.969Z</time>
      </trkpt>
      <trkpt lat="48.86497" lon="2.27539">
        <ele>94</ele>
        <time>2013-12-09T20:23:10.917Z</time>
      </trkpt>
      <trkpt lat="48.86494" lon="2.27538">
        <ele>92</ele>
        <time>2013-12-09T20:23:11.917Z</time>
      </trkpt>
      <trkpt lat="48.86487" lon="2.27536">
        <ele>95</ele>
        <time>2013-12-09T20:23:13.913Z</time>
      </trkpt>
      <trkpt lat="48.86484" lon="2.27535">
        <ele>92</ele>
        <time>2013-12-09T20:23:14.911Z</time>
      </trkpt>
      <trkpt lat="48.86477" lon="2.2753">
        <ele>92</ele>
        <time>2013-12-09T20:23:17.328Z</time>
      </trkpt>
      <trkpt lat="48.86474" lon="2.27527">
        <ele>94</ele>
        <time>2013-12-09T20:23:17.911Z</time>
      </trkpt>
      <trkpt lat="48.86468" lon="2.2752">
        <ele>87</ele>
        <time>2013-12-09T20:23:19.909Z</time>
      </trkpt>
      <trkpt lat="48.86464" lon="2.27517">
        <ele>89</ele>
        <time>2013-12-09T20:23:20.915Z</time>
      </trkpt>
      <trkpt lat="48.86457" lon="2.27513">
        <ele>89</ele>
        <time>2013-12-09T20:23:23.887Z</time>
      </trkpt>
      <trkpt lat="48.86456" lon="2.27513">
        <ele>88</ele>
        <time>2013-12-09T20:23:24.230Z</time>
      </trkpt>
      <trkpt lat="48.86447" lon="2.27511">
        <ele>88</ele>
        <time>2013-12-09T20:23:27.229Z</time>
      </trkpt>
      <trkpt lat="48.86445" lon="2.2751">
        <ele>87</ele>
        <time>2013-12-09T20:23:28.139Z</time>
      </trkpt>
      <trkpt lat="48.86438" lon="2.27505">
        <ele>85</ele>
        <time>2013-12-09T20:23:31.234Z</time>
      </trkpt>
      <trkpt lat="48.86435" lon="2.27503">
        <ele>82</ele>
        <time>2013-12-09T20:23:32.232Z</time>
      </trkpt>
      <trkpt lat="48.8643" lon="2.27499">
        <ele>82</ele>
        <time>2013-12-09T20:23:34.133Z</time>
      </trkpt>
      <trkpt lat="48.86427" lon="2.27497">
        <ele>82</ele>
        <time>2013-12-09T20:23:35.163Z</time>
      </trkpt>
      <trkpt lat="48.86421" lon="2.27492">
        <ele>82</ele>
        <time>2013-12-09T20:23:37.187Z</time>
      </trkpt>
      <trkpt lat="48.86418" lon="2.27489">
        <ele>82</ele>
        <time>2013-12-09T20:23:38.162Z</time>
      </trkpt>
      <trkpt lat="48.86411" lon="2.27482">
        <ele>82</ele>
        <time>2013-12-09T20:23:40.233Z</time>
      </trkpt>
      <trkpt lat="48.86407" lon="2.27478">
        <ele>83</ele>
        <time>2013-12-09T20:23:41.245Z</time>
      </trkpt>
      <trkpt lat="48.86403" lon="2.27474">
        <ele>83</ele>
        <time>2013-12-09T20:23:42.283Z</time>
      </trkpt>
      <trkpt lat="48.864" lon="2.2747">
        <ele>83</ele>
        <time>2013-12-09T20:23:43.228Z</time>
      </trkpt>
      <trkpt lat="48.86396" lon="2.27466">
        <ele>84</ele>
        <time>2013-12-09T20:23:44.238Z</time>
      </trkpt>
      <trkpt lat="48.86392" lon="2.2746">
        <ele>81</ele>
        <time>2013-12-09T20:23:45.424Z</time>
      </trkpt>
      <trkpt lat="48.86387" lon="2.27452">
        <ele>84</ele>
        <time>2013-12-09T20:23:47.245Z</time>
      </trkpt>
      <trkpt lat="48.86384" lon="2.27448">
        <ele>85</ele>
        <time>2013-12-09T20:23:48.149Z</time>
      </trkpt>
      <trkpt lat="48.86377" lon="2.27441">
        <ele>85</ele>
        <time>2013-12-09T20:23:50.236Z</time>
      </trkpt>
      <trkpt lat="48.86369" lon="2.2744">
        <ele>85</ele>
        <time>2013-12-09T20:23:51.234Z</time>
      </trkpt>
      <trkpt lat="48.8636" lon="2.27441">
        <ele>84</ele>
        <time>2013-12-09T20:23:52.236Z</time>
      </trkpt>
      <trkpt lat="48.86353" lon="2.27438">
        <ele>82</ele>
        <time>2013-12-09T20:23:53.158Z</time>
      </trkpt>
      <trkpt lat="48.86347" lon="2.27432">
        <ele>82</ele>
        <time>2013-12-09T20:23:54.214Z</time>
      </trkpt>
      <trkpt lat="48.86345" lon="2.27426">
        <ele>80</ele>
        <time>2013-12-09T20:23:55.159Z</time>
      </trkpt>
      <trkpt lat="48.86338" lon="2.27423">
        <ele>81</ele>
        <time>2013-12-09T20:23:58.166Z</time>
      </trkpt>
      <trkpt lat="48.86335" lon="2.27425">
        <ele>83</ele>
        <time>2013-12-09T20:23:59.140Z</time>
      </trkpt>
      <trkpt lat="48.86327" lon="2.27421">
        <ele>83</ele>
        <time>2013-12-09T20:24:02.166Z</time>
      </trkpt>
      <trkpt lat="48.86325" lon="2.27418">
        <ele>84</ele>
        <time>2013-12-09T20:24:03.168Z</time>
      </trkpt>
      <trkpt lat="48.8632" lon="2.27414">
        <ele>85</ele>
        <time>2013-12-09T20:24:05.290Z</time>
      </trkpt>
      <trkpt lat="48.86317" lon="2.27411">
        <ele>86</ele>
        <time>2013-12-09T20:24:06.270Z</time>
      </trkpt>
      <trkpt lat="48.86312" lon="2.27402">
        <ele>85</ele>
        <time>2013-12-09T20:24:08.177Z</time>
      </trkpt>
      <trkpt lat="48.8631" lon="2.27396">
        <ele>85</ele>
        <time>2013-12-09T20:24:09.150Z</time>
      </trkpt>
      <trkpt lat="48.86308" lon="2.27388">
        <ele>84</ele>
        <time>2013-12-09T20:24:10.169Z</time>
      </trkpt>
      <trkpt lat="48.86302" lon="2.27379">
        <ele>84</ele>
        <time>2013-12-09T20:24:11.160Z</time>
      </trkpt>
      <trkpt lat="48.86296" lon="2.27371">
        <ele>84</ele>
        <time>2013-12-09T20:24:12.165Z</time>
      </trkpt>
      <trkpt lat="48.86289" lon="2.27375">
        <ele>82</ele>
        <time>2013-12-09T20:24:13.393Z</time>
      </trkpt>
      <trkpt lat="48.86286" lon="2.27382">
        <ele>83</ele>
        <time>2013-12-09T20:24:14.235Z</time>
      </trkpt>
      <trkpt lat="48.86281" lon="2.27389">
        <ele>84</ele>
        <time>2013-12-09T20:24:15.368Z</time>
      </trkpt>
      <trkpt lat="48.86276" lon="2.27391">
        <ele>82</ele>
        <time>2013-12-09T20:24:16.492Z</time>
      </trkpt>
      <trkpt lat="48.86271" lon="2.27392">
        <ele>84</ele>
        <time>2013-12-09T20:24:17.236Z</time>
      </trkpt>
      <trkpt lat="48.86265" lon="2.27391">
        <ele>86</ele>
        <time>2013-12-09T20:24:18.169Z</time>
      </trkpt>
      <trkpt lat="48.8626" lon="2.27389">
        <ele>87</ele>
        <time>2013-12-09T20:24:19.146Z</time>
      </trkpt>
      <trkpt lat="48.86253" lon="2.27382">
        <ele>87</ele>
        <time>2013-12-09T20:24:21.139Z</time>
      </trkpt>
      <trkpt lat="48.8625" lon="2.27378">
        <ele>89</ele>
        <time>2013-12-09T20:24:22.170Z</time>
      </trkpt>
      <trkpt lat="48.86244" lon="2.27369">
        <ele>93</ele>
        <time>2013-12-09T20:24:24.141Z</time>
      </trkpt>
      <trkpt lat="48.86242" lon="2.27365">
        <ele>93</ele>
        <time>2013-12-09T20:24:25.138Z</time>
      </trkpt>
      <trkpt lat="48.86236" lon="2.27358">
        <ele>93</ele>
        <time>2013-12-09T20:24:27.150Z</time>
      </trkpt>
      <trkpt lat="48.86233" lon="2.27354">
        <ele>94</ele>
        <time>2013-12-09T20:24:28.180Z</time>
      </trkpt>
      <trkpt lat="48.86228" lon="2.27347">
        <ele>95</ele>
        <time>2013-12-09T20:24:30.182Z</time>
      </trkpt>
      <trkpt lat="48.86226" lon="2.27344">
        <ele>94</ele>
        <time>2013-12-09T20:24:31.236Z</time>
      </trkpt>
      <trkpt lat="48.86223" lon="2.27337">
        <ele>94</ele>
        <time>2013-12-09T20:24:34.152Z</time>
      </trkpt>
      <trkpt lat="48.86221" lon="2.27329">
        <ele>95</ele>
        <time>2013-12-09T20:24:35.156Z</time>
      </trkpt>
      <trkpt lat="48.86218" lon="2.27318">
        <ele>95</ele>
        <time>2013-12-09T20:24:37.234Z</time>
      </trkpt>
      <trkpt lat="48.86218" lon="2.27313">
        <ele>97</ele>
        <time>2013-12-09T20:24:38.175Z</time>
      </trkpt>
      <trkpt lat="48.86218" lon="2.273">
        <ele>99</ele>
        <time>2013-12-09T20:24:41.138Z</time>
      </trkpt>
      <trkpt lat="48.86219" lon="2.27296">
        <ele>99</ele>
        <time>2013-12-09T20:24:42.143Z</time>
      </trkpt>
      <trkpt lat="48.86221" lon="2.27286">
        <ele>100</ele>
        <time>2013-12-09T20:24:46.130Z</time>
      </trkpt>
      <trkpt lat="48.86221" lon="2.27282">
        <ele>99</ele>
        <time>2013-12-09T20:24:46.162Z</time>
      </trkpt>
      <trkpt lat="48.86217" lon="2.27274">
        <ele>96</ele>
        <time>2013-12-09T20:24:49.238Z</time>
      </trkpt>
      <trkpt lat="48.86214" lon="2.27274">
        <ele>98</ele>
        <time>2013-12-09T20:24:50.163Z</time>
      </trkpt>
      <trkpt lat="48.86206" lon="2.27274">
        <ele>99</ele>
        <time>2013-12-09T20:24:52.170Z</time>
      </trkpt>
      <trkpt lat="48.86201" lon="2.27275">
        <ele>99</ele>
        <time>2013-12-09T20:24:53.230Z</time>
      </trkpt>
      <trkpt lat="48.86196" lon="2.27277">
        <ele>98</ele>
        <time>2013-12-09T20:24:54.239Z</time>
      </trkpt>
      <trkpt lat="48.86192" lon="2.27278">
        <ele>100</ele>
        <time>2013-12-09T20:24:55.170Z</time>
      </trkpt>
      <trkpt lat="48.86187" lon="2.2728">
        <ele>101</ele>
        <time>2013-12-09T20:24:56.211Z</time>
      </trkpt>
      <trkpt lat="48.86182" lon="2.27282">
        <ele>101</ele>
        <time>2013-12-09T20:24:57.236Z</time>
      </trkpt>
      <trkpt lat="48.86173" lon="2.27285">
        <ele>99</ele>
        <time>2013-12-09T20:24:59.283Z</time>
      </trkpt>
      <trkpt lat="48.8617" lon="2.27287">
        <ele>100</ele>
        <time>2013-12-09T20:25:00.147Z</time>
      </trkpt>
      <trkpt lat="48.86166" lon="2.2729">
        <ele>102</ele>
        <time>2013-12-09T20:25:01.242Z</time>
      </trkpt>
      <trkpt lat="48.86162" lon="2.27294">
        <ele>101</ele>
        <time>2013-12-09T20:25:02.178Z</time>
      </trkpt>
      <trkpt lat="48.86157" lon="2.27298">
        <ele>100</ele>
        <time>2013-12-09T20:25:03.246Z</time>
      </trkpt>
      <trkpt lat="48.86152" lon="2.27305">
        <ele>99</ele>
        <time>2013-12-09T20:25:04.235Z</time>
      </trkpt>
      <trkpt lat="48.86147" lon="2.2731">
        <ele>97</ele>
        <time>2013-12-09T20:25:05.179Z</time>
      </trkpt>
      <trkpt lat="48.86143" lon="2.27315">
        <ele>96</ele>
        <time>2013-12-09T20:25:06.173Z</time>
      </trkpt>
      <trkpt lat="48.86138" lon="2.2732">
        <ele>95</ele>
        <time>2013-12-09T20:25:07.178Z</time>
      </trkpt>
      <trkpt lat="48.86134" lon="2.27323">
        <ele>96</ele>
        <time>2013-12-09T20:25:08.253Z</time>
      </trkpt>
      <trkpt lat="48.8613" lon="2.27326">
        <ele>97</ele>
        <time>2013-12-09T20:25:09.237Z</time>
      </trkpt>
      <trkpt lat="48.86125" lon="2.27329">
        <ele>97</ele>
        <time>2013-12-09T20:25:10.180Z</time>
      </trkpt>
      <trkpt lat="48.8612" lon="2.27331">
        <ele>97</ele>
        <time>2013-12-09T20:25:11.232Z</time>
      </trkpt>
      <trkpt lat="48.86116" lon="2.27332">
        <ele>98</ele>
        <time>2013-12-09T20:25:12.179Z</time>
      </trkpt>
      <trkpt lat="48.86107" lon="2.27335">
        <ele>98</ele>
        <time>2013-12-09T20:25:14.239Z</time>
      </trkpt>
      <trkpt lat="48.86104" lon="2.27334">
        <ele>97</ele>
        <time>2013-12-09T20:25:15.156Z</time>
      </trkpt>
      <trkpt lat="48.86096" lon="2.27335">
        <ele>97</ele>
        <time>2013-12-09T20:25:17.153Z</time>
      </trkpt>
      <trkpt lat="48.86092" lon="2.27339">
        <ele>96</ele>
        <time>2013-12-09T20:25:18.233Z</time>
      </trkpt>
      <trkpt lat="48.86088" lon="2.27343">
        <ele>96</ele>
        <time>2013-12-09T20:25:19.235Z</time>
      </trkpt>
      <trkpt lat="48.86084" lon="2.27346">
        <ele>96</ele>
        <time>2013-12-09T20:25:20.179Z</time>
      </trkpt>
      <trkpt lat="48.86078" lon="2.27354">
        <ele>95</ele>
        <time>2013-12-09T20:25:22.173Z</time>
      </trkpt>
      <trkpt lat="48.86075" lon="2.27357">
        <ele>97</ele>
        <time>2013-12-09T20:25:23.233Z</time>
      </trkpt>
      <trkpt lat="48.86067" lon="2.27364">
        <ele>98</ele>
        <time>2013-12-09T20:25:26.243Z</time>
      </trkpt>
      <trkpt lat="48.86065" lon="2.27366">
        <ele>102</ele>
        <time>2013-12-09T20:25:27.154Z</time>
      </trkpt>
      <trkpt lat="48.86058" lon="2.27372">
        <ele>103</ele>
        <time>2013-12-09T20:25:30.157Z</time>
      </trkpt>
      <trkpt lat="48.86055" lon="2.27373">
        <ele>103</ele>
        <time>2013-12-09T20:25:31.158Z</time>
      </trkpt>
      <trkpt lat="48.86047" lon="2.27376">
        <ele>104</ele>
        <time>2013-12-09T20:25:34.230Z</time>
      </trkpt>
      <trkpt lat="48.86044" lon="2.27377">
        <ele>106</ele>
        <time>2013-12-09T20:25:35.169Z</time>
      </trkpt>
      <trkpt lat="48.86038" lon="2.27379">
        <ele>107</ele>
        <time>2013-12-09T20:25:37.228Z</time>
      </trkpt>
      <trkpt lat="48.86034" lon="2.2738">
        <ele>108</ele>
        <time>2013-12-09T20:25:38.229Z</time>
      </trkpt>
      <trkpt lat="48.86027" lon="2.2738">
        <ele>106</ele>
        <time>2013-12-09T20:25:40.153Z</time>
      </trkpt>
      <trkpt lat="48.86023" lon="2.27381">
        <ele>107</ele>
        <time>2013-12-09T20:25:41.206Z</time>
      </trkpt>
      <trkpt lat="48.86015" lon="2.27382">
        <ele>106</ele>
        <time>2013-12-09T20:25:43.174Z</time>
      </trkpt>
      <trkpt lat="48.8601" lon="2.27383">
        <ele>105</ele>
        <time>2013-12-09T20:25:44.166Z</time>
      </trkpt>
      <trkpt lat="48.86005" lon="2.27383">
        <ele>106</ele>
        <time>2013-12-09T20:25:45.143Z</time>
      </trkpt>
      <trkpt lat="48.86" lon="2.27383">
        <ele>107</ele>
        <time>2013-12-09T20:25:46.170Z</time>
      </trkpt>
      <trkpt lat="48.85995" lon="2.27383">
        <ele>110</ele>
        <time>2013-12-09T20:25:47.229Z</time>
      </trkpt>
      <trkpt lat="48.85991" lon="2.27383">
        <ele>111</ele>
        <time>2013-12-09T20:25:48.228Z</time>
      </trkpt>
      <trkpt lat="48.85986" lon="2.27383">
        <ele>113</ele>
        <time>2013-12-09T20:25:49.227Z</time>
      </trkpt>
      <trkpt lat="48.85981" lon="2.27383">
        <ele>115</ele>
        <time>2013-12-09T20:25:50.147Z</time>
      </trkpt>
      <trkpt lat="48.85977" lon="2.27384">
        <ele>115</ele>
        <time>2013-12-09T20:25:51.259Z</time>
      </trkpt>
      <trkpt lat="48.85972" lon="2.27384">
        <ele>116</ele>
        <time>2013-12-09T20:25:52.158Z</time>
      </trkpt>
      <trkpt lat="48.85964" lon="2.27385">
        <ele>117</ele>
        <time>2013-12-09T20:25:54.234Z</time>
      </trkpt>
      <trkpt lat="48.85959" lon="2.27385">
        <ele>117</ele>
        <time>2013-12-09T20:25:55.160Z</time>
      </trkpt>
      <trkpt lat="48.85955" lon="2.27385">
        <ele>116</ele>
        <time>2013-12-09T20:25:56.184Z</time>
      </trkpt>
      <trkpt lat="48.8595" lon="2.27385">
        <ele>117</ele>
        <time>2013-12-09T20:25:57.150Z</time>
      </trkpt>
      <trkpt lat="48.85945" lon="2.27383">
        <ele>115</ele>
        <time>2013-12-09T20:25:58.683Z</time>
      </trkpt>
      <trkpt lat="48.85941" lon="2.27381">
        <ele>115</ele>
        <time>2013-12-09T20:25:59.146Z</time>
      </trkpt>
      <trkpt lat="48.85936" lon="2.27378">
        <ele>116</ele>
        <time>2013-12-09T20:26:00.149Z</time>
      </trkpt>
      <trkpt lat="48.85932" lon="2.27375">
        <ele>117</ele>
        <time>2013-12-09T20:26:01.176Z</time>
      </trkpt>
      <trkpt lat="48.85927" lon="2.27372">
        <ele>118</ele>
        <time>2013-12-09T20:26:02.146Z</time>
      </trkpt>
      <trkpt lat="48.85923" lon="2.27368">
        <ele>118</ele>
        <time>2013-12-09T20:26:03.245Z</time>
      </trkpt>
      <trkpt lat="48.85918" lon="2.27364">
        <ele>117</ele>
        <time>2013-12-09T20:26:04.229Z</time>
      </trkpt>
      <trkpt lat="48.85914" lon="2.2736">
        <ele>119</ele>
        <time>2013-12-09T20:26:05.440Z</time>
      </trkpt>
      <trkpt lat="48.85907" lon="2.27354">
        <ele>117</ele>
        <time>2013-12-09T20:26:08.218Z</time>
      </trkpt>
      <trkpt lat="48.85904" lon="2.27351">
        <ele>114</ele>
        <time>2013-12-09T20:26:08.458Z</time>
      </trkpt>
      <trkpt lat="48.85898" lon="2.27343">
        <ele>112</ele>
        <time>2013-12-09T20:26:10.406Z</time>
      </trkpt>
      <trkpt lat="48.85895" lon="2.27339">
        <ele>112</ele>
        <time>2013-12-09T20:26:11.236Z</time>
      </trkpt>
      <trkpt lat="48.85891" lon="2.27334">
        <ele>113</ele>
        <time>2013-12-09T20:26:12.203Z</time>
      </trkpt>
      <trkpt lat="48.85887" lon="2.2733">
        <ele>111</ele>
        <time>2013-12-09T20:26:13.172Z</time>
      </trkpt>
      <trkpt lat="48.85883" lon="2.27326">
        <ele>109</ele>
        <time>2013-12-09T20:26:14.206Z</time>
      </trkpt>
      <trkpt lat="48.85879" lon="2.27322">
        <ele>108</ele>
        <time>2013-12-09T20:26:15.165Z</time>
      </trkpt>
      <trkpt lat="48.85875" lon="2.27318">
        <ele>107</ele>
        <time>2013-12-09T20:26:16.138Z</time>
      </trkpt>
      <trkpt lat="48.85871" lon="2.27314">
        <ele>106</ele>
        <time>2013-12-09T20:26:17.162Z</time>
      </trkpt>
      <trkpt lat="48.85865" lon="2.27307">
        <ele>110</ele>
        <time>2013-12-09T20:26:19.163Z</time>
      </trkpt>
      <trkpt lat="48.85862" lon="2.27303">
        <ele>109</ele>
        <time>2013-12-09T20:26:20.164Z</time>
      </trkpt>
      <trkpt lat="48.85858" lon="2.27296">
        <ele>109</ele>
        <time>2013-12-09T20:26:22.148Z</time>
      </trkpt>
      <trkpt lat="48.85855" lon="2.27293">
        <ele>108</ele>
        <time>2013-12-09T20:26:23.168Z</time>
      </trkpt>
      <trkpt lat="48.85848" lon="2.27285">
        <ele>109</ele>
        <time>2013-12-09T20:26:26.238Z</time>
      </trkpt>
      <trkpt lat="48.85846" lon="2.27283">
        <ele>109</ele>
        <time>2013-12-09T20:26:27.177Z</time>
      </trkpt>
      <trkpt lat="48.85839" lon="2.27274">
        <ele>106</ele>
        <time>2013-12-09T20:26:30.176Z</time>
      </trkpt>
      <trkpt lat="48.85837" lon="2.27272">
        <ele>107</ele>
        <time>2013-12-09T20:26:31.173Z</time>
      </trkpt>
      <trkpt lat="48.85831" lon="2.27262">
        <ele>105</ele>
        <time>2013-12-09T20:26:34.574Z</time>
      </trkpt>
      <trkpt lat="48.8583" lon="2.27259">
        <ele>105</ele>
        <time>2013-12-09T20:26:35.512Z</time>
      </trkpt>
      <trkpt lat="48.85822" lon="2.27252">
        <ele>104</ele>
        <time>2013-12-09T20:26:38.387Z</time>
      </trkpt>
      <trkpt lat="48.8582" lon="2.27251">
        <ele>104</ele>
        <time>2013-12-09T20:26:39.141Z</time>
      </trkpt>
      <trkpt lat="48.85812" lon="2.27249">
        <ele>102</ele>
        <time>2013-12-09T20:26:42.180Z</time>
      </trkpt>
      <trkpt lat="48.8581" lon="2.27249">
        <ele>102</ele>
        <time>2013-12-09T20:26:43.175Z</time>
      </trkpt>
      <trkpt lat="48.85804" lon="2.27249">
        <ele>101</ele>
        <time>2013-12-09T20:26:45.141Z</time>
      </trkpt>
      <trkpt lat="48.85801" lon="2.2725">
        <ele>101</ele>
        <time>2013-12-09T20:26:46.200Z</time>
      </trkpt>
      <trkpt lat="48.85792" lon="2.2725">
        <ele>101</ele>
        <time>2013-12-09T20:26:48.455Z</time>
      </trkpt>
      <trkpt lat="48.85787" lon="2.27251">
        <ele>99</ele>
        <time>2013-12-09T20:26:49.180Z</time>
      </trkpt>
      <trkpt lat="48.85783" lon="2.27252">
        <ele>98</ele>
        <time>2013-12-09T20:26:50.185Z</time>
      </trkpt>
      <trkpt lat="48.85778" lon="2.27255">
        <ele>98</ele>
        <time>2013-12-09T20:26:51.182Z</time>
      </trkpt>
      <trkpt lat="48.85771" lon="2.27262">
        <ele>96</ele>
        <time>2013-12-09T20:26:53.173Z</time>
      </trkpt>
      <trkpt lat="48.85768" lon="2.27266">
        <ele>96</ele>
        <time>2013-12-09T20:26:54.176Z</time>
      </trkpt>
      <trkpt lat="48.85763" lon="2.27276">
        <ele>88</ele>
        <time>2013-12-09T20:26:57.175Z</time>
      </trkpt>
      <trkpt lat="48.85761" lon="2.27277">
        <ele>86</ele>
        <time>2013-12-09T20:26:58.175Z</time>
      </trkpt>
      <trkpt lat="48.85756" lon="2.27281">
        <ele>96</ele>
        <time>2013-12-09T20:27:05.907Z</time>
      </trkpt>
      <trkpt lat="48.85752" lon="2.27286">
        <ele>98</ele>
        <time>2013-12-09T20:27:06.939Z</time>
      </trkpt>
      <trkpt lat="48.85747" lon="2.27293">
        <ele>99</ele>
        <time>2013-12-09T20:27:08.424Z</time>
      </trkpt>
      <trkpt lat="48.85743" lon="2.27301">
        <ele>97</ele>
        <time>2013-12-09T20:27:08.689Z</time>
      </trkpt>
      <trkpt lat="48.85737" lon="2.2731">
        <ele>98</ele>
        <time>2013-12-09T20:27:09.837Z</time>
      </trkpt>
      <trkpt lat="48.85734" lon="2.27318">
        <ele>98</ele>
        <time>2013-12-09T20:27:10.690Z</time>
      </trkpt>
      <trkpt lat="48.85731" lon="2.27324">
        <ele>96</ele>
        <time>2013-12-09T20:27:11.255Z</time>
      </trkpt>
      <trkpt lat="48.85726" lon="2.27333">
        <ele>95</ele>
        <time>2013-12-09T20:27:12.173Z</time>
      </trkpt>
      <trkpt lat="48.85722" lon="2.27342">
        <ele>96</ele>
        <time>2013-12-09T20:27:13.234Z</time>
      </trkpt>
      <trkpt lat="48.85718" lon="2.27349">
        <ele>98</ele>
        <time>2013-12-09T20:27:14.233Z</time>
      </trkpt>
      <trkpt lat="48.85714" lon="2.27355">
        <ele>99</ele>
        <time>2013-12-09T20:27:15.229Z</time>
      </trkpt>
      <trkpt lat="48.85711" lon="2.27362">
        <ele>94</ele>
        <time>2013-12-09T20:27:16.245Z</time>
      </trkpt>
      <trkpt lat="48.85708" lon="2.27367">
        <ele>95</ele>
        <time>2013-12-09T20:27:17.604Z</time>
      </trkpt>
      <trkpt lat="48.85705" lon="2.27373">
        <ele>95</ele>
        <time>2013-12-09T20:27:18.239Z</time>
      </trkpt>
      <trkpt lat="48.85702" lon="2.27379">
        <ele>95</ele>
        <time>2013-12-09T20:27:19.231Z</time>
      </trkpt>
      <trkpt lat="48.857" lon="2.27384">
        <ele>94</ele>
        <time>2013-12-09T20:27:20.230Z</time>
      </trkpt>
      <trkpt lat="48.85696" lon="2.27395">
        <ele>91</ele>
        <time>2013-12-09T20:27:22.575Z</time>
      </trkpt>
      <trkpt lat="48.85693" lon="2.274">
        <ele>91</ele>
        <time>2013-12-09T20:27:23.229Z</time>
      </trkpt>
      <trkpt lat="48.85688" lon="2.27409">
        <ele>91</ele>
        <time>2013-12-09T20:27:25.231Z</time>
      </trkpt>
      <trkpt lat="48.85685" lon="2.27414">
        <ele>91</ele>
        <time>2013-12-09T20:27:26.229Z</time>
      </trkpt>
      <trkpt lat="48.8568" lon="2.27423">
        <ele>92</ele>
        <time>2013-12-09T20:27:28.238Z</time>
      </trkpt>
      <trkpt lat="48.85678" lon="2.27428">
        <ele>92</ele>
        <time>2013-12-09T20:27:29.248Z</time>
      </trkpt>
      <trkpt lat="48.85674" lon="2.27439">
        <ele>89</ele>
        <time>2013-12-09T20:27:31.238Z</time>
      </trkpt>
      <trkpt lat="48.85671" lon="2.27444">
        <ele>91</ele>
        <time>2013-12-09T20:27:32.142Z</time>
      </trkpt>
      <trkpt lat="48.85666" lon="2.27453">
        <ele>90</ele>
        <time>2013-12-09T20:27:34.241Z</time>
      </trkpt>
      <trkpt lat="48.85663" lon="2.27456">
        <ele>89</ele>
        <time>2013-12-09T20:27:35.231Z</time>
      </trkpt>
      <trkpt lat="48.85658" lon="2.27461">
        <ele>90</ele>
        <time>2013-12-09T20:27:37.624Z</time>
      </trkpt>
      <trkpt lat="48.85655" lon="2.27463">
        <ele>90</ele>
        <time>2013-12-09T20:27:38.242Z</time>
      </trkpt>
      <trkpt lat="48.8565" lon="2.27467">
        <ele>90</ele>
        <time>2013-12-09T20:27:40.238Z</time>
      </trkpt>
      <trkpt lat="48.85647" lon="2.27469">
        <ele>91</ele>
        <time>2013-12-09T20:27:41.235Z</time>
      </trkpt>
      <trkpt lat="48.85641" lon="2.27472">
        <ele>91</ele>
        <time>2013-12-09T20:27:43.238Z</time>
      </trkpt>
      <trkpt lat="48.85638" lon="2.27474">
        <ele>91</ele>
        <time>2013-12-09T20:27:44.231Z</time>
      </trkpt>
      <trkpt lat="48.85638" lon="2.27474">
        <ele>91</ele>
        <time>2013-12-09T20:27:54.263Z</time>
      </trkpt>
      <trkpt lat="48.85607" lon="2.27518">
        <ele>90</ele>
        <time>2013-12-09T20:27:56.011Z</time>
      </trkpt>
      <trkpt lat="48.85601" lon="2.27524">
        <ele>87</ele>
        <time>2013-12-09T20:27:59.321Z</time>
      </trkpt>
      <trkpt lat="48.85599" lon="2.27526">
        <ele>88</ele>
        <time>2013-12-09T20:28:00.038Z</time>
      </trkpt>
      <trkpt lat="48.85594" lon="2.27535">
        <ele>91</ele>
        <time>2013-12-09T20:28:02.980Z</time>
      </trkpt>
      <trkpt lat="48.85592" lon="2.27539">
        <ele>89</ele>
        <time>2013-12-09T20:28:03.981Z</time>
      </trkpt>
      <trkpt lat="48.85588" lon="2.27547">
        <ele>89</ele>
        <time>2013-12-09T20:28:05.955Z</time>
      </trkpt>
      <trkpt lat="48.85587" lon="2.27552">
        <ele>90</ele>
        <time>2013-12-09T20:28:06.983Z</time>
      </trkpt>
      <trkpt lat="48.85585" lon="2.27563">
        <ele>91</ele>
        <time>2013-12-09T20:28:08.262Z</time>
      </trkpt>
      <trkpt lat="48.85583" lon="2.27572">
        <ele>91</ele>
        <time>2013-12-09T20:28:09.273Z</time>
      </trkpt>
      <trkpt lat="48.85582" lon="2.27581">
        <ele>91</ele>
        <time>2013-12-09T20:28:10.318Z</time>
      </trkpt>
      <trkpt lat="48.8558" lon="2.2759">
        <ele>91</ele>
        <time>2013-12-09T20:28:11.261Z</time>
      </trkpt>
      <trkpt lat="48.85578" lon="2.27598">
        <ele>91</ele>
        <time>2013-12-09T20:28:12.262Z</time>
      </trkpt>
      <trkpt lat="48.85576" lon="2.27605">
        <ele>92</ele>
        <time>2013-12-09T20:28:13.262Z</time>
      </trkpt>
      <trkpt lat="48.85573" lon="2.27615">
        <ele>92</ele>
        <time>2013-12-09T20:28:15.260Z</time>
      </trkpt>
      <trkpt lat="48.85571" lon="2.27618">
        <ele>94</ele>
        <time>2013-12-09T20:28:16.231Z</time>
      </trkpt>
      <trkpt lat="48.85566" lon="2.27628">
        <ele>94</ele>
        <time>2013-12-09T20:28:20.451Z</time>
      </trkpt>
      <trkpt lat="48.85565" lon="2.2763">
        <ele>92</ele>
        <time>2013-12-09T20:28:21.374Z</time>
      </trkpt>
      <trkpt lat="48.8556" lon="2.27639">
        <ele>91</ele>
        <time>2013-12-09T20:28:24.383Z</time>
      </trkpt>
      <trkpt lat="48.85557" lon="2.27643">
        <ele>90</ele>
        <time>2013-12-09T20:28:25.390Z</time>
      </trkpt>
      <trkpt lat="48.85553" lon="2.27647">
        <ele>90</ele>
        <time>2013-12-09T20:28:26.236Z</time>
      </trkpt>
      <trkpt lat="48.8555" lon="2.27651">
        <ele>91</ele>
        <time>2013-12-09T20:28:27.241Z</time>
      </trkpt>
      <trkpt lat="48.85546" lon="2.27656">
        <ele>92</ele>
        <time>2013-12-09T20:28:28.163Z</time>
      </trkpt>
      <trkpt lat="48.85542" lon="2.27661">
        <ele>93</ele>
        <time>2013-12-09T20:28:29.169Z</time>
      </trkpt>
      <trkpt lat="48.85538" lon="2.27666">
        <ele>93</ele>
        <time>2013-12-09T20:28:30.229Z</time>
      </trkpt>
      <trkpt lat="48.85534" lon="2.27671">
        <ele>93</ele>
        <time>2013-12-09T20:28:31.230Z</time>
      </trkpt>
      <trkpt lat="48.85531" lon="2.27676">
        <ele>95</ele>
        <time>2013-12-09T20:28:32.229Z</time>
      </trkpt>
      <trkpt lat="48.85527" lon="2.27681">
        <ele>97</ele>
        <time>2013-12-09T20:28:33.171Z</time>
      </trkpt>
      <trkpt lat="48.85524" lon="2.27687">
        <ele>96</ele>
        <time>2013-12-09T20:28:34.365Z</time>
      </trkpt>
      <trkpt lat="48.85521" lon="2.27692">
        <ele>95</ele>
        <time>2013-12-09T20:28:35.140Z</time>
      </trkpt>
      <trkpt lat="48.85515" lon="2.277">
        <ele>96</ele>
        <time>2013-12-09T20:28:37.161Z</time>
      </trkpt>
      <trkpt lat="48.85512" lon="2.27704">
        <ele>96</ele>
        <time>2013-12-09T20:28:38.179Z</time>
      </trkpt>
      <trkpt lat="48.85507" lon="2.27709">
        <ele>97</ele>
        <time>2013-12-09T20:28:40.298Z</time>
      </trkpt>
      <trkpt lat="48.85504" lon="2.27712">
        <ele>96</ele>
        <time>2013-12-09T20:28:41.172Z</time>
      </trkpt>
      <trkpt lat="48.85496" lon="2.2772">
        <ele>100</ele>
        <time>2013-12-09T20:28:43.235Z</time>
      </trkpt>
      <trkpt lat="48.85493" lon="2.27723">
        <ele>100</ele>
        <time>2013-12-09T20:28:44.173Z</time>
      </trkpt>
      <trkpt lat="48.85488" lon="2.27727">
        <ele>99</ele>
        <time>2013-12-09T20:28:45.306Z</time>
      </trkpt>
      <trkpt lat="48.85484" lon="2.27731">
        <ele>99</ele>
        <time>2013-12-09T20:28:46.233Z</time>
      </trkpt>
      <trkpt lat="48.85479" lon="2.27734">
        <ele>101</ele>
        <time>2013-12-09T20:28:47.233Z</time>
      </trkpt>
      <trkpt lat="48.85475" lon="2.27737">
        <ele>104</ele>
        <time>2013-12-09T20:28:48.230Z</time>
      </trkpt>
      <trkpt lat="48.85468" lon="2.27744">
        <ele>106</ele>
        <time>2013-12-09T20:28:50.356Z</time>
      </trkpt>
      <trkpt lat="48.85464" lon="2.27747">
        <ele>106</ele>
        <time>2013-12-09T20:28:51.153Z</time>
      </trkpt>
      <trkpt lat="48.85458" lon="2.27754">
        <ele>107</ele>
        <time>2013-12-09T20:28:53.238Z</time>
      </trkpt>
      <trkpt lat="48.85455" lon="2.27758">
        <ele>106</ele>
        <time>2013-12-09T20:28:54.179Z</time>
      </trkpt>
      <trkpt lat="48.8545" lon="2.27765">
        <ele>107</ele>
        <time>2013-12-09T20:28:56.177Z</time>
      </trkpt>
      <trkpt lat="48.85448" lon="2.27769">
        <ele>108</ele>
        <time>2013-12-09T20:28:57.182Z</time>
      </trkpt>
      <trkpt lat="48.85441" lon="2.27776">
        <ele>108</ele>
        <time>2013-12-09T20:29:00.474Z</time>
      </trkpt>
      <trkpt lat="48.8544" lon="2.27779">
        <ele>106</ele>
        <time>2013-12-09T20:29:01.179Z</time>
      </trkpt>
      <trkpt lat="48.85434" lon="2.27788">
        <ele>104</ele>
        <time>2013-12-09T20:29:04.144Z</time>
      </trkpt>
      <trkpt lat="48.85432" lon="2.2779">
        <ele>103</ele>
        <time>2013-12-09T20:29:05.173Z</time>
      </trkpt>
      <trkpt lat="48.85426" lon="2.27796">
        <ele>103</ele>
        <time>2013-12-09T20:29:08.169Z</time>
      </trkpt>
      <trkpt lat="48.85425" lon="2.27799">
        <ele>98</ele>
        <time>2013-12-09T20:29:09.224Z</time>
      </trkpt>
      <trkpt lat="48.8543" lon="2.27809">
        <ele>92</ele>
        <time>2013-12-09T20:29:12.176Z</time>
      </trkpt>
      <trkpt lat="48.85432" lon="2.27812">
        <ele>92</ele>
        <time>2013-12-09T20:29:13.171Z</time>
      </trkpt>
      <trkpt lat="48.85437" lon="2.27823">
        <ele>93</ele>
        <time>2013-12-09T20:29:26.403Z</time>
      </trkpt>
      <trkpt lat="48.85437" lon="2.27823">
        <ele>93</ele>
        <time>2013-12-09T20:29:27.485Z</time>
      </trkpt>
      <trkpt lat="48.85436" lon="2.27823">
        <ele>94</ele>
        <time>2013-12-09T20:29:28.475Z</time>
      </trkpt>
      <trkpt lat="48.85436" lon="2.27823">
        <ele>91</ele>
        <time>2013-12-09T20:29:29.236Z</time>
      </trkpt>
      <trkpt lat="48.85429" lon="2.2782">
        <ele>94</ele>
        <time>2013-12-09T20:29:34.231Z</time>
      </trkpt>
      <trkpt lat="48.85427" lon="2.27819">
        <ele>94</ele>
        <time>2013-12-09T20:29:35.181Z</time>
      </trkpt>
      <trkpt lat="48.85421" lon="2.27813">
        <ele>95</ele>
        <time>2013-12-09T20:29:37.264Z</time>
      </trkpt>
      <trkpt lat="48.85418" lon="2.2781">
        <ele>94</ele>
        <time>2013-12-09T20:29:38.230Z</time>
      </trkpt>
      <trkpt lat="48.85411" lon="2.27802">
        <ele>93</ele>
        <time>2013-12-09T20:29:40.737Z</time>
      </trkpt>
      <trkpt lat="48.85407" lon="2.27797">
        <ele>96</ele>
        <time>2013-12-09T20:29:41.237Z</time>
      </trkpt>
      <trkpt lat="48.85402" lon="2.27791">
        <ele>98</ele>
        <time>2013-12-09T20:29:42.245Z</time>
      </trkpt>
      <trkpt lat="48.85397" lon="2.27785">
        <ele>98</ele>
        <time>2013-12-09T20:29:43.236Z</time>
      </trkpt>
      <trkpt lat="48.85392" lon="2.27778">
        <ele>99</ele>
        <time>2013-12-09T20:29:44.557Z</time>
      </trkpt>
      <trkpt lat="48.85389" lon="2.27773">
        <ele>97</ele>
        <time>2013-12-09T20:29:45.546Z</time>
      </trkpt>
      <trkpt lat="48.85382" lon="2.27764">
        <ele>99</ele>
        <time>2013-12-09T20:29:47.236Z</time>
      </trkpt>
      <trkpt lat="48.85379" lon="2.27758">
        <ele>100</ele>
        <time>2013-12-09T20:29:48.230Z</time>
      </trkpt>
      <trkpt lat="48.85376" lon="2.27746">
        <ele>95</ele>
        <time>2013-12-09T20:29:53.235Z</time>
      </trkpt>
      <trkpt lat="48.85375" lon="2.27745">
        <ele>96</ele>
        <time>2013-12-09T20:29:54.235Z</time>
      </trkpt>
      <trkpt lat="48.85369" lon="2.27738">
        <ele>94</ele>
        <time>2013-12-09T20:29:58.230Z</time>
      </trkpt>
      <trkpt lat="48.85366" lon="2.27735">
        <ele>95</ele>
        <time>2013-12-09T20:29:59.231Z</time>
      </trkpt>
      <trkpt lat="48.8536" lon="2.27726">
        <ele>94</ele>
        <time>2013-12-09T20:30:01.162Z</time>
      </trkpt>
      <trkpt lat="48.85356" lon="2.27717">
        <ele>93</ele>
        <time>2013-12-09T20:30:02.165Z</time>
      </trkpt>
      <trkpt lat="48.8535" lon="2.27709">
        <ele>93</ele>
        <time>2013-12-09T20:30:03.239Z</time>
      </trkpt>
      <trkpt lat="48.85344" lon="2.27699">
        <ele>95</ele>
        <time>2013-12-09T20:30:04.921Z</time>
      </trkpt>
      <trkpt lat="48.85341" lon="2.27695">
        <ele>95</ele>
        <time>2013-12-09T20:30:05.560Z</time>
      </trkpt>
      <trkpt lat="48.85337" lon="2.27688">
        <ele>96</ele>
        <time>2013-12-09T20:30:06.487Z</time>
      </trkpt>
      <trkpt lat="48.8533" lon="2.27681">
        <ele>96</ele>
        <time>2013-12-09T20:30:07.459Z</time>
      </trkpt>
      <trkpt lat="48.85324" lon="2.27674">
        <ele>95</ele>
        <time>2013-12-09T20:30:08.487Z</time>
      </trkpt>
      <trkpt lat="48.85319" lon="2.27664">
        <ele>94</ele>
        <time>2013-12-09T20:30:09.516Z</time>
      </trkpt>
      <trkpt lat="48.85314" lon="2.27657">
        <ele>92</ele>
        <time>2013-12-09T20:30:10.504Z</time>
      </trkpt>
      <trkpt lat="48.85309" lon="2.27649">
        <ele>92</ele>
        <time>2013-12-09T20:30:11.466Z</time>
      </trkpt>
      <trkpt lat="48.85305" lon="2.27642">
        <ele>94</ele>
        <time>2013-12-09T20:30:12.529Z</time>
      </trkpt>
      <trkpt lat="48.85301" lon="2.27635">
        <ele>94</ele>
        <time>2013-12-09T20:30:13.543Z</time>
      </trkpt>
      <trkpt lat="48.85297" lon="2.27629">
        <ele>93</ele>
        <time>2013-12-09T20:30:14.459Z</time>
      </trkpt>
      <trkpt lat="48.85293" lon="2.27623">
        <ele>94</ele>
        <time>2013-12-09T20:30:15.458Z</time>
      </trkpt>
      <trkpt lat="48.85289" lon="2.27617">
        <ele>94</ele>
        <time>2013-12-09T20:30:16.459Z</time>
      </trkpt>
      <trkpt lat="48.85284" lon="2.27607">
        <ele>93</ele>
        <time>2013-12-09T20:30:18.591Z</time>
      </trkpt>
      <trkpt lat="48.85282" lon="2.27604">
        <ele>93</ele>
        <time>2013-12-09T20:30:19.473Z</time>
      </trkpt>
      <trkpt lat="48.85285" lon="2.27591">
        <ele>86</ele>
        <time>2013-12-09T20:30:37.233Z</time>
      </trkpt>
      <trkpt lat="48.85285" lon="2.27591">
        <ele>86</ele>
        <time>2013-12-09T20:30:38.233Z</time>
      </trkpt>
      <trkpt lat="48.85285" lon="2.27591">
        <ele>86</ele>
        <time>2013-12-09T20:30:40.229Z</time>
      </trkpt>
      <trkpt lat="48.85285" lon="2.27591">
        <ele>86</ele>
        <time>2013-12-09T20:30:41.438Z</time>
      </trkpt>
      <trkpt lat="48.85285" lon="2.2759">
        <ele>87</ele>
        <time>2013-12-09T20:32:02.128Z</time>
      </trkpt>
      <trkpt lat="48.85285" lon="2.27589">
        <ele>85</ele>
        <time>2013-12-09T20:32:03.162Z</time>
      </trkpt>
      <trkpt lat="48.85283" lon="2.27577">
        <ele>78</ele>
        <time>2013-12-09T20:32:06.160Z</time>
      </trkpt>
      <trkpt lat="48.85281" lon="2.27572">
        <ele>78</ele>
        <time>2013-12-09T20:32:07.160Z</time>
      </trkpt>
      <trkpt lat="48.85277" lon="2.27562">
        <ele>76</ele>
        <time>2013-12-09T20:32:09.370Z</time>
      </trkpt>
      <trkpt lat="48.85274" lon="2.27558">
        <ele>77</ele>
        <time>2013-12-09T20:32:10.127Z</time>
      </trkpt>
      <trkpt lat="48.85271" lon="2.27552">
        <ele>78</ele>
        <time>2013-12-09T20:32:11.230Z</time>
      </trkpt>
      <trkpt lat="48.85268" lon="2.27547">
        <ele>79</ele>
        <time>2013-12-09T20:32:12.237Z</time>
      </trkpt>
      <trkpt lat="48.85264" lon="2.27542">
        <ele>76</ele>
        <time>2013-12-09T20:32:14.482Z</time>
      </trkpt>
      <trkpt lat="48.85258" lon="2.27533">
        <ele>82</ele>
        <time>2013-12-09T20:32:15.244Z</time>
      </trkpt>
      <trkpt lat="48.85254" lon="2.27527">
        <ele>83</ele>
        <time>2013-12-09T20:32:16.234Z</time>
      </trkpt>
      <trkpt lat="48.85247" lon="2.27519">
        <ele>82</ele>
        <time>2013-12-09T20:32:17.247Z</time>
      </trkpt>
      <trkpt lat="48.85242" lon="2.27512">
        <ele>81</ele>
        <time>2013-12-09T20:32:18.153Z</time>
      </trkpt>
      <trkpt lat="48.85237" lon="2.27504">
        <ele>81</ele>
        <time>2013-12-09T20:32:19.149Z</time>
      </trkpt>
      <trkpt lat="48.85231" lon="2.27495">
        <ele>82</ele>
        <time>2013-12-09T20:32:20.239Z</time>
      </trkpt>
      <trkpt lat="48.85227" lon="2.27489">
        <ele>82</ele>
        <time>2013-12-09T20:32:21.231Z</time>
      </trkpt>
      <trkpt lat="48.85222" lon="2.27483">
        <ele>82</ele>
        <time>2013-12-09T20:32:22.230Z</time>
      </trkpt>
      <trkpt lat="48.85219" lon="2.27476">
        <ele>81</ele>
        <time>2013-12-09T20:32:23.237Z</time>
      </trkpt>
      <trkpt lat="48.85217" lon="2.2747">
        <ele>82</ele>
        <time>2013-12-09T20:32:24.557Z</time>
      </trkpt>
      <trkpt lat="48.85214" lon="2.27462">
        <ele>83</ele>
        <time>2013-12-09T20:32:25.257Z</time>
      </trkpt>
      <trkpt lat="48.85212" lon="2.27456">
        <ele>83</ele>
        <time>2013-12-09T20:32:26.235Z</time>
      </trkpt>
      <trkpt lat="48.85209" lon="2.2745">
        <ele>82</ele>
        <time>2013-12-09T20:32:27.236Z</time>
      </trkpt>
      <trkpt lat="48.85205" lon="2.27445">
        <ele>82</ele>
        <time>2013-12-09T20:32:28.237Z</time>
      </trkpt>
      <trkpt lat="48.85202" lon="2.2744">
        <ele>83</ele>
        <time>2013-12-09T20:32:29.174Z</time>
      </trkpt>
      <trkpt lat="48.85199" lon="2.27434">
        <ele>81</ele>
        <time>2013-12-09T20:32:30.240Z</time>
      </trkpt>
      <trkpt lat="48.85196" lon="2.27429">
        <ele>82</ele>
        <time>2013-12-09T20:32:31.231Z</time>
      </trkpt>
      <trkpt lat="48.85192" lon="2.27418">
        <ele>80</ele>
        <time>2013-12-09T20:32:33.239Z</time>
      </trkpt>
      <trkpt lat="48.8519" lon="2.27414">
        <ele>80</ele>
        <time>2013-12-09T20:32:34.145Z</time>
      </trkpt>
      <trkpt lat="48.85187" lon="2.27408">
        <ele>79</ele>
        <time>2013-12-09T20:32:35.231Z</time>
      </trkpt>
      <trkpt lat="48.85185" lon="2.27402">
        <ele>79</ele>
        <time>2013-12-09T20:32:36.236Z</time>
      </trkpt>
      <trkpt lat="48.85183" lon="2.27396">
        <ele>78</ele>
        <time>2013-12-09T20:32:37.240Z</time>
      </trkpt>
      <trkpt lat="48.8518" lon="2.2739">
        <ele>79</ele>
        <time>2013-12-09T20:32:38.240Z</time>
      </trkpt>
      <trkpt lat="48.85175" lon="2.2738">
        <ele>77</ele>
        <time>2013-12-09T20:32:40.182Z</time>
      </trkpt>
      <trkpt lat="48.85172" lon="2.27375">
        <ele>76</ele>
        <time>2013-12-09T20:32:41.157Z</time>
      </trkpt>
      <trkpt lat="48.85169" lon="2.27367">
        <ele>77</ele>
        <time>2013-12-09T20:32:44.103Z</time>
      </trkpt>
      <trkpt lat="48.85167" lon="2.27364">
        <ele>76</ele>
        <time>2013-12-09T20:32:44.144Z</time>
      </trkpt>
      <trkpt lat="48.85163" lon="2.27357">
        <ele>77</ele>
        <time>2013-12-09T20:32:46.149Z</time>
      </trkpt>
      <trkpt lat="48.8516" lon="2.27354">
        <ele>77</ele>
        <time>2013-12-09T20:32:47.231Z</time>
      </trkpt>
      <trkpt lat="48.85156" lon="2.27344">
        <ele>77</ele>
        <time>2013-12-09T20:32:49.161Z</time>
      </trkpt>
      <trkpt lat="48.85153" lon="2.27338">
        <ele>77</ele>
        <time>2013-12-09T20:32:50.151Z</time>
      </trkpt>
      <trkpt lat="48.85151" lon="2.27332">
        <ele>77</ele>
        <time>2013-12-09T20:32:51.144Z</time>
      </trkpt>
      <trkpt lat="48.85147" lon="2.27324">
        <ele>76</ele>
        <time>2013-12-09T20:32:52.828Z</time>
      </trkpt>
      <trkpt lat="48.85143" lon="2.27312">
        <ele>74</ele>
        <time>2013-12-09T20:32:54.481Z</time>
      </trkpt>
      <trkpt lat="48.85142" lon="2.27305">
        <ele>73</ele>
        <time>2013-12-09T20:32:55.230Z</time>
      </trkpt>
      <trkpt lat="48.85139" lon="2.27298">
        <ele>71</ele>
        <time>2013-12-09T20:32:56.146Z</time>
      </trkpt>
      <trkpt lat="48.85137" lon="2.27291">
        <ele>68</ele>
        <time>2013-12-09T20:32:57.231Z</time>
      </trkpt>
      <trkpt lat="48.85134" lon="2.27279">
        <ele>66</ele>
        <time>2013-12-09T20:32:59.180Z</time>
      </trkpt>
      <trkpt lat="48.85132" lon="2.27272">
        <ele>66</ele>
        <time>2013-12-09T20:33:00.145Z</time>
      </trkpt>
      <trkpt lat="48.8513" lon="2.27265">
        <ele>67</ele>
        <time>2013-12-09T20:33:01.146Z</time>
      </trkpt>
      <trkpt lat="48.85128" lon="2.27257">
        <ele>66</ele>
        <time>2013-12-09T20:33:02.166Z</time>
      </trkpt>
      <trkpt lat="48.85125" lon="2.27249">
        <ele>66</ele>
        <time>2013-12-09T20:33:03.292Z</time>
      </trkpt>
      <trkpt lat="48.85122" lon="2.27244">
        <ele>66</ele>
        <time>2013-12-09T20:33:04.189Z</time>
      </trkpt>
      <trkpt lat="48.85118" lon="2.27237">
        <ele>65</ele>
        <time>2013-12-09T20:33:05.529Z</time>
      </trkpt>
      <trkpt lat="48.85116" lon="2.27233">
        <ele>66</ele>
        <time>2013-12-09T20:33:06.559Z</time>
      </trkpt>
      <trkpt lat="48.85113" lon="2.27227">
        <ele>66</ele>
        <time>2013-12-09T20:33:07.557Z</time>
      </trkpt>
      <trkpt lat="48.8511" lon="2.27221">
        <ele>66</ele>
        <time>2013-12-09T20:33:08.560Z</time>
      </trkpt>
      <trkpt lat="48.85107" lon="2.27215">
        <ele>69</ele>
        <time>2013-12-09T20:33:09.565Z</time>
      </trkpt>
      <trkpt lat="48.85103" lon="2.27209">
        <ele>71</ele>
        <time>2013-12-09T20:33:10.557Z</time>
      </trkpt>
      <trkpt lat="48.851" lon="2.27203">
        <ele>70</ele>
        <time>2013-12-09T20:33:11.554Z</time>
      </trkpt>
      <trkpt lat="48.85097" lon="2.27197">
        <ele>71</ele>
        <time>2013-12-09T20:33:12.229Z</time>
      </trkpt>
      <trkpt lat="48.85094" lon="2.2719">
        <ele>73</ele>
        <time>2013-12-09T20:33:13.146Z</time>
      </trkpt>
      <trkpt lat="48.85091" lon="2.27186">
        <ele>68</ele>
        <time>2013-12-09T20:33:14.146Z</time>
      </trkpt>
      <trkpt lat="48.85084" lon="2.27181">
        <ele>69</ele>
        <time>2013-12-09T20:33:17.172Z</time>
      </trkpt>
      <trkpt lat="48.85082" lon="2.27179">
        <ele>64</ele>
        <time>2013-12-09T20:33:18.195Z</time>
      </trkpt>
      <trkpt lat="48.85077" lon="2.27171">
        <ele>62</ele>
        <time>2013-12-09T20:33:21.145Z</time>
      </trkpt>
      <trkpt lat="48.85075" lon="2.27166">
        <ele>63</ele>
        <time>2013-12-09T20:33:22.171Z</time>
      </trkpt>
      <trkpt lat="48.85073" lon="2.27159">
        <ele>63</ele>
        <time>2013-12-09T20:33:23.172Z</time>
      </trkpt>
      <trkpt lat="48.85071" lon="2.27152">
        <ele>65</ele>
        <time>2013-12-09T20:33:24.175Z</time>
      </trkpt>
      <trkpt lat="48.85069" lon="2.27144">
        <ele>67</ele>
        <time>2013-12-09T20:33:25.231Z</time>
      </trkpt>
      <trkpt lat="48.85067" lon="2.27136">
        <ele>66</ele>
        <time>2013-12-09T20:33:26.479Z</time>
      </trkpt>
      <trkpt lat="48.85065" lon="2.27129">
        <ele>65</ele>
        <time>2013-12-09T20:33:27.484Z</time>
      </trkpt>
      <trkpt lat="48.85063" lon="2.27122">
        <ele>65</ele>
        <time>2013-12-09T20:33:28.499Z</time>
      </trkpt>
      <trkpt lat="48.8506" lon="2.27115">
        <ele>66</ele>
        <time>2013-12-09T20:33:29.519Z</time>
      </trkpt>
      <trkpt lat="48.85059" lon="2.2711">
        <ele>66</ele>
        <time>2013-12-09T20:33:30.245Z</time>
      </trkpt>
      <trkpt lat="48.85057" lon="2.27102">
        <ele>66</ele>
        <time>2013-12-09T20:33:31.235Z</time>
      </trkpt>
      <trkpt lat="48.85051" lon="2.27087">
        <ele>70</ele>
        <time>2013-12-09T20:33:32.953Z</time>
      </trkpt>
      <trkpt lat="48.85048" lon="2.27077">
        <ele>71</ele>
        <time>2013-12-09T20:33:34.288Z</time>
      </trkpt>
      <trkpt lat="48.85045" lon="2.27068">
        <ele>74</ele>
        <time>2013-12-09T20:33:34.918Z</time>
      </trkpt>
      <trkpt lat="48.85041" lon="2.2706">
        <ele>74</ele>
        <time>2013-12-09T20:33:35.941Z</time>
      </trkpt>
      <trkpt lat="48.85037" lon="2.27053">
        <ele>74</ele>
        <time>2013-12-09T20:33:36.913Z</time>
      </trkpt>
      <trkpt lat="48.85033" lon="2.27046">
        <ele>74</ele>
        <time>2013-12-09T20:33:37.921Z</time>
      </trkpt>
      <trkpt lat="48.85029" lon="2.27039">
        <ele>74</ele>
        <time>2013-12-09T20:33:38.941Z</time>
      </trkpt>
      <trkpt lat="48.85025" lon="2.27029">
        <ele>72</ele>
        <time>2013-12-09T20:33:40.232Z</time>
      </trkpt>
      <trkpt lat="48.85022" lon="2.27022">
        <ele>72</ele>
        <time>2013-12-09T20:33:41.169Z</time>
      </trkpt>
      <trkpt lat="48.85019" lon="2.27014">
        <ele>70</ele>
        <time>2013-12-09T20:33:42.230Z</time>
      </trkpt>
      <trkpt lat="48.85017" lon="2.27008">
        <ele>71</ele>
        <time>2013-12-09T20:33:43.153Z</time>
      </trkpt>
      <trkpt lat="48.85011" lon="2.26997">
        <ele>69</ele>
        <time>2013-12-09T20:33:45.184Z</time>
      </trkpt>
      <trkpt lat="48.85009" lon="2.26993">
        <ele>69</ele>
        <time>2013-12-09T20:33:46.155Z</time>
      </trkpt>
      <trkpt lat="48.85008" lon="2.26986">
        <ele>69</ele>
        <time>2013-12-09T20:33:47.185Z</time>
      </trkpt>
      <trkpt lat="48.85007" lon="2.26978">
        <ele>72</ele>
        <time>2013-12-09T20:33:48.160Z</time>
      </trkpt>
      <trkpt lat="48.85005" lon="2.26971">
        <ele>72</ele>
        <time>2013-12-09T20:33:49.268Z</time>
      </trkpt>
      <trkpt lat="48.85003" lon="2.26964">
        <ele>71</ele>
        <time>2013-12-09T20:33:50.153Z</time>
      </trkpt>
      <trkpt lat="48.85" lon="2.26956">
        <ele>71</ele>
        <time>2013-12-09T20:33:51.256Z</time>
      </trkpt>
      <trkpt lat="48.84998" lon="2.26948">
        <ele>72</ele>
        <time>2013-12-09T20:33:52.229Z</time>
      </trkpt>
      <trkpt lat="48.84995" lon="2.26942">
        <ele>72</ele>
        <time>2013-12-09T20:33:53.229Z</time>
      </trkpt>
      <trkpt lat="48.84993" lon="2.26934">
        <ele>73</ele>
        <time>2013-12-09T20:33:54.232Z</time>
      </trkpt>
      <trkpt lat="48.84991" lon="2.26928">
        <ele>71</ele>
        <time>2013-12-09T20:33:55.227Z</time>
      </trkpt>
      <trkpt lat="48.84988" lon="2.26922">
        <ele>69</ele>
        <time>2013-12-09T20:33:56.243Z</time>
      </trkpt>
      <trkpt lat="48.84982" lon="2.26912">
        <ele>71</ele>
        <time>2013-12-09T20:33:58.157Z</time>
      </trkpt>
      <trkpt lat="48.8498" lon="2.26908">
        <ele>70</ele>
        <time>2013-12-09T20:33:59.167Z</time>
      </trkpt>
      <trkpt lat="48.84974" lon="2.26898">
        <ele>69</ele>
        <time>2013-12-09T20:34:01.305Z</time>
      </trkpt>
      <trkpt lat="48.84972" lon="2.26892">
        <ele>68</ele>
        <time>2013-12-09T20:34:02.301Z</time>
      </trkpt>
      <trkpt lat="48.8497" lon="2.26879">
        <ele>70</ele>
        <time>2013-12-09T20:34:04.231Z</time>
      </trkpt>
      <trkpt lat="48.84971" lon="2.26872">
        <ele>67</ele>
        <time>2013-12-09T20:34:05.231Z</time>
      </trkpt>
      <trkpt lat="48.84971" lon="2.26864">
        <ele>71</ele>
        <time>2013-12-09T20:34:06.229Z</time>
      </trkpt>
      <trkpt lat="48.84971" lon="2.26857">
        <ele>72</ele>
        <time>2013-12-09T20:34:07.166Z</time>
      </trkpt>
      <trkpt lat="48.84969" lon="2.26846">
        <ele>73</ele>
        <time>2013-12-09T20:34:09.165Z</time>
      </trkpt>
      <trkpt lat="48.84968" lon="2.26842">
        <ele>74</ele>
        <time>2013-12-09T20:34:10.162Z</time>
      </trkpt>
      <trkpt lat="48.84966" lon="2.26828">
        <ele>74</ele>
        <time>2013-12-09T20:34:13.139Z</time>
      </trkpt>
      <trkpt lat="48.84966" lon="2.26823">
        <ele>72</ele>
        <time>2013-12-09T20:34:14.233Z</time>
      </trkpt>
      <trkpt lat="48.84966" lon="2.26811">
        <ele>69</ele>
        <time>2013-12-09T20:34:16.147Z</time>
      </trkpt>
      <trkpt lat="48.84967" lon="2.26805">
        <ele>67</ele>
        <time>2013-12-09T20:34:17.201Z</time>
      </trkpt>
      <trkpt lat="48.84967" lon="2.26793">
        <ele>67</ele>
        <time>2013-12-09T20:34:19.232Z</time>
      </trkpt>
      <trkpt lat="48.84966" lon="2.26788">
        <ele>66</ele>
        <time>2013-12-09T20:34:20.230Z</time>
      </trkpt>
      <trkpt lat="48.84962" lon="2.26776">
        <ele>68</ele>
        <time>2013-12-09T20:34:22.722Z</time>
      </trkpt>
      <trkpt lat="48.84959" lon="2.26772">
        <ele>66</ele>
        <time>2013-12-09T20:34:23.741Z</time>
      </trkpt>
      <trkpt lat="48.84953" lon="2.26762">
        <ele>67</ele>
        <time>2013-12-09T20:34:25.726Z</time>
      </trkpt>
      <trkpt lat="48.84951" lon="2.26759">
        <ele>66</ele>
        <time>2013-12-09T20:34:26.229Z</time>
      </trkpt>
      <trkpt lat="48.84945" lon="2.26748">
        <ele>67</ele>
        <time>2013-12-09T20:34:28.160Z</time>
      </trkpt>
      <trkpt lat="48.84943" lon="2.26743">
        <ele>65</ele>
        <time>2013-12-09T20:34:29.237Z</time>
      </trkpt>
      <trkpt lat="48.84942" lon="2.26733">
        <ele>62</ele>
        <time>2013-12-09T20:34:31.235Z</time>
      </trkpt>
      <trkpt lat="48.84943" lon="2.26728">
        <ele>60</ele>
        <time>2013-12-09T20:34:32.151Z</time>
      </trkpt>
      <trkpt lat="48.84944" lon="2.26717">
        <ele>61</ele>
        <time>2013-12-09T20:34:34.149Z</time>
      </trkpt>
      <trkpt lat="48.84944" lon="2.26711">
        <ele>63</ele>
        <time>2013-12-09T20:34:35.229Z</time>
      </trkpt>
      <trkpt lat="48.8494" lon="2.26699">
        <ele>62</ele>
        <time>2013-12-09T20:34:37.186Z</time>
      </trkpt>
      <trkpt lat="48.84937" lon="2.26694">
        <ele>63</ele>
        <time>2013-12-09T20:34:38.217Z</time>
      </trkpt>
      <trkpt lat="48.84933" lon="2.26689">
        <ele>63</ele>
        <time>2013-12-09T20:34:39.235Z</time>
      </trkpt>
      <trkpt lat="48.8493" lon="2.26683">
        <ele>62</ele>
        <time>2013-12-09T20:34:40.230Z</time>
      </trkpt>
      <trkpt lat="48.84926" lon="2.26678">
        <ele>62</ele>
        <time>2013-12-09T20:34:41.229Z</time>
      </trkpt>
      <trkpt lat="48.84922" lon="2.26674">
        <ele>63</ele>
        <time>2013-12-09T20:34:42.170Z</time>
      </trkpt>
      <trkpt lat="48.84919" lon="2.26668">
        <ele>62</ele>
        <time>2013-12-09T20:34:43.271Z</time>
      </trkpt>
      <trkpt lat="48.84915" lon="2.26664">
        <ele>62</ele>
        <time>2013-12-09T20:34:44.174Z</time>
      </trkpt>
      <trkpt lat="48.84911" lon="2.26655">
        <ele>63</ele>
        <time>2013-12-09T20:34:46.159Z</time>
      </trkpt>
      <trkpt lat="48.84909" lon="2.26651">
        <ele>61</ele>
        <time>2013-12-09T20:34:47.285Z</time>
      </trkpt>
      <trkpt lat="48.84906" lon="2.26641">
        <ele>61</ele>
        <time>2013-12-09T20:34:50.157Z</time>
      </trkpt>
      <trkpt lat="48.84906" lon="2.26637">
        <ele>61</ele>
        <time>2013-12-09T20:34:51.175Z</time>
      </trkpt>
      <trkpt lat="48.84904" lon="2.26627">
        <ele>64</ele>
        <time>2013-12-09T20:34:54.139Z</time>
      </trkpt>
      <trkpt lat="48.84903" lon="2.26624">
        <ele>68</ele>
        <time>2013-12-09T20:34:55.176Z</time>
      </trkpt>
      <trkpt lat="48.84899" lon="2.26614">
        <ele>69</ele>
        <time>2013-12-09T20:34:57.183Z</time>
      </trkpt>
      <trkpt lat="48.84896" lon="2.26608">
        <ele>73</ele>
        <time>2013-12-09T20:34:58.169Z</time>
      </trkpt>
      <trkpt lat="48.84893" lon="2.266">
        <ele>76</ele>
        <time>2013-12-09T20:34:59.178Z</time>
      </trkpt>
      <trkpt lat="48.84891" lon="2.26591">
        <ele>74</ele>
        <time>2013-12-09T20:35:00.289Z</time>
      </trkpt>
      <trkpt lat="48.84891" lon="2.26583">
        <ele>70</ele>
        <time>2013-12-09T20:35:01.235Z</time>
      </trkpt>
      <trkpt lat="48.84892" lon="2.26575">
        <ele>72</ele>
        <time>2013-12-09T20:35:02.157Z</time>
      </trkpt>
      <trkpt lat="48.84893" lon="2.26564">
        <ele>73</ele>
        <time>2013-12-09T20:35:04.168Z</time>
      </trkpt>
      <trkpt lat="48.84895" lon="2.26559">
        <ele>75</ele>
        <time>2013-12-09T20:35:05.246Z</time>
      </trkpt>
      <trkpt lat="48.849" lon="2.26551">
        <ele>70</ele>
        <time>2013-12-09T20:35:08.276Z</time>
      </trkpt>
      <trkpt lat="48.84901" lon="2.26548">
        <ele>71</ele>
        <time>2013-12-09T20:35:09.229Z</time>
      </trkpt>
      <trkpt lat="48.84903" lon="2.26537">
        <ele>73</ele>
        <time>2013-12-09T20:35:12.197Z</time>
      </trkpt>
      <trkpt lat="48.84903" lon="2.26529">
        <ele>72</ele>
        <time>2013-12-09T20:35:13.187Z</time>
      </trkpt>
      <trkpt lat="48.84903" lon="2.26522">
        <ele>72</ele>
        <time>2013-12-09T20:35:14.140Z</time>
      </trkpt>
      <trkpt lat="48.84902" lon="2.26512">
        <ele>72</ele>
        <time>2013-12-09T20:35:15.231Z</time>
      </trkpt>
      <trkpt lat="48.84901" lon="2.26504">
        <ele>73</ele>
        <time>2013-12-09T20:35:16.233Z</time>
      </trkpt>
      <trkpt lat="48.84899" lon="2.26495">
        <ele>73</ele>
        <time>2013-12-09T20:35:17.145Z</time>
      </trkpt>
      <trkpt lat="48.84898" lon="2.26486">
        <ele>72</ele>
        <time>2013-12-09T20:35:18.231Z</time>
      </trkpt>
      <trkpt lat="48.84896" lon="2.26478">
        <ele>73</ele>
        <time>2013-12-09T20:35:19.145Z</time>
      </trkpt>
      <trkpt lat="48.84894" lon="2.26469">
        <ele>74</ele>
        <time>2013-12-09T20:35:20.236Z</time>
      </trkpt>
      <trkpt lat="48.84893" lon="2.26462">
        <ele>75</ele>
        <time>2013-12-09T20:35:21.246Z</time>
      </trkpt>
      <trkpt lat="48.84892" lon="2.2645">
        <ele>75</ele>
        <time>2013-12-09T20:35:23.141Z</time>
      </trkpt>
      <trkpt lat="48.84892" lon="2.26444">
        <ele>75</ele>
        <time>2013-12-09T20:35:24.141Z</time>
      </trkpt>
      <trkpt lat="48.84892" lon="2.26433">
        <ele>76</ele>
        <time>2013-12-09T20:35:26.152Z</time>
      </trkpt>
      <trkpt lat="48.84892" lon="2.26428">
        <ele>76</ele>
        <time>2013-12-09T20:35:27.170Z</time>
      </trkpt>
      <trkpt lat="48.84889" lon="2.26415">
        <ele>77</ele>
        <time>2013-12-09T20:35:29.272Z</time>
      </trkpt>
      <trkpt lat="48.84887" lon="2.26409">
        <ele>77</ele>
        <time>2013-12-09T20:35:30.308Z</time>
      </trkpt>
      <trkpt lat="48.84883" lon="2.26399">
        <ele>80</ele>
        <time>2013-12-09T20:35:32.164Z</time>
      </trkpt>
      <trkpt lat="48.84882" lon="2.26395">
        <ele>76</ele>
        <time>2013-12-09T20:35:33.180Z</time>
      </trkpt>
      <trkpt lat="48.84881" lon="2.26381">
        <ele>75</ele>
        <time>2013-12-09T20:35:39.166Z</time>
      </trkpt>
      <trkpt lat="48.84881" lon="2.26376">
        <ele>76</ele>
        <time>2013-12-09T20:35:40.149Z</time>
      </trkpt>
      <trkpt lat="48.84881" lon="2.26369">
        <ele>73</ele>
        <time>2013-12-09T20:35:41.138Z</time>
      </trkpt>
      <trkpt lat="48.8488" lon="2.26361">
        <ele>74</ele>
        <time>2013-12-09T20:35:42.171Z</time>
      </trkpt>
      <trkpt lat="48.8488" lon="2.26354">
        <ele>72</ele>
        <time>2013-12-09T20:35:43.228Z</time>
      </trkpt>
      <trkpt lat="48.84879" lon="2.26346">
        <ele>73</ele>
        <time>2013-12-09T20:35:44.229Z</time>
      </trkpt>
      <trkpt lat="48.84878" lon="2.26339">
        <ele>72</ele>
        <time>2013-12-09T20:35:45.240Z</time>
      </trkpt>
      <trkpt lat="48.84877" lon="2.26331">
        <ele>71</ele>
        <time>2013-12-09T20:35:46.658Z</time>
      </trkpt>
      <trkpt lat="48.84876" lon="2.26325">
        <ele>74</ele>
        <time>2013-12-09T20:35:47.660Z</time>
      </trkpt>
      <trkpt lat="48.84874" lon="2.26313">
        <ele>72</ele>
        <time>2013-12-09T20:35:48.632Z</time>
      </trkpt>
      <trkpt lat="48.84873" lon="2.26303">
        <ele>74</ele>
        <time>2013-12-09T20:35:49.657Z</time>
      </trkpt>
      <trkpt lat="48.84871" lon="2.26294">
        <ele>74</ele>
        <time>2013-12-09T20:35:50.656Z</time>
      </trkpt>
      <trkpt lat="48.84869" lon="2.26287">
        <ele>74</ele>
        <time>2013-12-09T20:35:51.237Z</time>
      </trkpt>
      <trkpt lat="48.84867" lon="2.26279">
        <ele>71</ele>
        <time>2013-12-09T20:35:52.171Z</time>
      </trkpt>
      <trkpt lat="48.84865" lon="2.26271">
        <ele>71</ele>
        <time>2013-12-09T20:35:53.383Z</time>
      </trkpt>
      <trkpt lat="48.84864" lon="2.26265">
        <ele>71</ele>
        <time>2013-12-09T20:35:54.126Z</time>
      </trkpt>
      <trkpt lat="48.84862" lon="2.26252">
        <ele>72</ele>
        <time>2013-12-09T20:35:56.139Z</time>
      </trkpt>
      <trkpt lat="48.84863" lon="2.26248">
        <ele>71</ele>
        <time>2013-12-09T20:35:57.186Z</time>
      </trkpt>
      <trkpt lat="48.84867" lon="2.26239">
        <ele>61</ele>
        <time>2013-12-09T20:36:00.246Z</time>
      </trkpt>
      <trkpt lat="48.84869" lon="2.26237">
        <ele>59</ele>
        <time>2013-12-09T20:36:01.134Z</time>
      </trkpt>
      <trkpt lat="48.8487" lon="2.26227">
        <ele>56</ele>
        <time>2013-12-09T20:36:04.128Z</time>
      </trkpt>
      <trkpt lat="48.84869" lon="2.26221">
        <ele>56</ele>
        <time>2013-12-09T20:36:05.233Z</time>
      </trkpt>
      <trkpt lat="48.84868" lon="2.26215">
        <ele>55</ele>
        <time>2013-12-09T20:36:06.231Z</time>
      </trkpt>
      <trkpt lat="48.84866" lon="2.26208">
        <ele>55</ele>
        <time>2013-12-09T20:36:07.230Z</time>
      </trkpt>
      <trkpt lat="48.84865" lon="2.26201">
        <ele>54</ele>
        <time>2013-12-09T20:36:08.446Z</time>
      </trkpt>
      <trkpt lat="48.84864" lon="2.26194">
        <ele>52</ele>
        <time>2013-12-09T20:36:09.254Z</time>
      </trkpt>
      <trkpt lat="48.84862" lon="2.26181">
        <ele>51</ele>
        <time>2013-12-09T20:36:11.229Z</time>
      </trkpt>
      <trkpt lat="48.84861" lon="2.26174">
        <ele>51</ele>
        <time>2013-12-09T20:36:12.147Z</time>
      </trkpt>
      <trkpt lat="48.8486" lon="2.26167">
        <ele>52</ele>
        <time>2013-12-09T20:36:13.400Z</time>
      </trkpt>
      <trkpt lat="48.84859" lon="2.26159">
        <ele>52</ele>
        <time>2013-12-09T20:36:14.229Z</time>
      </trkpt>
      <trkpt lat="48.84858" lon="2.26146">
        <ele>49</ele>
        <time>2013-12-09T20:36:16.195Z</time>
      </trkpt>
      <trkpt lat="48.84858" lon="2.26139">
        <ele>47</ele>
        <time>2013-12-09T20:36:17.194Z</time>
      </trkpt>
      <trkpt lat="48.84855" lon="2.26126">
        <ele>47</ele>
        <time>2013-12-09T20:36:20.199Z</time>
      </trkpt>
      <trkpt lat="48.84854" lon="2.26123">
        <ele>48</ele>
        <time>2013-12-09T20:36:21.202Z</time>
      </trkpt>
      <trkpt lat="48.8485" lon="2.26115">
        <ele>53</ele>
        <time>2013-12-09T20:36:24.170Z</time>
      </trkpt>
      <trkpt lat="48.84848" lon="2.26113">
        <ele>54</ele>
        <time>2013-12-09T20:36:25.204Z</time>
      </trkpt>
      <trkpt lat="48.84846" lon="2.261">
        <ele>56</ele>
        <time>2013-12-09T20:36:30.166Z</time>
      </trkpt>
      <trkpt lat="48.84847" lon="2.26099">
        <ele>55</ele>
        <time>2013-12-09T20:36:31.165Z</time>
      </trkpt>
      <trkpt lat="48.84845" lon="2.26087">
        <ele>66</ele>
        <time>2013-12-09T20:36:43.165Z</time>
      </trkpt>
      <trkpt lat="48.84844" lon="2.26085">
        <ele>69</ele>
        <time>2013-12-09T20:36:44.249Z</time>
      </trkpt>
      <trkpt lat="48.8484" lon="2.26078">
        <ele>75</ele>
        <time>2013-12-09T20:36:47.243Z</time>
      </trkpt>
      <trkpt lat="48.84837" lon="2.26075">
        <ele>76</ele>
        <time>2013-12-09T20:36:48.150Z</time>
      </trkpt>
      <trkpt lat="48.84832" lon="2.26068">
        <ele>81</ele>
        <time>2013-12-09T20:36:50.247Z</time>
      </trkpt>
      <trkpt lat="48.84829" lon="2.26065">
        <ele>80</ele>
        <time>2013-12-09T20:36:51.162Z</time>
      </trkpt>
      <trkpt lat="48.84824" lon="2.2606">
        <ele>81</ele>
        <time>2013-12-09T20:36:53.167Z</time>
      </trkpt>
      <trkpt lat="48.84822" lon="2.26057">
        <ele>80</ele>
        <time>2013-12-09T20:36:54.230Z</time>
      </trkpt>
      <trkpt lat="48.84815" lon="2.26053">
        <ele>79</ele>
        <time>2013-12-09T20:36:57.249Z</time>
      </trkpt>
      <trkpt lat="48.84813" lon="2.26052">
        <ele>78</ele>
        <time>2013-12-09T20:36:58.180Z</time>
      </trkpt>
      <trkpt lat="48.84806" lon="2.26046">
        <ele>81</ele>
        <time>2013-12-09T20:37:01.160Z</time>
      </trkpt>
      <trkpt lat="48.84805" lon="2.26044">
        <ele>82</ele>
        <time>2013-12-09T20:37:02.173Z</time>
      </trkpt>
      <trkpt lat="48.848" lon="2.26034">
        <ele>89</ele>
        <time>2013-12-09T20:37:07.260Z</time>
      </trkpt>
      <trkpt lat="48.848" lon="2.26032">
        <ele>89</ele>
        <time>2013-12-09T20:37:08.256Z</time>
      </trkpt>
      <trkpt lat="48.84798" lon="2.2602">
        <ele>92</ele>
        <time>2013-12-09T20:37:14.233Z</time>
      </trkpt>
      <trkpt lat="48.84797" lon="2.26017">
        <ele>92</ele>
        <time>2013-12-09T20:37:15.230Z</time>
      </trkpt>
      <trkpt lat="48.84791" lon="2.26009">
        <ele>84</ele>
        <time>2013-12-09T20:37:22.270Z</time>
      </trkpt>
      <trkpt lat="48.8479" lon="2.26008">
        <ele>83</ele>
        <time>2013-12-09T20:37:23.146Z</time>
      </trkpt>
      <trkpt lat="48.84784" lon="2.26002">
        <ele>81</ele>
        <time>2013-12-09T20:37:26.169Z</time>
      </trkpt>
      <trkpt lat="48.84781" lon="2.25999">
        <ele>86</ele>
        <time>2013-12-09T20:37:27.174Z</time>
      </trkpt>
      <trkpt lat="48.84775" lon="2.25992">
        <ele>84</ele>
        <time>2013-12-09T20:37:29.230Z</time>
      </trkpt>
      <trkpt lat="48.84772" lon="2.25989">
        <ele>83</ele>
        <time>2013-12-09T20:37:30.233Z</time>
      </trkpt>
      <trkpt lat="48.84764" lon="2.25983">
        <ele>83</ele>
        <time>2013-12-09T20:37:32.272Z</time>
      </trkpt>
      <trkpt lat="48.8476" lon="2.25981">
        <ele>83</ele>
        <time>2013-12-09T20:37:33.231Z</time>
      </trkpt>
      <trkpt lat="48.84755" lon="2.25979">
        <ele>80</ele>
        <time>2013-12-09T20:37:34.260Z</time>
      </trkpt>
      <trkpt lat="48.84748" lon="2.25977">
        <ele>81</ele>
        <time>2013-12-09T20:37:35.858Z</time>
      </trkpt>
      <trkpt lat="48.8474" lon="2.25977">
        <ele>81</ele>
        <time>2013-12-09T20:37:37.866Z</time>
      </trkpt>
      <trkpt lat="48.84736" lon="2.25977">
        <ele>80</ele>
        <time>2013-12-09T20:37:38.862Z</time>
      </trkpt>
      <trkpt lat="48.84731" lon="2.25977">
        <ele>82</ele>
        <time>2013-12-09T20:37:39.855Z</time>
      </trkpt>
      <trkpt lat="48.84724" lon="2.25977">
        <ele>82</ele>
        <time>2013-12-09T20:37:40.833Z</time>
      </trkpt>
      <trkpt lat="48.84715" lon="2.25978">
        <ele>83</ele>
        <time>2013-12-09T20:37:42.315Z</time>
      </trkpt>
      <trkpt lat="48.84713" lon="2.25968">
        <ele>77</ele>
        <time>2013-12-09T20:37:42.624Z</time>
      </trkpt>
      <trkpt lat="48.84712" lon="2.25961">
        <ele>77</ele>
        <time>2013-12-09T20:37:44.011Z</time>
      </trkpt>
      <trkpt lat="48.84709" lon="2.25954">
        <ele>76</ele>
        <time>2013-12-09T20:37:44.415Z</time>
      </trkpt>
      <trkpt lat="48.84703" lon="2.25949">
        <ele>73</ele>
        <time>2013-12-09T20:37:46.168Z</time>
      </trkpt>
      <trkpt lat="48.84698" lon="2.25949">
        <ele>71</ele>
        <time>2013-12-09T20:37:47.140Z</time>
      </trkpt>
      <trkpt lat="48.84692" lon="2.2595">
        <ele>73</ele>
        <time>2013-12-09T20:37:49.061Z</time>
      </trkpt>
      <trkpt lat="48.84687" lon="2.25952">
        <ele>70</ele>
        <time>2013-12-09T20:37:49.141Z</time>
      </trkpt>
      <trkpt lat="48.84682" lon="2.25952">
        <ele>70</ele>
        <time>2013-12-09T20:37:50.143Z</time>
      </trkpt>
      <trkpt lat="48.84676" lon="2.25954">
        <ele>72</ele>
        <time>2013-12-09T20:37:51.165Z</time>
      </trkpt>
      <trkpt lat="48.84671" lon="2.25954">
        <ele>70</ele>
        <time>2013-12-09T20:37:52.220Z</time>
      </trkpt>
      <trkpt lat="48.84665" lon="2.25956">
        <ele>72</ele>
        <time>2013-12-09T20:37:53.168Z</time>
      </trkpt>
      <trkpt lat="48.8466" lon="2.25959">
        <ele>74</ele>
        <time>2013-12-09T20:37:54.141Z</time>
      </trkpt>
      <trkpt lat="48.84654" lon="2.25961">
        <ele>73</ele>
        <time>2013-12-09T20:37:55.167Z</time>
      </trkpt>
      <trkpt lat="48.84648" lon="2.25967">
        <ele>71</ele>
        <time>2013-12-09T20:37:57.141Z</time>
      </trkpt>
      <trkpt lat="48.84645" lon="2.25967">
        <ele>67</ele>
        <time>2013-12-09T20:37:58.167Z</time>
      </trkpt>
      <trkpt lat="48.84638" lon="2.25964">
        <ele>68</ele>
        <time>2013-12-09T20:38:02.174Z</time>
      </trkpt>
      <trkpt lat="48.84635" lon="2.2596">
        <ele>69</ele>
        <time>2013-12-09T20:38:03.148Z</time>
      </trkpt>
      <trkpt lat="48.84631" lon="2.25956">
        <ele>70</ele>
        <time>2013-12-09T20:38:05.225Z</time>
      </trkpt>
      <trkpt lat="48.84627" lon="2.2595">
        <ele>70</ele>
        <time>2013-12-09T20:38:05.559Z</time>
      </trkpt>
      <trkpt lat="48.84621" lon="2.2594">
        <ele>71</ele>
        <time>2013-12-09T20:38:06.520Z</time>
      </trkpt>
      <trkpt lat="48.84616" lon="2.25929">
        <ele>71</ele>
        <time>2013-12-09T20:38:07.234Z</time>
      </trkpt>
      <trkpt lat="48.8461" lon="2.25919">
        <ele>71</ele>
        <time>2013-12-09T20:38:08.154Z</time>
      </trkpt>
      <trkpt lat="48.84603" lon="2.25913">
        <ele>73</ele>
        <time>2013-12-09T20:38:09.153Z</time>
      </trkpt>
      <trkpt lat="48.84596" lon="2.25909">
        <ele>76</ele>
        <time>2013-12-09T20:38:10.225Z</time>
      </trkpt>
      <trkpt lat="48.8459" lon="2.2591">
        <ele>75</ele>
        <time>2013-12-09T20:38:11.465Z</time>
      </trkpt>
      <trkpt lat="48.84586" lon="2.25911">
        <ele>74</ele>
        <time>2013-12-09T20:38:12.238Z</time>
      </trkpt>
      <trkpt lat="48.84579" lon="2.25911">
        <ele>70</ele>
        <time>2013-12-09T20:38:14.156Z</time>
      </trkpt>
      <trkpt lat="48.84575" lon="2.25909">
        <ele>70</ele>
        <time>2013-12-09T20:38:15.226Z</time>
      </trkpt>
      <trkpt lat="48.84569" lon="2.25907">
        <ele>73</ele>
        <time>2013-12-09T20:38:17.232Z</time>
      </trkpt>
      <trkpt lat="48.84567" lon="2.259">
        <ele>73</ele>
        <time>2013-12-09T20:38:18.166Z</time>
      </trkpt>
      <trkpt lat="48.84563" lon="2.25891">
        <ele>71</ele>
        <time>2013-12-09T20:38:20.154Z</time>
      </trkpt>
      <trkpt lat="48.8456" lon="2.25891">
        <ele>71</ele>
        <time>2013-12-09T20:38:21.247Z</time>
      </trkpt>
      <trkpt lat="48.84552" lon="2.2589">
        <ele>71</ele>
        <time>2013-12-09T20:38:25.242Z</time>
      </trkpt>
      <trkpt lat="48.8455" lon="2.2589">
        <ele>72</ele>
        <time>2013-12-09T20:38:26.235Z</time>
      </trkpt>
      <trkpt lat="48.84541" lon="2.25886">
        <ele>79</ele>
        <time>2013-12-09T20:38:32.233Z</time>
      </trkpt>
      <trkpt lat="48.8454" lon="2.25884">
        <ele>81</ele>
        <time>2013-12-09T20:38:33.178Z</time>
      </trkpt>
      <trkpt lat="48.84533" lon="2.2589">
        <ele>83</ele>
        <time>2013-12-09T20:38:41.185Z</time>
      </trkpt>
      <trkpt lat="48.84531" lon="2.25894">
        <ele>84</ele>
        <time>2013-12-09T20:38:42.157Z</time>
      </trkpt>
      <trkpt lat="48.8453" lon="2.25905">
        <ele>84</ele>
        <time>2013-12-09T20:38:44.187Z</time>
      </trkpt>
      <trkpt lat="48.84529" lon="2.2591">
        <ele>86</ele>
        <time>2013-12-09T20:38:45.181Z</time>
      </trkpt>
      <trkpt lat="48.8453" lon="2.2592">
        <ele>85</ele>
        <time>2013-12-09T20:38:47.231Z</time>
      </trkpt>
      <trkpt lat="48.84531" lon="2.25926">
        <ele>85</ele>
        <time>2013-12-09T20:38:48.174Z</time>
      </trkpt>
      <trkpt lat="48.84531" lon="2.25937">
        <ele>81</ele>
        <time>2013-12-09T20:38:50.174Z</time>
      </trkpt>
      <trkpt lat="48.8453" lon="2.25943">
        <ele>81</ele>
        <time>2013-12-09T20:38:51.244Z</time>
      </trkpt>
      <trkpt lat="48.84529" lon="2.25956">
        <ele>82</ele>
        <time>2013-12-09T20:38:53.177Z</time>
      </trkpt>
      <trkpt lat="48.84528" lon="2.25962">
        <ele>82</ele>
        <time>2013-12-09T20:38:54.165Z</time>
      </trkpt>
      <trkpt lat="48.84528" lon="2.25976">
        <ele>84</ele>
        <time>2013-12-09T20:38:56.232Z</time>
      </trkpt>
      <trkpt lat="48.84528" lon="2.25982">
        <ele>85</ele>
        <time>2013-12-09T20:38:57.290Z</time>
      </trkpt>
      <trkpt lat="48.84528" lon="2.25994">
        <ele>86</ele>
        <time>2013-12-09T20:38:59.230Z</time>
      </trkpt>
      <trkpt lat="48.84528" lon="2.26">
        <ele>87</ele>
        <time>2013-12-09T20:39:00.252Z</time>
      </trkpt>
      <trkpt lat="48.84529" lon="2.26014">
        <ele>92</ele>
        <time>2013-12-09T20:39:02.233Z</time>
      </trkpt>
      <trkpt lat="48.84529" lon="2.26019">
        <ele>93</ele>
        <time>2013-12-09T20:39:03.166Z</time>
      </trkpt>
      <trkpt lat="48.84528" lon="2.2603">
        <ele>94</ele>
        <time>2013-12-09T20:39:05.237Z</time>
      </trkpt>
      <trkpt lat="48.84528" lon="2.26034">
        <ele>94</ele>
        <time>2013-12-09T20:39:06.255Z</time>
      </trkpt>
      <trkpt lat="48.84527" lon="2.26045">
        <ele>89</ele>
        <time>2013-12-09T20:39:10.230Z</time>
      </trkpt>
      <trkpt lat="48.84527" lon="2.2605">
        <ele>88</ele>
        <time>2013-12-09T20:39:11.475Z</time>
      </trkpt>
      <trkpt lat="48.84526" lon="2.26062">
        <ele>90</ele>
        <time>2013-12-09T20:39:13.712Z</time>
      </trkpt>
      <trkpt lat="48.84526" lon="2.26069">
        <ele>89</ele>
        <time>2013-12-09T20:39:14.232Z</time>
      </trkpt>
      <trkpt lat="48.84525" lon="2.26082">
        <ele>89</ele>
        <time>2013-12-09T20:39:16.239Z</time>
      </trkpt>
      <trkpt lat="48.84524" lon="2.26088">
        <ele>89</ele>
        <time>2013-12-09T20:39:17.237Z</time>
      </trkpt>
      <trkpt lat="48.84522" lon="2.26099">
        <ele>89</ele>
        <time>2013-12-09T20:39:19.229Z</time>
      </trkpt>
      <trkpt lat="48.84521" lon="2.26103">
        <ele>90</ele>
        <time>2013-12-09T20:39:20.236Z</time>
      </trkpt>
      <trkpt lat="48.84518" lon="2.26115">
        <ele>89</ele>
        <time>2013-12-09T20:39:23.756Z</time>
      </trkpt>
      <trkpt lat="48.84518" lon="2.26119">
        <ele>90</ele>
        <time>2013-12-09T20:39:24.234Z</time>
      </trkpt>
      <trkpt lat="48.8452" lon="2.26129">
        <ele>92</ele>
        <time>2013-12-09T20:39:26.236Z</time>
      </trkpt>
      <trkpt lat="48.84521" lon="2.26133">
        <ele>94</ele>
        <time>2013-12-09T20:39:27.263Z</time>
      </trkpt>
      <trkpt lat="48.84524" lon="2.26142">
        <ele>93</ele>
        <time>2013-12-09T20:39:29.240Z</time>
      </trkpt>
      <trkpt lat="48.84526" lon="2.26146">
        <ele>97</ele>
        <time>2013-12-09T20:39:30.230Z</time>
      </trkpt>
      <trkpt lat="48.84529" lon="2.26158">
        <ele>100</ele>
        <time>2013-12-09T20:39:33.720Z</time>
      </trkpt>
      <trkpt lat="48.8453" lon="2.26162">
        <ele>100</ele>
        <time>2013-12-09T20:39:34.244Z</time>
      </trkpt>
      <trkpt lat="48.8453" lon="2.26173">
        <ele>100</ele>
        <time>2013-12-09T20:39:36.232Z</time>
      </trkpt>
      <trkpt lat="48.8453" lon="2.26178">
        <ele>100</ele>
        <time>2013-12-09T20:39:37.232Z</time>
      </trkpt>
      <trkpt lat="48.84529" lon="2.26189">
        <ele>107</ele>
        <time>2013-12-09T20:39:39.143Z</time>
      </trkpt>
      <trkpt lat="48.84529" lon="2.26195">
        <ele>109</ele>
        <time>2013-12-09T20:39:40.171Z</time>
      </trkpt>
      <trkpt lat="48.84528" lon="2.26206">
        <ele>109</ele>
        <time>2013-12-09T20:39:42.175Z</time>
      </trkpt>
      <trkpt lat="48.84528" lon="2.26211">
        <ele>111</ele>
        <time>2013-12-09T20:39:43.170Z</time>
      </trkpt>
      <trkpt lat="48.84528" lon="2.26221">
        <ele>106</ele>
        <time>2013-12-09T20:39:45.237Z</time>
      </trkpt>
      <trkpt lat="48.84527" lon="2.26226">
        <ele>103</ele>
        <time>2013-12-09T20:39:46.230Z</time>
      </trkpt>
      <trkpt lat="48.84527" lon="2.26236">
        <ele>102</ele>
        <time>2013-12-09T20:39:48.790Z</time>
      </trkpt>
      <trkpt lat="48.84527" lon="2.26241">
        <ele>101</ele>
        <time>2013-12-09T20:39:49.246Z</time>
      </trkpt>
      <trkpt lat="48.84528" lon="2.26251">
        <ele>103</ele>
        <time>2013-12-09T20:39:51.239Z</time>
      </trkpt>
      <trkpt lat="48.84527" lon="2.26257">
        <ele>102</ele>
        <time>2013-12-09T20:39:52.907Z</time>
      </trkpt>
      <trkpt lat="48.84525" lon="2.26269">
        <ele>102</ele>
        <time>2013-12-09T20:39:57.239Z</time>
      </trkpt>
      <trkpt lat="48.84524" lon="2.2627">
        <ele>103</ele>
        <time>2013-12-09T20:39:58.161Z</time>
      </trkpt>
      <trkpt lat="48.84526" lon="2.26282">
        <ele>103</ele>
        <time>2013-12-09T20:40:14.130Z</time>
      </trkpt>
      <trkpt lat="48.84526" lon="2.26282">
        <ele>103</ele>
        <time>2013-12-09T20:40:15.163Z</time>
      </trkpt>
      <trkpt lat="48.84527" lon="2.26282">
        <ele>103</ele>
        <time>2013-12-09T20:40:22.164Z</time>
      </trkpt>
      <trkpt lat="48.84527" lon="2.26283">
        <ele>104</ele>
        <time>2013-12-09T20:40:23.158Z</time>
      </trkpt>
      <trkpt lat="48.84526" lon="2.26286">
        <ele>102</ele>
        <time>2013-12-09T20:40:29.238Z</time>
      </trkpt>
      <trkpt lat="48.84527" lon="2.26286">
        <ele>102</ele>
        <time>2013-12-09T20:40:30.230Z</time>
      </trkpt>
      <trkpt lat="48.84527" lon="2.26286">
        <ele>102</ele>
        <time>2013-12-09T20:40:31.232Z</time>
      </trkpt>
      <trkpt lat="48.84529" lon="2.26286">
        <ele>102</ele>
        <time>2013-12-09T20:40:37.145Z</time>
      </trkpt>
      <trkpt lat="48.84529" lon="2.26286">
        <ele>102</ele>
        <time>2013-12-09T20:40:38.118Z</time>
      </trkpt>
      <trkpt lat="48.84529" lon="2.26287">
        <ele>102</ele>
        <time>2013-12-09T20:41:23.262Z</time>
      </trkpt>
      <trkpt lat="48.84529" lon="2.26288">
        <ele>95</ele>
        <time>2013-12-09T20:41:24.149Z</time>
      </trkpt>
      <trkpt lat="48.84526" lon="2.26297">
        <ele>84</ele>
        <time>2013-12-09T20:41:27.177Z</time>
      </trkpt>
      <trkpt lat="48.84524" lon="2.26302">
        <ele>82</ele>
        <time>2013-12-09T20:41:28.182Z</time>
      </trkpt>
      <trkpt lat="48.84523" lon="2.2631">
        <ele>82</ele>
        <time>2013-12-09T20:41:30.232Z</time>
      </trkpt>
      <trkpt lat="48.84522" lon="2.26315">
        <ele>82</ele>
        <time>2013-12-09T20:41:31.918Z</time>
      </trkpt>
      <trkpt lat="48.8452" lon="2.26326">
        <ele>75</ele>
        <time>2013-12-09T20:41:34.914Z</time>
      </trkpt>
      <trkpt lat="48.8452" lon="2.2633">
        <ele>73</ele>
        <time>2013-12-09T20:41:35.914Z</time>
      </trkpt>
      <trkpt lat="48.8452" lon="2.26342">
        <ele>72</ele>
        <time>2013-12-09T20:41:38.908Z</time>
      </trkpt>
      <trkpt lat="48.84519" lon="2.26346">
        <ele>72</ele>
        <time>2013-12-09T20:41:39.914Z</time>
      </trkpt>
      <trkpt lat="48.84519" lon="2.26357">
        <ele>74</ele>
        <time>2013-12-09T20:41:43.324Z</time>
      </trkpt>
      <trkpt lat="48.8452" lon="2.2636">
        <ele>75</ele>
        <time>2013-12-09T20:41:43.609Z</time>
      </trkpt>
      <trkpt lat="48.8452" lon="2.26371">
        <ele>74</ele>
        <time>2013-12-09T20:41:46.241Z</time>
      </trkpt>
      <trkpt lat="48.8452" lon="2.26374">
        <ele>74</ele>
        <time>2013-12-09T20:41:47.238Z</time>
      </trkpt>
      <trkpt lat="48.8452" lon="2.26385">
        <ele>76</ele>
        <time>2013-12-09T20:41:50.232Z</time>
      </trkpt>
      <trkpt lat="48.8452" lon="2.26389">
        <ele>76</ele>
        <time>2013-12-09T20:41:51.230Z</time>
      </trkpt>
      <trkpt lat="48.84522" lon="2.26401">
        <ele>78</ele>
        <time>2013-12-09T20:41:55.239Z</time>
      </trkpt>
      <trkpt lat="48.84522" lon="2.26403">
        <ele>79</ele>
        <time>2013-12-09T20:41:56.232Z</time>
      </trkpt>
      <trkpt lat="48.84521" lon="2.26405">
        <ele>79</ele>
        <time>2013-12-09T20:42:02.235Z</time>
      </trkpt>
      <trkpt lat="48.84521" lon="2.26405">
        <ele>79</ele>
        <time>2013-12-09T20:42:03.233Z</time>
      </trkpt>
      <trkpt lat="48.8452" lon="2.26406">
        <ele>76</ele>
        <time>2013-12-09T20:42:26.181Z</time>
      </trkpt>
      <trkpt lat="48.8452" lon="2.26406">
        <ele>76</ele>
        <time>2013-12-09T20:42:27.153Z</time>
      </trkpt>
      <trkpt lat="48.84518" lon="2.26416">
        <ele>78</ele>
        <time>2013-12-09T20:42:31.233Z</time>
      </trkpt>
      <trkpt lat="48.84517" lon="2.2642">
        <ele>77</ele>
        <time>2013-12-09T20:42:32.235Z</time>
      </trkpt>
      <trkpt lat="48.84513" lon="2.2643">
        <ele>77</ele>
        <time>2013-12-09T20:42:34.694Z</time>
      </trkpt>
      <trkpt lat="48.84512" lon="2.26435">
        <ele>77</ele>
        <time>2013-12-09T20:42:35.154Z</time>
      </trkpt>
      <trkpt lat="48.84512" lon="2.26445">
        <ele>79</ele>
        <time>2013-12-09T20:42:37.235Z</time>
      </trkpt>
      <trkpt lat="48.84512" lon="2.26451">
        <ele>82</ele>
        <time>2013-12-09T20:42:38.242Z</time>
      </trkpt>
      <trkpt lat="48.84512" lon="2.2646">
        <ele>85</ele>
        <time>2013-12-09T20:42:40.238Z</time>
      </trkpt>
      <trkpt lat="48.84513" lon="2.26464">
        <ele>84</ele>
        <time>2013-12-09T20:42:41.236Z</time>
      </trkpt>
      <trkpt lat="48.84514" lon="2.26478">
        <ele>82</ele>
        <time>2013-12-09T20:42:47.248Z</time>
      </trkpt>
      <trkpt lat="48.84513" lon="2.26483">
        <ele>78</ele>
        <time>2013-12-09T20:42:48.235Z</time>
      </trkpt>
      <trkpt lat="48.84512" lon="2.2649">
        <ele>72</ele>
        <time>2013-12-09T20:42:49.706Z</time>
      </trkpt>
      <trkpt lat="48.8451" lon="2.26498">
        <ele>74</ele>
        <time>2013-12-09T20:42:50.245Z</time>
      </trkpt>
      <trkpt lat="48.84509" lon="2.26506">
        <ele>72</ele>
        <time>2013-12-09T20:42:51.231Z</time>
      </trkpt>
      <trkpt lat="48.84508" lon="2.26515">
        <ele>71</ele>
        <time>2013-12-09T20:42:52.231Z</time>
      </trkpt>
      <trkpt lat="48.84508" lon="2.26524">
        <ele>70</ele>
        <time>2013-12-09T20:42:53.236Z</time>
      </trkpt>
      <trkpt lat="48.84508" lon="2.26532">
        <ele>71</ele>
        <time>2013-12-09T20:42:54.207Z</time>
      </trkpt>
      <trkpt lat="48.84508" lon="2.26541">
        <ele>71</ele>
        <time>2013-12-09T20:42:55.240Z</time>
      </trkpt>
      <trkpt lat="48.84508" lon="2.26548">
        <ele>70</ele>
        <time>2013-12-09T20:42:56.234Z</time>
      </trkpt>
      <trkpt lat="48.84508" lon="2.2656">
        <ele>67</ele>
        <time>2013-12-09T20:42:58.230Z</time>
      </trkpt>
      <trkpt lat="48.84508" lon="2.26566">
        <ele>67</ele>
        <time>2013-12-09T20:42:59.178Z</time>
      </trkpt>
      <trkpt lat="48.84508" lon="2.26577">
        <ele>68</ele>
        <time>2013-12-09T20:43:01.681Z</time>
      </trkpt>
      <trkpt lat="48.84508" lon="2.26582">
        <ele>68</ele>
        <time>2013-12-09T20:43:02.147Z</time>
      </trkpt>
      <trkpt lat="48.84506" lon="2.26592">
        <ele>67</ele>
        <time>2013-12-09T20:43:04.752Z</time>
      </trkpt>
      <trkpt lat="48.84505" lon="2.26597">
        <ele>67</ele>
        <time>2013-12-09T20:43:05.174Z</time>
      </trkpt>
      <trkpt lat="48.84505" lon="2.26606">
        <ele>63</ele>
        <time>2013-12-09T20:43:07.160Z</time>
      </trkpt>
      <trkpt lat="48.84505" lon="2.26611">
        <ele>63</ele>
        <time>2013-12-09T20:43:08.143Z</time>
      </trkpt>
      <trkpt lat="48.84504" lon="2.2662">
        <ele>61</ele>
        <time>2013-12-09T20:43:10.165Z</time>
      </trkpt>
      <trkpt lat="48.84504" lon="2.26625">
        <ele>62</ele>
        <time>2013-12-09T20:43:11.228Z</time>
      </trkpt>
      <trkpt lat="48.84503" lon="2.26635">
        <ele>63</ele>
        <time>2013-12-09T20:43:14.787Z</time>
      </trkpt>
      <trkpt lat="48.84504" lon="2.26654">
        <ele>64</ele>
        <time>2013-12-09T20:43:17.242Z</time>
      </trkpt>
      <trkpt lat="48.84508" lon="2.26665">
        <ele>64</ele>
        <time>2013-12-09T20:43:19.807Z</time>
      </trkpt>
      <trkpt lat="48.8451" lon="2.26671">
        <ele>65</ele>
        <time>2013-12-09T20:43:20.236Z</time>
      </trkpt>
      <trkpt lat="48.84516" lon="2.26681">
        <ele>66</ele>
        <time>2013-12-09T20:43:22.243Z</time>
      </trkpt>
      <trkpt lat="48.84519" lon="2.26685">
        <ele>66</ele>
        <time>2013-12-09T20:43:23.232Z</time>
      </trkpt>
      <trkpt lat="48.84523" lon="2.2669">
        <ele>65</ele>
        <time>2013-12-09T20:43:24.826Z</time>
      </trkpt>
      <trkpt lat="48.84527" lon="2.26696">
        <ele>67</ele>
        <time>2013-12-09T20:43:25.171Z</time>
      </trkpt>
      <trkpt lat="48.8453" lon="2.26701">
        <ele>67</ele>
        <time>2013-12-09T20:43:26.893Z</time>
      </trkpt>
      <trkpt lat="48.84533" lon="2.26707">
        <ele>67</ele>
        <time>2013-12-09T20:43:27.139Z</time>
      </trkpt>
      <trkpt lat="48.84535" lon="2.26714">
        <ele>66</ele>
        <time>2013-12-09T20:43:28.143Z</time>
      </trkpt>
      <trkpt lat="48.84537" lon="2.2672">
        <ele>66</ele>
        <time>2013-12-09T20:43:29.237Z</time>
      </trkpt>
      <trkpt lat="48.8454" lon="2.26733">
        <ele>63</ele>
        <time>2013-12-09T20:43:31.940Z</time>
      </trkpt>
      <trkpt lat="48.84542" lon="2.2674">
        <ele>64</ele>
        <time>2013-12-09T20:43:32.237Z</time>
      </trkpt>
      <trkpt lat="48.84545" lon="2.26751">
        <ele>64</ele>
        <time>2013-12-09T20:43:34.171Z</time>
      </trkpt>
      <trkpt lat="48.84547" lon="2.26757">
        <ele>65</ele>
        <time>2013-12-09T20:43:35.172Z</time>
      </trkpt>
      <trkpt lat="48.84551" lon="2.26768">
        <ele>62</ele>
        <time>2013-12-09T20:43:37.135Z</time>
      </trkpt>
      <trkpt lat="48.84553" lon="2.26774">
        <ele>63</ele>
        <time>2013-12-09T20:43:38.159Z</time>
      </trkpt>
      <trkpt lat="48.84556" lon="2.26785">
        <ele>60</ele>
        <time>2013-12-09T20:43:40.230Z</time>
      </trkpt>
      <trkpt lat="48.84557" lon="2.2679">
        <ele>61</ele>
        <time>2013-12-09T20:43:41.162Z</time>
      </trkpt>
      <trkpt lat="48.8456" lon="2.26799">
        <ele>58</ele>
        <time>2013-12-09T20:43:43.162Z</time>
      </trkpt>
      <trkpt lat="48.84561" lon="2.26803">
        <ele>57</ele>
        <time>2013-12-09T20:43:44.162Z</time>
      </trkpt>
      <trkpt lat="48.84562" lon="2.26813">
        <ele>55</ele>
        <time>2013-12-09T20:43:46.160Z</time>
      </trkpt>
      <trkpt lat="48.84563" lon="2.26818">
        <ele>53</ele>
        <time>2013-12-09T20:43:47.136Z</time>
      </trkpt>
      <trkpt lat="48.84563" lon="2.2683">
        <ele>52</ele>
        <time>2013-12-09T20:43:49.187Z</time>
      </trkpt>
      <trkpt lat="48.84564" lon="2.26836">
        <ele>52</ele>
        <time>2013-12-09T20:43:50.242Z</time>
      </trkpt>
      <trkpt lat="48.84565" lon="2.26843">
        <ele>53</ele>
        <time>2013-12-09T20:43:52.023Z</time>
      </trkpt>
      <trkpt lat="48.84567" lon="2.26851">
        <ele>53</ele>
        <time>2013-12-09T20:43:52.253Z</time>
      </trkpt>
      <trkpt lat="48.84572" lon="2.2687">
        <ele>51</ele>
        <time>2013-12-09T20:43:54.238Z</time>
      </trkpt>
      <trkpt lat="48.84575" lon="2.26882">
        <ele>51</ele>
        <time>2013-12-09T20:43:55.233Z</time>
      </trkpt>
      <trkpt lat="48.84578" lon="2.26894">
        <ele>52</ele>
        <time>2013-12-09T20:43:56.154Z</time>
      </trkpt>
      <trkpt lat="48.84581" lon="2.26906">
        <ele>51</ele>
        <time>2013-12-09T20:43:57.132Z</time>
      </trkpt>
      <trkpt lat="48.84584" lon="2.26916">
        <ele>53</ele>
        <time>2013-12-09T20:43:58.153Z</time>
      </trkpt>
      <trkpt lat="48.84586" lon="2.26926">
        <ele>54</ele>
        <time>2013-12-09T20:43:59.156Z</time>
      </trkpt>
      <trkpt lat="48.84589" lon="2.26934">
        <ele>52</ele>
        <time>2013-12-09T20:44:00.126Z</time>
      </trkpt>
      <trkpt lat="48.84592" lon="2.26941">
        <ele>52</ele>
        <time>2013-12-09T20:44:02.101Z</time>
      </trkpt>
      <trkpt lat="48.84595" lon="2.26948">
        <ele>52</ele>
        <time>2013-12-09T20:44:02.133Z</time>
      </trkpt>
      <trkpt lat="48.84598" lon="2.26956">
        <ele>52</ele>
        <time>2013-12-09T20:44:03.231Z</time>
      </trkpt>
      <trkpt lat="48.84601" lon="2.26962">
        <ele>52</ele>
        <time>2013-12-09T20:44:04.234Z</time>
      </trkpt>
      <trkpt lat="48.84603" lon="2.2697">
        <ele>52</ele>
        <time>2013-12-09T20:44:05.169Z</time>
      </trkpt>
      <trkpt lat="48.84606" lon="2.26977">
        <ele>52</ele>
        <time>2013-12-09T20:44:06.168Z</time>
      </trkpt>
      <trkpt lat="48.84609" lon="2.26984">
        <ele>52</ele>
        <time>2013-12-09T20:44:07.162Z</time>
      </trkpt>
      <trkpt lat="48.84612" lon="2.26992">
        <ele>53</ele>
        <time>2013-12-09T20:44:08.156Z</time>
      </trkpt>
      <trkpt lat="48.84614" lon="2.27">
        <ele>53</ele>
        <time>2013-12-09T20:44:09.238Z</time>
      </trkpt>
      <trkpt lat="48.84617" lon="2.27007">
        <ele>53</ele>
        <time>2013-12-09T20:44:10.256Z</time>
      </trkpt>
      <trkpt lat="48.8462" lon="2.27013">
        <ele>53</ele>
        <time>2013-12-09T20:44:12.165Z</time>
      </trkpt>
      <trkpt lat="48.84626" lon="2.27026">
        <ele>54</ele>
        <time>2013-12-09T20:44:13.163Z</time>
      </trkpt>
      <trkpt lat="48.8463" lon="2.27037">
        <ele>56</ele>
        <time>2013-12-09T20:44:15.229Z</time>
      </trkpt>
      <trkpt lat="48.84632" lon="2.27042">
        <ele>57</ele>
        <time>2013-12-09T20:44:16.155Z</time>
      </trkpt>
      <trkpt lat="48.84634" lon="2.27054">
        <ele>59</ele>
        <time>2013-12-09T20:44:18.163Z</time>
      </trkpt>
      <trkpt lat="48.84635" lon="2.2706">
        <ele>59</ele>
        <time>2013-12-09T20:44:19.162Z</time>
      </trkpt>
      <trkpt lat="48.84637" lon="2.2707">
        <ele>59</ele>
        <time>2013-12-09T20:44:21.207Z</time>
      </trkpt>
      <trkpt lat="48.84639" lon="2.27074">
        <ele>59</ele>
        <time>2013-12-09T20:44:22.162Z</time>
      </trkpt>
      <trkpt lat="48.84643" lon="2.27084">
        <ele>60</ele>
        <time>2013-12-09T20:44:24.160Z</time>
      </trkpt>
      <trkpt lat="48.84645" lon="2.27089">
        <ele>61</ele>
        <time>2013-12-09T20:44:25.142Z</time>
      </trkpt>
      <trkpt lat="48.84649" lon="2.271">
        <ele>61</ele>
        <time>2013-12-09T20:44:27.152Z</time>
      </trkpt>
      <trkpt lat="48.8465" lon="2.27107">
        <ele>61</ele>
        <time>2013-12-09T20:44:28.163Z</time>
      </trkpt>
      <trkpt lat="48.84654" lon="2.27119">
        <ele>59</ele>
        <time>2013-12-09T20:44:30.160Z</time>
      </trkpt>
      <trkpt lat="48.84655" lon="2.27125">
        <ele>60</ele>
        <time>2013-12-09T20:44:31.163Z</time>
      </trkpt>
      <trkpt lat="48.84659" lon="2.27136">
        <ele>60</ele>
        <time>2013-12-09T20:44:33.161Z</time>
      </trkpt>
      <trkpt lat="48.84661" lon="2.27142">
        <ele>60</ele>
        <time>2013-12-09T20:44:34.163Z</time>
      </trkpt>
      <trkpt lat="48.84665" lon="2.27154">
        <ele>62</ele>
        <time>2013-12-09T20:44:36.163Z</time>
      </trkpt>
      <trkpt lat="48.84667" lon="2.2716">
        <ele>63</ele>
        <time>2013-12-09T20:44:37.133Z</time>
      </trkpt>
      <trkpt lat="48.84668" lon="2.27167">
        <ele>64</ele>
        <time>2013-12-09T20:44:38.719Z</time>
      </trkpt>
      <trkpt lat="48.84669" lon="2.27174">
        <ele>65</ele>
        <time>2013-12-09T20:44:39.133Z</time>
      </trkpt>
      <trkpt lat="48.84671" lon="2.27187">
        <ele>65</ele>
        <time>2013-12-09T20:44:40.163Z</time>
      </trkpt>
      <trkpt lat="48.84674" lon="2.27199">
        <ele>66</ele>
        <time>2013-12-09T20:44:41.172Z</time>
      </trkpt>
      <trkpt lat="48.84677" lon="2.27208">
        <ele>65</ele>
        <time>2013-12-09T20:44:42.161Z</time>
      </trkpt>
      <trkpt lat="48.8468" lon="2.27218">
        <ele>66</ele>
        <time>2013-12-09T20:44:43.163Z</time>
      </trkpt>
      <trkpt lat="48.84683" lon="2.27225">
        <ele>65</ele>
        <time>2013-12-09T20:44:44.235Z</time>
      </trkpt>
      <trkpt lat="48.84686" lon="2.27232">
        <ele>66</ele>
        <time>2013-12-09T20:44:45.164Z</time>
      </trkpt>
      <trkpt lat="48.84689" lon="2.27238">
        <ele>65</ele>
        <time>2013-12-09T20:44:46.294Z</time>
      </trkpt>
      <trkpt lat="48.84692" lon="2.27244">
        <ele>64</ele>
        <time>2013-12-09T20:44:47.234Z</time>
      </trkpt>
      <trkpt lat="48.84697" lon="2.27251">
        <ele>61</ele>
        <time>2013-12-09T20:44:49.245Z</time>
      </trkpt>
      <trkpt lat="48.847" lon="2.27252">
        <ele>61</ele>
        <time>2013-12-09T20:44:50.175Z</time>
      </trkpt>
      <trkpt lat="48.84708" lon="2.27258">
        <ele>58</ele>
        <time>2013-12-09T20:44:53.236Z</time>
      </trkpt>
      <trkpt lat="48.8471" lon="2.27259">
        <ele>57</ele>
        <time>2013-12-09T20:44:54.237Z</time>
      </trkpt>
      <trkpt lat="48.84714" lon="2.27266">
        <ele>56</ele>
        <time>2013-12-09T20:44:57.139Z</time>
      </trkpt>
      <trkpt lat="48.84716" lon="2.27269">
        <ele>56</ele>
        <time>2013-12-09T20:44:58.167Z</time>
      </trkpt>
      <trkpt lat="48.84719" lon="2.27277">
        <ele>55</ele>
        <time>2013-12-09T20:45:00.131Z</time>
      </trkpt>
      <trkpt lat="48.8472" lon="2.27281">
        <ele>55</ele>
        <time>2013-12-09T20:45:01.158Z</time>
      </trkpt>
      <trkpt lat="48.84723" lon="2.27292">
        <ele>53</ele>
        <time>2013-12-09T20:45:04.159Z</time>
      </trkpt>
      <trkpt lat="48.84723" lon="2.27295">
        <ele>54</ele>
        <time>2013-12-09T20:45:05.139Z</time>
      </trkpt>
      <trkpt lat="48.84724" lon="2.27307">
        <ele>58</ele>
        <time>2013-12-09T20:45:12.160Z</time>
      </trkpt>
      <trkpt lat="48.84724" lon="2.27308">
        <ele>59</ele>
        <time>2013-12-09T20:45:13.166Z</time>
      </trkpt>
      <trkpt lat="48.84727" lon="2.27312">
        <ele>64</ele>
        <time>2013-12-09T20:45:26.628Z</time>
      </trkpt>
      <trkpt lat="48.84727" lon="2.27312">
        <ele>64</ele>
        <time>2013-12-09T20:45:27.268Z</time>
      </trkpt>
      <trkpt lat="48.84728" lon="2.27313">
        <ele>65</ele>
        <time>2013-12-09T20:45:35.153Z</time>
      </trkpt>
      <trkpt lat="48.84728" lon="2.27314">
        <ele>66</ele>
        <time>2013-12-09T20:45:36.174Z</time>
      </trkpt>
      <trkpt lat="48.84727" lon="2.27327">
        <ele>67</ele>
        <time>2013-12-09T20:45:39.230Z</time>
      </trkpt>
      <trkpt lat="48.84727" lon="2.27333">
        <ele>68</ele>
        <time>2013-12-09T20:45:40.234Z</time>
      </trkpt>
      <trkpt lat="48.84726" lon="2.27346">
        <ele>69</ele>
        <time>2013-12-09T20:45:42.170Z</time>
      </trkpt>
      <trkpt lat="48.84726" lon="2.27353">
        <ele>72</ele>
        <time>2013-12-09T20:45:43.145Z</time>
      </trkpt>
      <trkpt lat="48.84725" lon="2.2736">
        <ele>73</ele>
        <time>2013-12-09T20:45:44.169Z</time>
      </trkpt>
      <trkpt lat="48.84724" lon="2.27367">
        <ele>73</ele>
        <time>2013-12-09T20:45:45.166Z</time>
      </trkpt>
      <trkpt lat="48.84722" lon="2.27374">
        <ele>74</ele>
        <time>2013-12-09T20:45:46.167Z</time>
      </trkpt>
      <trkpt lat="48.8472" lon="2.2738">
        <ele>76</ele>
        <time>2013-12-09T20:45:47.167Z</time>
      </trkpt>
      <trkpt lat="48.84718" lon="2.27388">
        <ele>77</ele>
        <time>2013-12-09T20:45:48.168Z</time>
      </trkpt>
      <trkpt lat="48.84715" lon="2.27395">
        <ele>76</ele>
        <time>2013-12-09T20:45:49.181Z</time>
      </trkpt>
      <trkpt lat="48.84713" lon="2.27402">
        <ele>74</ele>
        <time>2013-12-09T20:45:50.165Z</time>
      </trkpt>
      <trkpt lat="48.8471" lon="2.27408">
        <ele>64</ele>
        <time>2013-12-09T20:45:51.166Z</time>
      </trkpt>
      <trkpt lat="48.84706" lon="2.2742">
        <ele>67</ele>
        <time>2013-12-09T20:45:53.149Z</time>
      </trkpt>
      <trkpt lat="48.84704" lon="2.27424">
        <ele>68</ele>
        <time>2013-12-09T20:45:54.237Z</time>
      </trkpt>
      <trkpt lat="48.84701" lon="2.27434">
        <ele>68</ele>
        <time>2013-12-09T20:45:57.177Z</time>
      </trkpt>
      <trkpt lat="48.847" lon="2.27436">
        <ele>67</ele>
        <time>2013-12-09T20:45:58.219Z</time>
      </trkpt>
      <trkpt lat="48.84695" lon="2.27447">
        <ele>69</ele>
        <time>2013-12-09T20:46:01.211Z</time>
      </trkpt>
      <trkpt lat="48.84693" lon="2.27451">
        <ele>71</ele>
        <time>2013-12-09T20:46:02.183Z</time>
      </trkpt>
      <trkpt lat="48.8469" lon="2.27459">
        <ele>72</ele>
        <time>2013-12-09T20:46:04.382Z</time>
      </trkpt>
      <trkpt lat="48.84689" lon="2.27464">
        <ele>70</ele>
        <time>2013-12-09T20:46:05.175Z</time>
      </trkpt>
      <trkpt lat="48.84685" lon="2.27475">
        <ele>70</ele>
        <time>2013-12-09T20:46:07.157Z</time>
      </trkpt>
      <trkpt lat="48.84683" lon="2.2748">
        <ele>70</ele>
        <time>2013-12-09T20:46:08.182Z</time>
      </trkpt>
      <trkpt lat="48.8468" lon="2.27489">
        <ele>71</ele>
        <time>2013-12-09T20:46:10.157Z</time>
      </trkpt>
      <trkpt lat="48.84679" lon="2.27494">
        <ele>70</ele>
        <time>2013-12-09T20:46:11.234Z</time>
      </trkpt>
      <trkpt lat="48.84676" lon="2.27503">
        <ele>70</ele>
        <time>2013-12-09T20:46:13.234Z</time>
      </trkpt>
      <trkpt lat="48.84675" lon="2.27507">
        <ele>70</ele>
        <time>2013-12-09T20:46:14.172Z</time>
      </trkpt>
      <trkpt lat="48.84671" lon="2.27517">
        <ele>71</ele>
        <time>2013-12-09T20:46:16.142Z</time>
      </trkpt>
      <trkpt lat="48.84669" lon="2.27521">
        <ele>71</ele>
        <time>2013-12-09T20:46:17.229Z</time>
      </trkpt>
      <trkpt lat="48.84665" lon="2.2753">
        <ele>71</ele>
        <time>2013-12-09T20:46:19.434Z</time>
      </trkpt>
      <trkpt lat="48.84663" lon="2.27535">
        <ele>71</ele>
        <time>2013-12-09T20:46:20.232Z</time>
      </trkpt>
      <trkpt lat="48.84659" lon="2.27544">
        <ele>72</ele>
        <time>2013-12-09T20:46:22.236Z</time>
      </trkpt>
      <trkpt lat="48.84656" lon="2.27548">
        <ele>72</ele>
        <time>2013-12-09T20:46:23.235Z</time>
      </trkpt>
      <trkpt lat="48.84653" lon="2.27556">
        <ele>71</ele>
        <time>2013-12-09T20:46:25.238Z</time>
      </trkpt>
      <trkpt lat="48.84651" lon="2.2756">
        <ele>71</ele>
        <time>2013-12-09T20:46:26.451Z</time>
      </trkpt>
      <trkpt lat="48.84647" lon="2.2757">
        <ele>71</ele>
        <time>2013-12-09T20:46:28.233Z</time>
      </trkpt>
      <trkpt lat="48.84645" lon="2.27576">
        <ele>70</ele>
        <time>2013-12-09T20:46:29.180Z</time>
      </trkpt>
      <trkpt lat="48.84643" lon="2.27582">
        <ele>70</ele>
        <time>2013-12-09T20:46:30.243Z</time>
      </trkpt>
      <trkpt lat="48.8464" lon="2.27588">
        <ele>69</ele>
        <time>2013-12-09T20:46:31.240Z</time>
      </trkpt>
      <trkpt lat="48.84635" lon="2.27599">
        <ele>70</ele>
        <time>2013-12-09T20:46:33.478Z</time>
      </trkpt>
      <trkpt lat="48.84633" lon="2.27604">
        <ele>70</ele>
        <time>2013-12-09T20:46:34.153Z</time>
      </trkpt>
      <trkpt lat="48.84629" lon="2.27614">
        <ele>69</ele>
        <time>2013-12-09T20:46:36.233Z</time>
      </trkpt>
      <trkpt lat="48.84627" lon="2.27618">
        <ele>70</ele>
        <time>2013-12-09T20:46:37.232Z</time>
      </trkpt>
      <trkpt lat="48.84623" lon="2.2763">
        <ele>70</ele>
        <time>2013-12-09T20:46:40.230Z</time>
      </trkpt>
      <trkpt lat="48.84621" lon="2.27633">
        <ele>70</ele>
        <time>2013-12-09T20:46:41.235Z</time>
      </trkpt>
      <trkpt lat="48.84619" lon="2.27646">
        <ele>69</ele>
        <time>2013-12-09T20:46:46.160Z</time>
      </trkpt>
      <trkpt lat="48.84619" lon="2.27649">
        <ele>70</ele>
        <time>2013-12-09T20:46:47.167Z</time>
      </trkpt>
      <trkpt lat="48.84615" lon="2.27659">
        <ele>69</ele>
        <time>2013-12-09T20:46:52.232Z</time>
      </trkpt>
      <trkpt lat="48.84614" lon="2.2766">
        <ele>69</ele>
        <time>2013-12-09T20:46:53.237Z</time>
      </trkpt>
      <trkpt lat="48.84611" lon="2.27672">
        <ele>70</ele>
        <time>2013-12-09T20:47:03.227Z</time>
      </trkpt>
      <trkpt lat="48.8461" lon="2.27673">
        <ele>70</ele>
        <time>2013-12-09T20:47:04.164Z</time>
      </trkpt>
      <trkpt lat="48.84605" lon="2.27679">
        <ele>71</ele>
        <time>2013-12-09T20:47:08.171Z</time>
      </trkpt>
      <trkpt lat="48.84604" lon="2.27683">
        <ele>71</ele>
        <time>2013-12-09T20:47:09.204Z</time>
      </trkpt>
      <trkpt lat="48.846" lon="2.27691">
        <ele>70</ele>
        <time>2013-12-09T20:47:11.235Z</time>
      </trkpt>
      <trkpt lat="48.84599" lon="2.27695">
        <ele>70</ele>
        <time>2013-12-09T20:47:12.243Z</time>
      </trkpt>
      <trkpt lat="48.84596" lon="2.27707">
        <ele>74</ele>
        <time>2013-12-09T20:47:17.233Z</time>
      </trkpt>
      <trkpt lat="48.84597" lon="2.27709">
        <ele>74</ele>
        <time>2013-12-09T20:47:18.165Z</time>
      </trkpt>
      <trkpt lat="48.84601" lon="2.27716">
        <ele>74</ele>
        <time>2013-12-09T20:47:20.167Z</time>
      </trkpt>
      <trkpt lat="48.84603" lon="2.27721">
        <ele>74</ele>
        <time>2013-12-09T20:47:21.162Z</time>
      </trkpt>
      <trkpt lat="48.84608" lon="2.27731">
        <ele>73</ele>
        <time>2013-12-09T20:47:23.234Z</time>
      </trkpt>
      <trkpt lat="48.8461" lon="2.27736">
        <ele>71</ele>
        <time>2013-12-09T20:47:24.174Z</time>
      </trkpt>
      <trkpt lat="48.84613" lon="2.27746">
        <ele>71</ele>
        <time>2013-12-09T20:47:26.244Z</time>
      </trkpt>
      <trkpt lat="48.84614" lon="2.27751">
        <ele>72</ele>
        <time>2013-12-09T20:47:27.238Z</time>
      </trkpt>
      <trkpt lat="48.84613" lon="2.27762">
        <ele>72</ele>
        <time>2013-12-09T20:47:29.177Z</time>
      </trkpt>
      <trkpt lat="48.84612" lon="2.27768">
        <ele>70</ele>
        <time>2013-12-09T20:47:30.148Z</time>
      </trkpt>
      <trkpt lat="48.84611" lon="2.27774">
        <ele>71</ele>
        <time>2013-12-09T20:47:32.083Z</time>
      </trkpt>
      <trkpt lat="48.84609" lon="2.27781">
        <ele>71</ele>
        <time>2013-12-09T20:47:32.146Z</time>
      </trkpt>
      <trkpt lat="48.84608" lon="2.27789">
        <ele>69</ele>
        <time>2013-12-09T20:47:33.173Z</time>
      </trkpt>
      <trkpt lat="48.84607" lon="2.27797">
        <ele>68</ele>
        <time>2013-12-09T20:47:34.177Z</time>
      </trkpt>
      <trkpt lat="48.84607" lon="2.27808">
        <ele>70</ele>
        <time>2013-12-09T20:47:35.237Z</time>
      </trkpt>
      <trkpt lat="48.84608" lon="2.27819">
        <ele>70</ele>
        <time>2013-12-09T20:47:36.562Z</time>
      </trkpt>
      <trkpt lat="48.84609" lon="2.27828">
        <ele>70</ele>
        <time>2013-12-09T20:47:37.508Z</time>
      </trkpt>
      <trkpt lat="48.8461" lon="2.27836">
        <ele>71</ele>
        <time>2013-12-09T20:47:38.232Z</time>
      </trkpt>
      <trkpt lat="48.84613" lon="2.27846">
        <ele>70</ele>
        <time>2013-12-09T20:47:39.182Z</time>
      </trkpt>
      <trkpt lat="48.84615" lon="2.27856">
        <ele>70</ele>
        <time>2013-12-09T20:47:40.179Z</time>
      </trkpt>
      <trkpt lat="48.84616" lon="2.27866">
        <ele>71</ele>
        <time>2013-12-09T20:47:41.841Z</time>
      </trkpt>
      <trkpt lat="48.84617" lon="2.27875">
        <ele>72</ele>
        <time>2013-12-09T20:47:42.148Z</time>
      </trkpt>
      <trkpt lat="48.84617" lon="2.27884">
        <ele>73</ele>
        <time>2013-12-09T20:47:43.173Z</time>
      </trkpt>
      <trkpt lat="48.84618" lon="2.27892">
        <ele>74</ele>
        <time>2013-12-09T20:47:44.148Z</time>
      </trkpt>
      <trkpt lat="48.8462" lon="2.279">
        <ele>74</ele>
        <time>2013-12-09T20:47:45.242Z</time>
      </trkpt>
      <trkpt lat="48.84622" lon="2.2791">
        <ele>75</ele>
        <time>2013-12-09T20:47:46.804Z</time>
      </trkpt>
      <trkpt lat="48.84621" lon="2.27919">
        <ele>76</ele>
        <time>2013-12-09T20:47:48.422Z</time>
      </trkpt>
      <trkpt lat="48.84622" lon="2.27925">
        <ele>75</ele>
        <time>2013-12-09T20:47:49.179Z</time>
      </trkpt>
      <trkpt lat="48.84623" lon="2.27933">
        <ele>76</ele>
        <time>2013-12-09T20:47:50.230Z</time>
      </trkpt>
      <trkpt lat="48.84624" lon="2.2794">
        <ele>75</ele>
        <time>2013-12-09T20:47:51.237Z</time>
      </trkpt>
      <trkpt lat="48.84626" lon="2.27953">
        <ele>76</ele>
        <time>2013-12-09T20:47:53.232Z</time>
      </trkpt>
      <trkpt lat="48.84627" lon="2.27957">
        <ele>77</ele>
        <time>2013-12-09T20:47:54.172Z</time>
      </trkpt>
      <trkpt lat="48.84629" lon="2.27968">
        <ele>77</ele>
        <time>2013-12-09T20:47:56.235Z</time>
      </trkpt>
      <trkpt lat="48.8463" lon="2.27976">
        <ele>77</ele>
        <time>2013-12-09T20:47:57.233Z</time>
      </trkpt>
      <trkpt lat="48.84631" lon="2.27985">
        <ele>77</ele>
        <time>2013-12-09T20:47:58.261Z</time>
      </trkpt>
      <trkpt lat="48.84631" lon="2.27994">
        <ele>77</ele>
        <time>2013-12-09T20:47:59.174Z</time>
      </trkpt>
      <trkpt lat="48.8463" lon="2.28003">
        <ele>76</ele>
        <time>2013-12-09T20:48:00.157Z</time>
      </trkpt>
      <trkpt lat="48.8463" lon="2.28013">
        <ele>76</ele>
        <time>2013-12-09T20:48:01.169Z</time>
      </trkpt>
      <trkpt lat="48.84632" lon="2.28023">
        <ele>77</ele>
        <time>2013-12-09T20:48:02.142Z</time>
      </trkpt>
      <trkpt lat="48.84634" lon="2.28032">
        <ele>78</ele>
        <time>2013-12-09T20:48:03.170Z</time>
      </trkpt>
      <trkpt lat="48.84635" lon="2.2804">
        <ele>78</ele>
        <time>2013-12-09T20:48:04.844Z</time>
      </trkpt>
      <trkpt lat="48.84636" lon="2.28047">
        <ele>79</ele>
        <time>2013-12-09T20:48:05.138Z</time>
      </trkpt>
      <trkpt lat="48.84636" lon="2.28056">
        <ele>80</ele>
        <time>2013-12-09T20:48:06.140Z</time>
      </trkpt>
      <trkpt lat="48.84637" lon="2.28065">
        <ele>82</ele>
        <time>2013-12-09T20:48:07.160Z</time>
      </trkpt>
      <trkpt lat="48.84638" lon="2.28076">
        <ele>81</ele>
        <time>2013-12-09T20:48:08.174Z</time>
      </trkpt>
      <trkpt lat="48.84638" lon="2.28085">
        <ele>81</ele>
        <time>2013-12-09T20:48:09.183Z</time>
      </trkpt>
      <trkpt lat="48.84639" lon="2.28094">
        <ele>83</ele>
        <time>2013-12-09T20:48:10.244Z</time>
      </trkpt>
      <trkpt lat="48.84638" lon="2.28102">
        <ele>79</ele>
        <time>2013-12-09T20:48:11.234Z</time>
      </trkpt>
      <trkpt lat="48.84637" lon="2.2811">
        <ele>80</ele>
        <time>2013-12-09T20:48:12.239Z</time>
      </trkpt>
      <trkpt lat="48.84637" lon="2.28117">
        <ele>80</ele>
        <time>2013-12-09T20:48:13.235Z</time>
      </trkpt>
      <trkpt lat="48.84636" lon="2.28124">
        <ele>79</ele>
        <time>2013-12-09T20:48:14.164Z</time>
      </trkpt>
      <trkpt lat="48.84634" lon="2.28131">
        <ele>78</ele>
        <time>2013-12-09T20:48:15.154Z</time>
      </trkpt>
      <trkpt lat="48.84633" lon="2.28138">
        <ele>77</ele>
        <time>2013-12-09T20:48:16.160Z</time>
      </trkpt>
      <trkpt lat="48.84632" lon="2.28146">
        <ele>78</ele>
        <time>2013-12-09T20:48:17.160Z</time>
      </trkpt>
      <trkpt lat="48.84633" lon="2.28155">
        <ele>77</ele>
        <time>2013-12-09T20:48:18.148Z</time>
      </trkpt>
      <trkpt lat="48.84633" lon="2.28162">
        <ele>80</ele>
        <time>2013-12-09T20:48:19.162Z</time>
      </trkpt>
      <trkpt lat="48.84634" lon="2.28169">
        <ele>81</ele>
        <time>2013-12-09T20:48:20.233Z</time>
      </trkpt>
      <trkpt lat="48.84634" lon="2.28176">
        <ele>81</ele>
        <time>2013-12-09T20:48:21.259Z</time>
      </trkpt>
      <trkpt lat="48.84635" lon="2.28188">
        <ele>82</ele>
        <time>2013-12-09T20:48:23.229Z</time>
      </trkpt>
      <trkpt lat="48.84636" lon="2.28193">
        <ele>81</ele>
        <time>2013-12-09T20:48:24.156Z</time>
      </trkpt>
      <trkpt lat="48.84637" lon="2.28205">
        <ele>80</ele>
        <time>2013-12-09T20:48:26.233Z</time>
      </trkpt>
      <trkpt lat="48.84639" lon="2.28212">
        <ele>80</ele>
        <time>2013-12-09T20:48:27.462Z</time>
      </trkpt>
      <trkpt lat="48.84642" lon="2.28223">
        <ele>79</ele>
        <time>2013-12-09T20:48:29.956Z</time>
      </trkpt>
      <trkpt lat="48.84643" lon="2.28231">
        <ele>79</ele>
        <time>2013-12-09T20:48:30.229Z</time>
      </trkpt>
      <trkpt lat="48.84644" lon="2.28244">
        <ele>79</ele>
        <time>2013-12-09T20:48:32.229Z</time>
      </trkpt>
      <trkpt lat="48.84644" lon="2.28251">
        <ele>81</ele>
        <time>2013-12-09T20:48:33.236Z</time>
      </trkpt>
      <trkpt lat="48.84645" lon="2.28258">
        <ele>81</ele>
        <time>2013-12-09T20:48:34.987Z</time>
      </trkpt>
      <trkpt lat="48.84646" lon="2.28266">
        <ele>83</ele>
        <time>2013-12-09T20:48:35.255Z</time>
      </trkpt>
      <trkpt lat="48.84646" lon="2.28273">
        <ele>84</ele>
        <time>2013-12-09T20:48:36.238Z</time>
      </trkpt>
      <trkpt lat="48.84647" lon="2.2828">
        <ele>86</ele>
        <time>2013-12-09T20:48:37.230Z</time>
      </trkpt>
      <trkpt lat="48.84647" lon="2.28293">
        <ele>88</ele>
        <time>2013-12-09T20:48:39.986Z</time>
      </trkpt>
      <trkpt lat="48.84647" lon="2.28299">
        <ele>88</ele>
        <time>2013-12-09T20:48:40.253Z</time>
      </trkpt>
      <trkpt lat="48.84647" lon="2.28309">
        <ele>87</ele>
        <time>2013-12-09T20:48:42.235Z</time>
      </trkpt>
      <trkpt lat="48.84647" lon="2.28313">
        <ele>87</ele>
        <time>2013-12-09T20:48:43.246Z</time>
      </trkpt>
      <trkpt lat="48.84647" lon="2.28323">
        <ele>88</ele>
        <time>2013-12-09T20:48:45.172Z</time>
      </trkpt>
      <trkpt lat="48.84646" lon="2.28328">
        <ele>88</ele>
        <time>2013-12-09T20:48:46.170Z</time>
      </trkpt>
      <trkpt lat="48.84646" lon="2.2834">
        <ele>90</ele>
        <time>2013-12-09T20:48:48.169Z</time>
      </trkpt>
      <trkpt lat="48.84646" lon="2.28345">
        <ele>89</ele>
        <time>2013-12-09T20:48:49.277Z</time>
      </trkpt>
      <trkpt lat="48.84646" lon="2.28355">
        <ele>89</ele>
        <time>2013-12-09T20:48:51.168Z</time>
      </trkpt>
      <trkpt lat="48.84646" lon="2.2836">
        <ele>88</ele>
        <time>2013-12-09T20:48:52.230Z</time>
      </trkpt>
      <trkpt lat="48.84646" lon="2.2837">
        <ele>91</ele>
        <time>2013-12-09T20:48:54.509Z</time>
      </trkpt>
      <trkpt lat="48.84645" lon="2.28376">
        <ele>93</ele>
        <time>2013-12-09T20:48:55.233Z</time>
      </trkpt>
      <trkpt lat="48.84644" lon="2.28388">
        <ele>93</ele>
        <time>2013-12-09T20:48:57.234Z</time>
      </trkpt>
      <trkpt lat="48.84644" lon="2.28394">
        <ele>94</ele>
        <time>2013-12-09T20:48:58.233Z</time>
      </trkpt>
      <trkpt lat="48.84645" lon="2.28407">
        <ele>92</ele>
        <time>2013-12-09T20:49:00.542Z</time>
      </trkpt>
      <trkpt lat="48.84645" lon="2.28412">
        <ele>93</ele>
        <time>2013-12-09T20:49:01.234Z</time>
      </trkpt>
      <trkpt lat="48.84646" lon="2.28419">
        <ele>93</ele>
        <time>2013-12-09T20:49:02.235Z</time>
      </trkpt>
      <trkpt lat="48.84647" lon="2.28426">
        <ele>94</ele>
        <time>2013-12-09T20:49:03.232Z</time>
      </trkpt>
      <trkpt lat="48.84648" lon="2.28433">
        <ele>93</ele>
        <time>2013-12-09T20:49:04.563Z</time>
      </trkpt>
      <trkpt lat="48.84651" lon="2.2844">
        <ele>93</ele>
        <time>2013-12-09T20:49:05.154Z</time>
      </trkpt>
      <trkpt lat="48.84653" lon="2.28448">
        <ele>92</ele>
        <time>2013-12-09T20:49:06.171Z</time>
      </trkpt>
      <trkpt lat="48.84655" lon="2.28456">
        <ele>93</ele>
        <time>2013-12-09T20:49:07.182Z</time>
      </trkpt>
      <trkpt lat="48.84656" lon="2.28466">
        <ele>93</ele>
        <time>2013-12-09T20:49:09.543Z</time>
      </trkpt>
      <trkpt lat="48.84656" lon="2.28471">
        <ele>92</ele>
        <time>2013-12-09T20:49:10.239Z</time>
      </trkpt>
      <trkpt lat="48.84657" lon="2.28481">
        <ele>91</ele>
        <time>2013-12-09T20:49:12.229Z</time>
      </trkpt>
      <trkpt lat="48.84657" lon="2.28486">
        <ele>91</ele>
        <time>2013-12-09T20:49:13.231Z</time>
      </trkpt>
      <trkpt lat="48.84657" lon="2.28497">
        <ele>91</ele>
        <time>2013-12-09T20:49:15.240Z</time>
      </trkpt>
      <trkpt lat="48.84657" lon="2.28502">
        <ele>93</ele>
        <time>2013-12-09T20:49:16.235Z</time>
      </trkpt>
      <trkpt lat="48.84658" lon="2.28513">
        <ele>95</ele>
        <time>2013-12-09T20:49:18.236Z</time>
      </trkpt>
      <trkpt lat="48.84659" lon="2.28518">
        <ele>95</ele>
        <time>2013-12-09T20:49:19.177Z</time>
      </trkpt>
      <trkpt lat="48.84659" lon="2.2853">
        <ele>95</ele>
        <time>2013-12-09T20:49:21.229Z</time>
      </trkpt>
      <trkpt lat="48.8466" lon="2.28537">
        <ele>95</ele>
        <time>2013-12-09T20:49:22.229Z</time>
      </trkpt>
      <trkpt lat="48.8466" lon="2.28544">
        <ele>95</ele>
        <time>2013-12-09T20:49:23.233Z</time>
      </trkpt>
      <trkpt lat="48.8466" lon="2.28551">
        <ele>93</ele>
        <time>2013-12-09T20:49:24.178Z</time>
      </trkpt>
      <trkpt lat="48.8466" lon="2.28558">
        <ele>92</ele>
        <time>2013-12-09T20:49:25.224Z</time>
      </trkpt>
      <trkpt lat="48.84661" lon="2.28565">
        <ele>93</ele>
        <time>2013-12-09T20:49:26.237Z</time>
      </trkpt>
      <trkpt lat="48.84661" lon="2.28576">
        <ele>96</ele>
        <time>2013-12-09T20:49:28.245Z</time>
      </trkpt>
      <trkpt lat="48.84661" lon="2.28581">
        <ele>99</ele>
        <time>2013-12-09T20:49:29.154Z</time>
      </trkpt>
      <trkpt lat="48.8466" lon="2.28592">
        <ele>104</ele>
        <time>2013-12-09T20:49:32.238Z</time>
      </trkpt>
      <trkpt lat="48.84658" lon="2.28595">
        <ele>103</ele>
        <time>2013-12-09T20:49:33.235Z</time>
      </trkpt>
      <trkpt lat="48.84655" lon="2.28606">
        <ele>103</ele>
        <time>2013-12-09T20:49:36.257Z</time>
      </trkpt>
      <trkpt lat="48.84654" lon="2.28612">
        <ele>102</ele>
        <time>2013-12-09T20:49:37.248Z</time>
      </trkpt>
      <trkpt lat="48.84655" lon="2.28623">
        <ele>102</ele>
        <time>2013-12-09T20:49:39.169Z</time>
      </trkpt>
      <trkpt lat="48.84655" lon="2.2863">
        <ele>99</ele>
        <time>2013-12-09T20:49:40.143Z</time>
      </trkpt>
      <trkpt lat="48.84656" lon="2.28637">
        <ele>100</ele>
        <time>2013-12-09T20:49:41.166Z</time>
      </trkpt>
      <trkpt lat="48.84656" lon="2.28644">
        <ele>99</ele>
        <time>2013-12-09T20:49:42.166Z</time>
      </trkpt>
      <trkpt lat="48.84656" lon="2.28652">
        <ele>100</ele>
        <time>2013-12-09T20:49:43.142Z</time>
      </trkpt>
      <trkpt lat="48.84657" lon="2.28659">
        <ele>100</ele>
        <time>2013-12-09T20:49:44.141Z</time>
      </trkpt>
      <trkpt lat="48.84658" lon="2.28666">
        <ele>100</ele>
        <time>2013-12-09T20:49:45.171Z</time>
      </trkpt>
      <trkpt lat="48.84658" lon="2.28673">
        <ele>99</ele>
        <time>2013-12-09T20:49:46.142Z</time>
      </trkpt>
      <trkpt lat="48.84659" lon="2.28681">
        <ele>99</ele>
        <time>2013-12-09T20:49:47.229Z</time>
      </trkpt>
      <trkpt lat="48.8466" lon="2.28691">
        <ele>100</ele>
        <time>2013-12-09T20:49:48.525Z</time>
      </trkpt>
      <trkpt lat="48.84662" lon="2.28699">
        <ele>99</ele>
        <time>2013-12-09T20:49:49.643Z</time>
      </trkpt>
      <trkpt lat="48.84663" lon="2.28706">
        <ele>99</ele>
        <time>2013-12-09T20:49:50.235Z</time>
      </trkpt>
      <trkpt lat="48.84664" lon="2.28715">
        <ele>99</ele>
        <time>2013-12-09T20:49:51.230Z</time>
      </trkpt>
      <trkpt lat="48.84665" lon="2.28721">
        <ele>99</ele>
        <time>2013-12-09T20:49:52.238Z</time>
      </trkpt>
      <trkpt lat="48.84666" lon="2.28732">
        <ele>96</ele>
        <time>2013-12-09T20:49:54.686Z</time>
      </trkpt>
      <trkpt lat="48.84666" lon="2.28738">
        <ele>97</ele>
        <time>2013-12-09T20:49:55.230Z</time>
      </trkpt>
      <trkpt lat="48.84668" lon="2.2875">
        <ele>97</ele>
        <time>2013-12-09T20:49:57.232Z</time>
      </trkpt>
      <trkpt lat="48.8467" lon="2.28756">
        <ele>100</ele>
        <time>2013-12-09T20:49:58.234Z</time>
      </trkpt>
      <trkpt lat="48.84672" lon="2.28762">
        <ele>99</ele>
        <time>2013-12-09T20:49:59.691Z</time>
      </trkpt>
      <trkpt lat="48.84673" lon="2.2877">
        <ele>100</ele>
        <time>2013-12-09T20:50:00.140Z</time>
      </trkpt>
      <trkpt lat="48.84674" lon="2.28778">
        <ele>100</ele>
        <time>2013-12-09T20:50:01.161Z</time>
      </trkpt>
      <trkpt lat="48.84676" lon="2.28786">
        <ele>100</ele>
        <time>2013-12-09T20:50:02.135Z</time>
      </trkpt>
      <trkpt lat="48.84677" lon="2.28795">
        <ele>101</ele>
        <time>2013-12-09T20:50:03.164Z</time>
      </trkpt>
      <trkpt lat="48.84678" lon="2.28805">
        <ele>101</ele>
        <time>2013-12-09T20:50:04.138Z</time>
      </trkpt>
      <trkpt lat="48.84679" lon="2.28813">
        <ele>102</ele>
        <time>2013-12-09T20:50:05.170Z</time>
      </trkpt>
      <trkpt lat="48.84679" lon="2.28822">
        <ele>102</ele>
        <time>2013-12-09T20:50:06.167Z</time>
      </trkpt>
      <trkpt lat="48.8468" lon="2.28832">
        <ele>100</ele>
        <time>2013-12-09T20:50:08.139Z</time>
      </trkpt>
      <trkpt lat="48.8468" lon="2.28837">
        <ele>98</ele>
        <time>2013-12-09T20:50:09.164Z</time>
      </trkpt>
      <trkpt lat="48.84681" lon="2.28847">
        <ele>96</ele>
        <time>2013-12-09T20:50:11.242Z</time>
      </trkpt>
      <trkpt lat="48.84681" lon="2.28852">
        <ele>95</ele>
        <time>2013-12-09T20:50:12.234Z</time>
      </trkpt>
      <trkpt lat="48.84681" lon="2.28864">
        <ele>95</ele>
        <time>2013-12-09T20:50:14.755Z</time>
      </trkpt>
      <trkpt lat="48.8468" lon="2.28871">
        <ele>92</ele>
        <time>2013-12-09T20:50:15.239Z</time>
      </trkpt>
      <trkpt lat="48.84678" lon="2.28878">
        <ele>91</ele>
        <time>2013-12-09T20:50:16.232Z</time>
      </trkpt>
      <trkpt lat="48.84677" lon="2.28885">
        <ele>92</ele>
        <time>2013-12-09T20:50:17.271Z</time>
      </trkpt>
      <trkpt lat="48.84676" lon="2.28892">
        <ele>92</ele>
        <time>2013-12-09T20:50:18.257Z</time>
      </trkpt>
      <trkpt lat="48.84674" lon="2.28899">
        <ele>93</ele>
        <time>2013-12-09T20:50:19.264Z</time>
      </trkpt>
      <trkpt lat="48.84671" lon="2.2891">
        <ele>96</ele>
        <time>2013-12-09T20:50:21.153Z</time>
      </trkpt>
      <trkpt lat="48.8467" lon="2.28916">
        <ele>97</ele>
        <time>2013-12-09T20:50:22.153Z</time>
      </trkpt>
      <trkpt lat="48.84668" lon="2.28928">
        <ele>99</ele>
        <time>2013-12-09T20:50:24.237Z</time>
      </trkpt>
      <trkpt lat="48.84667" lon="2.28935">
        <ele>99</ele>
        <time>2013-12-09T20:50:25.244Z</time>
      </trkpt>
      <trkpt lat="48.84667" lon="2.28941">
        <ele>98</ele>
        <time>2013-12-09T20:50:26.172Z</time>
      </trkpt>
      <trkpt lat="48.84667" lon="2.28948">
        <ele>97</ele>
        <time>2013-12-09T20:50:27.170Z</time>
      </trkpt>
      <trkpt lat="48.84667" lon="2.28956">
        <ele>97</ele>
        <time>2013-12-09T20:50:28.167Z</time>
      </trkpt>
      <trkpt lat="48.84667" lon="2.28964">
        <ele>96</ele>
        <time>2013-12-09T20:50:29.230Z</time>
      </trkpt>
      <trkpt lat="48.84668" lon="2.28975">
        <ele>96</ele>
        <time>2013-12-09T20:50:30.268Z</time>
      </trkpt>
      <trkpt lat="48.84668" lon="2.28986">
        <ele>95</ele>
        <time>2013-12-09T20:50:31.171Z</time>
      </trkpt>
      <trkpt lat="48.84668" lon="2.28997">
        <ele>94</ele>
        <time>2013-12-09T20:50:32.281Z</time>
      </trkpt>
      <trkpt lat="48.84669" lon="2.29009">
        <ele>95</ele>
        <time>2013-12-09T20:50:33.240Z</time>
      </trkpt>
      <trkpt lat="48.84669" lon="2.2902">
        <ele>95</ele>
        <time>2013-12-09T20:50:34.246Z</time>
      </trkpt>
      <trkpt lat="48.8467" lon="2.29029">
        <ele>94</ele>
        <time>2013-12-09T20:50:35.246Z</time>
      </trkpt>
      <trkpt lat="48.84672" lon="2.29038">
        <ele>93</ele>
        <time>2013-12-09T20:50:36.175Z</time>
      </trkpt>
      <trkpt lat="48.84673" lon="2.29047">
        <ele>92</ele>
        <time>2013-12-09T20:50:37.175Z</time>
      </trkpt>
      <trkpt lat="48.84675" lon="2.29058">
        <ele>92</ele>
        <time>2013-12-09T20:50:38.242Z</time>
      </trkpt>
      <trkpt lat="48.84676" lon="2.29067">
        <ele>93</ele>
        <time>2013-12-09T20:50:39.236Z</time>
      </trkpt>
      <trkpt lat="48.84678" lon="2.29075">
        <ele>93</ele>
        <time>2013-12-09T20:50:40.447Z</time>
      </trkpt>
      <trkpt lat="48.84679" lon="2.29082">
        <ele>95</ele>
        <time>2013-12-09T20:50:41.174Z</time>
      </trkpt>
      <trkpt lat="48.84681" lon="2.29089">
        <ele>94</ele>
        <time>2013-12-09T20:50:42.289Z</time>
      </trkpt>
      <trkpt lat="48.84682" lon="2.29095">
        <ele>93</ele>
        <time>2013-12-09T20:50:43.236Z</time>
      </trkpt>
      <trkpt lat="48.84683" lon="2.29103">
        <ele>93</ele>
        <time>2013-12-09T20:50:44.243Z</time>
      </trkpt>
      <trkpt lat="48.84682" lon="2.29112">
        <ele>94</ele>
        <time>2013-12-09T20:50:45.230Z</time>
      </trkpt>
      <trkpt lat="48.84682" lon="2.29121">
        <ele>95</ele>
        <time>2013-12-09T20:50:46.177Z</time>
      </trkpt>
      <trkpt lat="48.84681" lon="2.2913">
        <ele>95</ele>
        <time>2013-12-09T20:50:47.171Z</time>
      </trkpt>
      <trkpt lat="48.84682" lon="2.2914">
        <ele>96</ele>
        <time>2013-12-09T20:50:48.233Z</time>
      </trkpt>
      <trkpt lat="48.84683" lon="2.29148">
        <ele>94</ele>
        <time>2013-12-09T20:50:49.237Z</time>
      </trkpt>
      <trkpt lat="48.84684" lon="2.29156">
        <ele>91</ele>
        <time>2013-12-09T20:50:50.232Z</time>
      </trkpt>
      <trkpt lat="48.84685" lon="2.29164">
        <ele>91</ele>
        <time>2013-12-09T20:50:51.177Z</time>
      </trkpt>
      <trkpt lat="48.84686" lon="2.29173">
        <ele>91</ele>
        <time>2013-12-09T20:50:52.293Z</time>
      </trkpt>
      <trkpt lat="48.84686" lon="2.2918">
        <ele>88</ele>
        <time>2013-12-09T20:50:53.240Z</time>
      </trkpt>
      <trkpt lat="48.84685" lon="2.29193">
        <ele>86</ele>
        <time>2013-12-09T20:50:55.446Z</time>
      </trkpt>
      <trkpt lat="48.84685" lon="2.29198">
        <ele>84</ele>
        <time>2013-12-09T20:50:56.445Z</time>
      </trkpt>
      <trkpt lat="48.84686" lon="2.29205">
        <ele>85</ele>
        <time>2013-12-09T20:50:57.421Z</time>
      </trkpt>
      <trkpt lat="48.84687" lon="2.29213">
        <ele>86</ele>
        <time>2013-12-09T20:50:58.448Z</time>
      </trkpt>
      <trkpt lat="48.84689" lon="2.29221">
        <ele>89</ele>
        <time>2013-12-09T20:50:59.435Z</time>
      </trkpt>
      <trkpt lat="48.84691" lon="2.29229">
        <ele>91</ele>
        <time>2013-12-09T20:51:00.475Z</time>
      </trkpt>
      <trkpt lat="48.84692" lon="2.29239">
        <ele>90</ele>
        <time>2013-12-09T20:51:02.368Z</time>
      </trkpt>
      <trkpt lat="48.84693" lon="2.29247">
        <ele>90</ele>
        <time>2013-12-09T20:51:02.420Z</time>
      </trkpt>
      <trkpt lat="48.84693" lon="2.29256">
        <ele>89</ele>
        <time>2013-12-09T20:51:03.415Z</time>
      </trkpt>
      <trkpt lat="48.84694" lon="2.29264">
        <ele>89</ele>
        <time>2013-12-09T20:51:04.280Z</time>
      </trkpt>
      <trkpt lat="48.84695" lon="2.29271">
        <ele>89</ele>
        <time>2013-12-09T20:51:05.238Z</time>
      </trkpt>
      <trkpt lat="48.84696" lon="2.29279">
        <ele>90</ele>
        <time>2013-12-09T20:51:06.233Z</time>
      </trkpt>
      <trkpt lat="48.84697" lon="2.29287">
        <ele>91</ele>
        <time>2013-12-09T20:51:07.169Z</time>
      </trkpt>
      <trkpt lat="48.84699" lon="2.29295">
        <ele>92</ele>
        <time>2013-12-09T20:51:08.167Z</time>
      </trkpt>
      <trkpt lat="48.847" lon="2.29303">
        <ele>93</ele>
        <time>2013-12-09T20:51:10.091Z</time>
      </trkpt>
      <trkpt lat="48.84699" lon="2.29311">
        <ele>91</ele>
        <time>2013-12-09T20:51:10.135Z</time>
      </trkpt>
      <trkpt lat="48.84696" lon="2.29322">
        <ele>92</ele>
        <time>2013-12-09T20:51:12.419Z</time>
      </trkpt>
      <trkpt lat="48.84696" lon="2.29327">
        <ele>93</ele>
        <time>2013-12-09T20:51:13.229Z</time>
      </trkpt>
      <trkpt lat="48.84697" lon="2.29336">
        <ele>94</ele>
        <time>2013-12-09T20:51:14.535Z</time>
      </trkpt>
      <trkpt lat="48.84699" lon="2.29343">
        <ele>94</ele>
        <time>2013-12-09T20:51:15.525Z</time>
      </trkpt>
      <trkpt lat="48.84702" lon="2.29355">
        <ele>97</ele>
        <time>2013-12-09T20:51:17.459Z</time>
      </trkpt>
      <trkpt lat="48.84702" lon="2.2936">
        <ele>97</ele>
        <time>2013-12-09T20:51:18.465Z</time>
      </trkpt>
      <trkpt lat="48.84705" lon="2.29372">
        <ele>97</ele>
        <time>2013-12-09T20:51:20.450Z</time>
      </trkpt>
      <trkpt lat="48.84705" lon="2.2938">
        <ele>98</ele>
        <time>2013-12-09T20:51:21.381Z</time>
      </trkpt>
      <trkpt lat="48.84706" lon="2.29389">
        <ele>97</ele>
        <time>2013-12-09T20:51:22.421Z</time>
      </trkpt>
      <trkpt lat="48.84706" lon="2.29398">
        <ele>97</ele>
        <time>2013-12-09T20:51:23.381Z</time>
      </trkpt>
      <trkpt lat="48.84705" lon="2.29412">
        <ele>95</ele>
        <time>2013-12-09T20:51:25.236Z</time>
      </trkpt>
      <trkpt lat="48.84705" lon="2.29418">
        <ele>96</ele>
        <time>2013-12-09T20:51:26.830Z</time>
      </trkpt>
      <trkpt lat="48.84706" lon="2.29428">
        <ele>95</ele>
        <time>2013-12-09T20:51:29.235Z</time>
      </trkpt>
      <trkpt lat="48.84707" lon="2.29434">
        <ele>95</ele>
        <time>2013-12-09T20:51:30.238Z</time>
      </trkpt>
      <trkpt lat="48.84707" lon="2.29445">
        <ele>95</ele>
        <time>2013-12-09T20:51:32.538Z</time>
      </trkpt>
      <trkpt lat="48.84706" lon="2.29452">
        <ele>95</ele>
        <time>2013-12-09T20:51:33.406Z</time>
      </trkpt>
      <trkpt lat="48.84705" lon="2.29459">
        <ele>96</ele>
        <time>2013-12-09T20:51:34.483Z</time>
      </trkpt>
      <trkpt lat="48.84705" lon="2.29466">
        <ele>95</ele>
        <time>2013-12-09T20:51:35.404Z</time>
      </trkpt>
      <trkpt lat="48.84705" lon="2.29474">
        <ele>96</ele>
        <time>2013-12-09T20:51:36.379Z</time>
      </trkpt>
      <trkpt lat="48.84705" lon="2.29481">
        <ele>96</ele>
        <time>2013-12-09T20:51:37.384Z</time>
      </trkpt>
      <trkpt lat="48.84707" lon="2.29495">
        <ele>95</ele>
        <time>2013-12-09T20:51:39.242Z</time>
      </trkpt>
      <trkpt lat="48.84708" lon="2.29501">
        <ele>94</ele>
        <time>2013-12-09T20:51:40.232Z</time>
      </trkpt>
      <trkpt lat="48.84709" lon="2.29513">
        <ele>94</ele>
        <time>2013-12-09T20:51:42.141Z</time>
      </trkpt>
      <trkpt lat="48.84709" lon="2.29519">
        <ele>96</ele>
        <time>2013-12-09T20:51:43.233Z</time>
      </trkpt>
      <trkpt lat="48.8471" lon="2.29531">
        <ele>96</ele>
        <time>2013-12-09T20:51:45.233Z</time>
      </trkpt>
      <trkpt lat="48.84711" lon="2.29536">
        <ele>97</ele>
        <time>2013-12-09T20:51:46.229Z</time>
      </trkpt>
      <trkpt lat="48.84711" lon="2.29548">
        <ele>97</ele>
        <time>2013-12-09T20:51:48.233Z</time>
      </trkpt>
      <trkpt lat="48.84712" lon="2.29554">
        <ele>97</ele>
        <time>2013-12-09T20:51:49.229Z</time>
      </trkpt>
      <trkpt lat="48.84712" lon="2.29565">
        <ele>92</ele>
        <time>2013-12-09T20:51:52.166Z</time>
      </trkpt>
      <trkpt lat="48.84712" lon="2.29568">
        <ele>92</ele>
        <time>2013-12-09T20:51:53.205Z</time>
      </trkpt>
      <trkpt lat="48.84711" lon="2.29582">
        <ele>91</ele>
        <time>2013-12-09T20:51:57.660Z</time>
      </trkpt>
      <trkpt lat="48.84712" lon="2.29584">
        <ele>90</ele>
        <time>2013-12-09T20:51:58.670Z</time>
      </trkpt>
      <trkpt lat="48.84717" lon="2.29594">
        <ele>85</ele>
        <time>2013-12-09T20:52:03.665Z</time>
      </trkpt>
      <trkpt lat="48.84718" lon="2.29596">
        <ele>86</ele>
        <time>2013-12-09T20:52:04.695Z</time>
      </trkpt>
      <trkpt lat="48.84721" lon="2.29606">
        <ele>86</ele>
        <time>2013-12-09T20:52:08.682Z</time>
      </trkpt>
      <trkpt lat="48.84722" lon="2.29608">
        <ele>86</ele>
        <time>2013-12-09T20:52:09.675Z</time>
      </trkpt>
      <trkpt lat="48.84724" lon="2.2962">
        <ele>89</ele>
        <time>2013-12-09T20:52:14.662Z</time>
      </trkpt>
      <trkpt lat="48.84723" lon="2.29627">
        <ele>89</ele>
        <time>2013-12-09T20:52:15.665Z</time>
      </trkpt>
      <trkpt lat="48.84722" lon="2.29634">
        <ele>89</ele>
        <time>2013-12-09T20:52:16.665Z</time>
      </trkpt>
      <trkpt lat="48.8472" lon="2.29642">
        <ele>90</ele>
        <time>2013-12-09T20:52:17.719Z</time>
      </trkpt>
      <trkpt lat="48.84719" lon="2.2965">
        <ele>90</ele>
        <time>2013-12-09T20:52:18.678Z</time>
      </trkpt>
      <trkpt lat="48.84717" lon="2.29659">
        <ele>88</ele>
        <time>2013-12-09T20:52:19.691Z</time>
      </trkpt>
      <trkpt lat="48.84715" lon="2.29667">
        <ele>87</ele>
        <time>2013-12-09T20:52:20.661Z</time>
      </trkpt>
      <trkpt lat="48.84714" lon="2.29678">
        <ele>87</ele>
        <time>2013-12-09T20:52:21.729Z</time>
      </trkpt>
      <trkpt lat="48.84712" lon="2.29688">
        <ele>88</ele>
        <time>2013-12-09T20:52:22.660Z</time>
      </trkpt>
      <trkpt lat="48.84711" lon="2.29696">
        <ele>87</ele>
        <time>2013-12-09T20:52:23.665Z</time>
      </trkpt>
      <trkpt lat="48.84711" lon="2.29706">
        <ele>87</ele>
        <time>2013-12-09T20:52:24.661Z</time>
      </trkpt>
      <trkpt lat="48.84718" lon="2.29715">
        <ele>85</ele>
        <time>2013-12-09T20:52:25.690Z</time>
      </trkpt>
      <trkpt lat="48.84725" lon="2.29724">
        <ele>84</ele>
        <time>2013-12-09T20:52:26.685Z</time>
      </trkpt>
      <trkpt lat="48.8473" lon="2.29732">
        <ele>83</ele>
        <time>2013-12-09T20:52:27.669Z</time>
      </trkpt>
      <trkpt lat="48.84732" lon="2.29739">
        <ele>80</ele>
        <time>2013-12-09T20:52:28.692Z</time>
      </trkpt>
      <trkpt lat="48.84734" lon="2.29745">
        <ele>81</ele>
        <time>2013-12-09T20:52:29.701Z</time>
      </trkpt>
      <trkpt lat="48.84732" lon="2.29758">
        <ele>88</ele>
        <time>2013-12-09T20:52:34.674Z</time>
      </trkpt>
      <trkpt lat="48.84732" lon="2.29762">
        <ele>86</ele>
        <time>2013-12-09T20:52:35.467Z</time>
      </trkpt>
      <trkpt lat="48.8473" lon="2.29775">
        <ele>82</ele>
        <time>2013-12-09T20:52:37.736Z</time>
      </trkpt>
      <trkpt lat="48.84728" lon="2.29782">
        <ele>82</ele>
        <time>2013-12-09T20:52:38.403Z</time>
      </trkpt>
      <trkpt lat="48.84726" lon="2.29793">
        <ele>80</ele>
        <time>2013-12-09T20:52:40.240Z</time>
      </trkpt>
      <trkpt lat="48.84726" lon="2.298">
        <ele>80</ele>
        <time>2013-12-09T20:52:41.244Z</time>
      </trkpt>
      <trkpt lat="48.84729" lon="2.29811">
        <ele>80</ele>
        <time>2013-12-09T20:52:43.243Z</time>
      </trkpt>
      <trkpt lat="48.84731" lon="2.29816">
        <ele>80</ele>
        <time>2013-12-09T20:52:44.228Z</time>
      </trkpt>
      <trkpt lat="48.84736" lon="2.29828">
        <ele>80</ele>
        <time>2013-12-09T20:52:46.231Z</time>
      </trkpt>
      <trkpt lat="48.84738" lon="2.29833">
        <ele>80</ele>
        <time>2013-12-09T20:52:47.164Z</time>
      </trkpt>
      <trkpt lat="48.84741" lon="2.29839">
        <ele>80</ele>
        <time>2013-12-09T20:52:48.161Z</time>
      </trkpt>
      <trkpt lat="48.84743" lon="2.29845">
        <ele>82</ele>
        <time>2013-12-09T20:52:49.159Z</time>
      </trkpt>
      <trkpt lat="48.84748" lon="2.29856">
        <ele>83</ele>
        <time>2013-12-09T20:52:51.161Z</time>
      </trkpt>
      <trkpt lat="48.84751" lon="2.29861">
        <ele>82</ele>
        <time>2013-12-09T20:52:52.159Z</time>
      </trkpt>
      <trkpt lat="48.84755" lon="2.2987">
        <ele>82</ele>
        <time>2013-12-09T20:52:54.889Z</time>
      </trkpt>
      <trkpt lat="48.84757" lon="2.29875">
        <ele>80</ele>
        <time>2013-12-09T20:52:55.238Z</time>
      </trkpt>
      <trkpt lat="48.84761" lon="2.29885">
        <ele>82</ele>
        <time>2013-12-09T20:52:57.611Z</time>
      </trkpt>
      <trkpt lat="48.84763" lon="2.2989">
        <ele>82</ele>
        <time>2013-12-09T20:52:58.607Z</time>
      </trkpt>
      <trkpt lat="48.84765" lon="2.29899">
        <ele>82</ele>
        <time>2013-12-09T20:53:00.285Z</time>
      </trkpt>
      <trkpt lat="48.84766" lon="2.29904">
        <ele>76</ele>
        <time>2013-12-09T20:53:01.233Z</time>
      </trkpt>
      <trkpt lat="48.84768" lon="2.29913">
        <ele>66</ele>
        <time>2013-12-09T20:53:03.232Z</time>
      </trkpt>
      <trkpt lat="48.84768" lon="2.29917">
        <ele>65</ele>
        <time>2013-12-09T20:53:04.143Z</time>
      </trkpt>
      <trkpt lat="48.84771" lon="2.29926">
        <ele>67</ele>
        <time>2013-12-09T20:53:06.134Z</time>
      </trkpt>
      <trkpt lat="48.84772" lon="2.29933">
        <ele>67</ele>
        <time>2013-12-09T20:53:07.229Z</time>
      </trkpt>
      <trkpt lat="48.84772" lon="2.2994">
        <ele>66</ele>
        <time>2013-12-09T20:53:08.236Z</time>
      </trkpt>
      <trkpt lat="48.84773" lon="2.29946">
        <ele>62</ele>
        <time>2013-12-09T20:53:09.175Z</time>
      </trkpt>
      <trkpt lat="48.84776" lon="2.29958">
        <ele>58</ele>
        <time>2013-12-09T20:53:11.228Z</time>
      </trkpt>
      <trkpt lat="48.84777" lon="2.29962">
        <ele>57</ele>
        <time>2013-12-09T20:53:12.230Z</time>
      </trkpt>
      <trkpt lat="48.84779" lon="2.29972">
        <ele>51</ele>
        <time>2013-12-09T20:53:15.135Z</time>
      </trkpt>
      <trkpt lat="48.8478" lon="2.29975">
        <ele>48</ele>
        <time>2013-12-09T20:53:16.135Z</time>
      </trkpt>
      <trkpt lat="48.8478" lon="2.29986">
        <ele>43</ele>
        <time>2013-12-09T20:53:19.139Z</time>
      </trkpt>
      <trkpt lat="48.8478" lon="2.2999">
        <ele>43</ele>
        <time>2013-12-09T20:53:20.229Z</time>
      </trkpt>
      <trkpt lat="48.84778" lon="2.30003">
        <ele>39</ele>
        <time>2013-12-09T20:53:23.243Z</time>
      </trkpt>
      <trkpt lat="48.84777" lon="2.30007">
        <ele>41</ele>
        <time>2013-12-09T20:53:24.143Z</time>
      </trkpt>
      <trkpt lat="48.84776" lon="2.30018">
        <ele>41</ele>
        <time>2013-12-09T20:53:27.214Z</time>
      </trkpt>
      <trkpt lat="48.84776" lon="2.30021">
        <ele>41</ele>
        <time>2013-12-09T20:53:28.166Z</time>
      </trkpt>
      <trkpt lat="48.84775" lon="2.30034">
        <ele>44</ele>
        <time>2013-12-09T20:53:35.137Z</time>
      </trkpt>
      <trkpt lat="48.84775" lon="2.30035">
        <ele>43</ele>
        <time>2013-12-09T20:53:36.139Z</time>
      </trkpt>
      <trkpt lat="48.84777" lon="2.30048">
        <ele>48</ele>
        <time>2013-12-09T20:53:43.236Z</time>
      </trkpt>
      <trkpt lat="48.84777" lon="2.3005">
        <ele>49</ele>
        <time>2013-12-09T20:53:44.168Z</time>
      </trkpt>
      <trkpt lat="48.8478" lon="2.30062">
        <ele>58</ele>
        <time>2013-12-09T20:53:58.736Z</time>
      </trkpt>
      <trkpt lat="48.84781" lon="2.30062">
        <ele>58</ele>
        <time>2013-12-09T20:53:59.732Z</time>
      </trkpt>
      <trkpt lat="48.84781" lon="2.30062">
        <ele>59</ele>
        <time>2013-12-09T20:54:12.826Z</time>
      </trkpt>
      <trkpt lat="48.84782" lon="2.30062">
        <ele>65</ele>
        <time>2013-12-09T20:54:13.767Z</time>
      </trkpt>
      <trkpt lat="48.84788" lon="2.30071">
        <ele>75</ele>
        <time>2013-12-09T20:54:22.236Z</time>
      </trkpt>
      <trkpt lat="48.84788" lon="2.30072">
        <ele>75</ele>
        <time>2013-12-09T20:54:23.176Z</time>
      </trkpt>
      <trkpt lat="48.84788" lon="2.30078">
        <ele>76</ele>
        <time>2013-12-09T20:54:32.268Z</time>
      </trkpt>
      <trkpt lat="48.84788" lon="2.30078">
        <ele>76</ele>
        <time>2013-12-09T20:54:33.233Z</time>
      </trkpt>
      <trkpt lat="48.84788" lon="2.30079">
        <ele>78</ele>
        <time>2013-12-09T20:54:40.231Z</time>
      </trkpt>
      <trkpt lat="48.84788" lon="2.3008">
        <ele>80</ele>
        <time>2013-12-09T20:54:41.178Z</time>
      </trkpt>
      <trkpt lat="48.84783" lon="2.30091">
        <ele>85</ele>
        <time>2013-12-09T20:54:47.138Z</time>
      </trkpt>
      <trkpt lat="48.84782" lon="2.30094">
        <ele>86</ele>
        <time>2013-12-09T20:54:48.234Z</time>
      </trkpt>
      <trkpt lat="48.84778" lon="2.30105">
        <ele>88</ele>
        <time>2013-12-09T20:54:52.187Z</time>
      </trkpt>
      <trkpt lat="48.84777" lon="2.30108">
        <ele>89</ele>
        <time>2013-12-09T20:54:53.236Z</time>
      </trkpt>
      <trkpt lat="48.84773" lon="2.30118">
        <ele>90</ele>
        <time>2013-12-09T20:54:57.078Z</time>
      </trkpt>
      <trkpt lat="48.84773" lon="2.30121">
        <ele>90</ele>
        <time>2013-12-09T20:54:57.143Z</time>
      </trkpt>
      <trkpt lat="48.84765" lon="2.30124">
        <ele>86</ele>
        <time>2013-12-09T20:55:03.145Z</time>
      </trkpt>
      <trkpt lat="48.84763" lon="2.30123">
        <ele>85</ele>
        <time>2013-12-09T20:55:04.143Z</time>
      </trkpt>
      <trkpt lat="48.84756" lon="2.3012">
        <ele>81</ele>
        <time>2013-12-09T20:55:07.144Z</time>
      </trkpt>
      <trkpt lat="48.84753" lon="2.30121">
        <ele>78</ele>
        <time>2013-12-09T20:55:08.160Z</time>
      </trkpt>
      <trkpt lat="48.84746" lon="2.30124">
        <ele>75</ele>
        <time>2013-12-09T20:55:10.211Z</time>
      </trkpt>
      <trkpt lat="48.84742" lon="2.30126">
        <ele>77</ele>
        <time>2013-12-09T20:55:11.175Z</time>
      </trkpt>
      <trkpt lat="48.84738" lon="2.30129">
        <ele>75</ele>
        <time>2013-12-09T20:55:12.151Z</time>
      </trkpt>
      <trkpt lat="48.84734" lon="2.30132">
        <ele>74</ele>
        <time>2013-12-09T20:55:13.196Z</time>
      </trkpt>
      <trkpt lat="48.84729" lon="2.30134">
        <ele>74</ele>
        <time>2013-12-09T20:55:14.178Z</time>
      </trkpt>
      <trkpt lat="48.84724" lon="2.30137">
        <ele>73</ele>
        <time>2013-12-09T20:55:15.179Z</time>
      </trkpt>
      <trkpt lat="48.84719" lon="2.30139">
        <ele>70</ele>
        <time>2013-12-09T20:55:17.119Z</time>
      </trkpt>
      <trkpt lat="48.84714" lon="2.30142">
        <ele>68</ele>
        <time>2013-12-09T20:55:17.154Z</time>
      </trkpt>
      <trkpt lat="48.84709" lon="2.30145">
        <ele>63</ele>
        <time>2013-12-09T20:55:18.304Z</time>
      </trkpt>
      <trkpt lat="48.84705" lon="2.30147">
        <ele>60</ele>
        <time>2013-12-09T20:55:19.359Z</time>
      </trkpt>
      <trkpt lat="48.84698" lon="2.30152">
        <ele>59</ele>
        <time>2013-12-09T20:55:21.844Z</time>
      </trkpt>
      <trkpt lat="48.84694" lon="2.30155">
        <ele>58</ele>
        <time>2013-12-09T20:55:22.230Z</time>
      </trkpt>
      <trkpt lat="48.84689" lon="2.30156">
        <ele>57</ele>
        <time>2013-12-09T20:55:23.232Z</time>
      </trkpt>
      <trkpt lat="48.84685" lon="2.30157">
        <ele>56</ele>
        <time>2013-12-09T20:55:24.229Z</time>
      </trkpt>
      <trkpt lat="48.84678" lon="2.30157">
        <ele>55</ele>
        <time>2013-12-09T20:55:25.762Z</time>
      </trkpt>
      <trkpt lat="48.84672" lon="2.30157">
        <ele>56</ele>
        <time>2013-12-09T20:55:26.771Z</time>
      </trkpt>
      <trkpt lat="48.84672" lon="2.30157">
        <ele>56</ele>
        <time>2013-12-09T20:55:26.833Z</time>
      </trkpt>
      <trkpt lat="48.84663" lon="2.30159">
        <ele>58</ele>
        <time>2013-12-09T20:55:27.771Z</time>
      </trkpt>
      <trkpt lat="48.84657" lon="2.30162">
        <ele>59</ele>
        <time>2013-12-09T20:55:28.235Z</time>
      </trkpt>
      <trkpt lat="48.84647" lon="2.30166">
        <ele>60</ele>
        <time>2013-12-09T20:55:29.231Z</time>
      </trkpt>
      <trkpt lat="48.84637" lon="2.30169">
        <ele>60</ele>
        <time>2013-12-09T20:55:30.233Z</time>
      </trkpt>
      <trkpt lat="48.84628" lon="2.30172">
        <ele>61</ele>
        <time>2013-12-09T20:55:31.152Z</time>
      </trkpt>
      <trkpt lat="48.84628" lon="2.30172">
        <ele>61</ele>
        <time>2013-12-09T20:55:31.886Z</time>
      </trkpt>
      <trkpt lat="48.84618" lon="2.30175">
        <ele>62</ele>
        <time>2013-12-09T20:55:32.240Z</time>
      </trkpt>
      <trkpt lat="48.84608" lon="2.30176">
        <ele>66</ele>
        <time>2013-12-09T20:55:33.233Z</time>
      </trkpt>
      <trkpt lat="48.84598" lon="2.30178">
        <ele>70</ele>
        <time>2013-12-09T20:55:34.230Z</time>
      </trkpt>
      <trkpt lat="48.84588" lon="2.30181">
        <ele>70</ele>
        <time>2013-12-09T20:55:35.237Z</time>
      </trkpt>
      <trkpt lat="48.84579" lon="2.30186">
        <ele>71</ele>
        <time>2013-12-09T20:55:36.153Z</time>
      </trkpt>
      <trkpt lat="48.8457" lon="2.30194">
        <ele>72</ele>
        <time>2013-12-09T20:55:37.117Z</time>
      </trkpt>
      <trkpt lat="48.8457" lon="2.30194">
        <ele>72</ele>
        <time>2013-12-09T20:55:38.115Z</time>
      </trkpt>
      <trkpt lat="48.84563" lon="2.30204">
        <ele>74</ele>
        <time>2013-12-09T20:55:38.133Z</time>
      </trkpt>
      <trkpt lat="48.84558" lon="2.30214">
        <ele>75</ele>
        <time>2013-12-09T20:55:39.143Z</time>
      </trkpt>
      <trkpt lat="48.84554" lon="2.30219">
        <ele>75</ele>
        <time>2013-12-09T20:55:40.221Z</time>
      </trkpt>
      <trkpt lat="48.84546" lon="2.30224">
        <ele>77</ele>
        <time>2013-12-09T20:55:42.131Z</time>
      </trkpt>
      <trkpt lat="48.84541" lon="2.30215">
        <ele>79</ele>
        <time>2013-12-09T20:55:43.181Z</time>
      </trkpt>
      <trkpt lat="48.84539" lon="2.30199">
        <ele>80</ele>
        <time>2013-12-09T20:55:44.118Z</time>
      </trkpt>
      <trkpt lat="48.84534" lon="2.30191">
        <ele>80</ele>
        <time>2013-12-09T20:55:46.985Z</time>
      </trkpt>
      <trkpt lat="48.84531" lon="2.30189">
        <ele>78</ele>
        <time>2013-12-09T20:55:47.229Z</time>
      </trkpt>
      <trkpt lat="48.84524" lon="2.30191">
        <ele>77</ele>
        <time>2013-12-09T20:55:49.529Z</time>
      </trkpt>
      <trkpt lat="48.84522" lon="2.30191">
        <ele>76</ele>
        <time>2013-12-09T20:55:50.235Z</time>
      </trkpt>
      <trkpt lat="48.84518" lon="2.30193">
        <ele>78</ele>
        <time>2013-12-09T20:55:52.003Z</time>
      </trkpt>
      <trkpt lat="48.84513" lon="2.30195">
        <ele>77</ele>
        <time>2013-12-09T20:55:52.233Z</time>
      </trkpt>
      <trkpt lat="48.84507" lon="2.30199">
        <ele>78</ele>
        <time>2013-12-09T20:55:53.150Z</time>
      </trkpt>
      <trkpt lat="48.84501" lon="2.30204">
        <ele>77</ele>
        <time>2013-12-09T20:55:54.241Z</time>
      </trkpt>
      <trkpt lat="48.84497" lon="2.30209">
        <ele>77</ele>
        <time>2013-12-09T20:55:55.233Z</time>
      </trkpt>
      <trkpt lat="48.84492" lon="2.30214">
        <ele>77</ele>
        <time>2013-12-09T20:55:56.176Z</time>
      </trkpt>
      <trkpt lat="48.84488" lon="2.30218">
        <ele>76</ele>
        <time>2013-12-09T20:55:57.254Z</time>
      </trkpt>
      <trkpt lat="48.84484" lon="2.30222">
        <ele>75</ele>
        <time>2013-12-09T20:55:58.177Z</time>
      </trkpt>
      <trkpt lat="48.84476" lon="2.30225">
        <ele>75</ele>
        <time>2013-12-09T20:55:59.459Z</time>
      </trkpt>
      <trkpt lat="48.84471" lon="2.30226">
        <ele>76</ele>
        <time>2013-12-09T20:56:00.259Z</time>
      </trkpt>
      <trkpt lat="48.84465" lon="2.30227">
        <ele>76</ele>
        <time>2013-12-09T20:56:02.023Z</time>
      </trkpt>
      <trkpt lat="48.84457" lon="2.30229">
        <ele>78</ele>
        <time>2013-12-09T20:56:02.244Z</time>
      </trkpt>
      <trkpt lat="48.84452" lon="2.30228">
        <ele>76</ele>
        <time>2013-12-09T20:56:03.156Z</time>
      </trkpt>
      <trkpt lat="48.84445" lon="2.30228">
        <ele>76</ele>
        <time>2013-12-09T20:56:04.232Z</time>
      </trkpt>
      <trkpt lat="48.84439" lon="2.30227">
        <ele>77</ele>
        <time>2013-12-09T20:56:05.297Z</time>
      </trkpt>
      <trkpt lat="48.84433" lon="2.30228">
        <ele>78</ele>
        <time>2013-12-09T20:56:06.172Z</time>
      </trkpt>
      <trkpt lat="48.84427" lon="2.30229">
        <ele>78</ele>
        <time>2013-12-09T20:56:07.146Z</time>
      </trkpt>
      <trkpt lat="48.84422" lon="2.3023">
        <ele>78</ele>
        <time>2013-12-09T20:56:08.172Z</time>
      </trkpt>
      <trkpt lat="48.84416" lon="2.30232">
        <ele>79</ele>
        <time>2013-12-09T20:56:09.301Z</time>
      </trkpt>
      <trkpt lat="48.84411" lon="2.30236">
        <ele>79</ele>
        <time>2013-12-09T20:56:10.344Z</time>
      </trkpt>
      <trkpt lat="48.84405" lon="2.30238">
        <ele>81</ele>
        <time>2013-12-09T20:56:11.318Z</time>
      </trkpt>
      <trkpt lat="48.844" lon="2.30238">
        <ele>78</ele>
        <time>2013-12-09T20:56:12.305Z</time>
      </trkpt>
      <trkpt lat="48.84394" lon="2.30239">
        <ele>78</ele>
        <time>2013-12-09T20:56:13.321Z</time>
      </trkpt>
      <trkpt lat="48.84388" lon="2.3024">
        <ele>78</ele>
        <time>2013-12-09T20:56:14.291Z</time>
      </trkpt>
      <trkpt lat="48.84382" lon="2.30243">
        <ele>79</ele>
        <time>2013-12-09T20:56:15.325Z</time>
      </trkpt>
      <trkpt lat="48.84376" lon="2.30242">
        <ele>79</ele>
        <time>2013-12-09T20:56:16.301Z</time>
      </trkpt>
      <trkpt lat="48.84369" lon="2.30243">
        <ele>77</ele>
        <time>2013-12-09T20:56:17.300Z</time>
      </trkpt>
      <trkpt lat="48.84361" lon="2.30243">
        <ele>77</ele>
        <time>2013-12-09T20:56:18.314Z</time>
      </trkpt>
      <trkpt lat="48.84353" lon="2.30248">
        <ele>76</ele>
        <time>2013-12-09T20:56:19.230Z</time>
      </trkpt>
      <trkpt lat="48.84346" lon="2.30254">
        <ele>78</ele>
        <time>2013-12-09T20:56:20.235Z</time>
      </trkpt>
      <trkpt lat="48.84341" lon="2.30259">
        <ele>78</ele>
        <time>2013-12-09T20:56:22.161Z</time>
      </trkpt>
      <trkpt lat="48.84331" lon="2.30262">
        <ele>82</ele>
        <time>2013-12-09T20:56:23.272Z</time>
      </trkpt>
      <trkpt lat="48.84328" lon="2.30258">
        <ele>80</ele>
        <time>2013-12-09T20:56:24.228Z</time>
      </trkpt>
      <trkpt lat="48.84323" lon="2.30253">
        <ele>81</ele>
        <time>2013-12-09T20:56:25.235Z</time>
      </trkpt>
      <trkpt lat="48.84315" lon="2.3025">
        <ele>84</ele>
        <time>2013-12-09T20:56:27.178Z</time>
      </trkpt>
      <trkpt lat="48.84311" lon="2.30252">
        <ele>81</ele>
        <time>2013-12-09T20:56:28.142Z</time>
      </trkpt>
      <trkpt lat="48.84305" lon="2.30255">
        <ele>81</ele>
        <time>2013-12-09T20:56:29.236Z</time>
      </trkpt>
      <trkpt lat="48.843" lon="2.30256">
        <ele>79</ele>
        <time>2013-12-09T20:56:30.235Z</time>
      </trkpt>
      <trkpt lat="48.84295" lon="2.30256">
        <ele>80</ele>
        <time>2013-12-09T20:56:31.166Z</time>
      </trkpt>
      <trkpt lat="48.84291" lon="2.30256">
        <ele>79</ele>
        <time>2013-12-09T20:56:32.187Z</time>
      </trkpt>
      <trkpt lat="48.84284" lon="2.30254">
        <ele>77</ele>
        <time>2013-12-09T20:56:34.138Z</time>
      </trkpt>
      <trkpt lat="48.84281" lon="2.30255">
        <ele>77</ele>
        <time>2013-12-09T20:56:35.158Z</time>
      </trkpt>
      <trkpt lat="48.84273" lon="2.30259">
        <ele>78</ele>
        <time>2013-12-09T20:56:38.515Z</time>
      </trkpt>
      <trkpt lat="48.84271" lon="2.3026">
        <ele>77</ele>
        <time>2013-12-09T20:56:39.512Z</time>
      </trkpt>
      <trkpt lat="48.84264" lon="2.30265">
        <ele>77</ele>
        <time>2013-12-09T20:56:43.235Z</time>
      </trkpt>
      <trkpt lat="48.84262" lon="2.30267">
        <ele>75</ele>
        <time>2013-12-09T20:56:44.233Z</time>
      </trkpt>
      <trkpt lat="48.84258" lon="2.30271">
        <ele>72</ele>
        <time>2013-12-09T20:56:46.237Z</time>
      </trkpt>
      <trkpt lat="48.84254" lon="2.30274">
        <ele>71</ele>
        <time>2013-12-09T20:56:48.231Z</time>
      </trkpt>
      <trkpt lat="48.84249" lon="2.30278">
        <ele>69</ele>
        <time>2013-12-09T20:56:50.814Z</time>
      </trkpt>
      <trkpt lat="48.84246" lon="2.30281">
        <ele>70</ele>
        <time>2013-12-09T20:56:51.239Z</time>
      </trkpt>
      <trkpt lat="48.8424" lon="2.30286">
        <ele>67</ele>
        <time>2013-12-09T20:56:53.230Z</time>
      </trkpt>
      <trkpt lat="48.84237" lon="2.30288">
        <ele>66</ele>
        <time>2013-12-09T20:56:54.236Z</time>
      </trkpt>
      <trkpt lat="48.84231" lon="2.30292">
        <ele>65</ele>
        <time>2013-12-09T20:56:56.246Z</time>
      </trkpt>
      <trkpt lat="48.84228" lon="2.30294">
        <ele>66</ele>
        <time>2013-12-09T20:56:57.233Z</time>
      </trkpt>
      <trkpt lat="48.84221" lon="2.30296">
        <ele>68</ele>
        <time>2013-12-09T20:56:59.427Z</time>
      </trkpt>
      <trkpt lat="48.84217" lon="2.30298">
        <ele>69</ele>
        <time>2013-12-09T20:57:00.145Z</time>
      </trkpt>
      <trkpt lat="48.8421" lon="2.30301">
        <ele>67</ele>
        <time>2013-12-09T20:57:02.449Z</time>
      </trkpt>
      <trkpt lat="48.84207" lon="2.30301">
        <ele>68</ele>
        <time>2013-12-09T20:57:03.238Z</time>
      </trkpt>
      <trkpt lat="48.84201" lon="2.30302">
        <ele>70</ele>
        <time>2013-12-09T20:57:05.890Z</time>
      </trkpt>
      <trkpt lat="48.84198" lon="2.30303">
        <ele>69</ele>
        <time>2013-12-09T20:57:06.229Z</time>
      </trkpt>
      <trkpt lat="48.84192" lon="2.30306">
        <ele>69</ele>
        <time>2013-12-09T20:57:08.244Z</time>
      </trkpt>
      <trkpt lat="48.84189" lon="2.30309">
        <ele>71</ele>
        <time>2013-12-09T20:57:09.451Z</time>
      </trkpt>
      <trkpt lat="48.84185" lon="2.30315">
        <ele>71</ele>
        <time>2013-12-09T20:57:11.482Z</time>
      </trkpt>
      <trkpt lat="48.84182" lon="2.30318">
        <ele>69</ele>
        <time>2013-12-09T20:57:12.486Z</time>
      </trkpt>
      <trkpt lat="48.84174" lon="2.3032">
        <ele>65</ele>
        <time>2013-12-09T20:57:16.480Z</time>
      </trkpt>
      <trkpt lat="48.84173" lon="2.3032">
        <ele>65</ele>
        <time>2013-12-09T20:57:17.231Z</time>
      </trkpt>
      <trkpt lat="48.84165" lon="2.30325">
        <ele>61</ele>
        <time>2013-12-09T20:57:21.406Z</time>
      </trkpt>
      <trkpt lat="48.84163" lon="2.30327">
        <ele>61</ele>
        <time>2013-12-09T20:57:22.410Z</time>
      </trkpt>
      <trkpt lat="48.84157" lon="2.30333">
        <ele>57</ele>
        <time>2013-12-09T20:57:25.176Z</time>
      </trkpt>
      <trkpt lat="48.84155" lon="2.30336">
        <ele>56</ele>
        <time>2013-12-09T20:57:26.143Z</time>
      </trkpt>
      <trkpt lat="48.84149" lon="2.30341">
        <ele>54</ele>
        <time>2013-12-09T20:57:28.537Z</time>
      </trkpt>
      <trkpt lat="48.84147" lon="2.30343">
        <ele>54</ele>
        <time>2013-12-09T20:57:29.141Z</time>
      </trkpt>
      <trkpt lat="48.84142" lon="2.30349">
        <ele>53</ele>
        <time>2013-12-09T20:57:31.227Z</time>
      </trkpt>
      <trkpt lat="48.84139" lon="2.30351">
        <ele>52</ele>
        <time>2013-12-09T20:57:32.238Z</time>
      </trkpt>
      <trkpt lat="48.84134" lon="2.30356">
        <ele>52</ele>
        <time>2013-12-09T20:57:34.234Z</time>
      </trkpt>
      <trkpt lat="48.84131" lon="2.30357">
        <ele>51</ele>
        <time>2013-12-09T20:57:35.150Z</time>
      </trkpt>
      <trkpt lat="48.84125" lon="2.30359">
        <ele>48</ele>
        <time>2013-12-09T20:57:37.153Z</time>
      </trkpt>
      <trkpt lat="48.84121" lon="2.30359">
        <ele>45</ele>
        <time>2013-12-09T20:57:38.174Z</time>
      </trkpt>
      <trkpt lat="48.84113" lon="2.30359">
        <ele>45</ele>
        <time>2013-12-09T20:57:41.148Z</time>
      </trkpt>
      <trkpt lat="48.8411" lon="2.30359">
        <ele>45</ele>
        <time>2013-12-09T20:57:42.229Z</time>
      </trkpt>
      <trkpt lat="48.84101" lon="2.30363">
        <ele>46</ele>
        <time>2013-12-09T20:57:46.045Z</time>
      </trkpt>
      <trkpt lat="48.84099" lon="2.30364">
        <ele>45</ele>
        <time>2013-12-09T20:57:46.286Z</time>
      </trkpt>
      <trkpt lat="48.84091" lon="2.30367">
        <ele>38</ele>
        <time>2013-12-09T20:57:51.060Z</time>
      </trkpt>
      <trkpt lat="48.84089" lon="2.30367">
        <ele>39</ele>
        <time>2013-12-09T20:57:51.268Z</time>
      </trkpt>
      <trkpt lat="48.84081" lon="2.30373">
        <ele>42</ele>
        <time>2013-12-09T20:57:56.148Z</time>
      </trkpt>
      <trkpt lat="48.84079" lon="2.30375">
        <ele>44</ele>
        <time>2013-12-09T20:57:57.237Z</time>
      </trkpt>
      <trkpt lat="48.84073" lon="2.30384">
        <ele>52</ele>
        <time>2013-12-09T20:58:02.130Z</time>
      </trkpt>
      <trkpt lat="48.84072" lon="2.30385">
        <ele>53</ele>
        <time>2013-12-09T20:58:03.161Z</time>
      </trkpt>
      <trkpt lat="48.84069" lon="2.3039">
        <ele>56</ele>
        <time>2013-12-09T20:58:14.153Z</time>
      </trkpt>
      <trkpt lat="48.84069" lon="2.3039">
        <ele>56</ele>
        <time>2013-12-09T20:58:15.185Z</time>
      </trkpt>
      <trkpt lat="48.84069" lon="2.30391">
        <ele>57</ele>
        <time>2013-12-09T20:58:30.183Z</time>
      </trkpt>
      <trkpt lat="48.84069" lon="2.30391">
        <ele>62</ele>
        <time>2013-12-09T20:58:31.263Z</time>
      </trkpt>
      <trkpt lat="48.84063" lon="2.30395">
        <ele>69</ele>
        <time>2013-12-09T20:58:34.227Z</time>
      </trkpt>
      <trkpt lat="48.8406" lon="2.30397">
        <ele>66</ele>
        <time>2013-12-09T20:58:35.227Z</time>
      </trkpt>
      <trkpt lat="48.84053" lon="2.30401">
        <ele>60</ele>
        <time>2013-12-09T20:58:37.315Z</time>
      </trkpt>
      <trkpt lat="48.84049" lon="2.30403">
        <ele>59</ele>
        <time>2013-12-09T20:58:38.233Z</time>
      </trkpt>
      <trkpt lat="48.84045" lon="2.30404">
        <ele>59</ele>
        <time>2013-12-09T20:58:39.227Z</time>
      </trkpt>
      <trkpt lat="48.8404" lon="2.30406">
        <ele>57</ele>
        <time>2013-12-09T20:58:40.234Z</time>
      </trkpt>
      <trkpt lat="48.84036" lon="2.30408">
        <ele>53</ele>
        <time>2013-12-09T20:58:41.147Z</time>
      </trkpt>
      <trkpt lat="48.84031" lon="2.30412">
        <ele>55</ele>
        <time>2013-12-09T20:58:42.170Z</time>
      </trkpt>
      <trkpt lat="48.84027" lon="2.30415">
        <ele>53</ele>
        <time>2013-12-09T20:58:43.243Z</time>
      </trkpt>
      <trkpt lat="48.84024" lon="2.30419">
        <ele>53</ele>
        <time>2013-12-09T20:58:44.236Z</time>
      </trkpt>
      <trkpt lat="48.84017" lon="2.30426">
        <ele>49</ele>
        <time>2013-12-09T20:58:46.144Z</time>
      </trkpt>
      <trkpt lat="48.84013" lon="2.3043">
        <ele>50</ele>
        <time>2013-12-09T20:58:47.174Z</time>
      </trkpt>
      <trkpt lat="48.84006" lon="2.30436">
        <ele>46</ele>
        <time>2013-12-09T20:58:49.231Z</time>
      </trkpt>
      <trkpt lat="48.84003" lon="2.30438">
        <ele>45</ele>
        <time>2013-12-09T20:58:50.229Z</time>
      </trkpt>
      <trkpt lat="48.83997" lon="2.30443">
        <ele>41</ele>
        <time>2013-12-09T20:58:52.330Z</time>
      </trkpt>
      <trkpt lat="48.83994" lon="2.30445">
        <ele>41</ele>
        <time>2013-12-09T20:58:53.232Z</time>
      </trkpt>
      <trkpt lat="48.83988" lon="2.30447">
        <ele>42</ele>
        <time>2013-12-09T20:58:55.236Z</time>
      </trkpt>
      <trkpt lat="48.83984" lon="2.30448">
        <ele>41</ele>
        <time>2013-12-09T20:58:56.179Z</time>
      </trkpt>
      <trkpt lat="48.83976" lon="2.30449">
        <ele>40</ele>
        <time>2013-12-09T20:58:58.230Z</time>
      </trkpt>
      <trkpt lat="48.83972" lon="2.30449">
        <ele>42</ele>
        <time>2013-12-09T20:58:59.233Z</time>
      </trkpt>
      <trkpt lat="48.83963" lon="2.30451">
        <ele>43</ele>
        <time>2013-12-09T20:59:01.170Z</time>
      </trkpt>
      <trkpt lat="48.83958" lon="2.30453">
        <ele>44</ele>
        <time>2013-12-09T20:59:02.172Z</time>
      </trkpt>
      <trkpt lat="48.83954" lon="2.30457">
        <ele>41</ele>
        <time>2013-12-09T20:59:03.249Z</time>
      </trkpt>
      <trkpt lat="48.8395" lon="2.3046">
        <ele>41</ele>
        <time>2013-12-09T20:59:04.239Z</time>
      </trkpt>
      <trkpt lat="48.83945" lon="2.30466">
        <ele>42</ele>
        <time>2013-12-09T20:59:06.143Z</time>
      </trkpt>
      <trkpt lat="48.83943" lon="2.30469">
        <ele>41</ele>
        <time>2013-12-09T20:59:07.174Z</time>
      </trkpt>
      <trkpt lat="48.83938" lon="2.30475">
        <ele>42</ele>
        <time>2013-12-09T20:59:09.155Z</time>
      </trkpt>
      <trkpt lat="48.83936" lon="2.30478">
        <ele>44</ele>
        <time>2013-12-09T20:59:10.175Z</time>
      </trkpt>
      <trkpt lat="48.8393" lon="2.30484">
        <ele>44</ele>
        <time>2013-12-09T20:59:12.175Z</time>
      </trkpt>
      <trkpt lat="48.83926" lon="2.30486">
        <ele>44</ele>
        <time>2013-12-09T20:59:13.277Z</time>
      </trkpt>
      <trkpt lat="48.83918" lon="2.30487">
        <ele>48</ele>
        <time>2013-12-09T20:59:15.167Z</time>
      </trkpt>
      <trkpt lat="48.83913" lon="2.30487">
        <ele>49</ele>
        <time>2013-12-09T20:59:16.166Z</time>
      </trkpt>
      <trkpt lat="48.83909" lon="2.30486">
        <ele>49</ele>
        <time>2013-12-09T20:59:17.337Z</time>
      </trkpt>
      <trkpt lat="48.83903" lon="2.30485">
        <ele>50</ele>
        <time>2013-12-09T20:59:18.247Z</time>
      </trkpt>
      <trkpt lat="48.83899" lon="2.30484">
        <ele>45</ele>
        <time>2013-12-09T20:59:19.182Z</time>
      </trkpt>
      <trkpt lat="48.83894" lon="2.30484">
        <ele>46</ele>
        <time>2013-12-09T20:59:20.234Z</time>
      </trkpt>
      <trkpt lat="48.83889" lon="2.30484">
        <ele>47</ele>
        <time>2013-12-09T20:59:21.180Z</time>
      </trkpt>
      <trkpt lat="48.83884" lon="2.30484">
        <ele>49</ele>
        <time>2013-12-09T20:59:22.181Z</time>
      </trkpt>
      <trkpt lat="48.83878" lon="2.30485">
        <ele>50</ele>
        <time>2013-12-09T20:59:23.236Z</time>
      </trkpt>
      <trkpt lat="48.83872" lon="2.30487">
        <ele>48</ele>
        <time>2013-12-09T20:59:24.246Z</time>
      </trkpt>
      <trkpt lat="48.83866" lon="2.30489">
        <ele>49</ele>
        <time>2013-12-09T20:59:25.230Z</time>
      </trkpt>
      <trkpt lat="48.83861" lon="2.30492">
        <ele>49</ele>
        <time>2013-12-09T20:59:26.177Z</time>
      </trkpt>
      <trkpt lat="48.83855" lon="2.30495">
        <ele>50</ele>
        <time>2013-12-09T20:59:27.144Z</time>
      </trkpt>
      <trkpt lat="48.83849" lon="2.30498">
        <ele>52</ele>
        <time>2013-12-09T20:59:28.147Z</time>
      </trkpt>
      <trkpt lat="48.83844" lon="2.30502">
        <ele>50</ele>
        <time>2013-12-09T20:59:29.183Z</time>
      </trkpt>
      <trkpt lat="48.8384" lon="2.30505">
        <ele>47</ele>
        <time>2013-12-09T20:59:30.180Z</time>
      </trkpt>
      <trkpt lat="48.83836" lon="2.30509">
        <ele>45</ele>
        <time>2013-12-09T20:59:32.156Z</time>
      </trkpt>
      <trkpt lat="48.8383" lon="2.30515">
        <ele>43</ele>
        <time>2013-12-09T20:59:33.177Z</time>
      </trkpt>
      <trkpt lat="48.83823" lon="2.30522">
        <ele>38</ele>
        <time>2013-12-09T20:59:37.193Z</time>
      </trkpt>
      <trkpt lat="48.83822" lon="2.30523">
        <ele>35</ele>
        <time>2013-12-09T20:59:38.187Z</time>
      </trkpt>
      <trkpt lat="48.83817" lon="2.30531">
        <ele>23</ele>
        <time>2013-12-09T20:59:42.176Z</time>
      </trkpt>
      <trkpt lat="48.83815" lon="2.30533">
        <ele>22</ele>
        <time>2013-12-09T20:59:43.172Z</time>
      </trkpt>
      <trkpt lat="48.8381" lon="2.30537">
        <ele>22</ele>
        <time>2013-12-09T20:59:45.230Z</time>
      </trkpt>
      <trkpt lat="48.83806" lon="2.30538">
        <ele>24</ele>
        <time>2013-12-09T20:59:46.153Z</time>
      </trkpt>
      <trkpt lat="48.83797" lon="2.30538">
        <ele>24</ele>
        <time>2013-12-09T20:59:48.155Z</time>
      </trkpt>
      <trkpt lat="48.83792" lon="2.30539">
        <ele>25</ele>
        <time>2013-12-09T20:59:49.233Z</time>
      </trkpt>
      <trkpt lat="48.83787" lon="2.30539">
        <ele>25</ele>
        <time>2013-12-09T20:59:50.233Z</time>
      </trkpt>
      <trkpt lat="48.83782" lon="2.30541">
        <ele>26</ele>
        <time>2013-12-09T20:59:51.151Z</time>
      </trkpt>
      <trkpt lat="48.83777" lon="2.30543">
        <ele>24</ele>
        <time>2013-12-09T20:59:52.212Z</time>
      </trkpt>
      <trkpt lat="48.83771" lon="2.30546">
        <ele>24</ele>
        <time>2013-12-09T20:59:53.178Z</time>
      </trkpt>
      <trkpt lat="48.83766" lon="2.30549">
        <ele>21</ele>
        <time>2013-12-09T20:59:54.257Z</time>
      </trkpt>
      <trkpt lat="48.83762" lon="2.30552">
        <ele>22</ele>
        <time>2013-12-09T20:59:55.257Z</time>
      </trkpt>
      <trkpt lat="48.83755" lon="2.30557">
        <ele>17</ele>
        <time>2013-12-09T20:59:57.212Z</time>
      </trkpt>
      <trkpt lat="48.83752" lon="2.30559">
        <ele>17</ele>
        <time>2013-12-09T20:59:58.145Z</time>
      </trkpt>
      <trkpt lat="48.83746" lon="2.30564">
        <ele>16</ele>
        <time>2013-12-09T21:00:00.251Z</time>
      </trkpt>
      <trkpt lat="48.83743" lon="2.30566">
        <ele>18</ele>
        <time>2013-12-09T21:00:01.176Z</time>
      </trkpt>
      <trkpt lat="48.83736" lon="2.3057">
        <ele>21</ele>
        <time>2013-12-09T21:00:03.229Z</time>
      </trkpt>
      <trkpt lat="48.83733" lon="2.30572">
        <ele>22</ele>
        <time>2013-12-09T21:00:04.231Z</time>
      </trkpt>
      <trkpt lat="48.83725" lon="2.30576">
        <ele>24</ele>
        <time>2013-12-09T21:00:06.167Z</time>
      </trkpt>
      <trkpt lat="48.83722" lon="2.30578">
        <ele>27</ele>
        <time>2013-12-09T21:00:07.166Z</time>
      </trkpt>
      <trkpt lat="48.83714" lon="2.30581">
        <ele>29</ele>
        <time>2013-12-09T21:00:09.137Z</time>
      </trkpt>
      <trkpt lat="48.8371" lon="2.30583">
        <ele>31</ele>
        <time>2013-12-09T21:00:10.169Z</time>
      </trkpt>
      <trkpt lat="48.83704" lon="2.30586">
        <ele>35</ele>
        <time>2013-12-09T21:00:12.166Z</time>
      </trkpt>
      <trkpt lat="48.83701" lon="2.30587">
        <ele>38</ele>
        <time>2013-12-09T21:00:13.164Z</time>
      </trkpt>
      <trkpt lat="48.83695" lon="2.30593">
        <ele>45</ele>
        <time>2013-12-09T21:00:15.233Z</time>
      </trkpt>
      <trkpt lat="48.83692" lon="2.30597">
        <ele>48</ele>
        <time>2013-12-09T21:00:16.146Z</time>
      </trkpt>
      <trkpt lat="48.83689" lon="2.30602">
        <ele>53</ele>
        <time>2013-12-09T21:00:17.181Z</time>
      </trkpt>
      <trkpt lat="48.83686" lon="2.30608">
        <ele>57</ele>
        <time>2013-12-09T21:00:18.151Z</time>
      </trkpt>
      <trkpt lat="48.83682" lon="2.30613">
        <ele>63</ele>
        <time>2013-12-09T21:00:19.189Z</time>
      </trkpt>
      <trkpt lat="48.83679" lon="2.30617">
        <ele>66</ele>
        <time>2013-12-09T21:00:20.171Z</time>
      </trkpt>
      <trkpt lat="48.83675" lon="2.30625">
        <ele>71</ele>
        <time>2013-12-09T21:00:22.146Z</time>
      </trkpt>
      <trkpt lat="48.83672" lon="2.30628">
        <ele>75</ele>
        <time>2013-12-09T21:00:23.426Z</time>
      </trkpt>
      <trkpt lat="48.83666" lon="2.30632">
        <ele>81</ele>
        <time>2013-12-09T21:00:27.173Z</time>
      </trkpt>
      <trkpt lat="48.83664" lon="2.30634">
        <ele>83</ele>
        <time>2013-12-09T21:00:28.239Z</time>
      </trkpt>
      <trkpt lat="48.83656" lon="2.30637">
        <ele>84</ele>
        <time>2013-12-09T21:00:31.660Z</time>
      </trkpt>
      <trkpt lat="48.83654" lon="2.30638">
        <ele>86</ele>
        <time>2013-12-09T21:00:32.651Z</time>
      </trkpt>
      <trkpt lat="48.83649" lon="2.30643">
        <ele>87</ele>
        <time>2013-12-09T21:00:34.660Z</time>
      </trkpt>
      <trkpt lat="48.83646" lon="2.30646">
        <ele>90</ele>
        <time>2013-12-09T21:00:35.657Z</time>
      </trkpt>
      <trkpt lat="48.8364" lon="2.30653">
        <ele>94</ele>
        <time>2013-12-09T21:00:37.625Z</time>
      </trkpt>
      <trkpt lat="48.83639" lon="2.30656">
        <ele>95</ele>
        <time>2013-12-09T21:00:38.234Z</time>
      </trkpt>
      <trkpt lat="48.83634" lon="2.30666">
        <ele>93</ele>
        <time>2013-12-09T21:00:41.261Z</time>
      </trkpt>
      <trkpt lat="48.83634" lon="2.30669">
        <ele>94</ele>
        <time>2013-12-09T21:00:42.236Z</time>
      </trkpt>
      <trkpt lat="48.83632" lon="2.30678">
        <ele>94</ele>
        <time>2013-12-09T21:00:45.132Z</time>
      </trkpt>
      <trkpt lat="48.8363" lon="2.30682">
        <ele>94</ele>
        <time>2013-12-09T21:00:46.158Z</time>
      </trkpt>
      <trkpt lat="48.83624" lon="2.30689">
        <ele>98</ele>
        <time>2013-12-09T21:00:48.129Z</time>
      </trkpt>
      <trkpt lat="48.8362" lon="2.30692">
        <ele>99</ele>
        <time>2013-12-09T21:00:49.131Z</time>
      </trkpt>
      <trkpt lat="48.83614" lon="2.30697">
        <ele>97</ele>
        <time>2013-12-09T21:00:51.287Z</time>
      </trkpt>
      <trkpt lat="48.83611" lon="2.30698">
        <ele>96</ele>
        <time>2013-12-09T21:00:52.549Z</time>
      </trkpt>
      <trkpt lat="48.83603" lon="2.30703">
        <ele>93</ele>
        <time>2013-12-09T21:00:56.332Z</time>
      </trkpt>
      <trkpt lat="48.83599" lon="2.30704">
        <ele>93</ele>
        <time>2013-12-09T21:00:57.237Z</time>
      </trkpt>
      <trkpt lat="48.83592" lon="2.30707">
        <ele>93</ele>
        <time>2013-12-09T21:00:59.235Z</time>
      </trkpt>
      <trkpt lat="48.83588" lon="2.30708">
        <ele>93</ele>
        <time>2013-12-09T21:01:00.153Z</time>
      </trkpt>
      <trkpt lat="48.83584" lon="2.30711">
        <ele>92</ele>
        <time>2013-12-09T21:01:01.258Z</time>
      </trkpt>
      <trkpt lat="48.83579" lon="2.30714">
        <ele>91</ele>
        <time>2013-12-09T21:01:02.236Z</time>
      </trkpt>
      <trkpt lat="48.83574" lon="2.30719">
        <ele>91</ele>
        <time>2013-12-09T21:01:03.230Z</time>
      </trkpt>
      <trkpt lat="48.83569" lon="2.30724">
        <ele>90</ele>
        <time>2013-12-09T21:01:04.233Z</time>
      </trkpt>
      <trkpt lat="48.83564" lon="2.3073">
        <ele>88</ele>
        <time>2013-12-09T21:01:05.175Z</time>
      </trkpt>
      <trkpt lat="48.8356" lon="2.30735">
        <ele>89</ele>
        <time>2013-12-09T21:01:06.176Z</time>
      </trkpt>
      <trkpt lat="48.83554" lon="2.30744">
        <ele>90</ele>
        <time>2013-12-09T21:01:08.230Z</time>
      </trkpt>
      <trkpt lat="48.83552" lon="2.30748">
        <ele>90</ele>
        <time>2013-12-09T21:01:09.232Z</time>
      </trkpt>
      <trkpt lat="48.83547" lon="2.30757">
        <ele>91</ele>
        <time>2013-12-09T21:01:11.263Z</time>
      </trkpt>
      <trkpt lat="48.83543" lon="2.30762">
        <ele>93</ele>
        <time>2013-12-09T21:01:12.181Z</time>
      </trkpt>
      <trkpt lat="48.83539" lon="2.30767">
        <ele>95</ele>
        <time>2013-12-09T21:01:13.232Z</time>
      </trkpt>
      <trkpt lat="48.83534" lon="2.30772">
        <ele>95</ele>
        <time>2013-12-09T21:01:14.888Z</time>
      </trkpt>
      <trkpt lat="48.83528" lon="2.30775">
        <ele>93</ele>
        <time>2013-12-09T21:01:16.556Z</time>
      </trkpt>
      <trkpt lat="48.83525" lon="2.30777">
        <ele>92</ele>
        <time>2013-12-09T21:01:17.229Z</time>
      </trkpt>
      <trkpt lat="48.83518" lon="2.30785">
        <ele>90</ele>
        <time>2013-12-09T21:01:19.234Z</time>
      </trkpt>
      <trkpt lat="48.83514" lon="2.30789">
        <ele>92</ele>
        <time>2013-12-09T21:01:20.151Z</time>
      </trkpt>
      <trkpt lat="48.8351" lon="2.30793">
        <ele>95</ele>
        <time>2013-12-09T21:01:21.349Z</time>
      </trkpt>
      <trkpt lat="48.83507" lon="2.30798">
        <ele>96</ele>
        <time>2013-12-09T21:01:22.235Z</time>
      </trkpt>
      <trkpt lat="48.83501" lon="2.30808">
        <ele>93</ele>
        <time>2013-12-09T21:01:24.233Z</time>
      </trkpt>
      <trkpt lat="48.83499" lon="2.30814">
        <ele>93</ele>
        <time>2013-12-09T21:01:25.179Z</time>
      </trkpt>
      <trkpt lat="48.83496" lon="2.30822">
        <ele>95</ele>
        <time>2013-12-09T21:01:26.279Z</time>
      </trkpt>
      <trkpt lat="48.83492" lon="2.30829">
        <ele>97</ele>
        <time>2013-12-09T21:01:27.235Z</time>
      </trkpt>
      <trkpt lat="48.83489" lon="2.30835">
        <ele>96</ele>
        <time>2013-12-09T21:01:28.232Z</time>
      </trkpt>
      <trkpt lat="48.83484" lon="2.30838">
        <ele>97</ele>
        <time>2013-12-09T21:01:29.229Z</time>
      </trkpt>
      <trkpt lat="48.8348" lon="2.3084">
        <ele>94</ele>
        <time>2013-12-09T21:01:30.154Z</time>
      </trkpt>
      <trkpt lat="48.83474" lon="2.30842">
        <ele>92</ele>
        <time>2013-12-09T21:01:31.176Z</time>
      </trkpt>
      <trkpt lat="48.83468" lon="2.30843">
        <ele>92</ele>
        <time>2013-12-09T21:01:32.145Z</time>
      </trkpt>
      <trkpt lat="48.83462" lon="2.30844">
        <ele>92</ele>
        <time>2013-12-09T21:01:33.182Z</time>
      </trkpt>
      <trkpt lat="48.83457" lon="2.30846">
        <ele>93</ele>
        <time>2013-12-09T21:01:34.149Z</time>
      </trkpt>
      <trkpt lat="48.83451" lon="2.30848">
        <ele>93</ele>
        <time>2013-12-09T21:01:35.208Z</time>
      </trkpt>
      <trkpt lat="48.83446" lon="2.30851">
        <ele>93</ele>
        <time>2013-12-09T21:01:36.409Z</time>
      </trkpt>
      <trkpt lat="48.83442" lon="2.30854">
        <ele>94</ele>
        <time>2013-12-09T21:01:37.146Z</time>
      </trkpt>
      <trkpt lat="48.83435" lon="2.30859">
        <ele>93</ele>
        <time>2013-12-09T21:01:39.151Z</time>
      </trkpt>
      <trkpt lat="48.83432" lon="2.30862">
        <ele>88</ele>
        <time>2013-12-09T21:01:40.156Z</time>
      </trkpt>
      <trkpt lat="48.83425" lon="2.3087">
        <ele>86</ele>
        <time>2013-12-09T21:01:42.237Z</time>
      </trkpt>
      <trkpt lat="48.83421" lon="2.30874">
        <ele>86</ele>
        <time>2013-12-09T21:01:43.245Z</time>
      </trkpt>
      <trkpt lat="48.83416" lon="2.30879">
        <ele>83</ele>
        <time>2013-12-09T21:01:44.892Z</time>
      </trkpt>
      <trkpt lat="48.83413" lon="2.30883">
        <ele>84</ele>
        <time>2013-12-09T21:01:45.890Z</time>
      </trkpt>
      <trkpt lat="48.83408" lon="2.30892">
        <ele>86</ele>
        <time>2013-12-09T21:01:47.237Z</time>
      </trkpt>
      <trkpt lat="48.83405" lon="2.30897">
        <ele>87</ele>
        <time>2013-12-09T21:01:48.234Z</time>
      </trkpt>
      <trkpt lat="48.83401" lon="2.30902">
        <ele>88</ele>
        <time>2013-12-09T21:01:49.238Z</time>
      </trkpt>
      <trkpt lat="48.83397" lon="2.30905">
        <ele>90</ele>
        <time>2013-12-09T21:01:50.230Z</time>
      </trkpt>
      <trkpt lat="48.83389" lon="2.3091">
        <ele>95</ele>
        <time>2013-12-09T21:01:53.235Z</time>
      </trkpt>
      <trkpt lat="48.83387" lon="2.3091">
        <ele>97</ele>
        <time>2013-12-09T21:01:54.230Z</time>
      </trkpt>
      <trkpt lat="48.8338" lon="2.30906">
        <ele>97</ele>
        <time>2013-12-09T21:01:58.249Z</time>
      </trkpt>
      <trkpt lat="48.83378" lon="2.30905">
        <ele>96</ele>
        <time>2013-12-09T21:01:59.234Z</time>
      </trkpt>
      <trkpt lat="48.83371" lon="2.30902">
        <ele>98</ele>
        <time>2013-12-09T21:02:04.168Z</time>
      </trkpt>
      <trkpt lat="48.83369" lon="2.30904">
        <ele>99</ele>
        <time>2013-12-09T21:02:05.166Z</time>
      </trkpt>
      <trkpt lat="48.83362" lon="2.30912">
        <ele>98</ele>
        <time>2013-12-09T21:02:08.247Z</time>
      </trkpt>
      <trkpt lat="48.8336" lon="2.30915">
        <ele>99</ele>
        <time>2013-12-09T21:02:09.231Z</time>
      </trkpt>
      <trkpt lat="48.83357" lon="2.30924">
        <ele>98</ele>
        <time>2013-12-09T21:02:11.552Z</time>
      </trkpt>
      <trkpt lat="48.83356" lon="2.30929">
        <ele>99</ele>
        <time>2013-12-09T21:02:12.235Z</time>
      </trkpt>
      <trkpt lat="48.83354" lon="2.3094">
        <ele>101</ele>
        <time>2013-12-09T21:02:14.232Z</time>
      </trkpt>
      <trkpt lat="48.83353" lon="2.30946">
        <ele>103</ele>
        <time>2013-12-09T21:02:15.234Z</time>
      </trkpt>
      <trkpt lat="48.83351" lon="2.30958">
        <ele>106</ele>
        <time>2013-12-09T21:02:17.235Z</time>
      </trkpt>
      <trkpt lat="48.83349" lon="2.30964">
        <ele>107</ele>
        <time>2013-12-09T21:02:18.229Z</time>
      </trkpt>
      <trkpt lat="48.83346" lon="2.30973">
        <ele>107</ele>
        <time>2013-12-09T21:02:20.340Z</time>
      </trkpt>
      <trkpt lat="48.83344" lon="2.30978">
        <ele>107</ele>
        <time>2013-12-09T21:02:21.238Z</time>
      </trkpt>
      <trkpt lat="48.8334" lon="2.30986">
        <ele>108</ele>
        <time>2013-12-09T21:02:23.229Z</time>
      </trkpt>
      <trkpt lat="48.83338" lon="2.3099">
        <ele>109</ele>
        <time>2013-12-09T21:02:24.152Z</time>
      </trkpt>
      <trkpt lat="48.83333" lon="2.30999">
        <ele>109</ele>
        <time>2013-12-09T21:02:26.225Z</time>
      </trkpt>
      <trkpt lat="48.83331" lon="2.31002">
        <ele>109</ele>
        <time>2013-12-09T21:02:27.232Z</time>
      </trkpt>
      <trkpt lat="48.83327" lon="2.31012">
        <ele>108</ele>
        <time>2013-12-09T21:02:31.183Z</time>
      </trkpt>
      <trkpt lat="48.83326" lon="2.31014">
        <ele>108</ele>
        <time>2013-12-09T21:02:32.178Z</time>
      </trkpt>
      <trkpt lat="48.83321" lon="2.31026">
        <ele>110</ele>
        <time>2013-12-09T21:02:35.331Z</time>
      </trkpt>
      <trkpt lat="48.8332" lon="2.31029">
        <ele>111</ele>
        <time>2013-12-09T21:02:36.227Z</time>
      </trkpt>
      <trkpt lat="48.83324" lon="2.31041">
        <ele>112</ele>
        <time>2013-12-09T21:02:43.231Z</time>
      </trkpt>
      <trkpt lat="48.83326" lon="2.31041">
        <ele>111</ele>
        <time>2013-12-09T21:02:44.164Z</time>
      </trkpt>
      <trkpt lat="48.83325" lon="2.31049">
        <ele>111</ele>
        <time>2013-12-09T21:02:49.180Z</time>
      </trkpt>
      <trkpt lat="48.83323" lon="2.31054">
        <ele>111</ele>
        <time>2013-12-09T21:02:50.179Z</time>
      </trkpt>
      <trkpt lat="48.83318" lon="2.31063">
        <ele>111</ele>
        <time>2013-12-09T21:02:52.238Z</time>
      </trkpt>
      <trkpt lat="48.83316" lon="2.31068">
        <ele>110</ele>
        <time>2013-12-09T21:02:53.230Z</time>
      </trkpt>
      <trkpt lat="48.83312" lon="2.31077">
        <ele>110</ele>
        <time>2013-12-09T21:02:55.341Z</time>
      </trkpt>
      <trkpt lat="48.83309" lon="2.31083">
        <ele>111</ele>
        <time>2013-12-09T21:02:56.230Z</time>
      </trkpt>
      <trkpt lat="48.83306" lon="2.31089">
        <ele>111</ele>
        <time>2013-12-09T21:02:57.236Z</time>
      </trkpt>
      <trkpt lat="48.83304" lon="2.31095">
        <ele>111</ele>
        <time>2013-12-09T21:02:58.230Z</time>
      </trkpt>
      <trkpt lat="48.83301" lon="2.31102">
        <ele>111</ele>
        <time>2013-12-09T21:02:59.246Z</time>
      </trkpt>
      <trkpt lat="48.83298" lon="2.31109">
        <ele>112</ele>
        <time>2013-12-09T21:03:00.251Z</time>
      </trkpt>
      <trkpt lat="48.83294" lon="2.31117">
        <ele>113</ele>
        <time>2013-12-09T21:03:01.450Z</time>
      </trkpt>
      <trkpt lat="48.8329" lon="2.31124">
        <ele>113</ele>
        <time>2013-12-09T21:03:02.235Z</time>
      </trkpt>
      <trkpt lat="48.83286" lon="2.31131">
        <ele>112</ele>
        <time>2013-12-09T21:03:03.231Z</time>
      </trkpt>
      <trkpt lat="48.83282" lon="2.31138">
        <ele>113</ele>
        <time>2013-12-09T21:03:04.179Z</time>
      </trkpt>
      <trkpt lat="48.83278" lon="2.31145">
        <ele>113</ele>
        <time>2013-12-09T21:03:05.517Z</time>
      </trkpt>
      <trkpt lat="48.83274" lon="2.31153">
        <ele>114</ele>
        <time>2013-12-09T21:03:06.231Z</time>
      </trkpt>
      <trkpt lat="48.83271" lon="2.31159">
        <ele>115</ele>
        <time>2013-12-09T21:03:07.231Z</time>
      </trkpt>
      <trkpt lat="48.83269" lon="2.31164">
        <ele>117</ele>
        <time>2013-12-09T21:03:08.245Z</time>
      </trkpt>
      <trkpt lat="48.83263" lon="2.31174">
        <ele>117</ele>
        <time>2013-12-09T21:03:10.499Z</time>
      </trkpt>
      <trkpt lat="48.83261" lon="2.31179">
        <ele>116</ele>
        <time>2013-12-09T21:03:11.246Z</time>
      </trkpt>
      <trkpt lat="48.83258" lon="2.31189">
        <ele>115</ele>
        <time>2013-12-09T21:03:13.234Z</time>
      </trkpt>
      <trkpt lat="48.83257" lon="2.31194">
        <ele>115</ele>
        <time>2013-12-09T21:03:14.230Z</time>
      </trkpt>
      <trkpt lat="48.83255" lon="2.31205">
        <ele>114</ele>
        <time>2013-12-09T21:03:16.237Z</time>
      </trkpt>
      <trkpt lat="48.83253" lon="2.3121">
        <ele>113</ele>
        <time>2013-12-09T21:03:17.424Z</time>
      </trkpt>
      <trkpt lat="48.8325" lon="2.31219">
        <ele>113</ele>
        <time>2013-12-09T21:03:19.234Z</time>
      </trkpt>
      <trkpt lat="48.83249" lon="2.31224">
        <ele>114</ele>
        <time>2013-12-09T21:03:20.164Z</time>
      </trkpt>
      <trkpt lat="48.83245" lon="2.31234">
        <ele>110</ele>
        <time>2013-12-09T21:03:22.227Z</time>
      </trkpt>
      <trkpt lat="48.83243" lon="2.31239">
        <ele>107</ele>
        <time>2013-12-09T21:03:23.227Z</time>
      </trkpt>
      <trkpt lat="48.83238" lon="2.31248">
        <ele>106</ele>
        <time>2013-12-09T21:03:25.571Z</time>
      </trkpt>
      <trkpt lat="48.83235" lon="2.31253">
        <ele>108</ele>
        <time>2013-12-09T21:03:26.237Z</time>
      </trkpt>
      <trkpt lat="48.8323" lon="2.31263">
        <ele>109</ele>
        <time>2013-12-09T21:03:28.230Z</time>
      </trkpt>
      <trkpt lat="48.83228" lon="2.31268">
        <ele>109</ele>
        <time>2013-12-09T21:03:29.232Z</time>
      </trkpt>
      <trkpt lat="48.83225" lon="2.31279">
        <ele>110</ele>
        <time>2013-12-09T21:03:31.147Z</time>
      </trkpt>
      <trkpt lat="48.83224" lon="2.31284">
        <ele>110</ele>
        <time>2013-12-09T21:03:32.144Z</time>
      </trkpt>
      <trkpt lat="48.83223" lon="2.31297">
        <ele>114</ele>
        <time>2013-12-09T21:03:34.151Z</time>
      </trkpt>
      <trkpt lat="48.83222" lon="2.31303">
        <ele>115</ele>
        <time>2013-12-09T21:03:35.149Z</time>
      </trkpt>
      <trkpt lat="48.83221" lon="2.31313">
        <ele>118</ele>
        <time>2013-12-09T21:03:37.195Z</time>
      </trkpt>
      <trkpt lat="48.83219" lon="2.31318">
        <ele>116</ele>
        <time>2013-12-09T21:03:38.138Z</time>
      </trkpt>
      <trkpt lat="48.83213" lon="2.31326">
        <ele>116</ele>
        <time>2013-12-09T21:03:40.591Z</time>
      </trkpt>
      <trkpt lat="48.83211" lon="2.3133">
        <ele>116</ele>
        <time>2013-12-09T21:03:41.160Z</time>
      </trkpt>
      <trkpt lat="48.83206" lon="2.31341">
        <ele>113</ele>
        <time>2013-12-09T21:03:43.235Z</time>
      </trkpt>
      <trkpt lat="48.83205" lon="2.31345">
        <ele>113</ele>
        <time>2013-12-09T21:03:44.173Z</time>
      </trkpt>
      <trkpt lat="48.83201" lon="2.31355">
        <ele>113</ele>
        <time>2013-12-09T21:03:46.234Z</time>
      </trkpt>
      <trkpt lat="48.83201" lon="2.31359">
        <ele>114</ele>
        <time>2013-12-09T21:03:47.179Z</time>
      </trkpt>
      <trkpt lat="48.83206" lon="2.31367">
        <ele>104</ele>
        <time>2013-12-09T21:03:55.145Z</time>
      </trkpt>
      <trkpt lat="48.83207" lon="2.31368">
        <ele>104</ele>
        <time>2013-12-09T21:03:56.174Z</time>
      </trkpt>
      <trkpt lat="48.83215" lon="2.31373">
        <ele>102</ele>
        <time>2013-12-09T21:04:01.183Z</time>
      </trkpt>
      <trkpt lat="48.83216" lon="2.31374">
        <ele>101</ele>
        <time>2013-12-09T21:04:02.157Z</time>
      </trkpt>
      <trkpt lat="48.83221" lon="2.31385">
        <ele>90</ele>
        <time>2013-12-09T21:04:09.778Z</time>
      </trkpt>
      <trkpt lat="48.83222" lon="2.31386">
        <ele>89</ele>
        <time>2013-12-09T21:04:10.242Z</time>
      </trkpt>
      <trkpt lat="48.83228" lon="2.31394">
        <ele>88</ele>
        <time>2013-12-09T21:04:14.778Z</time>
      </trkpt>
      <trkpt lat="48.8323" lon="2.31397">
        <ele>89</ele>
        <time>2013-12-09T21:04:15.166Z</time>
      </trkpt>
      <trkpt lat="48.83234" lon="2.31404">
        <ele>86</ele>
        <time>2013-12-09T21:04:17.174Z</time>
      </trkpt>
      <trkpt lat="48.83236" lon="2.31408">
        <ele>85</ele>
        <time>2013-12-09T21:04:18.172Z</time>
      </trkpt>
      <trkpt lat="48.83241" lon="2.31416">
        <ele>77</ele>
        <time>2013-12-09T21:04:21.230Z</time>
      </trkpt>
      <trkpt lat="48.83242" lon="2.31418">
        <ele>75</ele>
        <time>2013-12-09T21:04:22.235Z</time>
      </trkpt>
      <trkpt lat="48.83245" lon="2.3143">
        <ele>73</ele>
        <time>2013-12-09T21:04:27.232Z</time>
      </trkpt>
      <trkpt lat="48.83246" lon="2.31433">
        <ele>72</ele>
        <time>2013-12-09T21:04:28.236Z</time>
      </trkpt>
      <trkpt lat="48.83249" lon="2.31441">
        <ele>69</ele>
        <time>2013-12-09T21:04:30.230Z</time>
      </trkpt>
      <trkpt lat="48.83251" lon="2.31445">
        <ele>70</ele>
        <time>2013-12-09T21:04:31.232Z</time>
      </trkpt>
      <trkpt lat="48.83255" lon="2.31456">
        <ele>68</ele>
        <time>2013-12-09T21:04:34.864Z</time>
      </trkpt>
      <trkpt lat="48.83256" lon="2.3146">
        <ele>68</ele>
        <time>2013-12-09T21:04:35.244Z</time>
      </trkpt>
      <trkpt lat="48.8326" lon="2.31469">
        <ele>63</ele>
        <time>2013-12-09T21:04:38.236Z</time>
      </trkpt>
      <trkpt lat="48.83262" lon="2.31472">
        <ele>64</ele>
        <time>2013-12-09T21:04:39.190Z</time>
      </trkpt>
      <trkpt lat="48.83267" lon="2.31478">
        <ele>62</ele>
        <time>2013-12-09T21:04:41.233Z</time>
      </trkpt>
      <trkpt lat="48.8327" lon="2.3148">
        <ele>61</ele>
        <time>2013-12-09T21:04:42.229Z</time>
      </trkpt>
      <trkpt lat="48.83276" lon="2.31484">
        <ele>61</ele>
        <time>2013-12-09T21:04:44.891Z</time>
      </trkpt>
      <trkpt lat="48.8328" lon="2.31487">
        <ele>61</ele>
        <time>2013-12-09T21:04:45.237Z</time>
      </trkpt>
      <trkpt lat="48.83286" lon="2.31494">
        <ele>60</ele>
        <time>2013-12-09T21:04:47.802Z</time>
      </trkpt>
      <trkpt lat="48.83289" lon="2.31497">
        <ele>61</ele>
        <time>2013-12-09T21:04:48.829Z</time>
      </trkpt>
      <trkpt lat="48.83295" lon="2.31504">
        <ele>58</ele>
        <time>2013-12-09T21:04:51.229Z</time>
      </trkpt>
      <trkpt lat="48.83298" lon="2.31507">
        <ele>56</ele>
        <time>2013-12-09T21:04:52.228Z</time>
      </trkpt>
      <trkpt lat="48.83296" lon="2.3152">
        <ele>58</ele>
        <time>2013-12-09T21:05:01.233Z</time>
      </trkpt>
      <trkpt lat="48.83294" lon="2.31521">
        <ele>58</ele>
        <time>2013-12-09T21:05:02.451Z</time>
      </trkpt>
      <trkpt lat="48.83288" lon="2.31528">
        <ele>60</ele>
        <time>2013-12-09T21:05:06.143Z</time>
      </trkpt>
      <trkpt lat="48.83287" lon="2.31531">
        <ele>62</ele>
        <time>2013-12-09T21:05:07.179Z</time>
      </trkpt>
      <trkpt lat="48.83284" lon="2.31543">
        <ele>65</ele>
        <time>2013-12-09T21:05:11.173Z</time>
      </trkpt>
      <trkpt lat="48.83284" lon="2.31546">
        <ele>68</ele>
        <time>2013-12-09T21:05:12.142Z</time>
      </trkpt>
      <trkpt lat="48.83282" lon="2.31556">
        <ele>68</ele>
        <time>2013-12-09T21:05:15.142Z</time>
      </trkpt>
      <trkpt lat="48.8328" lon="2.31559">
        <ele>71</ele>
        <time>2013-12-09T21:05:16.228Z</time>
      </trkpt>
      <trkpt lat="48.83277" lon="2.31569">
        <ele>76</ele>
        <time>2013-12-09T21:05:20.155Z</time>
      </trkpt>
      <trkpt lat="48.83276" lon="2.31572">
        <ele>79</ele>
        <time>2013-12-09T21:05:20.181Z</time>
      </trkpt>
      <trkpt lat="48.83276" lon="2.31585">
        <ele>88</ele>
        <time>2013-12-09T21:05:24.153Z</time>
      </trkpt>
      <trkpt lat="48.83278" lon="2.3159">
        <ele>91</ele>
        <time>2013-12-09T21:05:25.211Z</time>
      </trkpt>
      <trkpt lat="48.83282" lon="2.31598">
        <ele>94</ele>
        <time>2013-12-09T21:05:27.145Z</time>
      </trkpt>
      <trkpt lat="48.83284" lon="2.31601">
        <ele>94</ele>
        <time>2013-12-09T21:05:28.142Z</time>
      </trkpt>
      <trkpt lat="48.8329" lon="2.31606">
        <ele>94</ele>
        <time>2013-12-09T21:05:30.206Z</time>
      </trkpt>
      <trkpt lat="48.83293" lon="2.31608">
        <ele>94</ele>
        <time>2013-12-09T21:05:31.229Z</time>
      </trkpt>
      <trkpt lat="48.83299" lon="2.3161">
        <ele>101</ele>
        <time>2013-12-09T21:05:39.174Z</time>
      </trkpt>
      <trkpt lat="48.83298" lon="2.3161">
        <ele>101</ele>
        <time>2013-12-09T21:05:40.167Z</time>
      </trkpt>
      <trkpt lat="48.83297" lon="2.3161">
        <ele>101</ele>
        <time>2013-12-09T21:05:42.429Z</time>
      </trkpt>
      <trkpt lat="48.83297" lon="2.3161">
        <ele>101</ele>
        <time>2013-12-09T21:05:43.230Z</time>
      </trkpt>
      <trkpt lat="48.83297" lon="2.3161">
        <ele>101</ele>
        <time>2013-12-09T21:05:45.214Z</time>
      </trkpt>
      <trkpt lat="48.83296" lon="2.3161">
        <ele>101</ele>
        <time>2013-12-09T21:05:46.139Z</time>
      </trkpt>
      <trkpt lat="48.83297" lon="2.31612">
        <ele>102</ele>
        <time>2013-12-09T21:07:11.162Z</time>
      </trkpt>
      <trkpt lat="48.83296" lon="2.31613">
        <ele>101</ele>
        <time>2013-12-09T21:07:12.193Z</time>
      </trkpt>
      <trkpt lat="48.8329" lon="2.31617">
        <ele>103</ele>
        <time>2013-12-09T21:07:15.685Z</time>
      </trkpt>
      <trkpt lat="48.83288" lon="2.3162">
        <ele>104</ele>
        <time>2013-12-09T21:07:16.685Z</time>
      </trkpt>
      <trkpt lat="48.83283" lon="2.31626">
        <ele>104</ele>
        <time>2013-12-09T21:07:18.746Z</time>
      </trkpt>
      <trkpt lat="48.83281" lon="2.3163">
        <ele>105</ele>
        <time>2013-12-09T21:07:19.731Z</time>
      </trkpt>
      <trkpt lat="48.83276" lon="2.31636">
        <ele>108</ele>
        <time>2013-12-09T21:07:22.229Z</time>
      </trkpt>
      <trkpt lat="48.83273" lon="2.31639">
        <ele>108</ele>
        <time>2013-12-09T21:07:22.722Z</time>
      </trkpt>
      <trkpt lat="48.83265" lon="2.31645">
        <ele>105</ele>
        <time>2013-12-09T21:07:24.710Z</time>
      </trkpt>
      <trkpt lat="48.83262" lon="2.31648">
        <ele>106</ele>
        <time>2013-12-09T21:07:25.697Z</time>
      </trkpt>
      <trkpt lat="48.83254" lon="2.31655">
        <ele>105</ele>
        <time>2013-12-09T21:07:27.703Z</time>
      </trkpt>
      <trkpt lat="48.83251" lon="2.31659">
        <ele>106</ele>
        <time>2013-12-09T21:07:28.712Z</time>
      </trkpt>
      <trkpt lat="48.83245" lon="2.31669">
        <ele>107</ele>
        <time>2013-12-09T21:07:30.723Z</time>
      </trkpt>
      <trkpt lat="48.83241" lon="2.31674">
        <ele>107</ele>
        <time>2013-12-09T21:07:31.701Z</time>
      </trkpt>
      <trkpt lat="48.83237" lon="2.31679">
        <ele>107</ele>
        <time>2013-12-09T21:07:32.685Z</time>
      </trkpt>
      <trkpt lat="48.83233" lon="2.31684">
        <ele>107</ele>
        <time>2013-12-09T21:07:33.706Z</time>
      </trkpt>
      <trkpt lat="48.83226" lon="2.31692">
        <ele>111</ele>
        <time>2013-12-09T21:07:35.228Z</time>
      </trkpt>
      <trkpt lat="48.83222" lon="2.31696">
        <ele>113</ele>
        <time>2013-12-09T21:07:36.170Z</time>
      </trkpt>
      <trkpt lat="48.83218" lon="2.317">
        <ele>112</ele>
        <time>2013-12-09T21:07:37.244Z</time>
      </trkpt>
      <trkpt lat="48.83213" lon="2.31704">
        <ele>111</ele>
        <time>2013-12-09T21:07:38.240Z</time>
      </trkpt>
      <trkpt lat="48.83207" lon="2.31709">
        <ele>112</ele>
        <time>2013-12-09T21:07:40.237Z</time>
      </trkpt>
      <trkpt lat="48.83205" lon="2.31712">
        <ele>111</ele>
        <time>2013-12-09T21:07:41.172Z</time>
      </trkpt>
      <trkpt lat="48.83201" lon="2.31721">
        <ele>109</ele>
        <time>2013-12-09T21:07:44.188Z</time>
      </trkpt>
      <trkpt lat="48.83201" lon="2.31724">
        <ele>110</ele>
        <time>2013-12-09T21:07:45.154Z</time>
      </trkpt>
      <trkpt lat="48.83197" lon="2.31734">
        <ele>106</ele>
        <time>2013-12-09T21:07:51.464Z</time>
      </trkpt>
      <trkpt lat="48.83197" lon="2.31736">
        <ele>106</ele>
        <time>2013-12-09T21:07:52.233Z</time>
      </trkpt>
      <trkpt lat="48.8319" lon="2.31745">
        <ele>103</ele>
        <time>2013-12-09T21:07:55.183Z</time>
      </trkpt>
      <trkpt lat="48.83188" lon="2.31749">
        <ele>100</ele>
        <time>2013-12-09T21:07:56.242Z</time>
      </trkpt>
      <trkpt lat="48.83182" lon="2.31757">
        <ele>97</ele>
        <time>2013-12-09T21:07:58.179Z</time>
      </trkpt>
      <trkpt lat="48.83179" lon="2.31762">
        <ele>92</ele>
        <time>2013-12-09T21:07:59.146Z</time>
      </trkpt>
      <trkpt lat="48.83175" lon="2.31767">
        <ele>92</ele>
        <time>2013-12-09T21:08:00.245Z</time>
      </trkpt>
      <trkpt lat="48.83171" lon="2.31772">
        <ele>94</ele>
        <time>2013-12-09T21:08:01.235Z</time>
      </trkpt>
      <trkpt lat="48.83165" lon="2.31781">
        <ele>93</ele>
        <time>2013-12-09T21:08:03.172Z</time>
      </trkpt>
      <trkpt lat="48.83162" lon="2.31784">
        <ele>94</ele>
        <time>2013-12-09T21:08:04.142Z</time>
      </trkpt>
      <trkpt lat="48.83156" lon="2.3179">
        <ele>95</ele>
        <time>2013-12-09T21:08:06.230Z</time>
      </trkpt>
      <trkpt lat="48.83153" lon="2.31793">
        <ele>92</ele>
        <time>2013-12-09T21:08:07.235Z</time>
      </trkpt>
      <trkpt lat="48.83148" lon="2.318">
        <ele>90</ele>
        <time>2013-12-09T21:08:09.228Z</time>
      </trkpt>
      <trkpt lat="48.83144" lon="2.31804">
        <ele>90</ele>
        <time>2013-12-09T21:08:10.175Z</time>
      </trkpt>
      <trkpt lat="48.83141" lon="2.31808">
        <ele>89</ele>
        <time>2013-12-09T21:08:11.247Z</time>
      </trkpt>
      <trkpt lat="48.83137" lon="2.31812">
        <ele>90</ele>
        <time>2013-12-09T21:08:12.254Z</time>
      </trkpt>
      <trkpt lat="48.83133" lon="2.31816">
        <ele>89</ele>
        <time>2013-12-09T21:08:13.203Z</time>
      </trkpt>
      <trkpt lat="48.83129" lon="2.3182">
        <ele>89</ele>
        <time>2013-12-09T21:08:14.172Z</time>
      </trkpt>
      <trkpt lat="48.83125" lon="2.31824">
        <ele>90</ele>
        <time>2013-12-09T21:08:15.228Z</time>
      </trkpt>
      <trkpt lat="48.83121" lon="2.31827">
        <ele>91</ele>
        <time>2013-12-09T21:08:16.229Z</time>
      </trkpt>
      <trkpt lat="48.83113" lon="2.31834">
        <ele>93</ele>
        <time>2013-12-09T21:08:18.172Z</time>
      </trkpt>
      <trkpt lat="48.8311" lon="2.31836">
        <ele>97</ele>
        <time>2013-12-09T21:08:19.177Z</time>
      </trkpt>
      <trkpt lat="48.83104" lon="2.31842">
        <ele>96</ele>
        <time>2013-12-09T21:08:22.236Z</time>
      </trkpt>
      <trkpt lat="48.83102" lon="2.31844">
        <ele>96</ele>
        <time>2013-12-09T21:08:23.178Z</time>
      </trkpt>
      <trkpt lat="48.83097" lon="2.31852">
        <ele>98</ele>
        <time>2013-12-09T21:08:26.230Z</time>
      </trkpt>
      <trkpt lat="48.83095" lon="2.31854">
        <ele>99</ele>
        <time>2013-12-09T21:08:27.240Z</time>
      </trkpt>
      <trkpt lat="48.83089" lon="2.31862">
        <ele>99</ele>
        <time>2013-12-09T21:08:30.183Z</time>
      </trkpt>
      <trkpt lat="48.83087" lon="2.31866">
        <ele>98</ele>
        <time>2013-12-09T21:08:31.215Z</time>
      </trkpt>
      <trkpt lat="48.83084" lon="2.31875">
        <ele>99</ele>
        <time>2013-12-09T21:08:33.278Z</time>
      </trkpt>
      <trkpt lat="48.83082" lon="2.3188">
        <ele>101</ele>
        <time>2013-12-09T21:08:34.172Z</time>
      </trkpt>
      <trkpt lat="48.83079" lon="2.3189">
        <ele>102</ele>
        <time>2013-12-09T21:08:36.144Z</time>
      </trkpt>
      <trkpt lat="48.83077" lon="2.31895">
        <ele>103</ele>
        <time>2013-12-09T21:08:37.179Z</time>
      </trkpt>
      <trkpt lat="48.83075" lon="2.31905">
        <ele>104</ele>
        <time>2013-12-09T21:08:39.179Z</time>
      </trkpt>
      <trkpt lat="48.83075" lon="2.31909">
        <ele>104</ele>
        <time>2013-12-09T21:08:40.168Z</time>
      </trkpt>
      <trkpt lat="48.83075" lon="2.3192">
        <ele>106</ele>
        <time>2013-12-09T21:08:43.178Z</time>
      </trkpt>
      <trkpt lat="48.83077" lon="2.31922">
        <ele>105</ele>
        <time>2013-12-09T21:08:44.176Z</time>
      </trkpt>
      <trkpt lat="48.83084" lon="2.31926">
        <ele>109</ele>
        <time>2013-12-09T21:08:47.303Z</time>
      </trkpt>
      <trkpt lat="48.83089" lon="2.31926">
        <ele>109</ele>
        <time>2013-12-09T21:08:48.173Z</time>
      </trkpt>
      <trkpt lat="48.83094" lon="2.31927">
        <ele>109</ele>
        <time>2013-12-09T21:08:49.560Z</time>
      </trkpt>
      <trkpt lat="48.83099" lon="2.31927">
        <ele>109</ele>
        <time>2013-12-09T21:08:50.140Z</time>
      </trkpt>
      <trkpt lat="48.83108" lon="2.31927">
        <ele>110</ele>
        <time>2013-12-09T21:08:52.144Z</time>
      </trkpt>
      <trkpt lat="48.83111" lon="2.31927">
        <ele>110</ele>
        <time>2013-12-09T21:08:53.142Z</time>
      </trkpt>
      <trkpt lat="48.83119" lon="2.31925">
        <ele>111</ele>
        <time>2013-12-09T21:08:56.786Z</time>
      </trkpt>
      <trkpt lat="48.83121" lon="2.31925">
        <ele>106</ele>
        <time>2013-12-09T21:08:57.143Z</time>
      </trkpt>
      <trkpt lat="48.83127" lon="2.31933">
        <ele>105</ele>
        <time>2013-12-09T21:09:00.146Z</time>
      </trkpt>
      <trkpt lat="48.83129" lon="2.31939">
        <ele>104</ele>
        <time>2013-12-09T21:09:01.168Z</time>
      </trkpt>
      <trkpt lat="48.83131" lon="2.31945">
        <ele>104</ele>
        <time>2013-12-09T21:09:02.139Z</time>
      </trkpt>
      <trkpt lat="48.83133" lon="2.31951">
        <ele>105</ele>
        <time>2013-12-09T21:09:03.144Z</time>
      </trkpt>
      <trkpt lat="48.83136" lon="2.31957">
        <ele>103</ele>
        <time>2013-12-09T21:09:04.143Z</time>
      </trkpt>
      <trkpt lat="48.83139" lon="2.31962">
        <ele>103</ele>
        <time>2013-12-09T21:09:05.151Z</time>
      </trkpt>
      <trkpt lat="48.83142" lon="2.31967">
        <ele>102</ele>
        <time>2013-12-09T21:09:06.812Z</time>
      </trkpt>
      <trkpt lat="48.83145" lon="2.31972">
        <ele>102</ele>
        <time>2013-12-09T21:09:07.144Z</time>
      </trkpt>
      <trkpt lat="48.83148" lon="2.31977">
        <ele>103</ele>
        <time>2013-12-09T21:09:08.145Z</time>
      </trkpt>
      <trkpt lat="48.83152" lon="2.31981">
        <ele>103</ele>
        <time>2013-12-09T21:09:09.148Z</time>
      </trkpt>
      <trkpt lat="48.83155" lon="2.31986">
        <ele>104</ele>
        <time>2013-12-09T21:09:10.148Z</time>
      </trkpt>
      <trkpt lat="48.83159" lon="2.3199">
        <ele>105</ele>
        <time>2013-12-09T21:09:11.248Z</time>
      </trkpt>
      <trkpt lat="48.83162" lon="2.31994">
        <ele>107</ele>
        <time>2013-12-09T21:09:12.143Z</time>
      </trkpt>
      <trkpt lat="48.83165" lon="2.31999">
        <ele>107</ele>
        <time>2013-12-09T21:09:13.462Z</time>
      </trkpt>
      <trkpt lat="48.83173" lon="2.32004">
        <ele>110</ele>
        <time>2013-12-09T21:09:15.755Z</time>
      </trkpt>
      <trkpt lat="48.83177" lon="2.32005">
        <ele>112</ele>
        <time>2013-12-09T21:09:16.776Z</time>
      </trkpt>
      <trkpt lat="48.83184" lon="2.32009">
        <ele>113</ele>
        <time>2013-12-09T21:09:18.237Z</time>
      </trkpt>
      <trkpt lat="48.83189" lon="2.32013">
        <ele>114</ele>
        <time>2013-12-09T21:09:19.927Z</time>
      </trkpt>
      <trkpt lat="48.83196" lon="2.32019">
        <ele>115</ele>
        <time>2013-12-09T21:09:21.931Z</time>
      </trkpt>
      <trkpt lat="48.83199" lon="2.32022">
        <ele>114</ele>
        <time>2013-12-09T21:09:22.925Z</time>
      </trkpt>
      <trkpt lat="48.83205" lon="2.32027">
        <ele>108</ele>
        <time>2013-12-09T21:09:24.229Z</time>
      </trkpt>
      <trkpt lat="48.83208" lon="2.3203">
        <ele>107</ele>
        <time>2013-12-09T21:09:25.231Z</time>
      </trkpt>
      <trkpt lat="48.83211" lon="2.32031">
        <ele>110</ele>
        <time>2013-12-09T21:09:27.071Z</time>
      </trkpt>
      <trkpt lat="48.83227" lon="2.3204">
        <ele>109</ele>
        <time>2013-12-09T21:09:30.504Z</time>
      </trkpt>
      <trkpt lat="48.83236" lon="2.32043">
        <ele>110</ele>
        <time>2013-12-09T21:09:32.163Z</time>
      </trkpt>
      <trkpt lat="48.8324" lon="2.32044">
        <ele>109</ele>
        <time>2013-12-09T21:09:33.178Z</time>
      </trkpt>
      <trkpt lat="48.83248" lon="2.32048">
        <ele>108</ele>
        <time>2013-12-09T21:09:35.147Z</time>
      </trkpt>
      <trkpt lat="48.83253" lon="2.3205">
        <ele>111</ele>
        <time>2013-12-09T21:09:36.174Z</time>
      </trkpt>
      <trkpt lat="48.83259" lon="2.32052">
        <ele>110</ele>
        <time>2013-12-09T21:09:37.148Z</time>
      </trkpt>
      <trkpt lat="48.83264" lon="2.32054">
        <ele>109</ele>
        <time>2013-12-09T21:09:38.181Z</time>
      </trkpt>
      <trkpt lat="48.8327" lon="2.32063">
        <ele>107</ele>
        <time>2013-12-09T21:09:42.146Z</time>
      </trkpt>
      <trkpt lat="48.8327" lon="2.32065">
        <ele>107</ele>
        <time>2013-12-09T21:09:43.146Z</time>
      </trkpt>
      <trkpt lat="48.83271" lon="2.32074">
        <ele>101</ele>
        <time>2013-12-09T21:09:47.156Z</time>
      </trkpt>
      <trkpt lat="48.83272" lon="2.32079">
        <ele>100</ele>
        <time>2013-12-09T21:09:48.182Z</time>
      </trkpt>
      <trkpt lat="48.83279" lon="2.32084">
        <ele>88</ele>
        <time>2013-12-09T21:09:54.668Z</time>
      </trkpt>
      <trkpt lat="48.83282" lon="2.32085">
        <ele>85</ele>
        <time>2013-12-09T21:09:55.673Z</time>
      </trkpt>
      <trkpt lat="48.83289" lon="2.32089">
        <ele>81</ele>
        <time>2013-12-09T21:09:57.514Z</time>
      </trkpt>
      <trkpt lat="48.83294" lon="2.32092">
        <ele>77</ele>
        <time>2013-12-09T21:09:58.639Z</time>
      </trkpt>
      <trkpt lat="48.83301" lon="2.32096">
        <ele>72</ele>
        <time>2013-12-09T21:10:00.245Z</time>
      </trkpt>
      <trkpt lat="48.83305" lon="2.32098">
        <ele>70</ele>
        <time>2013-12-09T21:10:01.164Z</time>
      </trkpt>
      <trkpt lat="48.83311" lon="2.32102">
        <ele>69</ele>
        <time>2013-12-09T21:10:03.168Z</time>
      </trkpt>
      <trkpt lat="48.83314" lon="2.32104">
        <ele>68</ele>
        <time>2013-12-09T21:10:04.238Z</time>
      </trkpt>
      <trkpt lat="48.83319" lon="2.32111">
        <ele>68</ele>
        <time>2013-12-09T21:10:06.193Z</time>
      </trkpt>
      <trkpt lat="48.83322" lon="2.32115">
        <ele>70</ele>
        <time>2013-12-09T21:10:07.170Z</time>
      </trkpt>
      <trkpt lat="48.83325" lon="2.32125">
        <ele>72</ele>
        <time>2013-12-09T21:10:09.153Z</time>
      </trkpt>
      <trkpt lat="48.83325" lon="2.32132">
        <ele>73</ele>
        <time>2013-12-09T21:10:10.169Z</time>
      </trkpt>
      <trkpt lat="48.83325" lon="2.32144">
        <ele>75</ele>
        <time>2013-12-09T21:10:12.173Z</time>
      </trkpt>
      <trkpt lat="48.83323" lon="2.32151">
        <ele>76</ele>
        <time>2013-12-09T21:10:13.170Z</time>
      </trkpt>
      <trkpt lat="48.83322" lon="2.32158">
        <ele>77</ele>
        <time>2013-12-09T21:10:14.280Z</time>
      </trkpt>
      <trkpt lat="48.8332" lon="2.32164">
        <ele>77</ele>
        <time>2013-12-09T21:10:15.230Z</time>
      </trkpt>
      <trkpt lat="48.83318" lon="2.3217">
        <ele>78</ele>
        <time>2013-12-09T21:10:16.877Z</time>
      </trkpt>
      <trkpt lat="48.83316" lon="2.32176">
        <ele>80</ele>
        <time>2013-12-09T21:10:17.158Z</time>
      </trkpt>
      <trkpt lat="48.83314" lon="2.32184">
        <ele>81</ele>
        <time>2013-12-09T21:10:18.164Z</time>
      </trkpt>
      <trkpt lat="48.83312" lon="2.32192">
        <ele>82</ele>
        <time>2013-12-09T21:10:19.450Z</time>
      </trkpt>
      <trkpt lat="48.83312" lon="2.32199">
        <ele>85</ele>
        <time>2013-12-09T21:10:20.247Z</time>
      </trkpt>
      <trkpt lat="48.83313" lon="2.32206">
        <ele>86</ele>
        <time>2013-12-09T21:10:21.175Z</time>
      </trkpt>
      <trkpt lat="48.83313" lon="2.32214">
        <ele>87</ele>
        <time>2013-12-09T21:10:22.140Z</time>
      </trkpt>
      <trkpt lat="48.83312" lon="2.32221">
        <ele>86</ele>
        <time>2013-12-09T21:10:23.170Z</time>
      </trkpt>
      <trkpt lat="48.83311" lon="2.32233">
        <ele>88</ele>
        <time>2013-12-09T21:10:25.167Z</time>
      </trkpt>
      <trkpt lat="48.8331" lon="2.32238">
        <ele>89</ele>
        <time>2013-12-09T21:10:26.169Z</time>
      </trkpt>
      <trkpt lat="48.83309" lon="2.32248">
        <ele>93</ele>
        <time>2013-12-09T21:10:28.469Z</time>
      </trkpt>
      <trkpt lat="48.83309" lon="2.32252">
        <ele>95</ele>
        <time>2013-12-09T21:10:29.256Z</time>
      </trkpt>
      <trkpt lat="48.8331" lon="2.32263">
        <ele>94</ele>
        <time>2013-12-09T21:10:32.287Z</time>
      </trkpt>
      <trkpt lat="48.8331" lon="2.32266">
        <ele>95</ele>
        <time>2013-12-09T21:10:33.232Z</time>
      </trkpt>
      <trkpt lat="48.83309" lon="2.32278">
        <ele>95</ele>
        <time>2013-12-09T21:10:36.160Z</time>
      </trkpt>
      <trkpt lat="48.83307" lon="2.32284">
        <ele>96</ele>
        <time>2013-12-09T21:10:37.128Z</time>
      </trkpt>
      <trkpt lat="48.83306" lon="2.3229">
        <ele>97</ele>
        <time>2013-12-09T21:10:38.164Z</time>
      </trkpt>
      <trkpt lat="48.83303" lon="2.32296">
        <ele>96</ele>
        <time>2013-12-09T21:10:39.140Z</time>
      </trkpt>
      <trkpt lat="48.83301" lon="2.32306">
        <ele>97</ele>
        <time>2013-12-09T21:10:40.168Z</time>
      </trkpt>
      <trkpt lat="48.83298" lon="2.32316">
        <ele>98</ele>
        <time>2013-12-09T21:10:41.131Z</time>
      </trkpt>
      <trkpt lat="48.83297" lon="2.32325">
        <ele>98</ele>
        <time>2013-12-09T21:10:42.151Z</time>
      </trkpt>
      <trkpt lat="48.83295" lon="2.32336">
        <ele>97</ele>
        <time>2013-12-09T21:10:43.248Z</time>
      </trkpt>
      <trkpt lat="48.83294" lon="2.32347">
        <ele>96</ele>
        <time>2013-12-09T21:10:44.236Z</time>
      </trkpt>
      <trkpt lat="48.83296" lon="2.32359">
        <ele>94</ele>
        <time>2013-12-09T21:10:45.230Z</time>
      </trkpt>
      <trkpt lat="48.83296" lon="2.32373">
        <ele>93</ele>
        <time>2013-12-09T21:10:47.264Z</time>
      </trkpt>
      <trkpt lat="48.83296" lon="2.32377">
        <ele>94</ele>
        <time>2013-12-09T21:10:48.135Z</time>
      </trkpt>
      <trkpt lat="48.83292" lon="2.32388">
        <ele>97</ele>
        <time>2013-12-09T21:10:50.233Z</time>
      </trkpt>
      <trkpt lat="48.8329" lon="2.32392">
        <ele>98</ele>
        <time>2013-12-09T21:10:51.148Z</time>
      </trkpt>
      <trkpt lat="48.83287" lon="2.32403">
        <ele>96</ele>
        <time>2013-12-09T21:10:57.142Z</time>
      </trkpt>
      <trkpt lat="48.83287" lon="2.32406">
        <ele>94</ele>
        <time>2013-12-09T21:10:58.169Z</time>
      </trkpt>
      <trkpt lat="48.83289" lon="2.32418">
        <ele>94</ele>
        <time>2013-12-09T21:11:02.138Z</time>
      </trkpt>
      <trkpt lat="48.8329" lon="2.32422">
        <ele>93</ele>
        <time>2013-12-09T21:11:03.136Z</time>
      </trkpt>
      <trkpt lat="48.83291" lon="2.32434">
        <ele>97</ele>
        <time>2013-12-09T21:11:06.138Z</time>
      </trkpt>
      <trkpt lat="48.83291" lon="2.32438">
        <ele>99</ele>
        <time>2013-12-09T21:11:07.142Z</time>
      </trkpt>
      <trkpt lat="48.83292" lon="2.32447">
        <ele>99</ele>
        <time>2013-12-09T21:11:09.234Z</time>
      </trkpt>
      <trkpt lat="48.83292" lon="2.32452">
        <ele>101</ele>
        <time>2013-12-09T21:11:10.929Z</time>
      </trkpt>
      <trkpt lat="48.83287" lon="2.3246">
        <ele>104</ele>
        <time>2013-12-09T21:11:14.230Z</time>
      </trkpt>
      <trkpt lat="48.83285" lon="2.32462">
        <ele>100</ele>
        <time>2013-12-09T21:11:15.235Z</time>
      </trkpt>
      <trkpt lat="48.83282" lon="2.3247">
        <ele>98</ele>
        <time>2013-12-09T21:11:17.188Z</time>
      </trkpt>
      <trkpt lat="48.8328" lon="2.32475">
        <ele>100</ele>
        <time>2013-12-09T21:11:18.142Z</time>
      </trkpt>
      <trkpt lat="48.83278" lon="2.32487">
        <ele>100</ele>
        <time>2013-12-09T21:11:20.877Z</time>
      </trkpt>
      <trkpt lat="48.83278" lon="2.32491">
        <ele>100</ele>
        <time>2013-12-09T21:11:21.876Z</time>
      </trkpt>
      <trkpt lat="48.83276" lon="2.32499">
        <ele>103</ele>
        <time>2013-12-09T21:11:24.867Z</time>
      </trkpt>
      <trkpt lat="48.83274" lon="2.32504">
        <ele>103</ele>
        <time>2013-12-09T21:11:24.924Z</time>
      </trkpt>
      <trkpt lat="48.83271" lon="2.32513">
        <ele>105</ele>
        <time>2013-12-09T21:11:26.873Z</time>
      </trkpt>
      <trkpt lat="48.8327" lon="2.32518">
        <ele>104</ele>
        <time>2013-12-09T21:11:27.868Z</time>
      </trkpt>
      <trkpt lat="48.83266" lon="2.32529">
        <ele>103</ele>
        <time>2013-12-09T21:11:30.841Z</time>
      </trkpt>
      <trkpt lat="48.83265" lon="2.32533">
        <ele>104</ele>
        <time>2013-12-09T21:11:31.871Z</time>
      </trkpt>
      <trkpt lat="48.83262" lon="2.32545">
        <ele>92</ele>
        <time>2013-12-09T21:11:35.870Z</time>
      </trkpt>
      <trkpt lat="48.83263" lon="2.32548">
        <ele>93</ele>
        <time>2013-12-09T21:11:36.843Z</time>
      </trkpt>
      <trkpt lat="48.83261" lon="2.3256">
        <ele>92</ele>
        <time>2013-12-09T21:11:42.245Z</time>
      </trkpt>
      <trkpt lat="48.8326" lon="2.32564">
        <ele>91</ele>
        <time>2013-12-09T21:11:43.176Z</time>
      </trkpt>
      <trkpt lat="48.83257" lon="2.32574">
        <ele>91</ele>
        <time>2013-12-09T21:11:45.238Z</time>
      </trkpt>
      <trkpt lat="48.83255" lon="2.3258">
        <ele>93</ele>
        <time>2013-12-09T21:11:46.466Z</time>
      </trkpt>
      <trkpt lat="48.83255" lon="2.32591">
        <ele>89</ele>
        <time>2013-12-09T21:11:49.282Z</time>
      </trkpt>
      <trkpt lat="48.83255" lon="2.32593">
        <ele>88</ele>
        <time>2013-12-09T21:11:50.236Z</time>
      </trkpt>
      <trkpt lat="48.83255" lon="2.32605">
        <ele>85</ele>
        <time>2013-12-09T21:11:55.180Z</time>
      </trkpt>
      <trkpt lat="48.83255" lon="2.32608">
        <ele>86</ele>
        <time>2013-12-09T21:11:56.148Z</time>
      </trkpt>
      <trkpt lat="48.83252" lon="2.32619">
        <ele>83</ele>
        <time>2013-12-09T21:11:59.290Z</time>
      </trkpt>
      <trkpt lat="48.83251" lon="2.32622">
        <ele>82</ele>
        <time>2013-12-09T21:12:00.171Z</time>
      </trkpt>
      <trkpt lat="48.83247" lon="2.32631">
        <ele>81</ele>
        <time>2013-12-09T21:12:03.142Z</time>
      </trkpt>
      <trkpt lat="48.83246" lon="2.32635">
        <ele>81</ele>
        <time>2013-12-09T21:12:04.146Z</time>
      </trkpt>
      <trkpt lat="48.83243" lon="2.32643">
        <ele>79</ele>
        <time>2013-12-09T21:12:06.145Z</time>
      </trkpt>
      <trkpt lat="48.83242" lon="2.32648">
        <ele>80</ele>
        <time>2013-12-09T21:12:07.149Z</time>
      </trkpt>
      <trkpt lat="48.83237" lon="2.32658">
        <ele>79</ele>
        <time>2013-12-09T21:12:10.144Z</time>
      </trkpt>
      <trkpt lat="48.83235" lon="2.3266">
        <ele>78</ele>
        <time>2013-12-09T21:12:11.144Z</time>
      </trkpt>
      <trkpt lat="48.83228" lon="2.32665">
        <ele>78</ele>
        <time>2013-12-09T21:12:16.174Z</time>
      </trkpt>
      <trkpt lat="48.83227" lon="2.32666">
        <ele>78</ele>
        <time>2013-12-09T21:12:17.175Z</time>
      </trkpt>
      <trkpt lat="48.83223" lon="2.32675">
        <ele>79</ele>
        <time>2013-12-09T21:12:21.172Z</time>
      </trkpt>
      <trkpt lat="48.83222" lon="2.32678">
        <ele>81</ele>
        <time>2013-12-09T21:12:22.175Z</time>
      </trkpt>
      <trkpt lat="48.83219" lon="2.32691">
        <ele>81</ele>
        <time>2013-12-09T21:12:25.177Z</time>
      </trkpt>
      <trkpt lat="48.83219" lon="2.32696">
        <ele>81</ele>
        <time>2013-12-09T21:12:26.175Z</time>
      </trkpt>
      <trkpt lat="48.83217" lon="2.32705">
        <ele>81</ele>
        <time>2013-12-09T21:12:28.238Z</time>
      </trkpt>
      <trkpt lat="48.83216" lon="2.3271">
        <ele>81</ele>
        <time>2013-12-09T21:12:29.147Z</time>
      </trkpt>
      <trkpt lat="48.83213" lon="2.32718">
        <ele>82</ele>
        <time>2013-12-09T21:12:31.147Z</time>
      </trkpt>
      <trkpt lat="48.83212" lon="2.32722">
        <ele>82</ele>
        <time>2013-12-09T21:12:32.173Z</time>
      </trkpt>
      <trkpt lat="48.83208" lon="2.32732">
        <ele>83</ele>
        <time>2013-12-09T21:12:34.669Z</time>
      </trkpt>
      <trkpt lat="48.83206" lon="2.32738">
        <ele>83</ele>
        <time>2013-12-09T21:12:35.232Z</time>
      </trkpt>
      <trkpt lat="48.83201" lon="2.32748">
        <ele>79</ele>
        <time>2013-12-09T21:12:37.268Z</time>
      </trkpt>
      <trkpt lat="48.83199" lon="2.32753">
        <ele>79</ele>
        <time>2013-12-09T21:12:38.232Z</time>
      </trkpt>
      <trkpt lat="48.83193" lon="2.32762">
        <ele>80</ele>
        <time>2013-12-09T21:12:40.840Z</time>
      </trkpt>
      <trkpt lat="48.83191" lon="2.32767">
        <ele>81</ele>
        <time>2013-12-09T21:12:41.153Z</time>
      </trkpt>
      <trkpt lat="48.83188" lon="2.32778">
        <ele>83</ele>
        <time>2013-12-09T21:12:43.243Z</time>
      </trkpt>
      <trkpt lat="48.83187" lon="2.32783">
        <ele>83</ele>
        <time>2013-12-09T21:12:44.172Z</time>
      </trkpt>
      <trkpt lat="48.83186" lon="2.32794">
        <ele>86</ele>
        <time>2013-12-09T21:12:46.231Z</time>
      </trkpt>
      <trkpt lat="48.83185" lon="2.32799">
        <ele>89</ele>
        <time>2013-12-09T21:12:47.244Z</time>
      </trkpt>
      <trkpt lat="48.83183" lon="2.3281">
        <ele>94</ele>
        <time>2013-12-09T21:12:49.677Z</time>
      </trkpt>
      <trkpt lat="48.83182" lon="2.32816">
        <ele>93</ele>
        <time>2013-12-09T21:12:50.239Z</time>
      </trkpt>
      <trkpt lat="48.8318" lon="2.32827">
        <ele>93</ele>
        <time>2013-12-09T21:12:52.237Z</time>
      </trkpt>
      <trkpt lat="48.83179" lon="2.32832">
        <ele>92</ele>
        <time>2013-12-09T21:12:53.230Z</time>
      </trkpt>
      <trkpt lat="48.83175" lon="2.32842">
        <ele>90</ele>
        <time>2013-12-09T21:12:55.149Z</time>
      </trkpt>
      <trkpt lat="48.83174" lon="2.32847">
        <ele>90</ele>
        <time>2013-12-09T21:12:56.154Z</time>
      </trkpt>
      <trkpt lat="48.83173" lon="2.32859">
        <ele>89</ele>
        <time>2013-12-09T21:12:59.733Z</time>
      </trkpt>
      <trkpt lat="48.83174" lon="2.32863">
        <ele>90</ele>
        <time>2013-12-09T21:13:00.167Z</time>
      </trkpt>
      <trkpt lat="48.8318" lon="2.3287">
        <ele>88</ele>
        <time>2013-12-09T21:13:04.751Z</time>
      </trkpt>
      <trkpt lat="48.83183" lon="2.3287">
        <ele>89</ele>
        <time>2013-12-09T21:13:05.137Z</time>
      </trkpt>
      <trkpt lat="48.83191" lon="2.32873">
        <ele>94</ele>
        <time>2013-12-09T21:13:08.177Z</time>
      </trkpt>
      <trkpt lat="48.83193" lon="2.32876">
        <ele>93</ele>
        <time>2013-12-09T21:13:09.152Z</time>
      </trkpt>
      <trkpt lat="48.83193" lon="2.32889">
        <ele>94</ele>
        <time>2013-12-09T21:13:13.163Z</time>
      </trkpt>
      <trkpt lat="48.83193" lon="2.32891">
        <ele>94</ele>
        <time>2013-12-09T21:13:14.159Z</time>
      </trkpt>
      <trkpt lat="48.83191" lon="2.329">
        <ele>98</ele>
        <time>2013-12-09T21:13:17.194Z</time>
      </trkpt>
      <trkpt lat="48.83191" lon="2.32905">
        <ele>97</ele>
        <time>2013-12-09T21:13:18.150Z</time>
      </trkpt>
      <trkpt lat="48.8319" lon="2.32918">
        <ele>100</ele>
        <time>2013-12-09T21:13:21.148Z</time>
      </trkpt>
      <trkpt lat="48.8319" lon="2.32922">
        <ele>98</ele>
        <time>2013-12-09T21:13:22.178Z</time>
      </trkpt>
      <trkpt lat="48.8319" lon="2.32935">
        <ele>98</ele>
        <time>2013-12-09T21:13:25.233Z</time>
      </trkpt>
      <trkpt lat="48.8319" lon="2.32939">
        <ele>99</ele>
        <time>2013-12-09T21:13:26.257Z</time>
      </trkpt>
      <trkpt lat="48.83189" lon="2.32952">
        <ele>98</ele>
        <time>2013-12-09T21:13:29.986Z</time>
      </trkpt>
      <trkpt lat="48.83189" lon="2.32956">
        <ele>99</ele>
        <time>2013-12-09T21:13:30.235Z</time>
      </trkpt>
      <trkpt lat="48.83191" lon="2.32966">
        <ele>99</ele>
        <time>2013-12-09T21:13:33.237Z</time>
      </trkpt>
      <trkpt lat="48.83193" lon="2.3297">
        <ele>99</ele>
        <time>2013-12-09T21:13:34.169Z</time>
      </trkpt>
      <trkpt lat="48.83197" lon="2.32979">
        <ele>98</ele>
        <time>2013-12-09T21:13:36.139Z</time>
      </trkpt>
      <trkpt lat="48.83199" lon="2.32985">
        <ele>97</ele>
        <time>2013-12-09T21:13:37.164Z</time>
      </trkpt>
      <trkpt lat="48.83202" lon="2.32997">
        <ele>96</ele>
        <time>2013-12-09T21:13:40.008Z</time>
      </trkpt>
      <trkpt lat="48.83204" lon="2.33003">
        <ele>96</ele>
        <time>2013-12-09T21:13:40.236Z</time>
      </trkpt>
      <trkpt lat="48.83208" lon="2.33008">
        <ele>97</ele>
        <time>2013-12-09T21:13:41.231Z</time>
      </trkpt>
      <trkpt lat="48.83212" lon="2.33013">
        <ele>96</ele>
        <time>2013-12-09T21:13:42.244Z</time>
      </trkpt>
      <trkpt lat="48.83217" lon="2.33016">
        <ele>95</ele>
        <time>2013-12-09T21:13:43.137Z</time>
      </trkpt>
      <trkpt lat="48.83222" lon="2.3302">
        <ele>93</ele>
        <time>2013-12-09T21:13:44.230Z</time>
      </trkpt>
      <trkpt lat="48.83227" lon="2.33022">
        <ele>95</ele>
        <time>2013-12-09T21:13:45.234Z</time>
      </trkpt>
      <trkpt lat="48.83232" lon="2.33026">
        <ele>94</ele>
        <time>2013-12-09T21:13:46.247Z</time>
      </trkpt>
      <trkpt lat="48.83237" lon="2.33029">
        <ele>94</ele>
        <time>2013-12-09T21:13:48.032Z</time>
      </trkpt>
      <trkpt lat="48.83242" lon="2.33033">
        <ele>96</ele>
        <time>2013-12-09T21:13:48.250Z</time>
      </trkpt>
      <trkpt lat="48.83246" lon="2.33037">
        <ele>96</ele>
        <time>2013-12-09T21:13:49.175Z</time>
      </trkpt>
      <trkpt lat="48.8325" lon="2.33042">
        <ele>98</ele>
        <time>2013-12-09T21:13:50.233Z</time>
      </trkpt>
      <trkpt lat="48.83254" lon="2.33047">
        <ele>100</ele>
        <time>2013-12-09T21:13:51.272Z</time>
      </trkpt>
      <trkpt lat="48.83258" lon="2.33052">
        <ele>102</ele>
        <time>2013-12-09T21:13:52.153Z</time>
      </trkpt>
      <trkpt lat="48.83262" lon="2.33058">
        <ele>103</ele>
        <time>2013-12-09T21:13:53.257Z</time>
      </trkpt>
      <trkpt lat="48.83265" lon="2.33063">
        <ele>102</ele>
        <time>2013-12-09T21:13:54.180Z</time>
      </trkpt>
      <trkpt lat="48.83269" lon="2.33068">
        <ele>102</ele>
        <time>2013-12-09T21:13:55.246Z</time>
      </trkpt>
      <trkpt lat="48.83274" lon="2.33073">
        <ele>104</ele>
        <time>2013-12-09T21:13:56.237Z</time>
      </trkpt>
      <trkpt lat="48.8328" lon="2.33081">
        <ele>105</ele>
        <time>2013-12-09T21:13:58.035Z</time>
      </trkpt>
      <trkpt lat="48.83286" lon="2.33089">
        <ele>106</ele>
        <time>2013-12-09T21:13:58.263Z</time>
      </trkpt>
      <trkpt lat="48.8329" lon="2.33095">
        <ele>105</ele>
        <time>2013-12-09T21:13:59.231Z</time>
      </trkpt>
      <trkpt lat="48.83294" lon="2.331">
        <ele>106</ele>
        <time>2013-12-09T21:14:00.249Z</time>
      </trkpt>
      <trkpt lat="48.833" lon="2.33107">
        <ele>107</ele>
        <time>2013-12-09T21:14:02.998Z</time>
      </trkpt>
      <trkpt lat="48.83302" lon="2.33107">
        <ele>109</ele>
        <time>2013-12-09T21:14:03.229Z</time>
      </trkpt>
      <trkpt lat="48.8331" lon="2.33115">
        <ele>111</ele>
        <time>2013-12-09T21:14:05.235Z</time>
      </trkpt>
      <trkpt lat="48.83312" lon="2.33119">
        <ele>111</ele>
        <time>2013-12-09T21:14:06.231Z</time>
      </trkpt>
      <trkpt lat="48.83318" lon="2.33126">
        <ele>110</ele>
        <time>2013-12-09T21:14:08.139Z</time>
      </trkpt>
      <trkpt lat="48.83322" lon="2.3313">
        <ele>111</ele>
        <time>2013-12-09T21:14:09.238Z</time>
      </trkpt>
      <trkpt lat="48.83329" lon="2.33134">
        <ele>111</ele>
        <time>2013-12-09T21:14:11.510Z</time>
      </trkpt>
      <trkpt lat="48.83333" lon="2.33135">
        <ele>110</ele>
        <time>2013-12-09T21:14:12.506Z</time>
      </trkpt>
      <trkpt lat="48.83341" lon="2.3314">
        <ele>108</ele>
        <time>2013-12-09T21:14:14.514Z</time>
      </trkpt>
      <trkpt lat="48.83345" lon="2.33143">
        <ele>108</ele>
        <time>2013-12-09T21:14:15.538Z</time>
      </trkpt>
      <trkpt lat="48.83348" lon="2.33146">
        <ele>108</ele>
        <time>2013-12-09T21:14:16.479Z</time>
      </trkpt>
      <trkpt lat="48.83352" lon="2.3315">
        <ele>109</ele>
        <time>2013-12-09T21:14:17.477Z</time>
      </trkpt>
      <trkpt lat="48.83359" lon="2.33157">
        <ele>107</ele>
        <time>2013-12-09T21:14:19.512Z</time>
      </trkpt>
      <trkpt lat="48.83363" lon="2.33162">
        <ele>107</ele>
        <time>2013-12-09T21:14:20.514Z</time>
      </trkpt>
      <trkpt lat="48.83368" lon="2.3317">
        <ele>108</ele>
        <time>2013-12-09T21:14:23.078Z</time>
      </trkpt>
      <trkpt lat="48.8337" lon="2.33174">
        <ele>105</ele>
        <time>2013-12-09T21:14:23.509Z</time>
      </trkpt>
      <trkpt lat="48.83375" lon="2.33185">
        <ele>104</ele>
        <time>2013-12-09T21:14:26.687Z</time>
      </trkpt>
      <trkpt lat="48.83377" lon="2.33187">
        <ele>106</ele>
        <time>2013-12-09T21:14:27.688Z</time>
      </trkpt>
      <trkpt lat="48.83381" lon="2.33194">
        <ele>108</ele>
        <time>2013-12-09T21:14:29.236Z</time>
      </trkpt>
      <trkpt lat="48.83384" lon="2.33197">
        <ele>110</ele>
        <time>2013-12-09T21:14:30.231Z</time>
      </trkpt>
      <trkpt lat="48.8339" lon="2.33204">
        <ele>115</ele>
        <time>2013-12-09T21:14:33.168Z</time>
      </trkpt>
      <trkpt lat="48.83392" lon="2.33205">
        <ele>117</ele>
        <time>2013-12-09T21:14:34.152Z</time>
      </trkpt>
      <trkpt lat="48.83399" lon="2.3321">
        <ele>115</ele>
        <time>2013-12-09T21:14:41.173Z</time>
      </trkpt>
      <trkpt lat="48.834" lon="2.33212">
        <ele>114</ele>
        <time>2013-12-09T21:14:42.172Z</time>
      </trkpt>
      <trkpt lat="48.83404" lon="2.33223">
        <ele>114</ele>
        <time>2013-12-09T21:14:46.244Z</time>
      </trkpt>
      <trkpt lat="48.83405" lon="2.33225">
        <ele>112</ele>
        <time>2013-12-09T21:14:47.236Z</time>
      </trkpt>
      <trkpt lat="48.83407" lon="2.33238">
        <ele>108</ele>
        <time>2013-12-09T21:14:52.236Z</time>
      </trkpt>
      <trkpt lat="48.83408" lon="2.3324">
        <ele>109</ele>
        <time>2013-12-09T21:14:53.248Z</time>
      </trkpt>
      <trkpt lat="48.83414" lon="2.33246">
        <ele>109</ele>
        <time>2013-12-09T21:14:58.178Z</time>
      </trkpt>
      <trkpt lat="48.83416" lon="2.33247">
        <ele>110</ele>
        <time>2013-12-09T21:14:58.235Z</time>
      </trkpt>
      <trkpt lat="48.83419" lon="2.33251">
        <ele>109</ele>
        <time>2013-12-09T21:15:07.421Z</time>
      </trkpt>
      <trkpt lat="48.83419" lon="2.33251">
        <ele>109</ele>
        <time>2013-12-09T21:15:08.288Z</time>
      </trkpt>
      <trkpt lat="48.83419" lon="2.33252">
        <ele>108</ele>
        <time>2013-12-09T21:16:36.291Z</time>
      </trkpt>
      <trkpt lat="48.83419" lon="2.33253">
        <ele>108</ele>
        <time>2013-12-09T21:16:37.342Z</time>
      </trkpt>
      <trkpt lat="48.83423" lon="2.33261">
        <ele>109</ele>
        <time>2013-12-09T21:16:41.286Z</time>
      </trkpt>
      <trkpt lat="48.83424" lon="2.33264">
        <ele>110</ele>
        <time>2013-12-09T21:16:42.278Z</time>
      </trkpt>
      <trkpt lat="48.83428" lon="2.33272">
        <ele>112</ele>
        <time>2013-12-09T21:16:50.086Z</time>
      </trkpt>
      <trkpt lat="48.83428" lon="2.33271">
        <ele>112</ele>
        <time>2013-12-09T21:16:50.280Z</time>
      </trkpt>
      <trkpt lat="48.83427" lon="2.33271">
        <ele>112</ele>
        <time>2013-12-09T21:17:21.230Z</time>
      </trkpt>
      <trkpt lat="48.83428" lon="2.33272">
        <ele>112</ele>
        <time>2013-12-09T21:17:22.263Z</time>
      </trkpt>
      <trkpt lat="48.83435" lon="2.33278">
        <ele>111</ele>
        <time>2013-12-09T21:17:26.189Z</time>
      </trkpt>
      <trkpt lat="48.83438" lon="2.3328">
        <ele>111</ele>
        <time>2013-12-09T21:17:27.228Z</time>
      </trkpt>
      <trkpt lat="48.83444" lon="2.33286">
        <ele>105</ele>
        <time>2013-12-09T21:17:29.735Z</time>
      </trkpt>
      <trkpt lat="48.83447" lon="2.33288">
        <ele>104</ele>
        <time>2013-12-09T21:17:30.739Z</time>
      </trkpt>
      <trkpt lat="48.83454" lon="2.33292">
        <ele>105</ele>
        <time>2013-12-09T21:17:33.750Z</time>
      </trkpt>
      <trkpt lat="48.83456" lon="2.33291">
        <ele>105</ele>
        <time>2013-12-09T21:17:34.770Z</time>
      </trkpt>
      <trkpt lat="48.83465" lon="2.33288">
        <ele>106</ele>
        <time>2013-12-09T21:17:38.775Z</time>
      </trkpt>
      <trkpt lat="48.83466" lon="2.33287">
        <ele>106</ele>
        <time>2013-12-09T21:17:39.769Z</time>
      </trkpt>
      <trkpt lat="48.83474" lon="2.33286">
        <ele>108</ele>
        <time>2013-12-09T21:17:45.758Z</time>
      </trkpt>
      <trkpt lat="48.83476" lon="2.33287">
        <ele>110</ele>
        <time>2013-12-09T21:17:46.763Z</time>
      </trkpt>
      <trkpt lat="48.83482" lon="2.33296">
        <ele>110</ele>
        <time>2013-12-09T21:17:50.318Z</time>
      </trkpt>
      <trkpt lat="48.83484" lon="2.33298">
        <ele>110</ele>
        <time>2013-12-09T21:17:51.145Z</time>
      </trkpt>
      <trkpt lat="48.83488" lon="2.33309">
        <ele>109</ele>
        <time>2013-12-09T21:17:56.238Z</time>
      </trkpt>
      <trkpt lat="48.83489" lon="2.33312">
        <ele>109</ele>
        <time>2013-12-09T21:17:57.232Z</time>
      </trkpt>
      <trkpt lat="48.83492" lon="2.33319">
        <ele>109</ele>
        <time>2013-12-09T21:18:00.362Z</time>
      </trkpt>
      <trkpt lat="48.83494" lon="2.33323">
        <ele>110</ele>
        <time>2013-12-09T21:18:01.224Z</time>
      </trkpt>
      <trkpt lat="48.83498" lon="2.33331">
        <ele>108</ele>
        <time>2013-12-09T21:18:03.232Z</time>
      </trkpt>
      <trkpt lat="48.835" lon="2.33335">
        <ele>108</ele>
        <time>2013-12-09T21:18:04.171Z</time>
      </trkpt>
      <trkpt lat="48.83506" lon="2.33345">
        <ele>107</ele>
        <time>2013-12-09T21:18:06.235Z</time>
      </trkpt>
      <trkpt lat="48.83508" lon="2.33349">
        <ele>106</ele>
        <time>2013-12-09T21:18:07.173Z</time>
      </trkpt>
      <trkpt lat="48.83511" lon="2.33358">
        <ele>103</ele>
        <time>2013-12-09T21:18:09.166Z</time>
      </trkpt>
      <trkpt lat="48.83513" lon="2.33362">
        <ele>96</ele>
        <time>2013-12-09T21:18:10.141Z</time>
      </trkpt>
      <trkpt lat="48.83516" lon="2.3337">
        <ele>96</ele>
        <time>2013-12-09T21:18:12.230Z</time>
      </trkpt>
      <trkpt lat="48.83519" lon="2.33373">
        <ele>99</ele>
        <time>2013-12-09T21:18:13.237Z</time>
      </trkpt>
      <trkpt lat="48.83526" lon="2.3338">
        <ele>96</ele>
        <time>2013-12-09T21:18:15.452Z</time>
      </trkpt>
      <trkpt lat="48.8353" lon="2.33384">
        <ele>93</ele>
        <time>2013-12-09T21:18:16.233Z</time>
      </trkpt>
      <trkpt lat="48.83535" lon="2.33389">
        <ele>90</ele>
        <time>2013-12-09T21:18:17.231Z</time>
      </trkpt>
      <trkpt lat="48.8354" lon="2.33393">
        <ele>86</ele>
        <time>2013-12-09T21:18:18.230Z</time>
      </trkpt>
      <trkpt lat="48.83551" lon="2.33399">
        <ele>88</ele>
        <time>2013-12-09T21:18:19.176Z</time>
      </trkpt>
      <trkpt lat="48.83562" lon="2.33403">
        <ele>91</ele>
        <time>2013-12-09T21:18:20.176Z</time>
      </trkpt>
      <trkpt lat="48.83562" lon="2.33403">
        <ele>91</ele>
        <time>2013-12-09T21:18:20.346Z</time>
      </trkpt>
      <trkpt lat="48.83572" lon="2.33407">
        <ele>93</ele>
        <time>2013-12-09T21:18:21.234Z</time>
      </trkpt>
      <trkpt lat="48.8358" lon="2.33412">
        <ele>93</ele>
        <time>2013-12-09T21:18:22.230Z</time>
      </trkpt>
      <trkpt lat="48.83589" lon="2.33417">
        <ele>94</ele>
        <time>2013-12-09T21:18:23.232Z</time>
      </trkpt>
      <trkpt lat="48.83596" lon="2.33421">
        <ele>94</ele>
        <time>2013-12-09T21:18:24.166Z</time>
      </trkpt>
      <trkpt lat="48.83602" lon="2.33427">
        <ele>95</ele>
        <time>2013-12-09T21:18:25.358Z</time>
      </trkpt>
      <trkpt lat="48.83609" lon="2.33433">
        <ele>95</ele>
        <time>2013-12-09T21:18:26.251Z</time>
      </trkpt>
      <trkpt lat="48.83609" lon="2.33433">
        <ele>95</ele>
        <time>2013-12-09T21:18:27.262Z</time>
      </trkpt>
      <trkpt lat="48.83619" lon="2.33442">
        <ele>100</ele>
        <time>2013-12-09T21:18:28.233Z</time>
      </trkpt>
      <trkpt lat="48.83625" lon="2.33447">
        <ele>100</ele>
        <time>2013-12-09T21:18:29.232Z</time>
      </trkpt>
      <trkpt lat="48.8363" lon="2.33451">
        <ele>99</ele>
        <time>2013-12-09T21:18:30.231Z</time>
      </trkpt>
      <trkpt lat="48.83635" lon="2.33456">
        <ele>98</ele>
        <time>2013-12-09T21:18:31.165Z</time>
      </trkpt>
      <trkpt lat="48.8364" lon="2.33461">
        <ele>98</ele>
        <time>2013-12-09T21:18:32.160Z</time>
      </trkpt>
      <trkpt lat="48.83646" lon="2.33465">
        <ele>100</ele>
        <time>2013-12-09T21:18:33.140Z</time>
      </trkpt>
      <trkpt lat="48.83653" lon="2.33469">
        <ele>101</ele>
        <time>2013-12-09T21:18:34.230Z</time>
      </trkpt>
      <trkpt lat="48.83658" lon="2.33473">
        <ele>101</ele>
        <time>2013-12-09T21:18:35.241Z</time>
      </trkpt>
      <trkpt lat="48.83663" lon="2.33477">
        <ele>100</ele>
        <time>2013-12-09T21:18:36.152Z</time>
      </trkpt>
      <trkpt lat="48.83669" lon="2.33482">
        <ele>101</ele>
        <time>2013-12-09T21:18:37.178Z</time>
      </trkpt>
      <trkpt lat="48.83675" lon="2.33487">
        <ele>103</ele>
        <time>2013-12-09T21:18:38.171Z</time>
      </trkpt>
      <trkpt lat="48.83682" lon="2.33492">
        <ele>102</ele>
        <time>2013-12-09T21:18:40.019Z</time>
      </trkpt>
      <trkpt lat="48.83689" lon="2.33497">
        <ele>103</ele>
        <time>2013-12-09T21:18:40.142Z</time>
      </trkpt>
      <trkpt lat="48.83695" lon="2.33501">
        <ele>102</ele>
        <time>2013-12-09T21:18:41.168Z</time>
      </trkpt>
      <trkpt lat="48.83701" lon="2.33506">
        <ele>102</ele>
        <time>2013-12-09T21:18:42.230Z</time>
      </trkpt>
      <trkpt lat="48.83707" lon="2.3351">
        <ele>103</ele>
        <time>2013-12-09T21:18:43.248Z</time>
      </trkpt>
      <trkpt lat="48.83714" lon="2.33516">
        <ele>103</ele>
        <time>2013-12-09T21:18:44.802Z</time>
      </trkpt>
      <trkpt lat="48.83718" lon="2.3352">
        <ele>104</ele>
        <time>2013-12-09T21:18:45.804Z</time>
      </trkpt>
      <trkpt lat="48.83722" lon="2.33524">
        <ele>104</ele>
        <time>2013-12-09T21:18:46.801Z</time>
      </trkpt>
      <trkpt lat="48.83726" lon="2.33528">
        <ele>104</ele>
        <time>2013-12-09T21:18:47.778Z</time>
      </trkpt>
      <trkpt lat="48.83729" lon="2.33532">
        <ele>105</ele>
        <time>2013-12-09T21:18:48.801Z</time>
      </trkpt>
      <trkpt lat="48.83733" lon="2.33536">
        <ele>106</ele>
        <time>2013-12-09T21:18:49.792Z</time>
      </trkpt>
      <trkpt lat="48.83737" lon="2.33541">
        <ele>105</ele>
        <time>2013-12-09T21:18:50.810Z</time>
      </trkpt>
      <trkpt lat="48.83741" lon="2.33545">
        <ele>105</ele>
        <time>2013-12-09T21:18:52.316Z</time>
      </trkpt>
      <trkpt lat="48.83745" lon="2.33548">
        <ele>106</ele>
        <time>2013-12-09T21:18:52.579Z</time>
      </trkpt>
      <trkpt lat="48.83751" lon="2.33558">
        <ele>107</ele>
        <time>2013-12-09T21:18:54.235Z</time>
      </trkpt>
      <trkpt lat="48.83755" lon="2.33564">
        <ele>109</ele>
        <time>2013-12-09T21:18:55.237Z</time>
      </trkpt>
      <trkpt lat="48.83759" lon="2.33569">
        <ele>111</ele>
        <time>2013-12-09T21:18:56.205Z</time>
      </trkpt>
      <trkpt lat="48.83764" lon="2.33576">
        <ele>110</ele>
        <time>2013-12-09T21:18:57.172Z</time>
      </trkpt>
      <trkpt lat="48.83771" lon="2.33582">
        <ele>110</ele>
        <time>2013-12-09T21:18:58.233Z</time>
      </trkpt>
      <trkpt lat="48.83776" lon="2.33587">
        <ele>110</ele>
        <time>2013-12-09T21:18:59.257Z</time>
      </trkpt>
      <trkpt lat="48.83782" lon="2.33592">
        <ele>110</ele>
        <time>2013-12-09T21:19:00.254Z</time>
      </trkpt>
      <trkpt lat="48.83786" lon="2.33597">
        <ele>108</ele>
        <time>2013-12-09T21:19:01.182Z</time>
      </trkpt>
      <trkpt lat="48.8379" lon="2.33602">
        <ele>109</ele>
        <time>2013-12-09T21:19:02.150Z</time>
      </trkpt>
      <trkpt lat="48.83795" lon="2.33607">
        <ele>110</ele>
        <time>2013-12-09T21:19:03.174Z</time>
      </trkpt>
      <trkpt lat="48.83799" lon="2.33612">
        <ele>109</ele>
        <time>2013-12-09T21:19:04.146Z</time>
      </trkpt>
      <trkpt lat="48.83805" lon="2.33617">
        <ele>106</ele>
        <time>2013-12-09T21:19:05.174Z</time>
      </trkpt>
      <trkpt lat="48.83811" lon="2.33622">
        <ele>107</ele>
        <time>2013-12-09T21:19:06.303Z</time>
      </trkpt>
      <trkpt lat="48.83816" lon="2.33625">
        <ele>110</ele>
        <time>2013-12-09T21:19:07.203Z</time>
      </trkpt>
      <trkpt lat="48.83822" lon="2.33631">
        <ele>110</ele>
        <time>2013-12-09T21:19:08.558Z</time>
      </trkpt>
      <trkpt lat="48.83827" lon="2.33634">
        <ele>110</ele>
        <time>2013-12-09T21:19:09.531Z</time>
      </trkpt>
      <trkpt lat="48.83831" lon="2.33638">
        <ele>110</ele>
        <time>2013-12-09T21:19:10.246Z</time>
      </trkpt>
      <trkpt lat="48.83837" lon="2.33642">
        <ele>109</ele>
        <time>2013-12-09T21:19:11.180Z</time>
      </trkpt>
      <trkpt lat="48.83842" lon="2.33647">
        <ele>108</ele>
        <time>2013-12-09T21:19:12.297Z</time>
      </trkpt>
      <trkpt lat="48.83849" lon="2.33652">
        <ele>108</ele>
        <time>2013-12-09T21:19:13.239Z</time>
      </trkpt>
      <trkpt lat="48.83858" lon="2.33657">
        <ele>108</ele>
        <time>2013-12-09T21:19:14.468Z</time>
      </trkpt>
      <trkpt lat="48.83864" lon="2.3366">
        <ele>107</ele>
        <time>2013-12-09T21:19:15.252Z</time>
      </trkpt>
      <trkpt lat="48.8387" lon="2.33662">
        <ele>106</ele>
        <time>2013-12-09T21:19:16.155Z</time>
      </trkpt>
      <trkpt lat="48.83876" lon="2.33664">
        <ele>103</ele>
        <time>2013-12-09T21:19:17.304Z</time>
      </trkpt>
      <trkpt lat="48.83881" lon="2.33666">
        <ele>101</ele>
        <time>2013-12-09T21:19:18.235Z</time>
      </trkpt>
      <trkpt lat="48.83889" lon="2.33669">
        <ele>99</ele>
        <time>2013-12-09T21:19:20.138Z</time>
      </trkpt>
      <trkpt lat="48.83894" lon="2.3367">
        <ele>101</ele>
        <time>2013-12-09T21:19:21.159Z</time>
      </trkpt>
      <trkpt lat="48.839" lon="2.33671">
        <ele>99</ele>
        <time>2013-12-09T21:19:22.381Z</time>
      </trkpt>
      <trkpt lat="48.83905" lon="2.33672">
        <ele>98</ele>
        <time>2013-12-09T21:19:23.158Z</time>
      </trkpt>
      <trkpt lat="48.8391" lon="2.33672">
        <ele>96</ele>
        <time>2013-12-09T21:19:27.600Z</time>
      </trkpt>
      <trkpt lat="48.8393" lon="2.33675">
        <ele>100</ele>
        <time>2013-12-09T21:19:28.873Z</time>
      </trkpt>
      <trkpt lat="48.83937" lon="2.33674">
        <ele>100</ele>
        <time>2013-12-09T21:19:30.873Z</time>
      </trkpt>
      <trkpt lat="48.8394" lon="2.33674">
        <ele>99</ele>
        <time>2013-12-09T21:19:31.876Z</time>
      </trkpt>
      <trkpt lat="48.83948" lon="2.33674">
        <ele>99</ele>
        <time>2013-12-09T21:19:34.238Z</time>
      </trkpt>
      <trkpt lat="48.83952" lon="2.33674">
        <ele>99</ele>
        <time>2013-12-09T21:19:35.521Z</time>
      </trkpt>
      <trkpt lat="48.8396" lon="2.33674">
        <ele>100</ele>
        <time>2013-12-09T21:19:45.236Z</time>
      </trkpt>
      <trkpt lat="48.83961" lon="2.33675">
        <ele>100</ele>
        <time>2013-12-09T21:19:46.887Z</time>
      </trkpt>
      <trkpt lat="48.83969" lon="2.33678">
        <ele>100</ele>
        <time>2013-12-09T21:19:52.591Z</time>
      </trkpt>
      <trkpt lat="48.8397" lon="2.33678">
        <ele>99</ele>
        <time>2013-12-09T21:19:53.230Z</time>
      </trkpt>
      <trkpt lat="48.83979" lon="2.33677">
        <ele>98</ele>
        <time>2013-12-09T21:19:56.179Z</time>
      </trkpt>
      <trkpt lat="48.83982" lon="2.33677">
        <ele>99</ele>
        <time>2013-12-09T21:19:57.177Z</time>
      </trkpt>
      <trkpt lat="48.83989" lon="2.33677">
        <ele>97</ele>
        <time>2013-12-09T21:19:59.234Z</time>
      </trkpt>
      <trkpt lat="48.83994" lon="2.33677">
        <ele>99</ele>
        <time>2013-12-09T21:20:00.282Z</time>
      </trkpt>
      <trkpt lat="48.84002" lon="2.33679">
        <ele>100</ele>
        <time>2013-12-09T21:20:02.322Z</time>
      </trkpt>
      <trkpt lat="48.84007" lon="2.3368">
        <ele>100</ele>
        <time>2013-12-09T21:20:03.237Z</time>
      </trkpt>
      <trkpt lat="48.84011" lon="2.33682">
        <ele>100</ele>
        <time>2013-12-09T21:20:04.237Z</time>
      </trkpt>
      <trkpt lat="48.84016" lon="2.33683">
        <ele>100</ele>
        <time>2013-12-09T21:20:05.286Z</time>
      </trkpt>
      <trkpt lat="48.8402" lon="2.33685">
        <ele>99</ele>
        <time>2013-12-09T21:20:06.170Z</time>
      </trkpt>
      <trkpt lat="48.84025" lon="2.33688">
        <ele>99</ele>
        <time>2013-12-09T21:20:07.177Z</time>
      </trkpt>
      <trkpt lat="48.84029" lon="2.3369">
        <ele>99</ele>
        <time>2013-12-09T21:20:08.242Z</time>
      </trkpt>
      <trkpt lat="48.84033" lon="2.33693">
        <ele>100</ele>
        <time>2013-12-09T21:20:09.231Z</time>
      </trkpt>
      <trkpt lat="48.84041" lon="2.33698">
        <ele>101</ele>
        <time>2013-12-09T21:20:11.135Z</time>
      </trkpt>
      <trkpt lat="48.84045" lon="2.33701">
        <ele>101</ele>
        <time>2013-12-09T21:20:12.147Z</time>
      </trkpt>
      <trkpt lat="48.8405" lon="2.33704">
        <ele>100</ele>
        <time>2013-12-09T21:20:13.229Z</time>
      </trkpt>
      <trkpt lat="48.84054" lon="2.33706">
        <ele>101</ele>
        <time>2013-12-09T21:20:14.230Z</time>
      </trkpt>
      <trkpt lat="48.84062" lon="2.3371">
        <ele>99</ele>
        <time>2013-12-09T21:20:16.146Z</time>
      </trkpt>
      <trkpt lat="48.84066" lon="2.33713">
        <ele>98</ele>
        <time>2013-12-09T21:20:17.170Z</time>
      </trkpt>
      <trkpt lat="48.8407" lon="2.33715">
        <ele>100</ele>
        <time>2013-12-09T21:20:18.167Z</time>
      </trkpt>
      <trkpt lat="48.84075" lon="2.33718">
        <ele>101</ele>
        <time>2013-12-09T21:20:19.163Z</time>
      </trkpt>
      <trkpt lat="48.8408" lon="2.33722">
        <ele>100</ele>
        <time>2013-12-09T21:20:20.163Z</time>
      </trkpt>
      <trkpt lat="48.84085" lon="2.33726">
        <ele>100</ele>
        <time>2013-12-09T21:20:21.165Z</time>
      </trkpt>
      <trkpt lat="48.84089" lon="2.33729">
        <ele>100</ele>
        <time>2013-12-09T21:20:22.453Z</time>
      </trkpt>
      <trkpt lat="48.84095" lon="2.33732">
        <ele>100</ele>
        <time>2013-12-09T21:20:23.406Z</time>
      </trkpt>
      <trkpt lat="48.84099" lon="2.33735">
        <ele>101</ele>
        <time>2013-12-09T21:20:24.477Z</time>
      </trkpt>
      <trkpt lat="48.84104" lon="2.33737">
        <ele>102</ele>
        <time>2013-12-09T21:20:25.237Z</time>
      </trkpt>
      <trkpt lat="48.8411" lon="2.3374">
        <ele>102</ele>
        <time>2013-12-09T21:20:26.237Z</time>
      </trkpt>
      <trkpt lat="48.84114" lon="2.33743">
        <ele>100</ele>
        <time>2013-12-09T21:20:27.167Z</time>
      </trkpt>
      <trkpt lat="48.8412" lon="2.33746">
        <ele>101</ele>
        <time>2013-12-09T21:20:28.233Z</time>
      </trkpt>
      <trkpt lat="48.84125" lon="2.33749">
        <ele>102</ele>
        <time>2013-12-09T21:20:29.230Z</time>
      </trkpt>
      <trkpt lat="48.84132" lon="2.33752">
        <ele>102</ele>
        <time>2013-12-09T21:20:30.475Z</time>
      </trkpt>
      <trkpt lat="48.84137" lon="2.33753">
        <ele>102</ele>
        <time>2013-12-09T21:20:31.404Z</time>
      </trkpt>
      <trkpt lat="48.84143" lon="2.33755">
        <ele>102</ele>
        <time>2013-12-09T21:20:32.437Z</time>
      </trkpt>
      <trkpt lat="48.84148" lon="2.33757">
        <ele>102</ele>
        <time>2013-12-09T21:20:33.407Z</time>
      </trkpt>
      <trkpt lat="48.84153" lon="2.33761">
        <ele>104</ele>
        <time>2013-12-09T21:20:34.381Z</time>
      </trkpt>
      <trkpt lat="48.84158" lon="2.33764">
        <ele>104</ele>
        <time>2013-12-09T21:20:35.399Z</time>
      </trkpt>
      <trkpt lat="48.84164" lon="2.33767">
        <ele>106</ele>
        <time>2013-12-09T21:20:36.438Z</time>
      </trkpt>
      <trkpt lat="48.84169" lon="2.33771">
        <ele>106</ele>
        <time>2013-12-09T21:20:37.409Z</time>
      </trkpt>
      <trkpt lat="48.84176" lon="2.33774">
        <ele>108</ele>
        <time>2013-12-09T21:20:38.567Z</time>
      </trkpt>
      <trkpt lat="48.84182" lon="2.33775">
        <ele>110</ele>
        <time>2013-12-09T21:20:39.482Z</time>
      </trkpt>
      <trkpt lat="48.84187" lon="2.33778">
        <ele>111</ele>
        <time>2013-12-09T21:20:40.236Z</time>
      </trkpt>
      <trkpt lat="48.84192" lon="2.33781">
        <ele>111</ele>
        <time>2013-12-09T21:20:41.246Z</time>
      </trkpt>
      <trkpt lat="48.84199" lon="2.33787">
        <ele>113</ele>
        <time>2013-12-09T21:20:43.169Z</time>
      </trkpt>
      <trkpt lat="48.84202" lon="2.33789">
        <ele>115</ele>
        <time>2013-12-09T21:20:44.230Z</time>
      </trkpt>
      <trkpt lat="48.84208" lon="2.33794">
        <ele>116</ele>
        <time>2013-12-09T21:20:46.140Z</time>
      </trkpt>
      <trkpt lat="48.84213" lon="2.33796">
        <ele>117</ele>
        <time>2013-12-09T21:20:47.169Z</time>
      </trkpt>
      <trkpt lat="48.84219" lon="2.33798">
        <ele>116</ele>
        <time>2013-12-09T21:20:48.176Z</time>
      </trkpt>
      <trkpt lat="48.84225" lon="2.33801">
        <ele>116</ele>
        <time>2013-12-09T21:20:49.175Z</time>
      </trkpt>
      <trkpt lat="48.8423" lon="2.33808">
        <ele>116</ele>
        <time>2013-12-09T21:20:51.176Z</time>
      </trkpt>
      <trkpt lat="48.8423" lon="2.33812">
        <ele>115</ele>
        <time>2013-12-09T21:20:52.140Z</time>
      </trkpt>
      <trkpt lat="48.84232" lon="2.33822">
        <ele>117</ele>
        <time>2013-12-09T21:20:54.230Z</time>
      </trkpt>
      <trkpt lat="48.84236" lon="2.33826">
        <ele>119</ele>
        <time>2013-12-09T21:20:55.230Z</time>
      </trkpt>
      <trkpt lat="48.84242" lon="2.33829">
        <ele>119</ele>
        <time>2013-12-09T21:20:56.230Z</time>
      </trkpt>
      <trkpt lat="48.84247" lon="2.33832">
        <ele>122</ele>
        <time>2013-12-09T21:20:57.162Z</time>
      </trkpt>
      <trkpt lat="48.84254" lon="2.33836">
        <ele>123</ele>
        <time>2013-12-09T21:20:58.230Z</time>
      </trkpt>
      <trkpt lat="48.84261" lon="2.33839">
        <ele>124</ele>
        <time>2013-12-09T21:20:59.233Z</time>
      </trkpt>
      <trkpt lat="48.84267" lon="2.33844">
        <ele>125</ele>
        <time>2013-12-09T21:21:00.247Z</time>
      </trkpt>
      <trkpt lat="48.84274" lon="2.33847">
        <ele>125</ele>
        <time>2013-12-09T21:21:01.236Z</time>
      </trkpt>
      <trkpt lat="48.84281" lon="2.33849">
        <ele>125</ele>
        <time>2013-12-09T21:21:02.580Z</time>
      </trkpt>
      <trkpt lat="48.84291" lon="2.33852">
        <ele>123</ele>
        <time>2013-12-09T21:21:03.227Z</time>
      </trkpt>
      <trkpt lat="48.84299" lon="2.33854">
        <ele>124</ele>
        <time>2013-12-09T21:21:04.240Z</time>
      </trkpt>
      <trkpt lat="48.84308" lon="2.33857">
        <ele>120</ele>
        <time>2013-12-09T21:21:05.252Z</time>
      </trkpt>
      <trkpt lat="48.84317" lon="2.33861">
        <ele>123</ele>
        <time>2013-12-09T21:21:06.248Z</time>
      </trkpt>
      <trkpt lat="48.84326" lon="2.33864">
        <ele>122</ele>
        <time>2013-12-09T21:21:07.583Z</time>
      </trkpt>
      <trkpt lat="48.84334" lon="2.33867">
        <ele>123</ele>
        <time>2013-12-09T21:21:08.230Z</time>
      </trkpt>
      <trkpt lat="48.84343" lon="2.33869">
        <ele>121</ele>
        <time>2013-12-09T21:21:09.239Z</time>
      </trkpt>
      <trkpt lat="48.84353" lon="2.3387">
        <ele>120</ele>
        <time>2013-12-09T21:21:11.235Z</time>
      </trkpt>
      <trkpt lat="48.84361" lon="2.33871">
        <ele>119</ele>
        <time>2013-12-09T21:21:11.438Z</time>
      </trkpt>
      <trkpt lat="48.84366" lon="2.33874">
        <ele>120</ele>
        <time>2013-12-09T21:21:12.158Z</time>
      </trkpt>
      <trkpt lat="48.84372" lon="2.33877">
        <ele>119</ele>
        <time>2013-12-09T21:21:13.243Z</time>
      </trkpt>
      <trkpt lat="48.84378" lon="2.33879">
        <ele>118</ele>
        <time>2013-12-09T21:21:14.252Z</time>
      </trkpt>
      <trkpt lat="48.84392" lon="2.33884">
        <ele>119</ele>
        <time>2013-12-09T21:21:16.249Z</time>
      </trkpt>
      <trkpt lat="48.84399" lon="2.33888">
        <ele>119</ele>
        <time>2013-12-09T21:21:17.228Z</time>
      </trkpt>
      <trkpt lat="48.84408" lon="2.33891">
        <ele>118</ele>
        <time>2013-12-09T21:21:18.232Z</time>
      </trkpt>
      <trkpt lat="48.84414" lon="2.33895">
        <ele>115</ele>
        <time>2013-12-09T21:21:19.229Z</time>
      </trkpt>
      <trkpt lat="48.84416" lon="2.33901">
        <ele>112</ele>
        <time>2013-12-09T21:21:20.232Z</time>
      </trkpt>
      <trkpt lat="48.84423" lon="2.3391">
        <ele>112</ele>
        <time>2013-12-09T21:21:22.230Z</time>
      </trkpt>
      <trkpt lat="48.84429" lon="2.33913">
        <ele>113</ele>
        <time>2013-12-09T21:21:23.230Z</time>
      </trkpt>
      <trkpt lat="48.84435" lon="2.33914">
        <ele>114</ele>
        <time>2013-12-09T21:21:24.235Z</time>
      </trkpt>
      <trkpt lat="48.8444" lon="2.33914">
        <ele>114</ele>
        <time>2013-12-09T21:21:25.229Z</time>
      </trkpt>
      <trkpt lat="48.84444" lon="2.33913">
        <ele>114</ele>
        <time>2013-12-09T21:21:26.769Z</time>
      </trkpt>
      <trkpt lat="48.8445" lon="2.33915">
        <ele>113</ele>
        <time>2013-12-09T21:21:27.231Z</time>
      </trkpt>
      <trkpt lat="48.84457" lon="2.33919">
        <ele>113</ele>
        <time>2013-12-09T21:21:29.240Z</time>
      </trkpt>
      <trkpt lat="48.84461" lon="2.33921">
        <ele>113</ele>
        <time>2013-12-09T21:21:30.230Z</time>
      </trkpt>
      <trkpt lat="48.84465" lon="2.33923">
        <ele>113</ele>
        <time>2013-12-09T21:21:31.178Z</time>
      </trkpt>
      <trkpt lat="48.84471" lon="2.33925">
        <ele>114</ele>
        <time>2013-12-09T21:21:32.173Z</time>
      </trkpt>
      <trkpt lat="48.84475" lon="2.33929">
        <ele>114</ele>
        <time>2013-12-09T21:21:33.855Z</time>
      </trkpt>
      <trkpt lat="48.8448" lon="2.33932">
        <ele>114</ele>
        <time>2013-12-09T21:21:34.168Z</time>
      </trkpt>
      <trkpt lat="48.84485" lon="2.33935">
        <ele>113</ele>
        <time>2013-12-09T21:21:35.169Z</time>
      </trkpt>
      <trkpt lat="48.84489" lon="2.33938">
        <ele>113</ele>
        <time>2013-12-09T21:21:36.155Z</time>
      </trkpt>
      <trkpt lat="48.84496" lon="2.33945">
        <ele>111</ele>
        <time>2013-12-09T21:21:38.771Z</time>
      </trkpt>
      <trkpt lat="48.84498" lon="2.33948">
        <ele>112</ele>
        <time>2013-12-09T21:21:39.522Z</time>
      </trkpt>
      <trkpt lat="48.84502" lon="2.33951">
        <ele>113</ele>
        <time>2013-12-09T21:21:40.236Z</time>
      </trkpt>
      <trkpt lat="48.84508" lon="2.33954">
        <ele>113</ele>
        <time>2013-12-09T21:21:41.180Z</time>
      </trkpt>
      <trkpt lat="48.84514" lon="2.33958">
        <ele>114</ele>
        <time>2013-12-09T21:21:42.262Z</time>
      </trkpt>
      <trkpt lat="48.84521" lon="2.33962">
        <ele>117</ele>
        <time>2013-12-09T21:21:43.292Z</time>
      </trkpt>
      <trkpt lat="48.84528" lon="2.33965">
        <ele>117</ele>
        <time>2013-12-09T21:21:44.229Z</time>
      </trkpt>
      <trkpt lat="48.84534" lon="2.33968">
        <ele>116</ele>
        <time>2013-12-09T21:21:45.231Z</time>
      </trkpt>
      <trkpt lat="48.84539" lon="2.33972">
        <ele>113</ele>
        <time>2013-12-09T21:21:46.799Z</time>
      </trkpt>
      <trkpt lat="48.84543" lon="2.33976">
        <ele>112</ele>
        <time>2013-12-09T21:21:47.150Z</time>
      </trkpt>
      <trkpt lat="48.84548" lon="2.33979">
        <ele>113</ele>
        <time>2013-12-09T21:21:48.183Z</time>
      </trkpt>
      <trkpt lat="48.84554" lon="2.33982">
        <ele>111</ele>
        <time>2013-12-09T21:21:49.175Z</time>
      </trkpt>
      <trkpt lat="48.84561" lon="2.33985">
        <ele>108</ele>
        <time>2013-12-09T21:21:50.176Z</time>
      </trkpt>
      <trkpt lat="48.84568" lon="2.33989">
        <ele>106</ele>
        <time>2013-12-09T21:21:51.153Z</time>
      </trkpt>
      <trkpt lat="48.84575" lon="2.33993">
        <ele>107</ele>
        <time>2013-12-09T21:21:52.230Z</time>
      </trkpt>
      <trkpt lat="48.84582" lon="2.33996">
        <ele>107</ele>
        <time>2013-12-09T21:21:53.230Z</time>
      </trkpt>
      <trkpt lat="48.84589" lon="2.33998">
        <ele>109</ele>
        <time>2013-12-09T21:21:54.239Z</time>
      </trkpt>
      <trkpt lat="48.84596" lon="2.34003">
        <ele>106</ele>
        <time>2013-12-09T21:21:55.252Z</time>
      </trkpt>
      <trkpt lat="48.84603" lon="2.34007">
        <ele>104</ele>
        <time>2013-12-09T21:21:56.845Z</time>
      </trkpt>
      <trkpt lat="48.84609" lon="2.34013">
        <ele>101</ele>
        <time>2013-12-09T21:21:57.230Z</time>
      </trkpt>
      <trkpt lat="48.84615" lon="2.34018">
        <ele>102</ele>
        <time>2013-12-09T21:21:58.261Z</time>
      </trkpt>
      <trkpt lat="48.84619" lon="2.3402">
        <ele>100</ele>
        <time>2013-12-09T21:21:59.254Z</time>
      </trkpt>
      <trkpt lat="48.84624" lon="2.34023">
        <ele>101</ele>
        <time>2013-12-09T21:22:00.255Z</time>
      </trkpt>
      <trkpt lat="48.84628" lon="2.34024">
        <ele>99</ele>
        <time>2013-12-09T21:22:01.174Z</time>
      </trkpt>
      <trkpt lat="48.84635" lon="2.34027">
        <ele>97</ele>
        <time>2013-12-09T21:22:03.234Z</time>
      </trkpt>
      <trkpt lat="48.84639" lon="2.34028">
        <ele>97</ele>
        <time>2013-12-09T21:22:04.230Z</time>
      </trkpt>
      <trkpt lat="48.84642" lon="2.34031">
        <ele>94</ele>
        <time>2013-12-09T21:22:05.235Z</time>
      </trkpt>
      <trkpt lat="48.84647" lon="2.34035">
        <ele>94</ele>
        <time>2013-12-09T21:22:06.173Z</time>
      </trkpt>
      <trkpt lat="48.84652" lon="2.34038">
        <ele>95</ele>
        <time>2013-12-09T21:22:07.147Z</time>
      </trkpt>
      <trkpt lat="48.84656" lon="2.3404">
        <ele>96</ele>
        <time>2013-12-09T21:22:08.175Z</time>
      </trkpt>
      <trkpt lat="48.8466" lon="2.34043">
        <ele>94</ele>
        <time>2013-12-09T21:22:09.145Z</time>
      </trkpt>
      <trkpt lat="48.84665" lon="2.34045">
        <ele>95</ele>
        <time>2013-12-09T21:22:10.174Z</time>
      </trkpt>
      <trkpt lat="48.8467" lon="2.34048">
        <ele>96</ele>
        <time>2013-12-09T21:22:11.898Z</time>
      </trkpt>
      <trkpt lat="48.84674" lon="2.34051">
        <ele>95</ele>
        <time>2013-12-09T21:22:12.147Z</time>
      </trkpt>
      <trkpt lat="48.84678" lon="2.34055">
        <ele>97</ele>
        <time>2013-12-09T21:22:13.143Z</time>
      </trkpt>
      <trkpt lat="48.84682" lon="2.34057">
        <ele>96</ele>
        <time>2013-12-09T21:22:14.233Z</time>
      </trkpt>
      <trkpt lat="48.84688" lon="2.34062">
        <ele>97</ele>
        <time>2013-12-09T21:22:16.955Z</time>
      </trkpt>
      <trkpt lat="48.84691" lon="2.34063">
        <ele>97</ele>
        <time>2013-12-09T21:22:17.148Z</time>
      </trkpt>
      <trkpt lat="48.84699" lon="2.34065">
        <ele>100</ele>
        <time>2013-12-09T21:22:19.181Z</time>
      </trkpt>
      <trkpt lat="48.84702" lon="2.34067">
        <ele>97</ele>
        <time>2013-12-09T21:22:20.181Z</time>
      </trkpt>
      <trkpt lat="48.84708" lon="2.3407">
        <ele>95</ele>
        <time>2013-12-09T21:22:22.148Z</time>
      </trkpt>
      <trkpt lat="48.84711" lon="2.34072">
        <ele>94</ele>
        <time>2013-12-09T21:22:23.204Z</time>
      </trkpt>
      <trkpt lat="48.84718" lon="2.34075">
        <ele>90</ele>
        <time>2013-12-09T21:22:25.184Z</time>
      </trkpt>
      <trkpt lat="48.84721" lon="2.34077">
        <ele>90</ele>
        <time>2013-12-09T21:22:26.183Z</time>
      </trkpt>
      <trkpt lat="48.84727" lon="2.34082">
        <ele>91</ele>
        <time>2013-12-09T21:22:29.177Z</time>
      </trkpt>
      <trkpt lat="48.84728" lon="2.34085">
        <ele>93</ele>
        <time>2013-12-09T21:22:30.178Z</time>
      </trkpt>
      <trkpt lat="48.84732" lon="2.34096">
        <ele>99</ele>
        <time>2013-12-09T21:22:34.749Z</time>
      </trkpt>
      <trkpt lat="48.84732" lon="2.34099">
        <ele>102</ele>
        <time>2013-12-09T21:22:35.234Z</time>
      </trkpt>
      <trkpt lat="48.84734" lon="2.34109">
        <ele>103</ele>
        <time>2013-12-09T21:22:37.227Z</time>
      </trkpt>
      <trkpt lat="48.84735" lon="2.34114">
        <ele>99</ele>
        <time>2013-12-09T21:22:38.230Z</time>
      </trkpt>
      <trkpt lat="48.84737" lon="2.34125">
        <ele>97</ele>
        <time>2013-12-09T21:22:40.376Z</time>
      </trkpt>
      <trkpt lat="48.84738" lon="2.34129">
        <ele>97</ele>
        <time>2013-12-09T21:22:41.377Z</time>
      </trkpt>
      <trkpt lat="48.84742" lon="2.34138">
        <ele>98</ele>
        <time>2013-12-09T21:22:43.372Z</time>
      </trkpt>
      <trkpt lat="48.84745" lon="2.34141">
        <ele>99</ele>
        <time>2013-12-09T21:22:44.392Z</time>
      </trkpt>
      <trkpt lat="48.8475" lon="2.34149">
        <ele>99</ele>
        <time>2013-12-09T21:22:46.570Z</time>
      </trkpt>
      <trkpt lat="48.84753" lon="2.34151">
        <ele>101</ele>
        <time>2013-12-09T21:22:47.497Z</time>
      </trkpt>
      <trkpt lat="48.84758" lon="2.34156">
        <ele>104</ele>
        <time>2013-12-09T21:22:49.178Z</time>
      </trkpt>
      <trkpt lat="48.84761" lon="2.3416">
        <ele>104</ele>
        <time>2013-12-09T21:22:50.182Z</time>
      </trkpt>
      <trkpt lat="48.84766" lon="2.34167">
        <ele>108</ele>
        <time>2013-12-09T21:22:52.242Z</time>
      </trkpt>
      <trkpt lat="48.84768" lon="2.34171">
        <ele>112</ele>
        <time>2013-12-09T21:22:53.239Z</time>
      </trkpt>
      <trkpt lat="48.84775" lon="2.34178">
        <ele>109</ele>
        <time>2013-12-09T21:22:55.279Z</time>
      </trkpt>
      <trkpt lat="48.84779" lon="2.34182">
        <ele>107</ele>
        <time>2013-12-09T21:22:56.240Z</time>
      </trkpt>
      <trkpt lat="48.84784" lon="2.34186">
        <ele>107</ele>
        <time>2013-12-09T21:22:57.230Z</time>
      </trkpt>
      <trkpt lat="48.84789" lon="2.3419">
        <ele>108</ele>
        <time>2013-12-09T21:22:58.238Z</time>
      </trkpt>
      <trkpt lat="48.84795" lon="2.34193">
        <ele>110</ele>
        <time>2013-12-09T21:22:59.148Z</time>
      </trkpt>
      <trkpt lat="48.84801" lon="2.34197">
        <ele>111</ele>
        <time>2013-12-09T21:23:00.148Z</time>
      </trkpt>
      <trkpt lat="48.84807" lon="2.34201">
        <ele>113</ele>
        <time>2013-12-09T21:23:01.233Z</time>
      </trkpt>
      <trkpt lat="48.84813" lon="2.34205">
        <ele>115</ele>
        <time>2013-12-09T21:23:02.230Z</time>
      </trkpt>
      <trkpt lat="48.84819" lon="2.34208">
        <ele>120</ele>
        <time>2013-12-09T21:23:03.239Z</time>
      </trkpt>
      <trkpt lat="48.84825" lon="2.34212">
        <ele>120</ele>
        <time>2013-12-09T21:23:04.176Z</time>
      </trkpt>
      <trkpt lat="48.84831" lon="2.34215">
        <ele>121</ele>
        <time>2013-12-09T21:23:05.151Z</time>
      </trkpt>
      <trkpt lat="48.84837" lon="2.34218">
        <ele>122</ele>
        <time>2013-12-09T21:23:06.167Z</time>
      </trkpt>
      <trkpt lat="48.84844" lon="2.34221">
        <ele>124</ele>
        <time>2013-12-09T21:23:07.160Z</time>
      </trkpt>
      <trkpt lat="48.84857" lon="2.34224">
        <ele>126</ele>
        <time>2013-12-09T21:23:08.171Z</time>
      </trkpt>
      <trkpt lat="48.84869" lon="2.34226">
        <ele>125</ele>
        <time>2013-12-09T21:23:09.353Z</time>
      </trkpt>
      <trkpt lat="48.84879" lon="2.34227">
        <ele>126</ele>
        <time>2013-12-09T21:23:10.171Z</time>
      </trkpt>
      <trkpt lat="48.84879" lon="2.34227">
        <ele>126</ele>
        <time>2013-12-09T21:23:10.288Z</time>
      </trkpt>
      <trkpt lat="48.84892" lon="2.34229">
        <ele>124</ele>
        <time>2013-12-09T21:23:11.448Z</time>
      </trkpt>
      <trkpt lat="48.84901" lon="2.3423">
        <ele>124</ele>
        <time>2013-12-09T21:23:12.455Z</time>
      </trkpt>
      <trkpt lat="48.84906" lon="2.34231">
        <ele>123</ele>
        <time>2013-12-09T21:23:13.234Z</time>
      </trkpt>
      <trkpt lat="48.84912" lon="2.34232">
        <ele>124</ele>
        <time>2013-12-09T21:23:14.151Z</time>
      </trkpt>
      <trkpt lat="48.8492" lon="2.34235">
        <ele>123</ele>
        <time>2013-12-09T21:23:15.296Z</time>
      </trkpt>
      <trkpt lat="48.84927" lon="2.34238">
        <ele>124</ele>
        <time>2013-12-09T21:23:16.249Z</time>
      </trkpt>
      <trkpt lat="48.84933" lon="2.34241">
        <ele>122</ele>
        <time>2013-12-09T21:23:17.241Z</time>
      </trkpt>
      <trkpt lat="48.84938" lon="2.34245">
        <ele>121</ele>
        <time>2013-12-09T21:23:18.239Z</time>
      </trkpt>
      <trkpt lat="48.84943" lon="2.34252">
        <ele>120</ele>
        <time>2013-12-09T21:23:20.304Z</time>
      </trkpt>
      <trkpt lat="48.84945" lon="2.34257">
        <ele>119</ele>
        <time>2013-12-09T21:23:21.239Z</time>
      </trkpt>
      <trkpt lat="48.84949" lon="2.34261">
        <ele>118</ele>
        <time>2013-12-09T21:23:23.230Z</time>
      </trkpt>
      <trkpt lat="48.84953" lon="2.34263">
        <ele>112</ele>
        <time>2013-12-09T21:23:24.160Z</time>
      </trkpt>
      <trkpt lat="48.84957" lon="2.34264">
        <ele>113</ele>
        <time>2013-12-09T21:23:25.305Z</time>
      </trkpt>
      <trkpt lat="48.84962" lon="2.34266">
        <ele>110</ele>
        <time>2013-12-09T21:23:26.169Z</time>
      </trkpt>
      <trkpt lat="48.84969" lon="2.3427">
        <ele>109</ele>
        <time>2013-12-09T21:23:28.167Z</time>
      </trkpt>
      <trkpt lat="48.84972" lon="2.34272">
        <ele>110</ele>
        <time>2013-12-09T21:23:29.154Z</time>
      </trkpt>
      <trkpt lat="48.8498" lon="2.34275">
        <ele>100</ele>
        <time>2013-12-09T21:23:32.148Z</time>
      </trkpt>
      <trkpt lat="48.84984" lon="2.34274">
        <ele>99</ele>
        <time>2013-12-09T21:23:33.145Z</time>
      </trkpt>
      <trkpt lat="48.84992" lon="2.34273">
        <ele>99</ele>
        <time>2013-12-09T21:23:35.306Z</time>
      </trkpt>
      <trkpt lat="48.84997" lon="2.34274">
        <ele>98</ele>
        <time>2013-12-09T21:23:36.170Z</time>
      </trkpt>
      <trkpt lat="48.85001" lon="2.34275">
        <ele>96</ele>
        <time>2013-12-09T21:23:37.134Z</time>
      </trkpt>
      <trkpt lat="48.85006" lon="2.34278">
        <ele>91</ele>
        <time>2013-12-09T21:23:38.137Z</time>
      </trkpt>
      <trkpt lat="48.85019" lon="2.3428">
        <ele>88</ele>
        <time>2013-12-09T21:23:39.162Z</time>
      </trkpt>
      <trkpt lat="48.8503" lon="2.34281">
        <ele>87</ele>
        <time>2013-12-09T21:23:40.190Z</time>
      </trkpt>
      <trkpt lat="48.8503" lon="2.34281">
        <ele>87</ele>
        <time>2013-12-09T21:23:40.312Z</time>
      </trkpt>
      <trkpt lat="48.85039" lon="2.34284">
        <ele>87</ele>
        <time>2013-12-09T21:23:41.168Z</time>
      </trkpt>
      <trkpt lat="48.85046" lon="2.34286">
        <ele>86</ele>
        <time>2013-12-09T21:23:42.228Z</time>
      </trkpt>
      <trkpt lat="48.85052" lon="2.34289">
        <ele>87</ele>
        <time>2013-12-09T21:23:43.229Z</time>
      </trkpt>
      <trkpt lat="48.85059" lon="2.34297">
        <ele>87</ele>
        <time>2013-12-09T21:23:45.158Z</time>
      </trkpt>
      <trkpt lat="48.85061" lon="2.34301">
        <ele>85</ele>
        <time>2013-12-09T21:23:46.125Z</time>
      </trkpt>
      <trkpt lat="48.85063" lon="2.34313">
        <ele>85</ele>
        <time>2013-12-09T21:23:49.156Z</time>
      </trkpt>
      <trkpt lat="48.85063" lon="2.34316">
        <ele>84</ele>
        <time>2013-12-09T21:23:50.129Z</time>
      </trkpt>
      <trkpt lat="48.85067" lon="2.34327">
        <ele>77</ele>
        <time>2013-12-09T21:23:53.235Z</time>
      </trkpt>
      <trkpt lat="48.85075" lon="2.34327">
        <ele>75</ele>
        <time>2013-12-09T21:23:54.179Z</time>
      </trkpt>
      <trkpt lat="48.85084" lon="2.34327">
        <ele>75</ele>
        <time>2013-12-09T21:23:55.156Z</time>
      </trkpt>
      <trkpt lat="48.85091" lon="2.34328">
        <ele>74</ele>
        <time>2013-12-09T21:23:56.147Z</time>
      </trkpt>
      <trkpt lat="48.85098" lon="2.34329">
        <ele>76</ele>
        <time>2013-12-09T21:23:57.237Z</time>
      </trkpt>
      <trkpt lat="48.85105" lon="2.3433">
        <ele>78</ele>
        <time>2013-12-09T21:23:58.229Z</time>
      </trkpt>
      <trkpt lat="48.85115" lon="2.34332">
        <ele>79</ele>
        <time>2013-12-09T21:23:59.170Z</time>
      </trkpt>
      <trkpt lat="48.85115" lon="2.34332">
        <ele>79</ele>
        <time>2013-12-09T21:24:00.074Z</time>
      </trkpt>
      <trkpt lat="48.85125" lon="2.34335">
        <ele>81</ele>
        <time>2013-12-09T21:24:00.142Z</time>
      </trkpt>
      <trkpt lat="48.85136" lon="2.34338">
        <ele>81</ele>
        <time>2013-12-09T21:24:01.145Z</time>
      </trkpt>
      <trkpt lat="48.85146" lon="2.3434">
        <ele>77</ele>
        <time>2013-12-09T21:24:02.229Z</time>
      </trkpt>
      <trkpt lat="48.85153" lon="2.34341">
        <ele>79</ele>
        <time>2013-12-09T21:24:03.233Z</time>
      </trkpt>
      <trkpt lat="48.8516" lon="2.34343">
        <ele>81</ele>
        <time>2013-12-09T21:24:04.162Z</time>
      </trkpt>
      <trkpt lat="48.85166" lon="2.34347">
        <ele>83</ele>
        <time>2013-12-09T21:24:05.153Z</time>
      </trkpt>
      <trkpt lat="48.85172" lon="2.34351">
        <ele>82</ele>
        <time>2013-12-09T21:24:06.231Z</time>
      </trkpt>
      <trkpt lat="48.85179" lon="2.34354">
        <ele>83</ele>
        <time>2013-12-09T21:24:07.238Z</time>
      </trkpt>
      <trkpt lat="48.85186" lon="2.34357">
        <ele>84</ele>
        <time>2013-12-09T21:24:08.235Z</time>
      </trkpt>
      <trkpt lat="48.85194" lon="2.3436">
        <ele>87</ele>
        <time>2013-12-09T21:24:10.134Z</time>
      </trkpt>
      <trkpt lat="48.85202" lon="2.34364">
        <ele>88</ele>
        <time>2013-12-09T21:24:10.163Z</time>
      </trkpt>
      <trkpt lat="48.85208" lon="2.34367">
        <ele>89</ele>
        <time>2013-12-09T21:24:11.171Z</time>
      </trkpt>
      <trkpt lat="48.85217" lon="2.3437">
        <ele>91</ele>
        <time>2013-12-09T21:24:12.232Z</time>
      </trkpt>
      <trkpt lat="48.85226" lon="2.34374">
        <ele>94</ele>
        <time>2013-12-09T21:24:13.756Z</time>
      </trkpt>
      <trkpt lat="48.85231" lon="2.34377">
        <ele>95</ele>
        <time>2013-12-09T21:24:15.145Z</time>
      </trkpt>
      <trkpt lat="48.85235" lon="2.3438">
        <ele>96</ele>
        <time>2013-12-09T21:24:15.378Z</time>
      </trkpt>
      <trkpt lat="48.8524" lon="2.34383">
        <ele>97</ele>
        <time>2013-12-09T21:24:16.235Z</time>
      </trkpt>
      <trkpt lat="48.85249" lon="2.34386">
        <ele>90</ele>
        <time>2013-12-09T21:24:17.263Z</time>
      </trkpt>
      <trkpt lat="48.85258" lon="2.34387">
        <ele>92</ele>
        <time>2013-12-09T21:24:18.237Z</time>
      </trkpt>
      <trkpt lat="48.85266" lon="2.34388">
        <ele>91</ele>
        <time>2013-12-09T21:24:19.147Z</time>
      </trkpt>
      <trkpt lat="48.85274" lon="2.34389">
        <ele>91</ele>
        <time>2013-12-09T21:24:20.179Z</time>
      </trkpt>
      <trkpt lat="48.85281" lon="2.34389">
        <ele>92</ele>
        <time>2013-12-09T21:24:21.147Z</time>
      </trkpt>
      <trkpt lat="48.85287" lon="2.34389">
        <ele>94</ele>
        <time>2013-12-09T21:24:22.230Z</time>
      </trkpt>
      <trkpt lat="48.85294" lon="2.34389">
        <ele>89</ele>
        <time>2013-12-09T21:24:23.238Z</time>
      </trkpt>
      <trkpt lat="48.85302" lon="2.34389">
        <ele>83</ele>
        <time>2013-12-09T21:24:24.150Z</time>
      </trkpt>
      <trkpt lat="48.85302" lon="2.34389">
        <ele>83</ele>
        <time>2013-12-09T21:24:36.248Z</time>
      </trkpt>
      <trkpt lat="48.85383" lon="2.34447">
        <ele>78</ele>
        <time>2013-12-09T21:24:40.991Z</time>
      </trkpt>
      <trkpt lat="48.85389" lon="2.34455">
        <ele>78</ele>
        <time>2013-12-09T21:24:42.964Z</time>
      </trkpt>
      <trkpt lat="48.85391" lon="2.34458">
        <ele>77</ele>
        <time>2013-12-09T21:24:43.995Z</time>
      </trkpt>
      <trkpt lat="48.85398" lon="2.34463">
        <ele>75</ele>
        <time>2013-12-09T21:24:46.995Z</time>
      </trkpt>
      <trkpt lat="48.85399" lon="2.34465">
        <ele>75</ele>
        <time>2013-12-09T21:24:47.994Z</time>
      </trkpt>
      <trkpt lat="48.85404" lon="2.34469">
        <ele>78</ele>
        <time>2013-12-09T21:24:49.997Z</time>
      </trkpt>
      <trkpt lat="48.85407" lon="2.34471">
        <ele>77</ele>
        <time>2013-12-09T21:24:50.990Z</time>
      </trkpt>
      <trkpt lat="48.85415" lon="2.34478">
        <ele>76</ele>
        <time>2013-12-09T21:24:52.995Z</time>
      </trkpt>
      <trkpt lat="48.85419" lon="2.34482">
        <ele>76</ele>
        <time>2013-12-09T21:24:53.995Z</time>
      </trkpt>
      <trkpt lat="48.85423" lon="2.34485">
        <ele>73</ele>
        <time>2013-12-09T21:24:54.963Z</time>
      </trkpt>
      <trkpt lat="48.85428" lon="2.34488">
        <ele>74</ele>
        <time>2013-12-09T21:24:55.991Z</time>
      </trkpt>
      <trkpt lat="48.85435" lon="2.34493">
        <ele>76</ele>
        <time>2013-12-09T21:24:57.414Z</time>
      </trkpt>
      <trkpt lat="48.85441" lon="2.34497">
        <ele>76</ele>
        <time>2013-12-09T21:24:58.913Z</time>
      </trkpt>
      <trkpt lat="48.85448" lon="2.34501">
        <ele>74</ele>
        <time>2013-12-09T21:25:00.922Z</time>
      </trkpt>
      <trkpt lat="48.8545" lon="2.34504">
        <ele>78</ele>
        <time>2013-12-09T21:25:01.952Z</time>
      </trkpt>
      <trkpt lat="48.85455" lon="2.34512">
        <ele>80</ele>
        <time>2013-12-09T21:25:04.918Z</time>
      </trkpt>
      <trkpt lat="48.85457" lon="2.34515">
        <ele>81</ele>
        <time>2013-12-09T21:25:05.920Z</time>
      </trkpt>
      <trkpt lat="48.85462" lon="2.34522">
        <ele>84</ele>
        <time>2013-12-09T21:25:07.884Z</time>
      </trkpt>
      <trkpt lat="48.85465" lon="2.34525">
        <ele>86</ele>
        <time>2013-12-09T21:25:08.522Z</time>
      </trkpt>
      <trkpt lat="48.85471" lon="2.34533">
        <ele>86</ele>
        <time>2013-12-09T21:25:10.180Z</time>
      </trkpt>
      <trkpt lat="48.85473" lon="2.34538">
        <ele>85</ele>
        <time>2013-12-09T21:25:11.181Z</time>
      </trkpt>
      <trkpt lat="48.85475" lon="2.34547">
        <ele>84</ele>
        <time>2013-12-09T21:25:13.221Z</time>
      </trkpt>
      <trkpt lat="48.85476" lon="2.34551">
        <ele>77</ele>
        <time>2013-12-09T21:25:14.175Z</time>
      </trkpt>
      <trkpt lat="48.8548" lon="2.34557">
        <ele>73</ele>
        <time>2013-12-09T21:25:17.043Z</time>
      </trkpt>
      <trkpt lat="48.85483" lon="2.3456">
        <ele>75</ele>
        <time>2013-12-09T21:25:17.149Z</time>
      </trkpt>
      <trkpt lat="48.85489" lon="2.34566">
        <ele>72</ele>
        <time>2013-12-09T21:25:19.279Z</time>
      </trkpt>
      <trkpt lat="48.85492" lon="2.34571">
        <ele>72</ele>
        <time>2013-12-09T21:25:20.860Z</time>
      </trkpt>
      <trkpt lat="48.85495" lon="2.34581">
        <ele>71</ele>
        <time>2013-12-09T21:25:23.233Z</time>
      </trkpt>
      <trkpt lat="48.85497" lon="2.34586">
        <ele>70</ele>
        <time>2013-12-09T21:25:24.231Z</time>
      </trkpt>
      <trkpt lat="48.85502" lon="2.34593">
        <ele>69</ele>
        <time>2013-12-09T21:25:26.148Z</time>
      </trkpt>
      <trkpt lat="48.85513" lon="2.34595">
        <ele>70</ele>
        <time>2013-12-09T21:25:27.146Z</time>
      </trkpt>
      <trkpt lat="48.85523" lon="2.34598">
        <ele>71</ele>
        <time>2013-12-09T21:25:28.176Z</time>
      </trkpt>
      <trkpt lat="48.85531" lon="2.34601">
        <ele>73</ele>
        <time>2013-12-09T21:25:29.172Z</time>
      </trkpt>
      <trkpt lat="48.85537" lon="2.34604">
        <ele>75</ele>
        <time>2013-12-09T21:25:30.173Z</time>
      </trkpt>
      <trkpt lat="48.85542" lon="2.34607">
        <ele>77</ele>
        <time>2013-12-09T21:25:32.109Z</time>
      </trkpt>
      <trkpt lat="48.85546" lon="2.3461">
        <ele>78</ele>
        <time>2013-12-09T21:25:32.144Z</time>
      </trkpt>
      <trkpt lat="48.85551" lon="2.34619">
        <ele>80</ele>
        <time>2013-12-09T21:25:34.230Z</time>
      </trkpt>
      <trkpt lat="48.85552" lon="2.34623">
        <ele>81</ele>
        <time>2013-12-09T21:25:35.235Z</time>
      </trkpt>
      <trkpt lat="48.85551" lon="2.34632">
        <ele>81</ele>
        <time>2013-12-09T21:25:37.732Z</time>
      </trkpt>
      <trkpt lat="48.85551" lon="2.34637">
        <ele>78</ele>
        <time>2013-12-09T21:25:38.167Z</time>
      </trkpt>
      <trkpt lat="48.85556" lon="2.34645">
        <ele>70</ele>
        <time>2013-12-09T21:25:40.230Z</time>
      </trkpt>
      <trkpt lat="48.85559" lon="2.34648">
        <ele>68</ele>
        <time>2013-12-09T21:25:41.204Z</time>
      </trkpt>
      <trkpt lat="48.85564" lon="2.3465">
        <ele>65</ele>
        <time>2013-12-09T21:25:42.149Z</time>
      </trkpt>
      <trkpt lat="48.85569" lon="2.34652">
        <ele>65</ele>
        <time>2013-12-09T21:25:43.170Z</time>
      </trkpt>
      <trkpt lat="48.85575" lon="2.34654">
        <ele>66</ele>
        <time>2013-12-09T21:25:44.170Z</time>
      </trkpt>
      <trkpt lat="48.85581" lon="2.34657">
        <ele>64</ele>
        <time>2013-12-09T21:25:45.273Z</time>
      </trkpt>
      <trkpt lat="48.85586" lon="2.34659">
        <ele>64</ele>
        <time>2013-12-09T21:25:46.170Z</time>
      </trkpt>
      <trkpt lat="48.85592" lon="2.34661">
        <ele>65</ele>
        <time>2013-12-09T21:25:47.164Z</time>
      </trkpt>
      <trkpt lat="48.85597" lon="2.34663">
        <ele>65</ele>
        <time>2013-12-09T21:25:48.231Z</time>
      </trkpt>
      <trkpt lat="48.85603" lon="2.34665">
        <ele>65</ele>
        <time>2013-12-09T21:25:49.251Z</time>
      </trkpt>
      <trkpt lat="48.85608" lon="2.34666">
        <ele>65</ele>
        <time>2013-12-09T21:25:50.228Z</time>
      </trkpt>
      <trkpt lat="48.85612" lon="2.34667">
        <ele>65</ele>
        <time>2013-12-09T21:25:51.164Z</time>
      </trkpt>
      <trkpt lat="48.85617" lon="2.34669">
        <ele>65</ele>
        <time>2013-12-09T21:25:52.174Z</time>
      </trkpt>
      <trkpt lat="48.85622" lon="2.34671">
        <ele>66</ele>
        <time>2013-12-09T21:25:53.169Z</time>
      </trkpt>
      <trkpt lat="48.85626" lon="2.34673">
        <ele>69</ele>
        <time>2013-12-09T21:25:54.446Z</time>
      </trkpt>
      <trkpt lat="48.85631" lon="2.34675">
        <ele>70</ele>
        <time>2013-12-09T21:25:55.164Z</time>
      </trkpt>
      <trkpt lat="48.85636" lon="2.34678">
        <ele>71</ele>
        <time>2013-12-09T21:25:57.148Z</time>
      </trkpt>
      <trkpt lat="48.85645" lon="2.34683">
        <ele>74</ele>
        <time>2013-12-09T21:25:58.247Z</time>
      </trkpt>
      <trkpt lat="48.85653" lon="2.34688">
        <ele>75</ele>
        <time>2013-12-09T21:26:00.249Z</time>
      </trkpt>
      <trkpt lat="48.85657" lon="2.3469">
        <ele>77</ele>
        <time>2013-12-09T21:26:01.176Z</time>
      </trkpt>
      <trkpt lat="48.85664" lon="2.34694">
        <ele>78</ele>
        <time>2013-12-09T21:26:03.231Z</time>
      </trkpt>
      <trkpt lat="48.85666" lon="2.34695">
        <ele>78</ele>
        <time>2013-12-09T21:26:04.265Z</time>
      </trkpt>
      <trkpt lat="48.85674" lon="2.34699">
        <ele>76</ele>
        <time>2013-12-09T21:26:07.197Z</time>
      </trkpt>
      <trkpt lat="48.85677" lon="2.34701">
        <ele>76</ele>
        <time>2013-12-09T21:26:08.147Z</time>
      </trkpt>
      <trkpt lat="48.85683" lon="2.34704">
        <ele>78</ele>
        <time>2013-12-09T21:26:10.171Z</time>
      </trkpt>
      <trkpt lat="48.85686" lon="2.34706">
        <ele>80</ele>
        <time>2013-12-09T21:26:11.225Z</time>
      </trkpt>
      <trkpt lat="48.85692" lon="2.34709">
        <ele>82</ele>
        <time>2013-12-09T21:26:13.173Z</time>
      </trkpt>
      <trkpt lat="48.85696" lon="2.34711">
        <ele>80</ele>
        <time>2013-12-09T21:26:14.198Z</time>
      </trkpt>
      <trkpt lat="48.85701" lon="2.34715">
        <ele>82</ele>
        <time>2013-12-09T21:26:16.173Z</time>
      </trkpt>
      <trkpt lat="48.85704" lon="2.34717">
        <ele>82</ele>
        <time>2013-12-09T21:26:17.150Z</time>
      </trkpt>
      <trkpt lat="48.85711" lon="2.34725">
        <ele>79</ele>
        <time>2013-12-09T21:26:24.229Z</time>
      </trkpt>
      <trkpt lat="48.85712" lon="2.34726">
        <ele>78</ele>
        <time>2013-12-09T21:26:25.246Z</time>
      </trkpt>
      <trkpt lat="48.8572" lon="2.34732">
        <ele>78</ele>
        <time>2013-12-09T21:26:33.576Z</time>
      </trkpt>
      <trkpt lat="48.8572" lon="2.34733">
        <ele>78</ele>
        <time>2013-12-09T21:26:34.538Z</time>
      </trkpt>
      <trkpt lat="48.85726" lon="2.34738">
        <ele>76</ele>
        <time>2013-12-09T21:26:37.564Z</time>
      </trkpt>
      <trkpt lat="48.85729" lon="2.34741">
        <ele>76</ele>
        <time>2013-12-09T21:26:38.556Z</time>
      </trkpt>
      <trkpt lat="48.85736" lon="2.34748">
        <ele>74</ele>
        <time>2013-12-09T21:26:41.369Z</time>
      </trkpt>
      <trkpt lat="48.85739" lon="2.3475">
        <ele>74</ele>
        <time>2013-12-09T21:26:41.537Z</time>
      </trkpt>
      <trkpt lat="48.85746" lon="2.34755">
        <ele>73</ele>
        <time>2013-12-09T21:26:43.537Z</time>
      </trkpt>
      <trkpt lat="48.85749" lon="2.34757">
        <ele>74</ele>
        <time>2013-12-09T21:26:44.556Z</time>
      </trkpt>
      <trkpt lat="48.85757" lon="2.34759">
        <ele>73</ele>
        <time>2013-12-09T21:26:46.535Z</time>
      </trkpt>
      <trkpt lat="48.8576" lon="2.3476">
        <ele>75</ele>
        <time>2013-12-09T21:26:47.570Z</time>
      </trkpt>
      <trkpt lat="48.85769" lon="2.34759">
        <ele>78</ele>
        <time>2013-12-09T21:26:51.538Z</time>
      </trkpt>
      <trkpt lat="48.85771" lon="2.34758">
        <ele>78</ele>
        <time>2013-12-09T21:26:52.573Z</time>
      </trkpt>
      <trkpt lat="48.85777" lon="2.34753">
        <ele>79</ele>
        <time>2013-12-09T21:26:56.534Z</time>
      </trkpt>
      <trkpt lat="48.85778" lon="2.3475">
        <ele>81</ele>
        <time>2013-12-09T21:26:57.538Z</time>
      </trkpt>
      <trkpt lat="48.85782" lon="2.34738">
        <ele>81</ele>
        <time>2013-12-09T21:27:01.646Z</time>
      </trkpt>
      <trkpt lat="48.85783" lon="2.34735">
        <ele>83</ele>
        <time>2013-12-09T21:27:02.572Z</time>
      </trkpt>
      <trkpt lat="48.85785" lon="2.34723">
        <ele>84</ele>
        <time>2013-12-09T21:27:07.233Z</time>
      </trkpt>
      <trkpt lat="48.85785" lon="2.34722">
        <ele>83</ele>
        <time>2013-12-09T21:27:08.245Z</time>
      </trkpt>
      <trkpt lat="48.85792" lon="2.34722">
        <ele>86</ele>
        <time>2013-12-09T21:27:22.230Z</time>
      </trkpt>
      <trkpt lat="48.85795" lon="2.34723">
        <ele>86</ele>
        <time>2013-12-09T21:27:23.231Z</time>
      </trkpt>
      <trkpt lat="48.85803" lon="2.34724">
        <ele>85</ele>
        <time>2013-12-09T21:27:25.242Z</time>
      </trkpt>
      <trkpt lat="48.85808" lon="2.34724">
        <ele>87</ele>
        <time>2013-12-09T21:27:26.156Z</time>
      </trkpt>
      <trkpt lat="48.85813" lon="2.34724">
        <ele>88</ele>
        <time>2013-12-09T21:27:27.230Z</time>
      </trkpt>
      <trkpt lat="48.85817" lon="2.34725">
        <ele>89</ele>
        <time>2013-12-09T21:27:28.232Z</time>
      </trkpt>
      <trkpt lat="48.85825" lon="2.34727">
        <ele>94</ele>
        <time>2013-12-09T21:27:30.266Z</time>
      </trkpt>
      <trkpt lat="48.85828" lon="2.34728">
        <ele>93</ele>
        <time>2013-12-09T21:27:31.178Z</time>
      </trkpt>
      <trkpt lat="48.85836" lon="2.3473">
        <ele>89</ele>
        <time>2013-12-09T21:27:33.238Z</time>
      </trkpt>
      <trkpt lat="48.85839" lon="2.34731">
        <ele>90</ele>
        <time>2013-12-09T21:27:34.485Z</time>
      </trkpt>
      <trkpt lat="48.85846" lon="2.34733">
        <ele>90</ele>
        <time>2013-12-09T21:27:36.562Z</time>
      </trkpt>
      <trkpt lat="48.85849" lon="2.34733">
        <ele>91</ele>
        <time>2013-12-09T21:27:37.230Z</time>
      </trkpt>
      <trkpt lat="48.85857" lon="2.34734">
        <ele>93</ele>
        <time>2013-12-09T21:27:39.290Z</time>
      </trkpt>
      <trkpt lat="48.85861" lon="2.34734">
        <ele>92</ele>
        <time>2013-12-09T21:27:40.230Z</time>
      </trkpt>
      <trkpt lat="48.85866" lon="2.34735">
        <ele>93</ele>
        <time>2013-12-09T21:27:41.604Z</time>
      </trkpt>
      <trkpt lat="48.85871" lon="2.34735">
        <ele>94</ele>
        <time>2013-12-09T21:27:42.249Z</time>
      </trkpt>
      <trkpt lat="48.85879" lon="2.34735">
        <ele>94</ele>
        <time>2013-12-09T21:27:44.235Z</time>
      </trkpt>
      <trkpt lat="48.85884" lon="2.34734">
        <ele>94</ele>
        <time>2013-12-09T21:27:45.229Z</time>
      </trkpt>
      <trkpt lat="48.85888" lon="2.34734">
        <ele>92</ele>
        <time>2013-12-09T21:27:46.616Z</time>
      </trkpt>
      <trkpt lat="48.85893" lon="2.34733">
        <ele>91</ele>
        <time>2013-12-09T21:27:47.231Z</time>
      </trkpt>
      <trkpt lat="48.85898" lon="2.34733">
        <ele>90</ele>
        <time>2013-12-09T21:27:48.230Z</time>
      </trkpt>
      <trkpt lat="48.85903" lon="2.34732">
        <ele>89</ele>
        <time>2013-12-09T21:27:49.235Z</time>
      </trkpt>
      <trkpt lat="48.85907" lon="2.34731">
        <ele>89</ele>
        <time>2013-12-09T21:27:50.233Z</time>
      </trkpt>
      <trkpt lat="48.85912" lon="2.34731">
        <ele>90</ele>
        <time>2013-12-09T21:27:51.180Z</time>
      </trkpt>
      <trkpt lat="48.85919" lon="2.34727">
        <ele>89</ele>
        <time>2013-12-09T21:27:53.230Z</time>
      </trkpt>
      <trkpt lat="48.85922" lon="2.34724">
        <ele>87</ele>
        <time>2013-12-09T21:27:54.237Z</time>
      </trkpt>
      <trkpt lat="48.85927" lon="2.34715">
        <ele>88</ele>
        <time>2013-12-09T21:27:57.890Z</time>
      </trkpt>
      <trkpt lat="48.85929" lon="2.34713">
        <ele>88</ele>
        <time>2013-12-09T21:27:58.919Z</time>
      </trkpt>
      <trkpt lat="48.85935" lon="2.34708">
        <ele>89</ele>
        <time>2013-12-09T21:28:02.240Z</time>
      </trkpt>
      <trkpt lat="48.85937" lon="2.34708">
        <ele>89</ele>
        <time>2013-12-09T21:28:02.486Z</time>
      </trkpt>
      <trkpt lat="48.85945" lon="2.34708">
        <ele>88</ele>
        <time>2013-12-09T21:28:05.242Z</time>
      </trkpt>
      <trkpt lat="48.85946" lon="2.34708">
        <ele>89</ele>
        <time>2013-12-09T21:28:06.179Z</time>
      </trkpt>
      <trkpt lat="48.85955" lon="2.34705">
        <ele>101</ele>
        <time>2013-12-09T21:28:17.237Z</time>
      </trkpt>
      <trkpt lat="48.85955" lon="2.34705">
        <ele>101</ele>
        <time>2013-12-09T21:28:18.154Z</time>
      </trkpt>
      <trkpt lat="48.85954" lon="2.34709">
        <ele>102</ele>
        <time>2013-12-09T21:28:29.147Z</time>
      </trkpt>
      <trkpt lat="48.85954" lon="2.34709">
        <ele>102</ele>
        <time>2013-12-09T21:28:30.149Z</time>
      </trkpt>
      <trkpt lat="48.85954" lon="2.34709">
        <ele>102</ele>
        <time>2013-12-09T21:28:47.629Z</time>
      </trkpt>
      <trkpt lat="48.85954" lon="2.3471">
        <ele>101</ele>
        <time>2013-12-09T21:28:48.153Z</time>
      </trkpt>
    </trkseg>
  </trk>
</gpx>